<?xml version="1.0" encoding="UTF-8"?>
<gpx version="1.1" creator="https://www.youtrack.es" xsi:schemaLocation="http://www.topografix.com/GPX/1/1 http://www.topografix.com/GPX/1/1/gpx.xsd http://www.garmin.com/xmlschemas/GpxExtensions/v3 http://www.garmin.com/xmlschemas/GpxExtensionsv3.xsd http://www.garmin.com/xmlschemas/TrackPointExtension/v1 http://www.garmin.com/xmlschemas/TrackPointExtensionv1.xsd" xmlns:gpxtpx="http://www.garmin.com/xmlschemas/TrackPointExtension/v1" xmlns:gpxx="http://www.garmin.com/xmlschemas/GpxExtensions/v3" xmlns:xsi="http://www.w3.org/2001/XMLSchema-instance">
  <metadata>
    <link href="https://www.youtrack.es">
      <text>YouTrack.es</text>
    </link>
    <time>2026-05-08T08:15:09Z</time>
  </metadata>
  <trk>
    <src>https://www.youtrack.es</src>
    <link href="https://www.youtrack.es/ruta/5592-jeffreykef">
      <text>YouTrack.es</text>
    </link>
    <trkseg>
      <trkpt lat="41.7591863405" lon="2.3947044555">
        <ele>513.60</ele>
        <time>2019-05-04T06:42:24Z</time>
      </trkpt>
      <trkpt lat="41.7591917887" lon="2.3946971633">
        <ele>513.60</ele>
        <time>2019-05-04T06:42:25Z</time>
      </trkpt>
      <trkpt lat="41.7592974845" lon="2.3945949040">
        <ele>514.22</ele>
        <time>2019-05-04T06:42:40Z</time>
      </trkpt>
      <trkpt lat="41.7593464348" lon="2.3946419265">
        <ele>515.07</ele>
        <time>2019-05-04T06:42:49Z</time>
      </trkpt>
      <trkpt lat="41.7593063693" lon="2.3949401546">
        <ele>517.06</ele>
        <time>2019-05-04T06:43:08Z</time>
      </trkpt>
      <trkpt lat="41.7593181878" lon="2.3951079603">
        <ele>518.05</ele>
        <time>2019-05-04T06:43:20Z</time>
      </trkpt>
      <trkpt lat="41.7593303416" lon="2.3952066991">
        <ele>518.73</ele>
        <time>2019-05-04T06:43:29Z</time>
      </trkpt>
      <trkpt lat="41.7593464348" lon="2.3952933680">
        <ele>519.29</ele>
        <time>2019-05-04T06:43:38Z</time>
      </trkpt>
      <trkpt lat="41.7594142444" lon="2.3952891771">
        <ele>521.31</ele>
        <time>2019-05-04T06:43:48Z</time>
      </trkpt>
      <trkpt lat="41.7594704870" lon="2.3953051027">
        <ele>522.37</ele>
        <time>2019-05-04T06:43:56Z</time>
      </trkpt>
      <trkpt lat="41.7594958842" lon="2.3952530511">
        <ele>522.45</ele>
        <time>2019-05-04T06:44:00Z</time>
      </trkpt>
      <trkpt lat="41.7595662083" lon="2.3951747641">
        <ele>522.86</ele>
        <time>2019-05-04T06:44:07Z</time>
      </trkpt>
      <trkpt lat="41.7596990615" lon="2.3950869218">
        <ele>524.49</ele>
        <time>2019-05-04T06:44:20Z</time>
      </trkpt>
      <trkpt lat="41.7597937770" lon="2.3950516339">
        <ele>525.76</ele>
        <time>2019-05-04T06:44:29Z</time>
      </trkpt>
      <trkpt lat="41.7598385364" lon="2.3950214591">
        <ele>526.50</ele>
        <time>2019-05-04T06:44:33Z</time>
      </trkpt>
      <trkpt lat="41.7599942721" lon="2.3949658033">
        <ele>529.09</ele>
        <time>2019-05-04T06:44:48Z</time>
      </trkpt>
      <trkpt lat="41.7601200007" lon="2.3949927930">
        <ele>531.46</ele>
        <time>2019-05-04T06:45:02Z</time>
      </trkpt>
      <trkpt lat="41.7602233496" lon="2.3950477783">
        <ele>534.34</ele>
        <time>2019-05-04T06:45:16Z</time>
      </trkpt>
      <trkpt lat="41.7603618186" lon="2.3950965609">
        <ele>536.68</ele>
        <time>2019-05-04T06:45:29Z</time>
      </trkpt>
      <trkpt lat="41.7604106013" lon="2.3951278254">
        <ele>537.55</ele>
        <time>2019-05-04T06:45:34Z</time>
      </trkpt>
      <trkpt lat="41.7605012096" lon="2.3951228801">
        <ele>538.47</ele>
        <time>2019-05-04T06:45:43Z</time>
      </trkpt>
      <trkpt lat="41.7605323903" lon="2.3950990755">
        <ele>538.67</ele>
        <time>2019-05-04T06:45:45Z</time>
      </trkpt>
      <trkpt lat="41.7605836876" lon="2.3948527314">
        <ele>541.88</ele>
        <time>2019-05-04T06:46:06Z</time>
      </trkpt>
      <trkpt lat="41.7606659140" lon="2.3946505599">
        <ele>543.33</ele>
        <time>2019-05-04T06:46:22Z</time>
      </trkpt>
      <trkpt lat="41.7608104181" lon="2.3944223206">
        <ele>545.51</ele>
        <time>2019-05-04T06:46:42Z</time>
      </trkpt>
      <trkpt lat="41.7609342188" lon="2.3941090889">
        <ele>547.37</ele>
        <time>2019-05-04T06:47:00Z</time>
      </trkpt>
      <trkpt lat="41.7610824108" lon="2.3939772416">
        <ele>549.04</ele>
        <time>2019-05-04T06:47:14Z</time>
      </trkpt>
      <trkpt lat="41.7612517253" lon="2.3939845338">
        <ele>551.93</ele>
        <time>2019-05-04T06:47:29Z</time>
      </trkpt>
      <trkpt lat="41.7613814771" lon="2.3940356635">
        <ele>553.37</ele>
        <time>2019-05-04T06:47:39Z</time>
      </trkpt>
      <trkpt lat="41.7614853289" lon="2.3940791655">
        <ele>555.09</ele>
        <time>2019-05-04T06:47:48Z</time>
      </trkpt>
      <trkpt lat="41.7616313417" lon="2.3940805066">
        <ele>556.60</ele>
        <time>2019-05-04T06:48:00Z</time>
      </trkpt>
      <trkpt lat="41.7618068587" lon="2.3940858711">
        <ele>559.07</ele>
        <time>2019-05-04T06:48:16Z</time>
      </trkpt>
      <trkpt lat="41.7618521210" lon="2.3940948397">
        <ele>559.87</ele>
        <time>2019-05-04T06:48:20Z</time>
      </trkpt>
      <trkpt lat="41.7620046716" lon="2.3940665089">
        <ele>563.17</ele>
        <time>2019-05-04T06:48:34Z</time>
      </trkpt>
      <trkpt lat="41.7620943580" lon="2.3940531816">
        <ele>565.40</ele>
        <time>2019-05-04T06:48:42Z</time>
      </trkpt>
      <trkpt lat="41.7621151451" lon="2.3940484039">
        <ele>565.84</ele>
        <time>2019-05-04T06:48:44Z</time>
      </trkpt>
      <trkpt lat="41.7623279616" lon="2.3940364178">
        <ele>569.08</ele>
        <time>2019-05-04T06:49:02Z</time>
      </trkpt>
      <trkpt lat="41.7625091784" lon="2.3940035608">
        <ele>571.62</ele>
        <time>2019-05-04T06:49:17Z</time>
      </trkpt>
      <trkpt lat="41.7626239266" lon="2.3939712904">
        <ele>573.55</ele>
        <time>2019-05-04T06:49:29Z</time>
      </trkpt>
      <trkpt lat="41.7626882158" lon="2.3939474020">
        <ele>574.56</ele>
        <time>2019-05-04T06:49:35Z</time>
      </trkpt>
      <trkpt lat="41.7627150379" lon="2.3939432949">
        <ele>574.82</ele>
        <time>2019-05-04T06:49:37Z</time>
      </trkpt>
      <trkpt lat="41.7627663352" lon="2.3939311411">
        <ele>575.47</ele>
        <time>2019-05-04T06:49:42Z</time>
      </trkpt>
      <trkpt lat="41.7629037984" lon="2.3938562069">
        <ele>577.70</ele>
        <time>2019-05-04T06:49:55Z</time>
      </trkpt>
      <trkpt lat="41.7631210573" lon="2.3937466554">
        <ele>580.90</ele>
        <time>2019-05-04T06:50:13Z</time>
      </trkpt>
      <trkpt lat="41.7632863484" lon="2.3937203363">
        <ele>583.50</ele>
        <time>2019-05-04T06:50:28Z</time>
      </trkpt>
      <trkpt lat="41.7634655535" lon="2.3937329929">
        <ele>585.92</ele>
        <time>2019-05-04T06:50:43Z</time>
      </trkpt>
      <trkpt lat="41.7635034397" lon="2.3937420454">
        <ele>586.27</ele>
        <time>2019-05-04T06:50:46Z</time>
      </trkpt>
      <trkpt lat="41.7635498755" lon="2.3937681131">
        <ele>586.88</ele>
        <time>2019-05-04T06:50:50Z</time>
      </trkpt>
      <trkpt lat="41.7637143284" lon="2.3937316518">
        <ele>588.15</ele>
        <time>2019-05-04T06:51:03Z</time>
      </trkpt>
      <trkpt lat="41.7637482751" lon="2.3937398661">
        <ele>588.54</ele>
        <time>2019-05-04T06:51:06Z</time>
      </trkpt>
      <trkpt lat="41.7637680564" lon="2.3937748186">
        <ele>588.82</ele>
        <time>2019-05-04T06:51:09Z</time>
      </trkpt>
      <trkpt lat="41.7637382168" lon="2.3938287143">
        <ele>589.25</ele>
        <time>2019-05-04T06:51:13Z</time>
      </trkpt>
      <trkpt lat="41.7635856662" lon="2.3939844500">
        <ele>592.12</ele>
        <time>2019-05-04T06:51:29Z</time>
      </trkpt>
      <trkpt lat="41.7634231411" lon="2.3940227553">
        <ele>594.20</ele>
        <time>2019-05-04T06:51:43Z</time>
      </trkpt>
      <trkpt lat="41.7633137573" lon="2.3940449674">
        <ele>595.35</ele>
        <time>2019-05-04T06:51:53Z</time>
      </trkpt>
      <trkpt lat="41.7633031122" lon="2.3940826021">
        <ele>595.77</ele>
        <time>2019-05-04T06:51:56Z</time>
      </trkpt>
      <trkpt lat="41.7634542380" lon="2.3940849490">
        <ele>597.07</ele>
        <time>2019-05-04T06:52:09Z</time>
      </trkpt>
      <trkpt lat="41.7634890229" lon="2.3940859549">
        <ele>597.50</ele>
        <time>2019-05-04T06:52:12Z</time>
      </trkpt>
      <trkpt lat="41.7636501230" lon="2.3941475619">
        <ele>599.88</ele>
        <time>2019-05-04T06:52:27Z</time>
      </trkpt>
      <trkpt lat="41.7637174297" lon="2.3941836040">
        <ele>600.42</ele>
        <time>2019-05-04T06:52:32Z</time>
      </trkpt>
      <trkpt lat="41.7637953814" lon="2.3942605499">
        <ele>601.81</ele>
        <time>2019-05-04T06:52:41Z</time>
      </trkpt>
      <trkpt lat="41.7640144844" lon="2.3943737056">
        <ele>604.49</ele>
        <time>2019-05-04T06:53:02Z</time>
      </trkpt>
      <trkpt lat="41.7640607525" lon="2.3943804111">
        <ele>605.02</ele>
        <time>2019-05-04T06:53:05Z</time>
      </trkpt>
      <trkpt lat="41.7640527897" lon="2.3944678344">
        <ele>607.30</ele>
        <time>2019-05-04T06:53:17Z</time>
      </trkpt>
      <trkpt lat="41.7639896739" lon="2.3945084028">
        <ele>608.31</ele>
        <time>2019-05-04T06:53:22Z</time>
      </trkpt>
      <trkpt lat="41.7639179248" lon="2.3945338000">
        <ele>609.95</ele>
        <time>2019-05-04T06:53:30Z</time>
      </trkpt>
      <trkpt lat="41.7636978999" lon="2.3944947403">
        <ele>613.18</ele>
        <time>2019-05-04T06:53:51Z</time>
      </trkpt>
      <trkpt lat="41.7634880170" lon="2.3945117556">
        <ele>615.28</ele>
        <time>2019-05-04T06:54:09Z</time>
      </trkpt>
      <trkpt lat="41.7634637095" lon="2.3945301119">
        <ele>615.65</ele>
        <time>2019-05-04T06:54:12Z</time>
      </trkpt>
      <trkpt lat="41.7634408269" lon="2.3947446048">
        <ele>617.57</ele>
        <time>2019-05-04T06:54:27Z</time>
      </trkpt>
      <trkpt lat="41.7633967381" lon="2.3948854208">
        <ele>618.55</ele>
        <time>2019-05-04T06:54:38Z</time>
      </trkpt>
      <trkpt lat="41.7633561697" lon="2.3949972354">
        <ele>619.47</ele>
        <time>2019-05-04T06:54:46Z</time>
      </trkpt>
      <trkpt lat="41.7632975802" lon="2.3951638676">
        <ele>621.29</ele>
        <time>2019-05-04T06:54:59Z</time>
      </trkpt>
      <trkpt lat="41.7631780542" lon="2.3953498621">
        <ele>624.35</ele>
        <time>2019-05-04T06:55:16Z</time>
      </trkpt>
      <trkpt lat="41.7630773876" lon="2.3955077771">
        <ele>626.98</ele>
        <time>2019-05-04T06:55:29Z</time>
      </trkpt>
      <trkpt lat="41.7629717756" lon="2.3956366070">
        <ele>628.55</ele>
        <time>2019-05-04T06:55:41Z</time>
      </trkpt>
      <trkpt lat="41.7628401797" lon="2.3957728129">
        <ele>630.20</ele>
        <time>2019-05-04T06:55:54Z</time>
      </trkpt>
      <trkpt lat="41.7628046405" lon="2.3957986291">
        <ele>630.32</ele>
        <time>2019-05-04T06:55:57Z</time>
      </trkpt>
      <trkpt lat="41.7627354898" lon="2.3958360963">
        <ele>630.80</ele>
        <time>2019-05-04T06:56:02Z</time>
      </trkpt>
      <trkpt lat="41.7627105117" lon="2.3958508484">
        <ele>630.95</ele>
        <time>2019-05-04T06:56:04Z</time>
      </trkpt>
      <trkpt lat="41.7626645789" lon="2.3958917521">
        <ele>631.24</ele>
        <time>2019-05-04T06:56:08Z</time>
      </trkpt>
      <trkpt lat="41.7625686899" lon="2.3959848750">
        <ele>631.47</ele>
        <time>2019-05-04T06:56:17Z</time>
      </trkpt>
      <trkpt lat="41.7625209130" lon="2.3960538581">
        <ele>631.58</ele>
        <time>2019-05-04T06:56:23Z</time>
      </trkpt>
      <trkpt lat="41.7624846194" lon="2.3963355739">
        <ele>631.67</ele>
        <time>2019-05-04T06:56:39Z</time>
      </trkpt>
      <trkpt lat="41.7624622397" lon="2.3963919841">
        <ele>631.89</ele>
        <time>2019-05-04T06:56:43Z</time>
      </trkpt>
      <trkpt lat="41.7624354176" lon="2.3964691814">
        <ele>632.41</ele>
        <time>2019-05-04T06:56:48Z</time>
      </trkpt>
      <trkpt lat="41.7623369303" lon="2.3967127595">
        <ele>634.41</ele>
        <time>2019-05-04T06:57:04Z</time>
      </trkpt>
      <trkpt lat="41.7623307277" lon="2.3967658170">
        <ele>634.58</ele>
        <time>2019-05-04T06:57:07Z</time>
      </trkpt>
      <trkpt lat="41.7622751556" lon="2.3969978280">
        <ele>635.18</ele>
        <time>2019-05-04T06:57:21Z</time>
      </trkpt>
      <trkpt lat="41.7622011434" lon="2.3971191142">
        <ele>635.14</ele>
        <time>2019-05-04T06:57:30Z</time>
      </trkpt>
      <trkpt lat="41.7621439788" lon="2.3972043581">
        <ele>635.13</ele>
        <time>2019-05-04T06:57:36Z</time>
      </trkpt>
      <trkpt lat="41.7621839605" lon="2.3974601738">
        <ele>636.19</ele>
        <time>2019-05-04T06:57:53Z</time>
      </trkpt>
      <trkpt lat="41.7621979583" lon="2.3974678852">
        <ele>636.26</ele>
        <time>2019-05-04T06:57:54Z</time>
      </trkpt>
      <trkpt lat="41.7622325756" lon="2.3975040112">
        <ele>636.41</ele>
        <time>2019-05-04T06:57:57Z</time>
      </trkpt>
      <trkpt lat="41.7622527760" lon="2.3975213617">
        <ele>636.43</ele>
        <time>2019-05-04T06:57:59Z</time>
      </trkpt>
      <trkpt lat="41.7623167299" lon="2.3975790292">
        <ele>636.17</ele>
        <time>2019-05-04T06:58:05Z</time>
      </trkpt>
      <trkpt lat="41.7623932566" lon="2.3976425640">
        <ele>635.57</ele>
        <time>2019-05-04T06:58:12Z</time>
      </trkpt>
      <trkpt lat="41.7624887265" lon="2.3977366090">
        <ele>635.84</ele>
        <time>2019-05-04T06:58:21Z</time>
      </trkpt>
      <trkpt lat="41.7626040615" lon="2.3978597391">
        <ele>636.19</ele>
        <time>2019-05-04T06:58:33Z</time>
      </trkpt>
      <trkpt lat="41.7626663391" lon="2.3979239445">
        <ele>636.54</ele>
        <time>2019-05-04T06:58:40Z</time>
      </trkpt>
      <trkpt lat="41.7626778223" lon="2.3979895748">
        <ele>636.81</ele>
        <time>2019-05-04T06:58:44Z</time>
      </trkpt>
      <trkpt lat="41.7626087554" lon="2.3980542831">
        <ele>637.94</ele>
        <time>2019-05-04T06:58:56Z</time>
      </trkpt>
      <trkpt lat="41.7625931650" lon="2.3980284669">
        <ele>638.29</ele>
        <time>2019-05-04T06:58:59Z</time>
      </trkpt>
      <trkpt lat="41.7625718750" lon="2.3980029859">
        <ele>638.51</ele>
        <time>2019-05-04T06:59:01Z</time>
      </trkpt>
      <trkpt lat="41.7624906544" lon="2.3979618307">
        <ele>639.57</ele>
        <time>2019-05-04T06:59:08Z</time>
      </trkpt>
      <trkpt lat="41.7624371778" lon="2.3979571369">
        <ele>640.03</ele>
        <time>2019-05-04T06:59:13Z</time>
      </trkpt>
      <trkpt lat="41.7622894049" lon="2.3979790974">
        <ele>641.61</ele>
        <time>2019-05-04T06:59:27Z</time>
      </trkpt>
      <trkpt lat="41.7621840443" lon="2.3980243597">
        <ele>642.65</ele>
        <time>2019-05-04T06:59:37Z</time>
      </trkpt>
      <trkpt lat="41.7621656880" lon="2.3980581388">
        <ele>642.96</ele>
        <time>2019-05-04T06:59:40Z</time>
      </trkpt>
      <trkpt lat="41.7622445617" lon="2.3980889004">
        <ele>644.18</ele>
        <time>2019-05-04T06:59:50Z</time>
      </trkpt>
      <trkpt lat="41.7623734754" lon="2.3981790058">
        <ele>647.19</ele>
        <time>2019-05-04T07:00:07Z</time>
      </trkpt>
      <trkpt lat="41.7624427099" lon="2.3982514255">
        <ele>648.38</ele>
        <time>2019-05-04T07:00:15Z</time>
      </trkpt>
      <trkpt lat="41.7625410296" lon="2.3983269464">
        <ele>650.06</ele>
        <time>2019-05-04T07:00:26Z</time>
      </trkpt>
      <trkpt lat="41.7626505811" lon="2.3984391801">
        <ele>651.94</ele>
        <time>2019-05-04T07:00:39Z</time>
      </trkpt>
      <trkpt lat="41.7627645750" lon="2.3985600471">
        <ele>653.27</ele>
        <time>2019-05-04T07:00:52Z</time>
      </trkpt>
      <trkpt lat="41.7628792394" lon="2.3986748792">
        <ele>655.35</ele>
        <time>2019-05-04T07:01:05Z</time>
      </trkpt>
      <trkpt lat="41.7630244978" lon="2.3988125939">
        <ele>658.56</ele>
        <time>2019-05-04T07:01:21Z</time>
      </trkpt>
      <trkpt lat="41.7632026132" lon="2.3989782203">
        <ele>661.62</ele>
        <time>2019-05-04T07:01:37Z</time>
      </trkpt>
      <trkpt lat="41.7632478755" lon="2.3991490435">
        <ele>664.65</ele>
        <time>2019-05-04T07:01:56Z</time>
      </trkpt>
      <trkpt lat="41.7631780542" lon="2.3991843313">
        <ele>666.25</ele>
        <time>2019-05-04T07:02:04Z</time>
      </trkpt>
      <trkpt lat="41.7631452810" lon="2.3992114048">
        <ele>666.63</ele>
        <time>2019-05-04T07:02:08Z</time>
      </trkpt>
      <trkpt lat="41.7631082330" lon="2.3993162625">
        <ele>667.63</ele>
        <time>2019-05-04T07:02:19Z</time>
      </trkpt>
      <trkpt lat="41.7632041220" lon="2.3995075375">
        <ele>670.13</ele>
        <time>2019-05-04T07:02:35Z</time>
      </trkpt>
      <trkpt lat="41.7633166071" lon="2.3997365311">
        <ele>673.03</ele>
        <time>2019-05-04T07:02:54Z</time>
      </trkpt>
      <trkpt lat="41.7633910384" lon="2.3999630101">
        <ele>675.30</ele>
        <time>2019-05-04T07:03:09Z</time>
      </trkpt>
      <trkpt lat="41.7634547409" lon="2.4002145510">
        <ele>678.34</ele>
        <time>2019-05-04T07:03:26Z</time>
      </trkpt>
      <trkpt lat="41.7635314353" lon="2.4003965221">
        <ele>681.15</ele>
        <time>2019-05-04T07:03:41Z</time>
      </trkpt>
      <trkpt lat="41.7636473570" lon="2.4005489051">
        <ele>683.02</ele>
        <time>2019-05-04T07:03:55Z</time>
      </trkpt>
      <trkpt lat="41.7637325171" lon="2.4007016234">
        <ele>685.54</ele>
        <time>2019-05-04T07:04:09Z</time>
      </trkpt>
      <trkpt lat="41.7637388874" lon="2.4007559381">
        <ele>686.21</ele>
        <time>2019-05-04T07:04:13Z</time>
      </trkpt>
      <trkpt lat="41.7637538910" lon="2.4009306170">
        <ele>687.91</ele>
        <time>2019-05-04T07:04:24Z</time>
      </trkpt>
      <trkpt lat="41.7638333514" lon="2.4011822417">
        <ele>689.79</ele>
        <time>2019-05-04T07:04:42Z</time>
      </trkpt>
      <trkpt lat="41.7638782784" lon="2.4014305137">
        <ele>692.77</ele>
        <time>2019-05-04T07:05:00Z</time>
      </trkpt>
      <trkpt lat="41.7638977244" lon="2.4016804621">
        <ele>695.82</ele>
        <time>2019-05-04T07:05:19Z</time>
      </trkpt>
      <trkpt lat="41.7638768535" lon="2.4017747585">
        <ele>696.95</ele>
        <time>2019-05-04T07:05:25Z</time>
      </trkpt>
      <trkpt lat="41.7638268974" lon="2.4018148240">
        <ele>697.42</ele>
        <time>2019-05-04T07:05:30Z</time>
      </trkpt>
      <trkpt lat="41.7637308408" lon="2.4018950388">
        <ele>698.68</ele>
        <time>2019-05-04T07:05:45Z</time>
      </trkpt>
      <trkpt lat="41.7637145799" lon="2.4020631798">
        <ele>700.28</ele>
        <time>2019-05-04T07:05:57Z</time>
      </trkpt>
      <trkpt lat="41.7637059465" lon="2.4021069333">
        <ele>700.78</ele>
        <time>2019-05-04T07:06:00Z</time>
      </trkpt>
      <trkpt lat="41.7635963112" lon="2.4023981206">
        <ele>703.19</ele>
        <time>2019-05-04T07:06:18Z</time>
      </trkpt>
      <trkpt lat="41.7634758633" lon="2.4026800040">
        <ele>706.27</ele>
        <time>2019-05-04T07:06:40Z</time>
      </trkpt>
      <trkpt lat="41.7633907869" lon="2.4029154517">
        <ele>709.35</ele>
        <time>2019-05-04T07:06:59Z</time>
      </trkpt>
      <trkpt lat="41.7632984184" lon="2.4031018652">
        <ele>712.02</ele>
        <time>2019-05-04T07:07:17Z</time>
      </trkpt>
      <trkpt lat="41.7632284295" lon="2.4033054616">
        <ele>714.81</ele>
        <time>2019-05-04T07:07:36Z</time>
      </trkpt>
      <trkpt lat="41.7631719355" lon="2.4034019373">
        <ele>717.84</ele>
        <time>2019-05-04T07:07:54Z</time>
      </trkpt>
      <trkpt lat="41.7632334586" lon="2.4034424219">
        <ele>721.01</ele>
        <time>2019-05-04T07:08:09Z</time>
      </trkpt>
      <trkpt lat="41.7633281741" lon="2.4033610336">
        <ele>724.09</ele>
        <time>2019-05-04T07:08:27Z</time>
      </trkpt>
      <trkpt lat="41.7635305133" lon="2.4033503886">
        <ele>727.07</ele>
        <time>2019-05-04T07:08:47Z</time>
      </trkpt>
      <trkpt lat="41.7637107242" lon="2.4033801444">
        <ele>728.93</ele>
        <time>2019-05-04T07:09:03Z</time>
      </trkpt>
      <trkpt lat="41.7639651988" lon="2.4033965729">
        <ele>731.70</ele>
        <time>2019-05-04T07:09:25Z</time>
      </trkpt>
      <trkpt lat="41.7642277200" lon="2.4034362193">
        <ele>734.45</ele>
        <time>2019-05-04T07:09:48Z</time>
      </trkpt>
      <trkpt lat="41.7642365210" lon="2.4034352973">
        <ele>734.54</ele>
        <time>2019-05-04T07:09:49Z</time>
      </trkpt>
      <trkpt lat="41.7642892431" lon="2.4034332857">
        <ele>734.92</ele>
        <time>2019-05-04T07:09:53Z</time>
      </trkpt>
      <trkpt lat="41.7644853797" lon="2.4034232274">
        <ele>737.59</ele>
        <time>2019-05-04T07:10:13Z</time>
      </trkpt>
      <trkpt lat="41.7646103539" lon="2.4034169409">
        <ele>739.27</ele>
        <time>2019-05-04T07:10:27Z</time>
      </trkpt>
      <trkpt lat="41.7646479048" lon="2.4034292623">
        <ele>740.73</ele>
        <time>2019-05-04T07:10:45Z</time>
      </trkpt>
      <trkpt lat="41.7646553647" lon="2.4034280889">
        <ele>740.67</ele>
        <time>2019-05-04T07:11:08Z</time>
      </trkpt>
      <trkpt lat="41.7645609006" lon="2.4035233073">
        <ele>741.17</ele>
        <time>2019-05-04T07:11:29Z</time>
      </trkpt>
      <trkpt lat="41.7645293009" lon="2.4035815615">
        <ele>742.05</ele>
        <time>2019-05-04T07:11:34Z</time>
      </trkpt>
      <trkpt lat="41.7644149717" lon="2.4037089664">
        <ele>743.74</ele>
        <time>2019-05-04T07:11:48Z</time>
      </trkpt>
      <trkpt lat="41.7643122934" lon="2.4038236309">
        <ele>745.60</ele>
        <time>2019-05-04T07:12:01Z</time>
      </trkpt>
      <trkpt lat="41.7641687114" lon="2.4040547200">
        <ele>748.62</ele>
        <time>2019-05-04T07:12:22Z</time>
      </trkpt>
      <trkpt lat="41.7640519515" lon="2.4042920116">
        <ele>751.66</ele>
        <time>2019-05-04T07:12:40Z</time>
      </trkpt>
      <trkpt lat="41.7640022468" lon="2.4044387788">
        <ele>754.14</ele>
        <time>2019-05-04T07:12:52Z</time>
      </trkpt>
      <trkpt lat="41.7639626842" lon="2.4044992123">
        <ele>755.20</ele>
        <time>2019-05-04T07:12:58Z</time>
      </trkpt>
      <trkpt lat="41.7639499437" lon="2.4045296386">
        <ele>755.68</ele>
        <time>2019-05-04T07:13:01Z</time>
      </trkpt>
      <trkpt lat="41.7638879176" lon="2.4045899883">
        <ele>758.28</ele>
        <time>2019-05-04T07:13:12Z</time>
      </trkpt>
      <trkpt lat="41.7639247142" lon="2.4047676846">
        <ele>761.38</ele>
        <time>2019-05-04T07:13:31Z</time>
      </trkpt>
      <trkpt lat="41.7639493570" lon="2.4048595503">
        <ele>762.12</ele>
        <time>2019-05-04T07:13:39Z</time>
      </trkpt>
      <trkpt lat="41.7639475130" lon="2.4051955808">
        <ele>764.39</ele>
        <time>2019-05-04T07:14:02Z</time>
      </trkpt>
      <trkpt lat="41.7640108801" lon="2.4055119976">
        <ele>767.31</ele>
        <time>2019-05-04T07:14:23Z</time>
      </trkpt>
      <trkpt lat="41.7640170828" lon="2.4058051128">
        <ele>770.32</ele>
        <time>2019-05-04T07:14:42Z</time>
      </trkpt>
      <trkpt lat="41.7640581541" lon="2.4060190190">
        <ele>773.33</ele>
        <time>2019-05-04T07:14:59Z</time>
      </trkpt>
      <trkpt lat="41.7639102973" lon="2.4062255491">
        <ele>776.33</ele>
        <time>2019-05-04T07:15:20Z</time>
      </trkpt>
      <trkpt lat="41.7639060225" lon="2.4064568896">
        <ele>777.91</ele>
        <time>2019-05-04T07:15:40Z</time>
      </trkpt>
      <trkpt lat="41.7638744228" lon="2.4063615035">
        <ele>777.88</ele>
        <time>2019-05-04T07:15:51Z</time>
      </trkpt>
      <trkpt lat="41.7638779432" lon="2.4062808696">
        <ele>777.50</ele>
        <time>2019-05-04T07:15:56Z</time>
      </trkpt>
      <trkpt lat="41.7639070284" lon="2.4062447436">
        <ele>777.31</ele>
        <time>2019-05-04T07:15:59Z</time>
      </trkpt>
      <trkpt lat="41.7640268058" lon="2.4062474258">
        <ele>777.04</ele>
        <time>2019-05-04T07:16:12Z</time>
      </trkpt>
      <trkpt lat="41.7640704755" lon="2.4062625133">
        <ele>777.42</ele>
        <time>2019-05-04T07:16:16Z</time>
      </trkpt>
      <trkpt lat="41.7641778477" lon="2.4062158260">
        <ele>779.80</ele>
        <time>2019-05-04T07:16:29Z</time>
      </trkpt>
      <trkpt lat="41.7643039953" lon="2.4060641974">
        <ele>782.64</ele>
        <time>2019-05-04T07:16:49Z</time>
      </trkpt>
      <trkpt lat="41.7644370161" lon="2.4057940487">
        <ele>785.80</ele>
        <time>2019-05-04T07:17:12Z</time>
      </trkpt>
      <trkpt lat="41.7645329889" lon="2.4055828247">
        <ele>788.03</ele>
        <time>2019-05-04T07:17:30Z</time>
      </trkpt>
      <trkpt lat="41.7646604776" lon="2.4054610357">
        <ele>790.90</ele>
        <time>2019-05-04T07:17:51Z</time>
      </trkpt>
      <trkpt lat="41.7646220047" lon="2.4054917973">
        <ele>790.87</ele>
        <time>2019-05-04T07:18:09Z</time>
      </trkpt>
      <trkpt lat="41.7645224277" lon="2.4055968225">
        <ele>788.39</ele>
        <time>2019-05-04T07:18:27Z</time>
      </trkpt>
      <trkpt lat="41.7644668557" lon="2.4057242274">
        <ele>787.33</ele>
        <time>2019-05-04T07:18:39Z</time>
      </trkpt>
      <trkpt lat="41.7644655146" lon="2.4058010895">
        <ele>786.56</ele>
        <time>2019-05-04T07:18:44Z</time>
      </trkpt>
      <trkpt lat="41.7644315679" lon="2.4058808014">
        <ele>785.98</ele>
        <time>2019-05-04T07:18:49Z</time>
      </trkpt>
      <trkpt lat="41.7643837072" lon="2.4060897622">
        <ele>783.87</ele>
        <time>2019-05-04T07:19:03Z</time>
      </trkpt>
      <trkpt lat="41.7643054202" lon="2.4062027503">
        <ele>781.95</ele>
        <time>2019-05-04T07:19:16Z</time>
      </trkpt>
      <trkpt lat="41.7642540392" lon="2.4061925244">
        <ele>781.80</ele>
        <time>2019-05-04T07:19:18Z</time>
      </trkpt>
      <trkpt lat="41.7642011493" lon="2.4062066898">
        <ele>781.53</ele>
        <time>2019-05-04T07:19:21Z</time>
      </trkpt>
      <trkpt lat="41.7640117183" lon="2.4062133115">
        <ele>778.96</ele>
        <time>2019-05-04T07:19:39Z</time>
      </trkpt>
      <trkpt lat="41.7639241274" lon="2.4062043428">
        <ele>777.17</ele>
        <time>2019-05-04T07:20:00Z</time>
      </trkpt>
      <trkpt lat="41.7638709024" lon="2.4062201846">
        <ele>777.25</ele>
        <time>2019-05-04T07:20:18Z</time>
      </trkpt>
      <trkpt lat="41.7638547253" lon="2.4062686320">
        <ele>777.41</ele>
        <time>2019-05-04T07:20:31Z</time>
      </trkpt>
      <trkpt lat="41.7638650350" lon="2.4064279720">
        <ele>777.59</ele>
        <time>2019-05-04T07:20:43Z</time>
      </trkpt>
      <trkpt lat="41.7640064377" lon="2.4066085182">
        <ele>779.12</ele>
        <time>2019-05-04T07:20:59Z</time>
      </trkpt>
      <trkpt lat="41.7640914302" lon="2.4067414552">
        <ele>780.22</ele>
        <time>2019-05-04T07:21:11Z</time>
      </trkpt>
      <trkpt lat="41.7640998960" lon="2.4067930877">
        <ele>780.58</ele>
        <time>2019-05-04T07:21:14Z</time>
      </trkpt>
      <trkpt lat="41.7641327530" lon="2.4069679342">
        <ele>782.55</ele>
        <time>2019-05-04T07:21:25Z</time>
      </trkpt>
      <trkpt lat="41.7641400453" lon="2.4069958460">
        <ele>782.80</ele>
        <time>2019-05-04T07:21:27Z</time>
      </trkpt>
      <trkpt lat="41.7641435657" lon="2.4070796650">
        <ele>783.36</ele>
        <time>2019-05-04T07:21:32Z</time>
      </trkpt>
      <trkpt lat="41.7641491815" lon="2.4071087502">
        <ele>783.71</ele>
        <time>2019-05-04T07:21:34Z</time>
      </trkpt>
      <trkpt lat="41.7641442362" lon="2.4073678348">
        <ele>785.03</ele>
        <time>2019-05-04T07:21:48Z</time>
      </trkpt>
      <trkpt lat="41.7641598266" lon="2.4075440224">
        <ele>786.35</ele>
        <time>2019-05-04T07:21:58Z</time>
      </trkpt>
      <trkpt lat="41.7641530372" lon="2.4076092336">
        <ele>786.81</ele>
        <time>2019-05-04T07:22:02Z</time>
      </trkpt>
      <trkpt lat="41.7641468346" lon="2.4078471959">
        <ele>788.30</ele>
        <time>2019-05-04T07:22:16Z</time>
      </trkpt>
      <trkpt lat="41.7641631793" lon="2.4079166818">
        <ele>788.78</ele>
        <time>2019-05-04T07:22:21Z</time>
      </trkpt>
      <trkpt lat="41.7641557194" lon="2.4079684820">
        <ele>789.22</ele>
        <time>2019-05-04T07:22:25Z</time>
      </trkpt>
      <trkpt lat="41.7641389556" lon="2.4080442544">
        <ele>789.63</ele>
        <time>2019-05-04T07:22:29Z</time>
      </trkpt>
      <trkpt lat="41.7641290650" lon="2.4081123155">
        <ele>790.06</ele>
        <time>2019-05-04T07:22:33Z</time>
      </trkpt>
      <trkpt lat="41.7641154863" lon="2.4083056860">
        <ele>791.05</ele>
        <time>2019-05-04T07:22:44Z</time>
      </trkpt>
      <trkpt lat="41.7641314957" lon="2.4085056782">
        <ele>792.43</ele>
        <time>2019-05-04T07:22:56Z</time>
      </trkpt>
      <trkpt lat="41.7641329207" lon="2.4085216876">
        <ele>792.55</ele>
        <time>2019-05-04T07:22:57Z</time>
      </trkpt>
      <trkpt lat="41.7641237844" lon="2.4086436443">
        <ele>792.90</ele>
        <time>2019-05-04T07:23:04Z</time>
      </trkpt>
      <trkpt lat="41.7641037516" lon="2.4086987134">
        <ele>793.03</ele>
        <time>2019-05-04T07:23:08Z</time>
      </trkpt>
      <trkpt lat="41.7640820425" lon="2.4087599851">
        <ele>793.27</ele>
        <time>2019-05-04T07:23:12Z</time>
      </trkpt>
      <trkpt lat="41.7640743311" lon="2.4088799302">
        <ele>794.03</ele>
        <time>2019-05-04T07:23:19Z</time>
      </trkpt>
      <trkpt lat="41.7640758399" lon="2.4090019707">
        <ele>794.78</ele>
        <time>2019-05-04T07:23:26Z</time>
      </trkpt>
      <trkpt lat="41.7640806176" lon="2.4091324769">
        <ele>796.02</ele>
        <time>2019-05-04T07:23:40Z</time>
      </trkpt>
      <trkpt lat="41.7640773486" lon="2.4094491452">
        <ele>797.02</ele>
        <time>2019-05-04T07:24:00Z</time>
      </trkpt>
      <trkpt lat="41.7640704755" lon="2.4095970858">
        <ele>798.61</ele>
        <time>2019-05-04T07:24:13Z</time>
      </trkpt>
      <trkpt lat="41.7640826292" lon="2.4098114111">
        <ele>801.09</ele>
        <time>2019-05-04T07:24:29Z</time>
      </trkpt>
      <trkpt lat="41.7640274763" lon="2.4099955615">
        <ele>802.90</ele>
        <time>2019-05-04T07:24:40Z</time>
      </trkpt>
      <trkpt lat="41.7639917694" lon="2.4101077113">
        <ele>804.55</ele>
        <time>2019-05-04T07:24:48Z</time>
      </trkpt>
      <trkpt lat="41.7639840581" lon="2.4101540633">
        <ele>804.86</ele>
        <time>2019-05-04T07:24:51Z</time>
      </trkpt>
      <trkpt lat="41.7640138138" lon="2.4102505390">
        <ele>806.32</ele>
        <time>2019-05-04T07:24:58Z</time>
      </trkpt>
      <trkpt lat="41.7641773447" lon="2.4103426561">
        <ele>808.81</ele>
        <time>2019-05-04T07:25:11Z</time>
      </trkpt>
      <trkpt lat="41.7642761674" lon="2.4103161693">
        <ele>811.48</ele>
        <time>2019-05-04T07:25:23Z</time>
      </trkpt>
      <trkpt lat="41.7644570488" lon="2.4100476131">
        <ele>814.37</ele>
        <time>2019-05-04T07:25:46Z</time>
      </trkpt>
      <trkpt lat="41.7644692026" lon="2.4098499678">
        <ele>816.24</ele>
        <time>2019-05-04T07:25:58Z</time>
      </trkpt>
      <trkpt lat="41.7644509301" lon="2.4097054638">
        <ele>817.29</ele>
        <time>2019-05-04T07:26:05Z</time>
      </trkpt>
      <trkpt lat="41.7644878104" lon="2.4096420128">
        <ele>817.76</ele>
        <time>2019-05-04T07:26:10Z</time>
      </trkpt>
      <trkpt lat="41.7645054962" lon="2.4096196331">
        <ele>817.98</ele>
        <time>2019-05-04T07:26:12Z</time>
      </trkpt>
      <trkpt lat="41.7645028979" lon="2.4095654022">
        <ele>818.32</ele>
        <time>2019-05-04T07:26:15Z</time>
      </trkpt>
      <trkpt lat="41.7645106930" lon="2.4095343053">
        <ele>818.61</ele>
        <time>2019-05-04T07:26:17Z</time>
      </trkpt>
      <trkpt lat="41.7645425443" lon="2.4094765540">
        <ele>819.41</ele>
        <time>2019-05-04T07:26:22Z</time>
      </trkpt>
      <trkpt lat="41.7646314763" lon="2.4093255121">
        <ele>821.11</ele>
        <time>2019-05-04T07:26:34Z</time>
      </trkpt>
      <trkpt lat="41.7647066619" lon="2.4092089199">
        <ele>822.16</ele>
        <time>2019-05-04T07:26:43Z</time>
      </trkpt>
      <trkpt lat="41.7647323105" lon="2.4091732968">
        <ele>822.45</ele>
        <time>2019-05-04T07:26:46Z</time>
      </trkpt>
      <trkpt lat="41.7648223322" lon="2.4090612307">
        <ele>823.06</ele>
        <time>2019-05-04T07:26:56Z</time>
      </trkpt>
      <trkpt lat="41.7648318037" lon="2.4090389349">
        <ele>823.28</ele>
        <time>2019-05-04T07:26:58Z</time>
      </trkpt>
      <trkpt lat="41.7648554407" lon="2.4088614900">
        <ele>825.07</ele>
        <time>2019-05-04T07:27:10Z</time>
      </trkpt>
      <trkpt lat="41.7648614757" lon="2.4086956121">
        <ele>826.50</ele>
        <time>2019-05-04T07:27:21Z</time>
      </trkpt>
      <trkpt lat="41.7648742162" lon="2.4084647745">
        <ele>827.68</ele>
        <time>2019-05-04T07:27:34Z</time>
      </trkpt>
      <trkpt lat="41.7649047263" lon="2.4082871620">
        <ele>828.77</ele>
        <time>2019-05-04T07:27:45Z</time>
      </trkpt>
      <trkpt lat="41.7649065703" lon="2.4082558136">
        <ele>828.93</ele>
        <time>2019-05-04T07:27:47Z</time>
      </trkpt>
      <trkpt lat="41.7649194784" lon="2.4082151614">
        <ele>829.17</ele>
        <time>2019-05-04T07:27:50Z</time>
      </trkpt>
      <trkpt lat="41.7649250943" lon="2.4081644509">
        <ele>829.87</ele>
        <time>2019-05-04T07:27:54Z</time>
      </trkpt>
      <trkpt lat="41.7650399264" lon="2.4079988245">
        <ele>832.15</ele>
        <time>2019-05-04T07:28:11Z</time>
      </trkpt>
      <trkpt lat="41.7651749589" lon="2.4077952281">
        <ele>834.71</ele>
        <time>2019-05-04T07:28:33Z</time>
      </trkpt>
      <trkpt lat="41.7651990987" lon="2.4077770393">
        <ele>835.00</ele>
        <time>2019-05-04T07:28:36Z</time>
      </trkpt>
      <trkpt lat="41.7652454507" lon="2.4078600202">
        <ele>838.02</ele>
        <time>2019-05-04T07:28:55Z</time>
      </trkpt>
      <trkpt lat="41.7652487196" lon="2.4080468528">
        <ele>841.04</ele>
        <time>2019-05-04T07:29:13Z</time>
      </trkpt>
      <trkpt lat="41.7652774695" lon="2.4083146546">
        <ele>843.84</ele>
        <time>2019-05-04T07:29:35Z</time>
      </trkpt>
      <trkpt lat="41.7652901262" lon="2.4084131420">
        <ele>844.64</ele>
        <time>2019-05-04T07:29:42Z</time>
      </trkpt>
      <trkpt lat="41.7653671559" lon="2.4085632619">
        <ele>846.03</ele>
        <time>2019-05-04T07:29:56Z</time>
      </trkpt>
      <trkpt lat="41.7654482089" lon="2.4087624159">
        <ele>847.69</ele>
        <time>2019-05-04T07:30:15Z</time>
      </trkpt>
      <trkpt lat="41.7655953113" lon="2.4089924153">
        <ele>850.12</ele>
        <time>2019-05-04T07:30:36Z</time>
      </trkpt>
      <trkpt lat="41.7657051142" lon="2.4092152063">
        <ele>852.17</ele>
        <time>2019-05-04T07:30:55Z</time>
      </trkpt>
      <trkpt lat="41.7658128217" lon="2.4095062260">
        <ele>853.93</ele>
        <time>2019-05-04T07:31:17Z</time>
      </trkpt>
      <trkpt lat="41.7658540606" lon="2.4096326251">
        <ele>854.10</ele>
        <time>2019-05-04T07:31:35Z</time>
      </trkpt>
      <trkpt lat="41.7658626940" lon="2.4096468743">
        <ele>854.46</ele>
        <time>2019-05-04T07:31:56Z</time>
      </trkpt>
      <trkpt lat="41.7658589222" lon="2.4096898735">
        <ele>854.71</ele>
        <time>2019-05-04T07:32:17Z</time>
      </trkpt>
      <trkpt lat="41.7658715788" lon="2.4096843414">
        <ele>853.79</ele>
        <time>2019-05-04T07:32:41Z</time>
      </trkpt>
      <trkpt lat="41.7658560723" lon="2.4098867644">
        <ele>855.87</ele>
        <time>2019-05-04T07:33:04Z</time>
      </trkpt>
      <trkpt lat="41.7658303399" lon="2.4101142492">
        <ele>858.57</ele>
        <time>2019-05-04T07:33:26Z</time>
      </trkpt>
      <trkpt lat="41.7657798808" lon="2.4103870802">
        <ele>861.31</ele>
        <time>2019-05-04T07:33:47Z</time>
      </trkpt>
      <trkpt lat="41.7657116521" lon="2.4107232783">
        <ele>863.42</ele>
        <time>2019-05-04T07:34:09Z</time>
      </trkpt>
      <trkpt lat="41.7656743526" lon="2.4109929241">
        <ele>865.58</ele>
        <time>2019-05-04T07:34:25Z</time>
      </trkpt>
      <trkpt lat="41.7656358797" lon="2.4112289585">
        <ele>866.42</ele>
        <time>2019-05-04T07:34:40Z</time>
      </trkpt>
      <trkpt lat="41.7656252347" lon="2.4114542641">
        <ele>866.86</ele>
        <time>2019-05-04T07:34:55Z</time>
      </trkpt>
      <trkpt lat="41.7655925453" lon="2.4116555974">
        <ele>869.04</ele>
        <time>2019-05-04T07:35:16Z</time>
      </trkpt>
      <trkpt lat="41.7655713391" lon="2.4117693398">
        <ele>872.06</ele>
        <time>2019-05-04T07:35:32Z</time>
      </trkpt>
      <trkpt lat="41.7655945569" lon="2.4119742773">
        <ele>875.22</ele>
        <time>2019-05-04T07:35:56Z</time>
      </trkpt>
      <trkpt lat="41.7655546591" lon="2.4121006764">
        <ele>877.68</ele>
        <time>2019-05-04T07:36:19Z</time>
      </trkpt>
      <trkpt lat="41.7654646374" lon="2.4122622795">
        <ele>880.13</ele>
        <time>2019-05-04T07:36:42Z</time>
      </trkpt>
      <trkpt lat="41.7653770465" lon="2.4124036822">
        <ele>883.22</ele>
        <time>2019-05-04T07:37:04Z</time>
      </trkpt>
      <trkpt lat="41.7653039563" lon="2.4125185143">
        <ele>886.24</ele>
        <time>2019-05-04T07:37:23Z</time>
      </trkpt>
      <trkpt lat="41.7652085703" lon="2.4126956239">
        <ele>889.28</ele>
        <time>2019-05-04T07:37:43Z</time>
      </trkpt>
      <trkpt lat="41.7652752064" lon="2.4127683789">
        <ele>891.95</ele>
        <time>2019-05-04T07:37:58Z</time>
      </trkpt>
      <trkpt lat="41.7653566785" lon="2.4127987213">
        <ele>893.16</ele>
        <time>2019-05-04T07:38:06Z</time>
      </trkpt>
      <trkpt lat="41.7654260807" lon="2.4128398765">
        <ele>895.08</ele>
        <time>2019-05-04T07:38:15Z</time>
      </trkpt>
      <trkpt lat="41.7654995061" lon="2.4129961152">
        <ele>898.23</ele>
        <time>2019-05-04T07:38:35Z</time>
      </trkpt>
      <trkpt lat="41.7653791420" lon="2.4130554590">
        <ele>900.86</ele>
        <time>2019-05-04T07:38:56Z</time>
      </trkpt>
      <trkpt lat="41.7652443610" lon="2.4131497554">
        <ele>903.93</ele>
        <time>2019-05-04T07:39:17Z</time>
      </trkpt>
      <trkpt lat="41.7651747074" lon="2.4132058304">
        <ele>907.10</ele>
        <time>2019-05-04T07:39:34Z</time>
      </trkpt>
      <trkpt lat="41.7651088256" lon="2.4133562017">
        <ele>910.26</ele>
        <time>2019-05-04T07:39:50Z</time>
      </trkpt>
      <trkpt lat="41.7651377432" lon="2.4135389272">
        <ele>913.17</ele>
        <time>2019-05-04T07:40:06Z</time>
      </trkpt>
      <trkpt lat="41.7652713507" lon="2.4135818426">
        <ele>914.81</ele>
        <time>2019-05-04T07:40:16Z</time>
      </trkpt>
      <trkpt lat="41.7653335445" lon="2.4136452936">
        <ele>915.82</ele>
        <time>2019-05-04T07:40:23Z</time>
      </trkpt>
      <trkpt lat="41.7653645575" lon="2.4137664959">
        <ele>917.73</ele>
        <time>2019-05-04T07:40:33Z</time>
      </trkpt>
      <trkpt lat="41.7653726041" lon="2.4138873629">
        <ele>919.62</ele>
        <time>2019-05-04T07:40:43Z</time>
      </trkpt>
      <trkpt lat="41.7653268389" lon="2.4141410831">
        <ele>922.85</ele>
        <time>2019-05-04T07:41:05Z</time>
      </trkpt>
      <trkpt lat="41.7653091531" lon="2.4142662250">
        <ele>925.45</ele>
        <time>2019-05-04T07:41:17Z</time>
      </trkpt>
      <trkpt lat="41.7653375678" lon="2.4144850764">
        <ele>928.93</ele>
        <time>2019-05-04T07:41:37Z</time>
      </trkpt>
      <trkpt lat="41.7653518170" lon="2.4147166684">
        <ele>931.99</ele>
        <time>2019-05-04T07:41:54Z</time>
      </trkpt>
      <trkpt lat="41.7653509788" lon="2.4149923492">
        <ele>935.00</ele>
        <time>2019-05-04T07:42:13Z</time>
      </trkpt>
      <trkpt lat="41.7653948162" lon="2.4152086861">
        <ele>938.08</ele>
        <time>2019-05-04T07:42:30Z</time>
      </trkpt>
      <trkpt lat="41.7654175311" lon="2.4154176470">
        <ele>940.57</ele>
        <time>2019-05-04T07:42:44Z</time>
      </trkpt>
      <trkpt lat="41.7653864343" lon="2.4156288709">
        <ele>943.51</ele>
        <time>2019-05-04T07:42:59Z</time>
      </trkpt>
      <trkpt lat="41.7653889488" lon="2.4156848621">
        <ele>944.12</ele>
        <time>2019-05-04T07:43:03Z</time>
      </trkpt>
      <trkpt lat="41.7653801478" lon="2.4158819206">
        <ele>947.47</ele>
        <time>2019-05-04T07:43:21Z</time>
      </trkpt>
      <trkpt lat="41.7653791420" lon="2.4161082320">
        <ele>950.69</ele>
        <time>2019-05-04T07:43:38Z</time>
      </trkpt>
      <trkpt lat="41.7654322833" lon="2.4162676558">
        <ele>953.72</ele>
        <time>2019-05-04T07:43:53Z</time>
      </trkpt>
      <trkpt lat="41.7655395716" lon="2.4164000060">
        <ele>956.73</ele>
        <time>2019-05-04T07:44:09Z</time>
      </trkpt>
      <trkpt lat="41.7656082194" lon="2.4164038617">
        <ele>959.80</ele>
        <time>2019-05-04T07:44:27Z</time>
      </trkpt>
      <trkpt lat="41.7656380590" lon="2.4164347071">
        <ele>960.69</ele>
        <time>2019-05-04T07:44:39Z</time>
      </trkpt>
      <trkpt lat="41.7657113168" lon="2.4164518900">
        <ele>960.86</ele>
        <time>2019-05-04T07:45:14Z</time>
      </trkpt>
      <trkpt lat="41.7657334451" lon="2.4164837413">
        <ele>959.99</ele>
        <time>2019-05-04T07:45:35Z</time>
      </trkpt>
      <trkpt lat="41.7657364625" lon="2.4165041931">
        <ele>959.74</ele>
        <time>2019-05-04T07:46:05Z</time>
      </trkpt>
      <trkpt lat="41.7657632008" lon="2.4165134132">
        <ele>959.44</ele>
        <time>2019-05-04T07:46:53Z</time>
      </trkpt>
      <trkpt lat="41.7657512147" lon="2.4165031034">
        <ele>959.43</ele>
        <time>2019-05-04T07:47:20Z</time>
      </trkpt>
      <trkpt lat="41.7657525558" lon="2.4164910335">
        <ele>959.59</ele>
        <time>2019-05-04T07:47:52Z</time>
      </trkpt>
      <trkpt lat="41.7657709960" lon="2.4164597690">
        <ele>959.87</ele>
        <time>2019-05-04T07:48:28Z</time>
      </trkpt>
      <trkpt lat="41.7658093851" lon="2.4165025167">
        <ele>959.72</ele>
        <time>2019-05-04T07:48:55Z</time>
      </trkpt>
      <trkpt lat="41.7658541445" lon="2.4165324401">
        <ele>960.66</ele>
        <time>2019-05-04T07:49:02Z</time>
      </trkpt>
      <trkpt lat="41.7658750154" lon="2.4165462703">
        <ele>960.95</ele>
        <time>2019-05-04T07:49:04Z</time>
      </trkpt>
      <trkpt lat="41.7660606746" lon="2.4166189414">
        <ele>963.58</ele>
        <time>2019-05-04T07:49:22Z</time>
      </trkpt>
      <trkpt lat="41.7662212718" lon="2.4167072866">
        <ele>966.62</ele>
        <time>2019-05-04T07:49:40Z</time>
      </trkpt>
      <trkpt lat="41.7662389576" lon="2.4167201947">
        <ele>967.05</ele>
        <time>2019-05-04T07:49:42Z</time>
      </trkpt>
      <trkpt lat="41.7662655283" lon="2.4167470168">
        <ele>967.60</ele>
        <time>2019-05-04T07:49:45Z</time>
      </trkpt>
      <trkpt lat="41.7663479224" lon="2.4168238789">
        <ele>970.19</ele>
        <time>2019-05-04T07:49:56Z</time>
      </trkpt>
      <trkpt lat="41.7664227728" lon="2.4168426543">
        <ele>971.81</ele>
        <time>2019-05-04T07:50:05Z</time>
      </trkpt>
      <trkpt lat="41.7665589787" lon="2.4167548958">
        <ele>974.93</ele>
        <time>2019-05-04T07:50:21Z</time>
      </trkpt>
      <trkpt lat="41.7667165585" lon="2.4166507926">
        <ele>976.90</ele>
        <time>2019-05-04T07:50:37Z</time>
      </trkpt>
      <trkpt lat="41.7667665984" lon="2.4166648742">
        <ele>977.92</ele>
        <time>2019-05-04T07:50:42Z</time>
      </trkpt>
      <trkpt lat="41.7668215837" lon="2.4167389702">
        <ele>979.42</ele>
        <time>2019-05-04T07:50:50Z</time>
      </trkpt>
      <trkpt lat="41.7668772396" lon="2.4169356097">
        <ele>982.75</ele>
        <time>2019-05-04T07:51:06Z</time>
      </trkpt>
      <trkpt lat="41.7668872979" lon="2.4169600848">
        <ele>983.16</ele>
        <time>2019-05-04T07:51:08Z</time>
      </trkpt>
      <trkpt lat="41.7668871302" lon="2.4170110468">
        <ele>983.75</ele>
        <time>2019-05-04T07:51:12Z</time>
      </trkpt>
      <trkpt lat="41.7669075821" lon="2.4170848075">
        <ele>984.71</ele>
        <time>2019-05-04T07:51:18Z</time>
      </trkpt>
      <trkpt lat="41.7669703625" lon="2.4171535391">
        <ele>987.39</ele>
        <time>2019-05-04T07:51:30Z</time>
      </trkpt>
      <trkpt lat="41.7670231685" lon="2.4172454048">
        <ele>990.55</ele>
        <time>2019-05-04T07:51:46Z</time>
      </trkpt>
      <trkpt lat="41.7670394294" lon="2.4173915014">
        <ele>992.86</ele>
        <time>2019-05-04T07:51:59Z</time>
      </trkpt>
      <trkpt lat="41.7670371663" lon="2.4174637534">
        <ele>994.09</ele>
        <time>2019-05-04T07:52:05Z</time>
      </trkpt>
      <trkpt lat="41.7670385912" lon="2.4174929224">
        <ele>994.48</ele>
        <time>2019-05-04T07:52:07Z</time>
      </trkpt>
      <trkpt lat="41.7670281976" lon="2.4176329840">
        <ele>996.55</ele>
        <time>2019-05-04T07:52:18Z</time>
      </trkpt>
      <trkpt lat="41.7670118529" lon="2.4177968502">
        <ele>999.62</ele>
        <time>2019-05-04T07:52:36Z</time>
      </trkpt>
      <trkpt lat="41.7670098413" lon="2.4179369956">
        <ele>1002.75</ele>
        <time>2019-05-04T07:52:50Z</time>
      </trkpt>
      <trkpt lat="41.7670722865" lon="2.4181221519">
        <ele>1005.85</ele>
        <time>2019-05-04T07:53:07Z</time>
      </trkpt>
      <trkpt lat="41.7671898007" lon="2.4182472937">
        <ele>1009.04</ele>
        <time>2019-05-04T07:53:23Z</time>
      </trkpt>
      <trkpt lat="41.7672402598" lon="2.4183205515">
        <ele>1012.18</ele>
        <time>2019-05-04T07:53:37Z</time>
      </trkpt>
      <trkpt lat="41.7672853544" lon="2.4184948113">
        <ele>1015.14</ele>
        <time>2019-05-04T07:53:54Z</time>
      </trkpt>
      <trkpt lat="41.7673196364" lon="2.4186698254">
        <ele>1018.24</ele>
        <time>2019-05-04T07:54:10Z</time>
      </trkpt>
      <trkpt lat="41.7673585285" lon="2.4188499525">
        <ele>1021.33</ele>
        <time>2019-05-04T07:54:25Z</time>
      </trkpt>
      <trkpt lat="41.7673878651" lon="2.4189249706">
        <ele>1022.38</ele>
        <time>2019-05-04T07:54:32Z</time>
      </trkpt>
      <trkpt lat="41.7675652262" lon="2.4191195983">
        <ele>1024.55</ele>
        <time>2019-05-04T07:54:49Z</time>
      </trkpt>
      <trkpt lat="41.7677038629" lon="2.4191771820">
        <ele>1026.99</ele>
        <time>2019-05-04T07:55:02Z</time>
      </trkpt>
      <trkpt lat="41.7677626200" lon="2.4192394596">
        <ele>1027.88</ele>
        <time>2019-05-04T07:55:11Z</time>
      </trkpt>
      <trkpt lat="41.7677904479" lon="2.4192485958">
        <ele>1028.55</ele>
        <time>2019-05-04T07:55:15Z</time>
      </trkpt>
      <trkpt lat="41.7678285018" lon="2.4193502683">
        <ele>1029.89</ele>
        <time>2019-05-04T07:55:25Z</time>
      </trkpt>
      <trkpt lat="41.7678191140" lon="2.4195060041">
        <ele>1032.55</ele>
        <time>2019-05-04T07:55:40Z</time>
      </trkpt>
      <trkpt lat="41.7678192817" lon="2.4196495023">
        <ele>1033.80</ele>
        <time>2019-05-04T07:55:51Z</time>
      </trkpt>
      <trkpt lat="41.7678181082" lon="2.4196873885">
        <ele>1034.40</ele>
        <time>2019-05-04T07:55:54Z</time>
      </trkpt>
      <trkpt lat="41.7678513005" lon="2.4198410287">
        <ele>1036.31</ele>
        <time>2019-05-04T07:56:06Z</time>
      </trkpt>
      <trkpt lat="41.7678746022" lon="2.4199245125">
        <ele>1037.43</ele>
        <time>2019-05-04T07:56:13Z</time>
      </trkpt>
      <trkpt lat="41.7679227982" lon="2.4200736266">
        <ele>1039.92</ele>
        <time>2019-05-04T07:56:27Z</time>
      </trkpt>
      <trkpt lat="41.7679336108" lon="2.4200913124">
        <ele>1040.26</ele>
        <time>2019-05-04T07:56:29Z</time>
      </trkpt>
      <trkpt lat="41.7679955531" lon="2.4201209843">
        <ele>1041.41</ele>
        <time>2019-05-04T07:56:37Z</time>
      </trkpt>
      <trkpt lat="41.7681139056" lon="2.4201359041">
        <ele>1042.39</ele>
        <time>2019-05-04T07:56:51Z</time>
      </trkpt>
      <trkpt lat="41.7681448348" lon="2.4201394245">
        <ele>1042.60</ele>
        <time>2019-05-04T07:56:54Z</time>
      </trkpt>
      <trkpt lat="41.7681853194" lon="2.4201475549">
        <ele>1042.86</ele>
        <time>2019-05-04T07:56:58Z</time>
      </trkpt>
      <trkpt lat="41.7683689669" lon="2.4201703537">
        <ele>1044.75</ele>
        <time>2019-05-04T07:57:17Z</time>
      </trkpt>
      <trkpt lat="41.7685356829" lon="2.4201835133">
        <ele>1046.76</ele>
        <time>2019-05-04T07:57:34Z</time>
      </trkpt>
      <trkpt lat="41.7685650196" lon="2.4201976787">
        <ele>1047.31</ele>
        <time>2019-05-04T07:57:37Z</time>
      </trkpt>
      <trkpt lat="41.7686474975" lon="2.4202240817">
        <ele>1048.63</ele>
        <time>2019-05-04T07:57:44Z</time>
      </trkpt>
      <trkpt lat="41.7687758245" lon="2.4203182943">
        <ele>1051.35</ele>
        <time>2019-05-04T07:57:59Z</time>
      </trkpt>
      <trkpt lat="41.7688698694" lon="2.4204262532">
        <ele>1054.30</ele>
        <time>2019-05-04T07:58:14Z</time>
      </trkpt>
      <trkpt lat="41.7689611483" lon="2.4205456115">
        <ele>1056.92</ele>
        <time>2019-05-04T07:58:28Z</time>
      </trkpt>
      <trkpt lat="41.7689898983" lon="2.4206629582">
        <ele>1058.88</ele>
        <time>2019-05-04T07:58:41Z</time>
      </trkpt>
      <trkpt lat="41.7688612361" lon="2.4207036104">
        <ele>1061.90</ele>
        <time>2019-05-04T07:58:57Z</time>
      </trkpt>
      <trkpt lat="41.7688055802" lon="2.4207290076">
        <ele>1063.11</ele>
        <time>2019-05-04T07:59:04Z</time>
      </trkpt>
      <trkpt lat="41.7687466554" lon="2.4207805563">
        <ele>1064.76</ele>
        <time>2019-05-04T07:59:12Z</time>
      </trkpt>
      <trkpt lat="41.7687035725" lon="2.4209128227">
        <ele>1067.60</ele>
        <time>2019-05-04T07:59:26Z</time>
      </trkpt>
      <trkpt lat="41.7687691189" lon="2.4210251402">
        <ele>1070.36</ele>
        <time>2019-05-04T07:59:41Z</time>
      </trkpt>
      <trkpt lat="41.7688225117" lon="2.4210900161">
        <ele>1072.33</ele>
        <time>2019-05-04T07:59:50Z</time>
      </trkpt>
      <trkpt lat="41.7688397784" lon="2.4211069476">
        <ele>1072.67</ele>
        <time>2019-05-04T07:59:52Z</time>
      </trkpt>
      <trkpt lat="41.7689575441" lon="2.4212061055">
        <ele>1074.65</ele>
        <time>2019-05-04T08:00:07Z</time>
      </trkpt>
      <trkpt lat="41.7690359149" lon="2.4212986417">
        <ele>1076.48</ele>
        <time>2019-05-04T08:00:19Z</time>
      </trkpt>
      <trkpt lat="41.7689572088" lon="2.4214164913">
        <ele>1079.14</ele>
        <time>2019-05-04T08:00:35Z</time>
      </trkpt>
      <trkpt lat="41.7690025549" lon="2.4215141404">
        <ele>1081.81</ele>
        <time>2019-05-04T08:00:49Z</time>
      </trkpt>
      <trkpt lat="41.7690998688" lon="2.4216024019">
        <ele>1084.73</ele>
        <time>2019-05-04T08:01:05Z</time>
      </trkpt>
      <trkpt lat="41.7692202330" lon="2.4217122048">
        <ele>1087.67</ele>
        <time>2019-05-04T08:01:23Z</time>
      </trkpt>
      <trkpt lat="41.7693125177" lon="2.4218303896">
        <ele>1090.59</ele>
        <time>2019-05-04T08:01:37Z</time>
      </trkpt>
      <trkpt lat="41.7693519127" lon="2.4218829442">
        <ele>1091.61</ele>
        <time>2019-05-04T08:01:43Z</time>
      </trkpt>
      <trkpt lat="41.7694305349" lon="2.4220385961">
        <ele>1093.56</ele>
        <time>2019-05-04T08:01:57Z</time>
      </trkpt>
      <trkpt lat="41.7695008591" lon="2.4221522547">
        <ele>1095.53</ele>
        <time>2019-05-04T08:02:09Z</time>
      </trkpt>
      <trkpt lat="41.7695368174" lon="2.4222683441">
        <ele>1097.85</ele>
        <time>2019-05-04T08:02:22Z</time>
      </trkpt>
      <trkpt lat="41.7695762124" lon="2.4224015325">
        <ele>1101.03</ele>
        <time>2019-05-04T08:02:39Z</time>
      </trkpt>
      <trkpt lat="41.7695852648" lon="2.4224586971">
        <ele>1102.41</ele>
        <time>2019-05-04T08:02:45Z</time>
      </trkpt>
      <trkpt lat="41.7696135957" lon="2.4226089008">
        <ele>1105.19</ele>
        <time>2019-05-04T08:03:00Z</time>
      </trkpt>
      <trkpt lat="41.7696674913" lon="2.4227401614">
        <ele>1108.03</ele>
        <time>2019-05-04T08:03:15Z</time>
      </trkpt>
      <trkpt lat="41.7697492149" lon="2.4228193704">
        <ele>1110.60</ele>
        <time>2019-05-04T08:03:28Z</time>
      </trkpt>
      <trkpt lat="41.7698161025" lon="2.4229143374">
        <ele>1113.09</ele>
        <time>2019-05-04T08:03:42Z</time>
      </trkpt>
      <trkpt lat="41.7698932160" lon="2.4230131600">
        <ele>1115.94</ele>
        <time>2019-05-04T08:03:57Z</time>
      </trkpt>
      <trkpt lat="41.7699688207" lon="2.4231032655">
        <ele>1118.29</ele>
        <time>2019-05-04T08:04:11Z</time>
      </trkpt>
      <trkpt lat="41.7700119875" lon="2.4231609330">
        <ele>1120.34</ele>
        <time>2019-05-04T08:04:21Z</time>
      </trkpt>
      <trkpt lat="41.7700753547" lon="2.4232523795">
        <ele>1123.43</ele>
        <time>2019-05-04T08:04:36Z</time>
      </trkpt>
      <trkpt lat="41.7701276578" lon="2.4233279005">
        <ele>1126.13</ele>
        <time>2019-05-04T08:04:50Z</time>
      </trkpt>
      <trkpt lat="41.7702241335" lon="2.4233864900">
        <ele>1128.92</ele>
        <time>2019-05-04T08:05:06Z</time>
      </trkpt>
      <trkpt lat="41.7702923622" lon="2.4234398827">
        <ele>1131.26</ele>
        <time>2019-05-04T08:05:19Z</time>
      </trkpt>
      <trkpt lat="41.7703838088" lon="2.4234854802">
        <ele>1134.03</ele>
        <time>2019-05-04T08:05:35Z</time>
      </trkpt>
      <trkpt lat="41.7704759259" lon="2.4235176668">
        <ele>1137.15</ele>
        <time>2019-05-04T08:05:51Z</time>
      </trkpt>
      <trkpt lat="41.7705144826" lon="2.4236120470">
        <ele>1139.24</ele>
        <time>2019-05-04T08:06:04Z</time>
      </trkpt>
      <trkpt lat="41.7705483455" lon="2.4237642623">
        <ele>1142.33</ele>
        <time>2019-05-04T08:06:20Z</time>
      </trkpt>
      <trkpt lat="41.7706148978" lon="2.4238738138">
        <ele>1144.79</ele>
        <time>2019-05-04T08:06:34Z</time>
      </trkpt>
      <trkpt lat="41.7706915922" lon="2.4239404500">
        <ele>1146.11</ele>
        <time>2019-05-04T08:06:44Z</time>
      </trkpt>
      <trkpt lat="41.7707874812" lon="2.4240168929">
        <ele>1148.16</ele>
        <time>2019-05-04T08:06:58Z</time>
      </trkpt>
      <trkpt lat="41.7708723899" lon="2.4240636639">
        <ele>1150.16</ele>
        <time>2019-05-04T08:07:10Z</time>
      </trkpt>
      <trkpt lat="41.7708852980" lon="2.4240713753">
        <ele>1150.52</ele>
        <time>2019-05-04T08:07:12Z</time>
      </trkpt>
      <trkpt lat="41.7709789239" lon="2.4241416156">
        <ele>1152.68</ele>
        <time>2019-05-04T08:07:26Z</time>
      </trkpt>
      <trkpt lat="41.7710616533" lon="2.4242065754">
        <ele>1155.08</ele>
        <time>2019-05-04T08:07:39Z</time>
      </trkpt>
      <trkpt lat="41.7710961867" lon="2.4242209084">
        <ele>1155.59</ele>
        <time>2019-05-04T08:07:43Z</time>
      </trkpt>
      <trkpt lat="41.7711634934" lon="2.4242516700">
        <ele>1156.75</ele>
        <time>2019-05-04T08:07:51Z</time>
      </trkpt>
      <trkpt lat="41.7711862084" lon="2.4242559448">
        <ele>1156.89</ele>
        <time>2019-05-04T08:07:53Z</time>
      </trkpt>
      <trkpt lat="41.7712079175" lon="2.4242546875">
        <ele>1157.13</ele>
        <time>2019-05-04T08:07:55Z</time>
      </trkpt>
      <trkpt lat="41.7712532636" lon="2.4242487364">
        <ele>1157.42</ele>
        <time>2019-05-04T08:07:59Z</time>
      </trkpt>
      <trkpt lat="41.7713824287" lon="2.4242558610">
        <ele>1159.02</ele>
        <time>2019-05-04T08:08:13Z</time>
      </trkpt>
      <trkpt lat="41.7714369949" lon="2.4242430367">
        <ele>1160.08</ele>
        <time>2019-05-04T08:08:19Z</time>
      </trkpt>
      <trkpt lat="41.7715185508" lon="2.4242250156">
        <ele>1161.51</ele>
        <time>2019-05-04T08:08:28Z</time>
      </trkpt>
      <trkpt lat="41.7716468778" lon="2.4241864588">
        <ele>1162.92</ele>
        <time>2019-05-04T08:08:41Z</time>
      </trkpt>
      <trkpt lat="41.7717151064" lon="2.4241499137">
        <ele>1163.09</ele>
        <time>2019-05-04T08:08:47Z</time>
      </trkpt>
      <trkpt lat="41.7717372347" lon="2.4241440464">
        <ele>1163.11</ele>
        <time>2019-05-04T08:08:49Z</time>
      </trkpt>
      <trkpt lat="41.7717584409" lon="2.4241337366">
        <ele>1163.15</ele>
        <time>2019-05-04T08:08:51Z</time>
      </trkpt>
      <trkpt lat="41.7718466185" lon="2.4241178110">
        <ele>1163.67</ele>
        <time>2019-05-04T08:09:04Z</time>
      </trkpt>
      <trkpt lat="41.7718635499" lon="2.4241137877">
        <ele>1163.72</ele>
        <time>2019-05-04T08:09:06Z</time>
      </trkpt>
      <trkpt lat="41.7718854267" lon="2.4241136201">
        <ele>1163.74</ele>
        <time>2019-05-04T08:09:08Z</time>
      </trkpt>
      <trkpt lat="41.7719295993" lon="2.4241053220">
        <ele>1163.77</ele>
        <time>2019-05-04T08:09:12Z</time>
      </trkpt>
      <trkpt lat="41.7719818186" lon="2.4241081718">
        <ele>1163.86</ele>
        <time>2019-05-04T08:09:17Z</time>
      </trkpt>
      <trkpt lat="41.7720174417" lon="2.4240865465">
        <ele>1163.92</ele>
        <time>2019-05-04T08:09:21Z</time>
      </trkpt>
      <trkpt lat="41.7720394023" lon="2.4240535218">
        <ele>1164.05</ele>
        <time>2019-05-04T08:09:24Z</time>
      </trkpt>
      <trkpt lat="41.7720410787" lon="2.4238350056">
        <ele>1164.51</ele>
        <time>2019-05-04T08:09:41Z</time>
      </trkpt>
      <trkpt lat="41.7719401605" lon="2.4236381147">
        <ele>1165.37</ele>
        <time>2019-05-04T08:09:58Z</time>
      </trkpt>
      <trkpt lat="41.7718876060" lon="2.4234451633">
        <ele>1168.37</ele>
        <time>2019-05-04T08:10:18Z</time>
      </trkpt>
      <trkpt lat="41.7718923837" lon="2.4232729990">
        <ele>1171.42</ele>
        <time>2019-05-04T08:10:34Z</time>
      </trkpt>
      <trkpt lat="41.7718954850" lon="2.4231700692">
        <ele>1174.02</ele>
        <time>2019-05-04T08:10:48Z</time>
      </trkpt>
      <trkpt lat="41.7719099857" lon="2.4230724201">
        <ele>1176.03</ele>
        <time>2019-05-04T08:11:06Z</time>
      </trkpt>
      <trkpt lat="41.7719601933" lon="2.4229499605">
        <ele>1177.39</ele>
        <time>2019-05-04T08:11:21Z</time>
      </trkpt>
      <trkpt lat="41.7719949782" lon="2.4228362180">
        <ele>1178.80</ele>
        <time>2019-05-04T08:11:38Z</time>
      </trkpt>
      <trkpt lat="41.7720228061" lon="2.4227675702">
        <ele>1179.45</ele>
        <time>2019-05-04T08:11:44Z</time>
      </trkpt>
      <trkpt lat="41.7720924597" lon="2.4226528220">
        <ele>1180.87</ele>
        <time>2019-05-04T08:11:56Z</time>
      </trkpt>
      <trkpt lat="41.7722424958" lon="2.4225307815">
        <ele>1183.47</ele>
        <time>2019-05-04T08:12:14Z</time>
      </trkpt>
      <trkpt lat="41.7723857425" lon="2.4224378262">
        <ele>1186.26</ele>
        <time>2019-05-04T08:12:31Z</time>
      </trkpt>
      <trkpt lat="41.7725018319" lon="2.4223394226">
        <ele>1188.65</ele>
        <time>2019-05-04T08:12:46Z</time>
      </trkpt>
      <trkpt lat="41.7726268061" lon="2.4222404324">
        <ele>1190.97</ele>
        <time>2019-05-04T08:13:02Z</time>
      </trkpt>
      <trkpt lat="41.7727594916" lon="2.4221599661">
        <ele>1193.66</ele>
        <time>2019-05-04T08:13:19Z</time>
      </trkpt>
      <trkpt lat="41.7728275526" lon="2.4220836069">
        <ele>1196.86</ele>
        <time>2019-05-04T08:13:32Z</time>
      </trkpt>
      <trkpt lat="41.7728962004" lon="2.4220154621">
        <ele>1199.47</ele>
        <time>2019-05-04T08:13:51Z</time>
      </trkpt>
      <trkpt lat="41.7729236931" lon="2.4219398573">
        <ele>1199.75</ele>
        <time>2019-05-04T08:14:07Z</time>
      </trkpt>
      <trkpt lat="41.7729126289" lon="2.4220660049">
        <ele>1200.28</ele>
        <time>2019-05-04T08:14:23Z</time>
      </trkpt>
      <trkpt lat="41.7729882337" lon="2.4220717885">
        <ele>1203.48</ele>
        <time>2019-05-04T08:14:40Z</time>
      </trkpt>
      <trkpt lat="41.7730681133" lon="2.4221383408">
        <ele>1206.29</ele>
        <time>2019-05-04T08:14:56Z</time>
      </trkpt>
      <trkpt lat="41.7731412873" lon="2.4221903086">
        <ele>1209.41</ele>
        <time>2019-05-04T08:15:12Z</time>
      </trkpt>
      <trkpt lat="41.7732082587" lon="2.4222612195">
        <ele>1212.43</ele>
        <time>2019-05-04T08:15:29Z</time>
      </trkpt>
      <trkpt lat="41.7732714582" lon="2.4223254248">
        <ele>1215.60</ele>
        <time>2019-05-04T08:15:44Z</time>
      </trkpt>
      <trkpt lat="41.7732998729" lon="2.4224150274">
        <ele>1218.82</ele>
        <time>2019-05-04T08:16:01Z</time>
      </trkpt>
      <trkpt lat="41.7733580433" lon="2.4224943202">
        <ele>1221.98</ele>
        <time>2019-05-04T08:16:17Z</time>
      </trkpt>
      <trkpt lat="41.7734246794" lon="2.4225437734">
        <ele>1224.98</ele>
        <time>2019-05-04T08:16:31Z</time>
      </trkpt>
      <trkpt lat="41.7735345662" lon="2.4225629680">
        <ele>1228.02</ele>
        <time>2019-05-04T08:16:48Z</time>
      </trkpt>
      <trkpt lat="41.7736459617" lon="2.4226113316">
        <ele>1230.83</ele>
        <time>2019-05-04T08:17:07Z</time>
      </trkpt>
      <trkpt lat="41.7736714426" lon="2.4226137623">
        <ele>1231.66</ele>
        <time>2019-05-04T08:17:10Z</time>
      </trkpt>
      <trkpt lat="41.7737965845" lon="2.4225791451">
        <ele>1234.86</ele>
        <time>2019-05-04T08:17:25Z</time>
      </trkpt>
      <trkpt lat="41.7739140149" lon="2.4225432705">
        <ele>1237.52</ele>
        <time>2019-05-04T08:17:41Z</time>
      </trkpt>
      <trkpt lat="41.7740052938" lon="2.4224748742">
        <ele>1240.40</ele>
        <time>2019-05-04T08:17:56Z</time>
      </trkpt>
      <trkpt lat="41.7741093971" lon="2.4224415142">
        <ele>1243.50</ele>
        <time>2019-05-04T08:18:15Z</time>
      </trkpt>
      <trkpt lat="41.7742021009" lon="2.4224225711">
        <ele>1246.59</ele>
        <time>2019-05-04T08:18:32Z</time>
      </trkpt>
      <trkpt lat="41.7742782086" lon="2.4224605411">
        <ele>1249.66</ele>
        <time>2019-05-04T08:18:48Z</time>
      </trkpt>
      <trkpt lat="41.7743616085" lon="2.4224714376">
        <ele>1252.79</ele>
        <time>2019-05-04T08:19:04Z</time>
      </trkpt>
      <trkpt lat="41.7744369619" lon="2.4225375708">
        <ele>1255.44</ele>
        <time>2019-05-04T08:19:18Z</time>
      </trkpt>
      <trkpt lat="41.7745096330" lon="2.4225818273">
        <ele>1258.71</ele>
        <time>2019-05-04T08:19:30Z</time>
      </trkpt>
      <trkpt lat="41.7745599244" lon="2.4226203002">
        <ele>1261.85</ele>
        <time>2019-05-04T08:19:41Z</time>
      </trkpt>
      <trkpt lat="41.7746269796" lon="2.4226572644">
        <ele>1265.05</ele>
        <time>2019-05-04T08:19:55Z</time>
      </trkpt>
      <trkpt lat="41.7746872455" lon="2.4227118306">
        <ele>1268.11</ele>
        <time>2019-05-04T08:20:08Z</time>
      </trkpt>
      <trkpt lat="41.7747455835" lon="2.4228155147">
        <ele>1271.21</ele>
        <time>2019-05-04T08:20:23Z</time>
      </trkpt>
      <trkpt lat="41.7747789435" lon="2.4228977412">
        <ele>1274.26</ele>
        <time>2019-05-04T08:20:36Z</time>
      </trkpt>
      <trkpt lat="41.7748462502" lon="2.4229648802">
        <ele>1277.25</ele>
        <time>2019-05-04T08:20:52Z</time>
      </trkpt>
      <trkpt lat="41.7749130540" lon="2.4230388924">
        <ele>1280.42</ele>
        <time>2019-05-04T08:21:09Z</time>
      </trkpt>
      <trkpt lat="41.7749804445" lon="2.4231155030">
        <ele>1283.66</ele>
        <time>2019-05-04T08:21:22Z</time>
      </trkpt>
      <trkpt lat="41.7750462424" lon="2.4231697340">
        <ele>1286.55</ele>
        <time>2019-05-04T08:21:36Z</time>
      </trkpt>
      <trkpt lat="41.7750816140" lon="2.4232848175">
        <ele>1289.74</ele>
        <time>2019-05-04T08:21:51Z</time>
      </trkpt>
      <trkpt lat="41.7751485016" lon="2.4233563151">
        <ele>1292.82</ele>
        <time>2019-05-04T08:22:05Z</time>
      </trkpt>
      <trkpt lat="41.7752635013" lon="2.4233788624">
        <ele>1295.94</ele>
        <time>2019-05-04T08:22:21Z</time>
      </trkpt>
      <trkpt lat="41.7753611505" lon="2.4233973026">
        <ele>1298.11</ele>
        <time>2019-05-04T08:22:34Z</time>
      </trkpt>
      <trkpt lat="41.7754575424" lon="2.4234228674">
        <ele>1301.06</ele>
        <time>2019-05-04T08:22:49Z</time>
      </trkpt>
      <trkpt lat="41.7755619809" lon="2.4234163295">
        <ele>1304.21</ele>
        <time>2019-05-04T08:23:04Z</time>
      </trkpt>
      <trkpt lat="41.7756849434" lon="2.4234078638">
        <ele>1307.30</ele>
        <time>2019-05-04T08:23:19Z</time>
      </trkpt>
      <trkpt lat="41.7758045532" lon="2.4233641941">
        <ele>1309.97</ele>
        <time>2019-05-04T08:23:35Z</time>
      </trkpt>
      <trkpt lat="41.7759246659" lon="2.4233235419">
        <ele>1312.25</ele>
        <time>2019-05-04T08:23:51Z</time>
      </trkpt>
      <trkpt lat="41.7760463711" lon="2.4233098794">
        <ele>1314.94</ele>
        <time>2019-05-04T08:24:08Z</time>
      </trkpt>
      <trkpt lat="41.7761584371" lon="2.4233049341">
        <ele>1318.16</ele>
        <time>2019-05-04T08:24:26Z</time>
      </trkpt>
      <trkpt lat="41.7761873547" lon="2.4232863262">
        <ele>1319.16</ele>
        <time>2019-05-04T08:24:30Z</time>
      </trkpt>
      <trkpt lat="41.7762021068" lon="2.4232648686">
        <ele>1319.49</ele>
        <time>2019-05-04T08:24:32Z</time>
      </trkpt>
      <trkpt lat="41.7762791365" lon="2.4233023357">
        <ele>1321.75</ele>
        <time>2019-05-04T08:24:47Z</time>
      </trkpt>
      <trkpt lat="41.7763618659" lon="2.4233318400">
        <ele>1324.83</ele>
        <time>2019-05-04T08:25:03Z</time>
      </trkpt>
      <trkpt lat="41.7764311004" lon="2.4233429041">
        <ele>1327.41</ele>
        <time>2019-05-04T08:25:19Z</time>
      </trkpt>
      <trkpt lat="41.7765060347" lon="2.4233418982">
        <ele>1330.17</ele>
        <time>2019-05-04T08:25:34Z</time>
      </trkpt>
      <trkpt lat="41.7766004149" lon="2.4233756773">
        <ele>1332.49</ele>
        <time>2019-05-04T08:25:50Z</time>
      </trkpt>
      <trkpt lat="41.7766813003" lon="2.4233859032">
        <ele>1335.50</ele>
        <time>2019-05-04T08:26:05Z</time>
      </trkpt>
      <trkpt lat="41.7767828889" lon="2.4233868252">
        <ele>1338.55</ele>
        <time>2019-05-04T08:26:22Z</time>
      </trkpt>
      <trkpt lat="41.7768838070" lon="2.4234113842">
        <ele>1341.50</ele>
        <time>2019-05-04T08:26:39Z</time>
      </trkpt>
      <trkpt lat="41.7769567296" lon="2.4234692194">
        <ele>1344.58</ele>
        <time>2019-05-04T08:26:55Z</time>
      </trkpt>
      <trkpt lat="41.7770700529" lon="2.4235088658">
        <ele>1347.70</ele>
        <time>2019-05-04T08:27:13Z</time>
      </trkpt>
      <trkpt lat="41.7771499325" lon="2.4235480931">
        <ele>1350.75</ele>
        <time>2019-05-04T08:27:31Z</time>
      </trkpt>
      <trkpt lat="41.7772160657" lon="2.4235915951">
        <ele>1353.84</ele>
        <time>2019-05-04T08:27:45Z</time>
      </trkpt>
      <trkpt lat="41.7773008067" lon="2.4236231949">
        <ele>1356.87</ele>
        <time>2019-05-04T08:28:01Z</time>
      </trkpt>
      <trkpt lat="41.7773551214" lon="2.4237162340">
        <ele>1359.89</ele>
        <time>2019-05-04T08:28:17Z</time>
      </trkpt>
      <trkpt lat="41.7773956060" lon="2.4237992987">
        <ele>1362.99</ele>
        <time>2019-05-04T08:28:34Z</time>
      </trkpt>
      <trkpt lat="41.7774425447" lon="2.4238693714">
        <ele>1366.06</ele>
        <time>2019-05-04T08:28:51Z</time>
      </trkpt>
      <trkpt lat="41.7775004636" lon="2.4239455629">
        <ele>1369.10</ele>
        <time>2019-05-04T08:29:06Z</time>
      </trkpt>
      <trkpt lat="41.7775403615" lon="2.4240508396">
        <ele>1372.13</ele>
        <time>2019-05-04T08:29:20Z</time>
      </trkpt>
      <trkpt lat="41.7775978614" lon="2.4241201580">
        <ele>1375.25</ele>
        <time>2019-05-04T08:29:34Z</time>
      </trkpt>
      <trkpt lat="41.7776416987" lon="2.4241888896">
        <ele>1378.37</ele>
        <time>2019-05-04T08:29:50Z</time>
      </trkpt>
      <trkpt lat="41.7776852008" lon="2.4242503289">
        <ele>1381.11</ele>
        <time>2019-05-04T08:30:08Z</time>
      </trkpt>
      <trkpt lat="41.7776968516" lon="2.4243217427">
        <ele>1383.67</ele>
        <time>2019-05-04T08:30:25Z</time>
      </trkpt>
      <trkpt lat="41.7776787467" lon="2.4244034663">
        <ele>1386.71</ele>
        <time>2019-05-04T08:30:42Z</time>
      </trkpt>
      <trkpt lat="41.7776836082" lon="2.4245057255">
        <ele>1389.73</ele>
        <time>2019-05-04T08:31:00Z</time>
      </trkpt>
      <trkpt lat="41.7776479013" lon="2.4246213958">
        <ele>1391.74</ele>
        <time>2019-05-04T08:31:16Z</time>
      </trkpt>
      <trkpt lat="41.7776319757" lon="2.4247720186">
        <ele>1394.33</ele>
        <time>2019-05-04T08:31:33Z</time>
      </trkpt>
      <trkpt lat="41.7776554450" lon="2.4249023572">
        <ele>1396.81</ele>
        <time>2019-05-04T08:31:49Z</time>
      </trkpt>
      <trkpt lat="41.7777193990" lon="2.4249971565">
        <ele>1399.51</ele>
        <time>2019-05-04T08:32:07Z</time>
      </trkpt>
      <trkpt lat="41.7777613085" lon="2.4250886030">
        <ele>1402.30</ele>
        <time>2019-05-04T08:32:24Z</time>
      </trkpt>
      <trkpt lat="41.7778258491" lon="2.4251503777">
        <ele>1405.29</ele>
        <time>2019-05-04T08:32:43Z</time>
      </trkpt>
      <trkpt lat="41.7778919823" lon="2.4252268206">
        <ele>1408.30</ele>
        <time>2019-05-04T08:33:02Z</time>
      </trkpt>
      <trkpt lat="41.7779528350" lon="2.4253108073">
        <ele>1411.30</ele>
        <time>2019-05-04T08:33:20Z</time>
      </trkpt>
      <trkpt lat="41.7780105863" lon="2.4254106358">
        <ele>1413.97</ele>
        <time>2019-05-04T08:33:37Z</time>
      </trkpt>
      <trkpt lat="41.7780284397" lon="2.4255372863">
        <ele>1416.66</ele>
        <time>2019-05-04T08:33:54Z</time>
      </trkpt>
      <trkpt lat="41.7780916393" lon="2.4256368633">
        <ele>1418.84</ele>
        <time>2019-05-04T08:34:09Z</time>
      </trkpt>
      <trkpt lat="41.7780840956" lon="2.4257955328">
        <ele>1420.95</ele>
        <time>2019-05-04T08:34:24Z</time>
      </trkpt>
      <trkpt lat="41.7781126779" lon="2.4259581417">
        <ele>1423.65</ele>
        <time>2019-05-04T08:34:40Z</time>
      </trkpt>
      <trkpt lat="41.7781273462" lon="2.4260810204">
        <ele>1425.72</ele>
        <time>2019-05-04T08:34:55Z</time>
      </trkpt>
      <trkpt lat="41.7781002726" lon="2.4262443837">
        <ele>1428.69</ele>
        <time>2019-05-04T08:35:13Z</time>
      </trkpt>
      <trkpt lat="41.7780656554" lon="2.4263746385">
        <ele>1430.86</ele>
        <time>2019-05-04T08:35:28Z</time>
      </trkpt>
      <trkpt lat="41.7780757975" lon="2.4265307095">
        <ele>1433.63</ele>
        <time>2019-05-04T08:35:44Z</time>
      </trkpt>
      <trkpt lat="41.7780557647" lon="2.4266989343">
        <ele>1436.44</ele>
        <time>2019-05-04T08:36:01Z</time>
      </trkpt>
      <trkpt lat="41.7780362349" lon="2.4267364852">
        <ele>1437.03</ele>
        <time>2019-05-04T08:36:05Z</time>
      </trkpt>
      <trkpt lat="41.7779830936" lon="2.4268902093">
        <ele>1439.31</ele>
        <time>2019-05-04T08:36:20Z</time>
      </trkpt>
      <trkpt lat="41.7779560201" lon="2.4270439334">
        <ele>1441.87</ele>
        <time>2019-05-04T08:36:36Z</time>
      </trkpt>
      <trkpt lat="41.7779650725" lon="2.4271780439">
        <ele>1445.02</ele>
        <time>2019-05-04T08:36:50Z</time>
      </trkpt>
      <trkpt lat="41.7779525835" lon="2.4271956459">
        <ele>1445.40</ele>
        <time>2019-05-04T08:36:52Z</time>
      </trkpt>
      <trkpt lat="41.7779236659" lon="2.4272578396">
        <ele>1446.33</ele>
        <time>2019-05-04T08:36:58Z</time>
      </trkpt>
      <trkpt lat="41.7779527511" lon="2.4274113122">
        <ele>1448.90</ele>
        <time>2019-05-04T08:37:10Z</time>
      </trkpt>
      <trkpt lat="41.7779618874" lon="2.4276025034">
        <ele>1452.17</ele>
        <time>2019-05-04T08:37:24Z</time>
      </trkpt>
      <trkpt lat="41.7779655755" lon="2.4277467560">
        <ele>1455.17</ele>
        <time>2019-05-04T08:37:39Z</time>
      </trkpt>
      <trkpt lat="41.7779693473" lon="2.4278340954">
        <ele>1457.21</ele>
        <time>2019-05-04T08:38:01Z</time>
      </trkpt>
      <trkpt lat="41.7779879551" lon="2.4279493466">
        <ele>1459.88</ele>
        <time>2019-05-04T08:38:18Z</time>
      </trkpt>
      <trkpt lat="41.7780041322" lon="2.4280474149">
        <ele>1462.97</ele>
        <time>2019-05-04T08:38:34Z</time>
      </trkpt>
      <trkpt lat="41.7780307028" lon="2.4281578045">
        <ele>1466.01</ele>
        <time>2019-05-04T08:38:51Z</time>
      </trkpt>
      <trkpt lat="41.7780169565" lon="2.4282559566">
        <ele>1469.12</ele>
        <time>2019-05-04T08:39:07Z</time>
      </trkpt>
      <trkpt lat="41.7780301999" lon="2.4283716269">
        <ele>1472.32</ele>
        <time>2019-05-04T08:39:25Z</time>
      </trkpt>
      <trkpt lat="41.7779961694" lon="2.4284941703">
        <ele>1475.12</ele>
        <time>2019-05-04T08:39:43Z</time>
      </trkpt>
      <trkpt lat="41.7779727839" lon="2.4286152888">
        <ele>1478.19</ele>
        <time>2019-05-04T08:40:00Z</time>
      </trkpt>
      <trkpt lat="41.7779390886" lon="2.4287510756">
        <ele>1480.76</ele>
        <time>2019-05-04T08:40:16Z</time>
      </trkpt>
      <trkpt lat="41.7778826784" lon="2.4288921431">
        <ele>1483.42</ele>
        <time>2019-05-04T08:40:33Z</time>
      </trkpt>
      <trkpt lat="41.7778717820" lon="2.4290348031">
        <ele>1486.50</ele>
        <time>2019-05-04T08:40:49Z</time>
      </trkpt>
      <trkpt lat="41.7778618913" lon="2.4291999266">
        <ele>1489.85</ele>
        <time>2019-05-04T08:41:07Z</time>
      </trkpt>
      <trkpt lat="41.7778580356" lon="2.4292083085">
        <ele>1490.25</ele>
        <time>2019-05-04T08:41:09Z</time>
      </trkpt>
      <trkpt lat="41.7778214067" lon="2.4293347076">
        <ele>1493.65</ele>
        <time>2019-05-04T08:41:27Z</time>
      </trkpt>
      <trkpt lat="41.7777883820" lon="2.4294353742">
        <ele>1496.78</ele>
        <time>2019-05-04T08:41:41Z</time>
      </trkpt>
      <trkpt lat="41.7777365819" lon="2.4295362085">
        <ele>1499.92</ele>
        <time>2019-05-04T08:42:01Z</time>
      </trkpt>
      <trkpt lat="41.7776708677" lon="2.4296175968">
        <ele>1503.01</ele>
        <time>2019-05-04T08:42:20Z</time>
      </trkpt>
      <trkpt lat="41.7775792535" lon="2.4297402240">
        <ele>1505.41</ele>
        <time>2019-05-04T08:42:39Z</time>
      </trkpt>
      <trkpt lat="41.7775001284" lon="2.4299506936">
        <ele>1508.55</ele>
        <time>2019-05-04T08:42:59Z</time>
      </trkpt>
      <trkpt lat="41.7774566263" lon="2.4300868157">
        <ele>1511.60</ele>
        <time>2019-05-04T08:43:15Z</time>
      </trkpt>
      <trkpt lat="41.7774148006" lon="2.4302404560">
        <ele>1514.54</ele>
        <time>2019-05-04T08:43:33Z</time>
      </trkpt>
      <trkpt lat="41.7774536088" lon="2.4303166475">
        <ele>1516.88</ele>
        <time>2019-05-04T08:43:44Z</time>
      </trkpt>
      <trkpt lat="41.7774968594" lon="2.4303951859">
        <ele>1519.86</ele>
        <time>2019-05-04T08:44:00Z</time>
      </trkpt>
      <trkpt lat="41.7775032297" lon="2.4305091798">
        <ele>1522.92</ele>
        <time>2019-05-04T08:44:16Z</time>
      </trkpt>
      <trkpt lat="41.7774955183" lon="2.4306090921">
        <ele>1525.97</ele>
        <time>2019-05-04T08:44:30Z</time>
      </trkpt>
      <trkpt lat="41.7774388567" lon="2.4306916539">
        <ele>1527.62</ele>
        <time>2019-05-04T08:44:39Z</time>
      </trkpt>
      <trkpt lat="41.7773685325" lon="2.4307636544">
        <ele>1527.91</ele>
        <time>2019-05-04T08:44:47Z</time>
      </trkpt>
      <trkpt lat="41.7773512658" lon="2.4308079947">
        <ele>1527.86</ele>
        <time>2019-05-04T08:44:50Z</time>
      </trkpt>
      <trkpt lat="41.7772692908" lon="2.4309759680">
        <ele>1530.18</ele>
        <time>2019-05-04T08:45:07Z</time>
      </trkpt>
      <trkpt lat="41.7771008983" lon="2.4310818315">
        <ele>1532.37</ele>
        <time>2019-05-04T08:45:24Z</time>
      </trkpt>
      <trkpt lat="41.7770914268" lon="2.4310796522">
        <ele>1532.73</ele>
        <time>2019-05-04T08:45:25Z</time>
      </trkpt>
      <trkpt lat="41.7770429794" lon="2.4310780596">
        <ele>1533.43</ele>
        <time>2019-05-04T08:45:30Z</time>
      </trkpt>
      <trkpt lat="41.7769382056" lon="2.4310739525">
        <ele>1535.49</ele>
        <time>2019-05-04T08:45:45Z</time>
      </trkpt>
      <trkpt lat="41.7769292369" lon="2.4310654867">
        <ele>1535.63</ele>
        <time>2019-05-04T08:45:46Z</time>
      </trkpt>
      <trkpt lat="41.7768625170" lon="2.4310441129">
        <ele>1536.16</ele>
        <time>2019-05-04T08:45:52Z</time>
      </trkpt>
      <trkpt lat="41.7766689789" lon="2.4311064743">
        <ele>1536.50</ele>
        <time>2019-05-04T08:46:11Z</time>
      </trkpt>
      <trkpt lat="41.7765671387" lon="2.4312070571">
        <ele>1539.24</ele>
        <time>2019-05-04T08:46:28Z</time>
      </trkpt>
      <trkpt lat="41.7764639575" lon="2.4312730227">
        <ele>1542.33</ele>
        <time>2019-05-04T08:46:44Z</time>
      </trkpt>
      <trkpt lat="41.7763811443" lon="2.4313599430">
        <ele>1545.33</ele>
        <time>2019-05-04T08:47:01Z</time>
      </trkpt>
      <trkpt lat="41.7763062101" lon="2.4314364698">
        <ele>1548.39</ele>
        <time>2019-05-04T08:47:17Z</time>
      </trkpt>
      <trkpt lat="41.7762305215" lon="2.4315228034">
        <ele>1551.34</ele>
        <time>2019-05-04T08:47:33Z</time>
      </trkpt>
      <trkpt lat="41.7761591077" lon="2.4315884337">
        <ele>1554.53</ele>
        <time>2019-05-04T08:47:47Z</time>
      </trkpt>
      <trkpt lat="41.7760947347" lon="2.4316744320">
        <ele>1557.24</ele>
        <time>2019-05-04T08:48:02Z</time>
      </trkpt>
      <trkpt lat="41.7760208063" lon="2.4317709077">
        <ele>1560.38</ele>
        <time>2019-05-04T08:48:18Z</time>
      </trkpt>
      <trkpt lat="41.7759814113" lon="2.4318678025">
        <ele>1563.44</ele>
        <time>2019-05-04T08:48:32Z</time>
      </trkpt>
      <trkpt lat="41.7759345565" lon="2.4319677148">
        <ele>1565.89</ele>
        <time>2019-05-04T08:48:48Z</time>
      </trkpt>
      <trkpt lat="41.7759379931" lon="2.4320758414">
        <ele>1568.36</ele>
        <time>2019-05-04T08:49:05Z</time>
      </trkpt>
      <trkpt lat="41.7760180403" lon="2.4321095366">
        <ele>1571.54</ele>
        <time>2019-05-04T08:49:22Z</time>
      </trkpt>
      <trkpt lat="41.7761113308" lon="2.4321444891">
        <ele>1574.36</ele>
        <time>2019-05-04T08:49:37Z</time>
      </trkpt>
      <trkpt lat="41.7762116622" lon="2.4321945291">
        <ele>1576.75</ele>
        <time>2019-05-04T08:49:52Z</time>
      </trkpt>
      <trkpt lat="41.7763250694" lon="2.4322381150">
        <ele>1579.76</ele>
        <time>2019-05-04T08:50:08Z</time>
      </trkpt>
      <trkpt lat="41.7764190305" lon="2.4322664458">
        <ele>1582.34</ele>
        <time>2019-05-04T08:50:22Z</time>
      </trkpt>
      <trkpt lat="41.7765330244" lon="2.4322989676">
        <ele>1584.52</ele>
        <time>2019-05-04T08:50:37Z</time>
      </trkpt>
      <trkpt lat="41.7766396422" lon="2.4323334172">
        <ele>1586.78</ele>
        <time>2019-05-04T08:50:52Z</time>
      </trkpt>
      <trkpt lat="41.7767430749" lon="2.4323713034">
        <ele>1589.59</ele>
        <time>2019-05-04T08:51:08Z</time>
      </trkpt>
      <trkpt lat="41.7768247984" lon="2.4324300606">
        <ele>1592.16</ele>
        <time>2019-05-04T08:51:22Z</time>
      </trkpt>
      <trkpt lat="41.7769390438" lon="2.4324511830">
        <ele>1594.98</ele>
        <time>2019-05-04T08:51:37Z</time>
      </trkpt>
      <trkpt lat="41.7770348489" lon="2.4324721377">
        <ele>1597.31</ele>
        <time>2019-05-04T08:51:52Z</time>
      </trkpt>
      <trkpt lat="41.7771467473" lon="2.4324663542">
        <ele>1600.14</ele>
        <time>2019-05-04T08:52:07Z</time>
      </trkpt>
      <trkpt lat="41.7772689555" lon="2.4324616604">
        <ele>1602.84</ele>
        <time>2019-05-04T08:52:24Z</time>
      </trkpt>
      <trkpt lat="41.7773610726" lon="2.4324517697">
        <ele>1605.13</ele>
        <time>2019-05-04T08:52:37Z</time>
      </trkpt>
      <trkpt lat="41.7774614878" lon="2.4324666057">
        <ele>1607.43</ele>
        <time>2019-05-04T08:52:50Z</time>
      </trkpt>
      <trkpt lat="41.7775639985" lon="2.4324833695">
        <ele>1610.12</ele>
        <time>2019-05-04T08:53:05Z</time>
      </trkpt>
      <trkpt lat="41.7775862943" lon="2.4324851297">
        <ele>1610.56</ele>
        <time>2019-05-04T08:53:08Z</time>
      </trkpt>
      <trkpt lat="41.7776898947" lon="2.4325158074">
        <ele>1613.61</ele>
        <time>2019-05-04T08:53:23Z</time>
      </trkpt>
      <trkpt lat="41.7777898069" lon="2.4325414561">
        <ele>1616.78</ele>
        <time>2019-05-04T08:53:39Z</time>
      </trkpt>
      <trkpt lat="41.7778803315" lon="2.4325550348">
        <ele>1619.49</ele>
        <time>2019-05-04T08:53:54Z</time>
      </trkpt>
      <trkpt lat="41.7779874522" lon="2.4325883947">
        <ele>1622.51</ele>
        <time>2019-05-04T08:54:10Z</time>
      </trkpt>
      <trkpt lat="41.7780574411" lon="2.4326368421">
        <ele>1625.51</ele>
        <time>2019-05-04T08:54:23Z</time>
      </trkpt>
      <trkpt lat="41.7781208921" lon="2.4326857086">
        <ele>1628.61</ele>
        <time>2019-05-04T08:54:37Z</time>
      </trkpt>
      <trkpt lat="41.7782013584" lon="2.4327132851">
        <ele>1631.69</ele>
        <time>2019-05-04T08:54:54Z</time>
      </trkpt>
      <trkpt lat="41.7783064675" lon="2.4327113573">
        <ele>1634.76</ele>
        <time>2019-05-04T08:55:09Z</time>
      </trkpt>
      <trkpt lat="41.7783409171" lon="2.4328634050">
        <ele>1637.32</ele>
        <time>2019-05-04T08:55:23Z</time>
      </trkpt>
      <trkpt lat="41.7782703415" lon="2.4330205657">
        <ele>1639.01</ele>
        <time>2019-05-04T08:55:40Z</time>
      </trkpt>
      <trkpt lat="41.7782547511" lon="2.4330385868">
        <ele>1639.36</ele>
        <time>2019-05-04T08:55:42Z</time>
      </trkpt>
      <trkpt lat="41.7781208921" lon="2.4332420155">
        <ele>1641.35</ele>
        <time>2019-05-04T08:56:01Z</time>
      </trkpt>
      <trkpt lat="41.7780457065" lon="2.4334205501">
        <ele>1643.09</ele>
        <time>2019-05-04T08:56:17Z</time>
      </trkpt>
      <trkpt lat="41.7780332174" lon="2.4336508848">
        <ele>1645.65</ele>
        <time>2019-05-04T08:56:35Z</time>
      </trkpt>
      <trkpt lat="41.7779739574" lon="2.4338645395">
        <ele>1648.19</ele>
        <time>2019-05-04T08:56:54Z</time>
      </trkpt>
      <trkpt lat="41.7778834328" lon="2.4339573272">
        <ele>1651.32</ele>
        <time>2019-05-04T08:57:11Z</time>
      </trkpt>
      <trkpt lat="41.7778113484" lon="2.4340660404">
        <ele>1653.47</ele>
        <time>2019-05-04T08:57:25Z</time>
      </trkpt>
      <trkpt lat="41.7777499929" lon="2.4341796990">
        <ele>1655.92</ele>
        <time>2019-05-04T08:57:41Z</time>
      </trkpt>
      <trkpt lat="41.7776930798" lon="2.4343052600">
        <ele>1658.14</ele>
        <time>2019-05-04T08:57:56Z</time>
      </trkpt>
      <trkpt lat="41.7776115239" lon="2.4344483390">
        <ele>1660.86</ele>
        <time>2019-05-04T08:58:16Z</time>
      </trkpt>
      <trkpt lat="41.7775064986" lon="2.4345507659">
        <ele>1663.83</ele>
        <time>2019-05-04T08:58:35Z</time>
      </trkpt>
      <trkpt lat="41.7774127889" lon="2.4346308969">
        <ele>1666.02</ele>
        <time>2019-05-04T08:58:51Z</time>
      </trkpt>
      <trkpt lat="41.7773169000" lon="2.4347335752">
        <ele>1668.77</ele>
        <time>2019-05-04T08:59:09Z</time>
      </trkpt>
      <trkpt lat="41.7772298120" lon="2.4348153826">
        <ele>1671.50</ele>
        <time>2019-05-04T08:59:25Z</time>
      </trkpt>
      <trkpt lat="41.7771602422" lon="2.4349144567">
        <ele>1673.65</ele>
        <time>2019-05-04T08:59:40Z</time>
      </trkpt>
      <trkpt lat="41.7771237809" lon="2.4349290412">
        <ele>1674.16</ele>
        <time>2019-05-04T08:59:44Z</time>
      </trkpt>
      <trkpt lat="41.7770183366" lon="2.4350330606">
        <ele>1677.38</ele>
        <time>2019-05-04T09:00:00Z</time>
      </trkpt>
      <trkpt lat="41.7769109644" lon="2.4351483956">
        <ele>1680.48</ele>
        <time>2019-05-04T09:00:16Z</time>
      </trkpt>
      <trkpt lat="41.7769045942" lon="2.4351588730">
        <ele>1680.61</ele>
        <time>2019-05-04T09:00:17Z</time>
      </trkpt>
      <trkpt lat="41.7768919375" lon="2.4351801630">
        <ele>1680.90</ele>
        <time>2019-05-04T09:00:19Z</time>
      </trkpt>
      <trkpt lat="41.7767620180" lon="2.4352986831">
        <ele>1684.26</ele>
        <time>2019-05-04T09:00:35Z</time>
      </trkpt>
      <trkpt lat="41.7766234651" lon="2.4353615474">
        <ele>1686.82</ele>
        <time>2019-05-04T09:00:52Z</time>
      </trkpt>
      <trkpt lat="41.7765072919" lon="2.4353217334">
        <ele>1689.12</ele>
        <time>2019-05-04T09:01:09Z</time>
      </trkpt>
      <trkpt lat="41.7764370516" lon="2.4352654908">
        <ele>1691.71</ele>
        <time>2019-05-04T09:01:24Z</time>
      </trkpt>
      <trkpt lat="41.7764401529" lon="2.4351857789">
        <ele>1693.51</ele>
        <time>2019-05-04T09:01:36Z</time>
      </trkpt>
      <trkpt lat="41.7765216250" lon="2.4350867048">
        <ele>1695.82</ele>
        <time>2019-05-04T09:01:51Z</time>
      </trkpt>
      <trkpt lat="41.7765165959" lon="2.4349320587">
        <ele>1698.48</ele>
        <time>2019-05-04T09:02:07Z</time>
      </trkpt>
      <trkpt lat="41.7764880974" lon="2.4348806776">
        <ele>1700.33</ele>
        <time>2019-05-04T09:02:20Z</time>
      </trkpt>
      <trkpt lat="41.7764621135" lon="2.4348788336">
        <ele>1700.39</ele>
        <time>2019-05-04T09:02:37Z</time>
      </trkpt>
      <trkpt lat="41.7764559109" lon="2.4348820187">
        <ele>1701.03</ele>
        <time>2019-05-04T09:03:00Z</time>
      </trkpt>
      <trkpt lat="41.7764830682" lon="2.4348481558">
        <ele>1701.07</ele>
        <time>2019-05-04T09:03:19Z</time>
      </trkpt>
      <trkpt lat="41.7764922883" lon="2.4348613154">
        <ele>1700.83</ele>
        <time>2019-05-04T09:03:39Z</time>
      </trkpt>
      <trkpt lat="41.7764865048" lon="2.4348792527">
        <ele>1700.71</ele>
        <time>2019-05-04T09:03:55Z</time>
      </trkpt>
      <trkpt lat="41.7765219603" lon="2.4349877983">
        <ele>1699.86</ele>
        <time>2019-05-04T09:04:11Z</time>
      </trkpt>
      <trkpt lat="41.7765075434" lon="2.4351107609">
        <ele>1697.49</ele>
        <time>2019-05-04T09:04:28Z</time>
      </trkpt>
      <trkpt lat="41.7764230538" lon="2.4351926520">
        <ele>1695.21</ele>
        <time>2019-05-04T09:04:43Z</time>
      </trkpt>
      <trkpt lat="41.7764519714" lon="2.4352715258">
        <ele>1693.28</ele>
        <time>2019-05-04T09:04:56Z</time>
      </trkpt>
      <trkpt lat="41.7765098065" lon="2.4353088252">
        <ele>1691.70</ele>
        <time>2019-05-04T09:05:06Z</time>
      </trkpt>
      <trkpt lat="41.7766349483" lon="2.4353870284">
        <ele>1688.51</ele>
        <time>2019-05-04T09:05:24Z</time>
      </trkpt>
      <trkpt lat="41.7767452542" lon="2.4353619665">
        <ele>1686.64</ele>
        <time>2019-05-04T09:05:40Z</time>
      </trkpt>
      <trkpt lat="41.7768613435" lon="2.4352695979">
        <ele>1683.75</ele>
        <time>2019-05-04T09:05:58Z</time>
      </trkpt>
      <trkpt lat="41.7769774329" lon="2.4351194780">
        <ele>1680.61</ele>
        <time>2019-05-04T09:06:18Z</time>
      </trkpt>
      <trkpt lat="41.7770129722" lon="2.4350765627">
        <ele>1679.74</ele>
        <time>2019-05-04T09:06:24Z</time>
      </trkpt>
      <trkpt lat="41.7771130521" lon="2.4349210784">
        <ele>1676.52</ele>
        <time>2019-05-04T09:06:41Z</time>
      </trkpt>
      <trkpt lat="41.7772122100" lon="2.4348212499">
        <ele>1673.45</ele>
        <time>2019-05-04T09:06:55Z</time>
      </trkpt>
      <trkpt lat="41.7773026507" lon="2.4347179849">
        <ele>1670.40</ele>
        <time>2019-05-04T09:07:10Z</time>
      </trkpt>
      <trkpt lat="41.7774396949" lon="2.4345730618">
        <ele>1667.23</ele>
        <time>2019-05-04T09:07:28Z</time>
      </trkpt>
      <trkpt lat="41.7775198258" lon="2.4345121253">
        <ele>1665.25</ele>
        <time>2019-05-04T09:07:39Z</time>
      </trkpt>
      <trkpt lat="41.7776075844" lon="2.4344160687">
        <ele>1661.95</ele>
        <time>2019-05-04T09:07:53Z</time>
      </trkpt>
      <trkpt lat="41.7777136993" lon="2.4342805333">
        <ele>1658.89</ele>
        <time>2019-05-04T09:08:09Z</time>
      </trkpt>
      <trkpt lat="41.7778042238" lon="2.4341139849">
        <ele>1655.88</ele>
        <time>2019-05-04T09:08:27Z</time>
      </trkpt>
      <trkpt lat="41.7778675072" lon="2.4339869991">
        <ele>1652.74</ele>
        <time>2019-05-04T09:08:41Z</time>
      </trkpt>
      <trkpt lat="41.7779555172" lon="2.4339207821">
        <ele>1649.71</ele>
        <time>2019-05-04T09:08:56Z</time>
      </trkpt>
      <trkpt lat="41.7779789865" lon="2.4339156691">
        <ele>1649.11</ele>
        <time>2019-05-04T09:08:59Z</time>
      </trkpt>
      <trkpt lat="41.7781109177" lon="2.4338093027">
        <ele>1645.88</ele>
        <time>2019-05-04T09:09:13Z</time>
      </trkpt>
      <trkpt lat="41.7782591935" lon="2.4337356258">
        <ele>1642.77</ele>
        <time>2019-05-04T09:09:25Z</time>
      </trkpt>
      <trkpt lat="41.7783928849" lon="2.4335912894">
        <ele>1639.65</ele>
        <time>2019-05-04T09:09:40Z</time>
      </trkpt>
      <trkpt lat="41.7785162665" lon="2.4334675726">
        <ele>1638.10</ele>
        <time>2019-05-04T09:09:53Z</time>
      </trkpt>
      <trkpt lat="41.7785300966" lon="2.4334441032">
        <ele>1638.02</ele>
        <time>2019-05-04T09:09:55Z</time>
      </trkpt>
      <trkpt lat="41.7785458546" lon="2.4334053788">
        <ele>1637.96</ele>
        <time>2019-05-04T09:09:58Z</time>
      </trkpt>
      <trkpt lat="41.7786871735" lon="2.4333690014">
        <ele>1637.13</ele>
        <time>2019-05-04T09:10:16Z</time>
      </trkpt>
      <trkpt lat="41.7787542287" lon="2.4334143475">
        <ele>1635.34</ele>
        <time>2019-05-04T09:10:30Z</time>
      </trkpt>
      <trkpt lat="41.7788532190" lon="2.4334494676">
        <ele>1632.67</ele>
        <time>2019-05-04T09:10:47Z</time>
      </trkpt>
      <trkpt lat="41.7789978068" lon="2.4334445223">
        <ele>1629.84</ele>
        <time>2019-05-04T09:11:05Z</time>
      </trkpt>
      <trkpt lat="41.7791221105" lon="2.4334653094">
        <ele>1627.77</ele>
        <time>2019-05-04T09:11:21Z</time>
      </trkpt>
      <trkpt lat="41.7791564763" lon="2.4334742781">
        <ele>1627.27</ele>
        <time>2019-05-04T09:11:26Z</time>
      </trkpt>
      <trkpt lat="41.7792688776" lon="2.4334796425">
        <ele>1625.67</ele>
        <time>2019-05-04T09:11:43Z</time>
      </trkpt>
      <trkpt lat="41.7793849669" lon="2.4334920477">
        <ele>1624.21</ele>
        <time>2019-05-04T09:11:58Z</time>
      </trkpt>
      <trkpt lat="41.7794098612" lon="2.4335107394">
        <ele>1623.82</ele>
        <time>2019-05-04T09:12:02Z</time>
      </trkpt>
      <trkpt lat="41.7795644235" lon="2.4335251562">
        <ele>1621.87</ele>
        <time>2019-05-04T09:12:18Z</time>
      </trkpt>
      <trkpt lat="41.7796671018" lon="2.4335360527">
        <ele>1619.67</ele>
        <time>2019-05-04T09:12:31Z</time>
      </trkpt>
      <trkpt lat="41.7797483224" lon="2.4335060455">
        <ele>1618.75</ele>
        <time>2019-05-04T09:12:42Z</time>
      </trkpt>
      <trkpt lat="41.7797803413" lon="2.4334928859">
        <ele>1618.72</ele>
        <time>2019-05-04T09:12:45Z</time>
      </trkpt>
      <trkpt lat="41.7798916530" lon="2.4334898684">
        <ele>1619.23</ele>
        <time>2019-05-04T09:12:56Z</time>
      </trkpt>
      <trkpt lat="41.7800212372" lon="2.4335124996">
        <ele>1619.53</ele>
        <time>2019-05-04T09:13:11Z</time>
      </trkpt>
      <trkpt lat="41.7800306249" lon="2.4335170258">
        <ele>1619.58</ele>
        <time>2019-05-04T09:13:12Z</time>
      </trkpt>
      <trkpt lat="41.7800705228" lon="2.4335268326">
        <ele>1620.01</ele>
        <time>2019-05-04T09:13:16Z</time>
      </trkpt>
      <trkpt lat="41.7802127637" lon="2.4336035270">
        <ele>1620.42</ele>
        <time>2019-05-04T09:13:32Z</time>
      </trkpt>
      <trkpt lat="41.7802958284" lon="2.4336603563">
        <ele>1621.01</ele>
        <time>2019-05-04T09:13:41Z</time>
      </trkpt>
      <trkpt lat="41.7804183718" lon="2.4337434210">
        <ele>1621.85</ele>
        <time>2019-05-04T09:13:55Z</time>
      </trkpt>
      <trkpt lat="41.7804418411" lon="2.4337704945">
        <ele>1621.98</ele>
        <time>2019-05-04T09:13:58Z</time>
      </trkpt>
      <trkpt lat="41.7805637978" lon="2.4338202830">
        <ele>1621.87</ele>
        <time>2019-05-04T09:14:13Z</time>
      </trkpt>
      <trkpt lat="41.7806778755" lon="2.4338751845">
        <ele>1622.71</ele>
        <time>2019-05-04T09:14:29Z</time>
      </trkpt>
      <trkpt lat="41.7808171827" lon="2.4339433294">
        <ele>1624.45</ele>
        <time>2019-05-04T09:14:45Z</time>
      </trkpt>
      <trkpt lat="41.7808888480" lon="2.4340071995">
        <ele>1625.19</ele>
        <time>2019-05-04T09:14:57Z</time>
      </trkpt>
      <trkpt lat="41.7809949629" lon="2.4341133144">
        <ele>1625.68</ele>
        <time>2019-05-04T09:15:14Z</time>
      </trkpt>
      <trkpt lat="41.7810785305" lon="2.4341742508">
        <ele>1625.83</ele>
        <time>2019-05-04T09:15:28Z</time>
      </trkpt>
      <trkpt lat="41.7810870800" lon="2.4341813754">
        <ele>1625.96</ele>
        <time>2019-05-04T09:15:29Z</time>
      </trkpt>
      <trkpt lat="41.7811145727" lon="2.4342134781">
        <ele>1626.21</ele>
        <time>2019-05-04T09:15:32Z</time>
      </trkpt>
      <trkpt lat="41.7811488546" lon="2.4342592433">
        <ele>1626.00</ele>
        <time>2019-05-04T09:15:36Z</time>
      </trkpt>
      <trkpt lat="41.7812716495" lon="2.4343314953">
        <ele>1626.05</ele>
        <time>2019-05-04T09:15:49Z</time>
      </trkpt>
      <trkpt lat="41.7813324183" lon="2.4343615863">
        <ele>1626.60</ele>
        <time>2019-05-04T09:16:04Z</time>
      </trkpt>
      <trkpt lat="41.7813960370" lon="2.4343934376">
        <ele>1626.48</ele>
        <time>2019-05-04T09:16:13Z</time>
      </trkpt>
      <trkpt lat="41.7814218532" lon="2.4344062619">
        <ele>1626.65</ele>
        <time>2019-05-04T09:16:16Z</time>
      </trkpt>
      <trkpt lat="41.7814461607" lon="2.4344259594">
        <ele>1626.73</ele>
        <time>2019-05-04T09:16:19Z</time>
      </trkpt>
      <trkpt lat="41.7815582268" lon="2.4344511889">
        <ele>1627.64</ele>
        <time>2019-05-04T09:16:33Z</time>
      </trkpt>
      <trkpt lat="41.7816558760" lon="2.4345106166">
        <ele>1627.63</ele>
        <time>2019-05-04T09:16:49Z</time>
      </trkpt>
      <trkpt lat="41.7817110289" lon="2.4345392827">
        <ele>1627.26</ele>
        <time>2019-05-04T09:16:56Z</time>
      </trkpt>
      <trkpt lat="41.7818432953" lon="2.4345847964">
        <ele>1626.31</ele>
        <time>2019-05-04T09:17:12Z</time>
      </trkpt>
      <trkpt lat="41.7819043994" lon="2.4345905799">
        <ele>1625.92</ele>
        <time>2019-05-04T09:17:26Z</time>
      </trkpt>
      <trkpt lat="41.7819456384" lon="2.4346204195">
        <ele>1624.92</ele>
        <time>2019-05-04T09:17:40Z</time>
      </trkpt>
      <trkpt lat="41.7819859553" lon="2.4346821941">
        <ele>1624.24</ele>
        <time>2019-05-04T09:17:48Z</time>
      </trkpt>
      <trkpt lat="41.7820531782" lon="2.4347320665">
        <ele>1623.78</ele>
        <time>2019-05-04T09:17:56Z</time>
      </trkpt>
      <trkpt lat="41.7821646575" lon="2.4347869679">
        <ele>1624.95</ele>
        <time>2019-05-04T09:18:12Z</time>
      </trkpt>
      <trkpt lat="41.7822305392" lon="2.4348226748">
        <ele>1627.04</ele>
        <time>2019-05-04T09:18:27Z</time>
      </trkpt>
      <trkpt lat="41.7822587863" lon="2.4348443840">
        <ele>1628.13</ele>
        <time>2019-05-04T09:18:38Z</time>
      </trkpt>
      <trkpt lat="41.7823405098" lon="2.4349106848">
        <ele>1628.15</ele>
        <time>2019-05-04T09:18:48Z</time>
      </trkpt>
      <trkpt lat="41.7824291065" lon="2.4349688552">
        <ele>1629.57</ele>
        <time>2019-05-04T09:19:02Z</time>
      </trkpt>
      <trkpt lat="41.7825280968" lon="2.4350799154">
        <ele>1631.11</ele>
        <time>2019-05-04T09:19:16Z</time>
      </trkpt>
      <trkpt lat="41.7826247402" lon="2.4351680931">
        <ele>1633.11</ele>
        <time>2019-05-04T09:19:30Z</time>
      </trkpt>
      <trkpt lat="41.7826562561" lon="2.4352365732">
        <ele>1634.19</ele>
        <time>2019-05-04T09:19:38Z</time>
      </trkpt>
      <trkpt lat="41.7827016022" lon="2.4353168719">
        <ele>1634.47</ele>
        <time>2019-05-04T09:19:46Z</time>
      </trkpt>
      <trkpt lat="41.7827703338" lon="2.4354775529">
        <ele>1635.73</ele>
        <time>2019-05-04T09:20:02Z</time>
      </trkpt>
      <trkpt lat="41.7828703299" lon="2.4356279243">
        <ele>1637.61</ele>
        <time>2019-05-04T09:20:21Z</time>
      </trkpt>
      <trkpt lat="41.7829334456" lon="2.4357226398">
        <ele>1637.46</ele>
        <time>2019-05-04T09:20:35Z</time>
      </trkpt>
      <trkpt lat="41.7830042727" lon="2.4357918743">
        <ele>1637.34</ele>
        <time>2019-05-04T09:20:47Z</time>
      </trkpt>
      <trkpt lat="41.7830227129" lon="2.4358276650">
        <ele>1637.55</ele>
        <time>2019-05-04T09:20:50Z</time>
      </trkpt>
      <trkpt lat="41.7831109744" lon="2.4359454308">
        <ele>1637.63</ele>
        <time>2019-05-04T09:21:05Z</time>
      </trkpt>
      <trkpt lat="41.7831876688" lon="2.4360718299">
        <ele>1639.30</ele>
        <time>2019-05-04T09:21:21Z</time>
      </trkpt>
      <trkpt lat="41.7832719907" lon="2.4361439142">
        <ele>1641.09</ele>
        <time>2019-05-04T09:21:36Z</time>
      </trkpt>
      <trkpt lat="41.7833389621" lon="2.4362040963">
        <ele>1641.85</ele>
        <time>2019-05-04T09:21:49Z</time>
      </trkpt>
      <trkpt lat="41.7834139802" lon="2.4362432398">
        <ele>1644.45</ele>
        <time>2019-05-04T09:22:07Z</time>
      </trkpt>
      <trkpt lat="41.7834784370" lon="2.4363011587">
        <ele>1646.51</ele>
        <time>2019-05-04T09:22:20Z</time>
      </trkpt>
      <trkpt lat="41.7835029121" lon="2.4363273941">
        <ele>1646.50</ele>
        <time>2019-05-04T09:22:34Z</time>
      </trkpt>
      <trkpt lat="41.7835304048" lon="2.4363435712">
        <ele>1646.22</ele>
        <time>2019-05-04T09:22:40Z</time>
      </trkpt>
      <trkpt lat="41.7835677043" lon="2.4363848940">
        <ele>1646.35</ele>
        <time>2019-05-04T09:22:46Z</time>
      </trkpt>
      <trkpt lat="41.7836402077" lon="2.4364177510">
        <ele>1647.57</ele>
        <time>2019-05-04T09:22:58Z</time>
      </trkpt>
      <trkpt lat="41.7837263737" lon="2.4364775140">
        <ele>1649.50</ele>
        <time>2019-05-04T09:23:12Z</time>
      </trkpt>
      <trkpt lat="41.7838083487" lon="2.4365093652">
        <ele>1651.12</ele>
        <time>2019-05-04T09:23:23Z</time>
      </trkpt>
      <trkpt lat="41.7838444747" lon="2.4365384504">
        <ele>1651.44</ele>
        <time>2019-05-04T09:23:26Z</time>
      </trkpt>
      <trkpt lat="41.7840017192" lon="2.4366047513">
        <ele>1652.54</ele>
        <time>2019-05-04T09:23:43Z</time>
      </trkpt>
      <trkpt lat="41.7840395216" lon="2.4366205931">
        <ele>1652.88</ele>
        <time>2019-05-04T09:23:48Z</time>
      </trkpt>
      <trkpt lat="41.7840611469" lon="2.4366581440">
        <ele>1653.08</ele>
        <time>2019-05-04T09:23:51Z</time>
      </trkpt>
      <trkpt lat="41.7840882204" lon="2.4367104471">
        <ele>1653.04</ele>
        <time>2019-05-04T09:23:55Z</time>
      </trkpt>
      <trkpt lat="41.7841950897" lon="2.4367712997">
        <ele>1652.42</ele>
        <time>2019-05-04T09:24:08Z</time>
      </trkpt>
      <trkpt lat="41.7842095904" lon="2.4367802683">
        <ele>1652.49</ele>
        <time>2019-05-04T09:24:10Z</time>
      </trkpt>
      <trkpt lat="41.7843495682" lon="2.4369064998">
        <ele>1652.83</ele>
        <time>2019-05-04T09:24:25Z</time>
      </trkpt>
      <trkpt lat="41.7844613828" lon="2.4370424543">
        <ele>1652.70</ele>
        <time>2019-05-04T09:24:40Z</time>
      </trkpt>
      <trkpt lat="41.7845520750" lon="2.4371038936">
        <ele>1653.06</ele>
        <time>2019-05-04T09:24:52Z</time>
      </trkpt>
      <trkpt lat="41.7846440244" lon="2.4372021295">
        <ele>1654.58</ele>
        <time>2019-05-04T09:25:06Z</time>
      </trkpt>
      <trkpt lat="41.7847310286" lon="2.4372831825">
        <ele>1654.65</ele>
        <time>2019-05-04T09:25:16Z</time>
      </trkpt>
      <trkpt lat="41.7847811524" lon="2.4373538420">
        <ele>1654.79</ele>
        <time>2019-05-04T09:25:24Z</time>
      </trkpt>
      <trkpt lat="41.7848044541" lon="2.4373825919">
        <ele>1654.79</ele>
        <time>2019-05-04T09:25:27Z</time>
      </trkpt>
      <trkpt lat="41.7848514766" lon="2.4374499824">
        <ele>1654.76</ele>
        <time>2019-05-04T09:25:33Z</time>
      </trkpt>
      <trkpt lat="41.7849134188" lon="2.4375586957">
        <ele>1654.15</ele>
        <time>2019-05-04T09:25:46Z</time>
      </trkpt>
      <trkpt lat="41.7849717569" lon="2.4376691692">
        <ele>1653.80</ele>
        <time>2019-05-04T09:25:56Z</time>
      </trkpt>
      <trkpt lat="41.7849920411" lon="2.4377208855">
        <ele>1653.58</ele>
        <time>2019-05-04T09:26:02Z</time>
      </trkpt>
      <trkpt lat="41.7850421648" lon="2.4378024414">
        <ele>1653.60</ele>
        <time>2019-05-04T09:26:09Z</time>
      </trkpt>
      <trkpt lat="41.7851243913" lon="2.4379914533">
        <ele>1654.11</ele>
        <time>2019-05-04T09:26:25Z</time>
      </trkpt>
      <trkpt lat="41.7852003314" lon="2.4381176848">
        <ele>1654.07</ele>
        <time>2019-05-04T09:26:41Z</time>
      </trkpt>
      <trkpt lat="41.7852662131" lon="2.4382344447">
        <ele>1652.63</ele>
        <time>2019-05-04T09:26:54Z</time>
      </trkpt>
      <trkpt lat="41.7852740083" lon="2.4383671302">
        <ele>1652.43</ele>
        <time>2019-05-04T09:27:08Z</time>
      </trkpt>
      <trkpt lat="41.7852768581" lon="2.4384786934">
        <ele>1651.50</ele>
        <time>2019-05-04T09:27:23Z</time>
      </trkpt>
      <trkpt lat="41.7852820549" lon="2.4386008177">
        <ele>1649.43</ele>
        <time>2019-05-04T09:27:39Z</time>
      </trkpt>
      <trkpt lat="41.7852906045" lon="2.4387484230">
        <ele>1647.75</ele>
        <time>2019-05-04T09:27:56Z</time>
      </trkpt>
      <trkpt lat="41.7853474338" lon="2.4388991296">
        <ele>1646.18</ele>
        <time>2019-05-04T09:28:13Z</time>
      </trkpt>
      <trkpt lat="41.7853579111" lon="2.4389212579">
        <ele>1646.42</ele>
        <time>2019-05-04T09:28:15Z</time>
      </trkpt>
      <trkpt lat="41.7853865772" lon="2.4389678612">
        <ele>1647.18</ele>
        <time>2019-05-04T09:28:20Z</time>
      </trkpt>
      <trkpt lat="41.7854460888" lon="2.4391226750">
        <ele>1646.98</ele>
        <time>2019-05-04T09:28:36Z</time>
      </trkpt>
      <trkpt lat="41.7854671273" lon="2.4391487427">
        <ele>1647.32</ele>
        <time>2019-05-04T09:28:39Z</time>
      </trkpt>
      <trkpt lat="41.7854906805" lon="2.4391898979">
        <ele>1647.69</ele>
        <time>2019-05-04T09:28:43Z</time>
      </trkpt>
      <trkpt lat="41.7855826300" lon="2.4392964318">
        <ele>1647.10</ele>
        <time>2019-05-04T09:28:53Z</time>
      </trkpt>
      <trkpt lat="41.7856921814" lon="2.4395493139">
        <ele>1645.42</ele>
        <time>2019-05-04T09:29:12Z</time>
      </trkpt>
      <trkpt lat="41.7857333366" lon="2.4395840149">
        <ele>1644.78</ele>
        <time>2019-05-04T09:29:19Z</time>
      </trkpt>
      <trkpt lat="41.7858311534" lon="2.4397036247">
        <ele>1643.27</ele>
        <time>2019-05-04T09:29:36Z</time>
      </trkpt>
      <trkpt lat="41.7858917546" lon="2.4398120027">
        <ele>1642.25</ele>
        <time>2019-05-04T09:29:47Z</time>
      </trkpt>
      <trkpt lat="41.7859516852" lon="2.4399490468">
        <ele>1641.78</ele>
        <time>2019-05-04T09:29:59Z</time>
      </trkpt>
      <trkpt lat="41.7860226799" lon="2.4400746077">
        <ele>1642.02</ele>
        <time>2019-05-04T09:30:13Z</time>
      </trkpt>
      <trkpt lat="41.7860334925" lon="2.4401120748">
        <ele>1641.95</ele>
        <time>2019-05-04T09:30:16Z</time>
      </trkpt>
      <trkpt lat="41.7861182336" lon="2.4402259849">
        <ele>1641.87</ele>
        <time>2019-05-04T09:30:31Z</time>
      </trkpt>
      <trkpt lat="41.7861439660" lon="2.4402533099">
        <ele>1641.63</ele>
        <time>2019-05-04T09:30:34Z</time>
      </trkpt>
      <trkpt lat="41.7863161303" lon="2.4404523801">
        <ele>1638.60</ele>
        <time>2019-05-04T09:30:53Z</time>
      </trkpt>
      <trkpt lat="41.7863844428" lon="2.4405409768">
        <ele>1637.48</ele>
        <time>2019-05-04T09:31:02Z</time>
      </trkpt>
      <trkpt lat="41.7864839360" lon="2.4406703096">
        <ele>1637.11</ele>
        <time>2019-05-04T09:31:16Z</time>
      </trkpt>
      <trkpt lat="41.7865501530" lon="2.4408076890">
        <ele>1638.58</ele>
        <time>2019-05-04T09:31:31Z</time>
      </trkpt>
      <trkpt lat="41.7865596246" lon="2.4408366904">
        <ele>1638.96</ele>
        <time>2019-05-04T09:31:34Z</time>
      </trkpt>
      <trkpt lat="41.7866322119" lon="2.4409383629">
        <ele>1640.25</ele>
        <time>2019-05-04T09:31:46Z</time>
      </trkpt>
      <trkpt lat="41.7867689207" lon="2.4410712160">
        <ele>1640.05</ele>
        <time>2019-05-04T09:32:03Z</time>
      </trkpt>
      <trkpt lat="41.7869087309" lon="2.4411816057">
        <ele>1640.33</ele>
        <time>2019-05-04T09:32:21Z</time>
      </trkpt>
      <trkpt lat="41.7869756185" lon="2.4412636645">
        <ele>1640.71</ele>
        <time>2019-05-04T09:32:31Z</time>
      </trkpt>
      <trkpt lat="41.7870309390" lon="2.4414143711">
        <ele>1641.96</ele>
        <time>2019-05-04T09:32:47Z</time>
      </trkpt>
      <trkpt lat="41.7871128302" lon="2.4415092543">
        <ele>1641.66</ele>
        <time>2019-05-04T09:33:01Z</time>
      </trkpt>
      <trkpt lat="41.7871616967" lon="2.4415724538">
        <ele>1641.42</ele>
        <time>2019-05-04T09:33:09Z</time>
      </trkpt>
      <trkpt lat="41.7871834058" lon="2.4416027963">
        <ele>1641.40</ele>
        <time>2019-05-04T09:33:12Z</time>
      </trkpt>
      <trkpt lat="41.7872709967" lon="2.4417417683">
        <ele>1641.74</ele>
        <time>2019-05-04T09:33:30Z</time>
      </trkpt>
      <trkpt lat="41.7872811388" lon="2.4418440275">
        <ele>1643.82</ele>
        <time>2019-05-04T09:33:46Z</time>
      </trkpt>
      <trkpt lat="41.7873639520" lon="2.4419801496">
        <ele>1646.95</ele>
        <time>2019-05-04T09:34:02Z</time>
      </trkpt>
      <trkpt lat="41.7874161713" lon="2.4420896173">
        <ele>1648.63</ele>
        <time>2019-05-04T09:34:17Z</time>
      </trkpt>
      <trkpt lat="41.7874962185" lon="2.4421884399">
        <ele>1650.97</ele>
        <time>2019-05-04T09:34:32Z</time>
      </trkpt>
      <trkpt lat="41.7875322606" lon="2.4422155134">
        <ele>1652.33</ele>
        <time>2019-05-04T09:34:45Z</time>
      </trkpt>
      <trkpt lat="41.7875656206" lon="2.4422035273">
        <ele>1650.34</ele>
        <time>2019-05-04T09:35:00Z</time>
      </trkpt>
      <trkpt lat="41.7875984777" lon="2.4421504699">
        <ele>1648.46</ele>
        <time>2019-05-04T09:35:15Z</time>
      </trkpt>
      <trkpt lat="41.7876315862" lon="2.4421907868">
        <ele>1646.85</ele>
        <time>2019-05-04T09:35:30Z</time>
      </trkpt>
      <trkpt lat="41.7876535468" lon="2.4422455207">
        <ele>1644.86</ele>
        <time>2019-05-04T09:35:45Z</time>
      </trkpt>
      <trkpt lat="41.7876895051" lon="2.4422658049">
        <ele>1643.52</ele>
        <time>2019-05-04T09:35:59Z</time>
      </trkpt>
      <trkpt lat="41.7876956239" lon="2.4422751926">
        <ele>1643.40</ele>
        <time>2019-05-04T09:36:00Z</time>
      </trkpt>
      <trkpt lat="41.7878407147" lon="2.4424236361">
        <ele>1641.12</ele>
        <time>2019-05-04T09:36:17Z</time>
      </trkpt>
      <trkpt lat="41.7878655251" lon="2.4424316827">
        <ele>1640.46</ele>
        <time>2019-05-04T09:36:23Z</time>
      </trkpt>
      <trkpt lat="41.7879076861" lon="2.4424756877">
        <ele>1640.65</ele>
        <time>2019-05-04T09:36:37Z</time>
      </trkpt>
      <trkpt lat="41.7879685387" lon="2.4424943794">
        <ele>1640.75</ele>
        <time>2019-05-04T09:36:47Z</time>
      </trkpt>
      <trkpt lat="41.7880906630" lon="2.4425690621">
        <ele>1643.27</ele>
        <time>2019-05-04T09:37:02Z</time>
      </trkpt>
      <trkpt lat="41.7881932575" lon="2.4426716566">
        <ele>1645.95</ele>
        <time>2019-05-04T09:37:18Z</time>
      </trkpt>
      <trkpt lat="41.7882774118" lon="2.4426967185">
        <ele>1647.50</ele>
        <time>2019-05-04T09:37:28Z</time>
      </trkpt>
      <trkpt lat="41.7883384321" lon="2.4427153263">
        <ele>1648.67</ele>
        <time>2019-05-04T09:37:35Z</time>
      </trkpt>
      <trkpt lat="41.7884468939" lon="2.4427981395">
        <ele>1650.97</ele>
        <time>2019-05-04T09:37:51Z</time>
      </trkpt>
      <trkpt lat="41.7885015439" lon="2.4428301584">
        <ele>1654.00</ele>
        <time>2019-05-04T09:38:03Z</time>
      </trkpt>
      <trkpt lat="41.7885382567" lon="2.4429022428">
        <ele>1657.03</ele>
        <time>2019-05-04T09:38:14Z</time>
      </trkpt>
      <trkpt lat="41.7886061501" lon="2.4429711420">
        <ele>1660.08</ele>
        <time>2019-05-04T09:38:28Z</time>
      </trkpt>
      <trkpt lat="41.7886643205" lon="2.4430954456">
        <ele>1662.84</ele>
        <time>2019-05-04T09:38:44Z</time>
      </trkpt>
      <trkpt lat="41.7887188867" lon="2.4431803543">
        <ele>1665.65</ele>
        <time>2019-05-04T09:38:59Z</time>
      </trkpt>
      <trkpt lat="41.7887739558" lon="2.4432684481">
        <ele>1668.57</ele>
        <time>2019-05-04T09:39:15Z</time>
      </trkpt>
      <trkpt lat="41.7888319585" lon="2.4433596432">
        <ele>1671.71</ele>
        <time>2019-05-04T09:39:32Z</time>
      </trkpt>
      <trkpt lat="41.7888483871" lon="2.4434532691">
        <ele>1674.57</ele>
        <time>2019-05-04T09:39:46Z</time>
      </trkpt>
      <trkpt lat="41.7889256682" lon="2.4435433745">
        <ele>1676.76</ele>
        <time>2019-05-04T09:40:04Z</time>
      </trkpt>
      <trkpt lat="41.7889799830" lon="2.4436466396">
        <ele>1679.96</ele>
        <time>2019-05-04T09:40:17Z</time>
      </trkpt>
      <trkpt lat="41.7890344653" lon="2.4437137786">
        <ele>1683.05</ele>
        <time>2019-05-04T09:40:31Z</time>
      </trkpt>
      <trkpt lat="41.7890819069" lon="2.4438118469">
        <ele>1686.25</ele>
        <time>2019-05-04T09:40:47Z</time>
      </trkpt>
      <trkpt lat="41.7891178653" lon="2.4438877869">
        <ele>1689.22</ele>
        <time>2019-05-04T09:41:01Z</time>
      </trkpt>
      <trkpt lat="41.7891767062" lon="2.4439368211">
        <ele>1691.77</ele>
        <time>2019-05-04T09:41:16Z</time>
      </trkpt>
      <trkpt lat="41.7892442644" lon="2.4439851008">
        <ele>1694.81</ele>
        <time>2019-05-04T09:41:29Z</time>
      </trkpt>
      <trkpt lat="41.7892543226" lon="2.4440212268">
        <ele>1695.86</ele>
        <time>2019-05-04T09:41:44Z</time>
      </trkpt>
      <trkpt lat="41.7892535683" lon="2.4440418463">
        <ele>1695.48</ele>
        <time>2019-05-04T09:42:02Z</time>
      </trkpt>
      <trkpt lat="41.7892700806" lon="2.4440525752">
        <ele>1695.62</ele>
        <time>2019-05-04T09:42:15Z</time>
      </trkpt>
      <trkpt lat="41.7892451026" lon="2.4440233223">
        <ele>1695.79</ele>
        <time>2019-05-04T09:42:33Z</time>
      </trkpt>
      <trkpt lat="41.7892362177" lon="2.4440173712">
        <ele>1695.44</ele>
        <time>2019-05-04T09:43:01Z</time>
      </trkpt>
      <trkpt lat="41.7892540712" lon="2.4439882860">
        <ele>1696.18</ele>
        <time>2019-05-04T09:43:17Z</time>
      </trkpt>
      <trkpt lat="41.7892646324" lon="2.4439633079">
        <ele>1696.15</ele>
        <time>2019-05-04T09:43:43Z</time>
      </trkpt>
      <trkpt lat="41.7892615311" lon="2.4439511541">
        <ele>1695.96</ele>
        <time>2019-05-04T09:44:06Z</time>
      </trkpt>
      <trkpt lat="41.7892582621" lon="2.4439679179">
        <ele>1695.86</ele>
        <time>2019-05-04T09:44:34Z</time>
      </trkpt>
      <trkpt lat="41.7892310210" lon="2.4439674988">
        <ele>1695.90</ele>
        <time>2019-05-04T09:45:17Z</time>
      </trkpt>
      <trkpt lat="41.7892239802" lon="2.4439538363">
        <ele>1696.01</ele>
        <time>2019-05-04T09:45:29Z</time>
      </trkpt>
      <trkpt lat="41.7892314401" lon="2.4438637309">
        <ele>1694.62</ele>
        <time>2019-05-04T09:45:47Z</time>
      </trkpt>
      <trkpt lat="41.7891891114" lon="2.4438463803">
        <ele>1692.41</ele>
        <time>2019-05-04T09:46:04Z</time>
      </trkpt>
      <trkpt lat="41.7891524825" lon="2.4437773135">
        <ele>1689.80</ele>
        <time>2019-05-04T09:46:19Z</time>
      </trkpt>
      <trkpt lat="41.7890989222" lon="2.4436970986">
        <ele>1687.75</ele>
        <time>2019-05-04T09:46:33Z</time>
      </trkpt>
      <trkpt lat="41.7890120018" lon="2.4437147006">
        <ele>1685.30</ele>
        <time>2019-05-04T09:46:49Z</time>
      </trkpt>
      <trkpt lat="41.7889836710" lon="2.4436425325">
        <ele>1682.16</ele>
        <time>2019-05-04T09:47:05Z</time>
      </trkpt>
      <trkpt lat="41.7889597826" lon="2.4435997009">
        <ele>1681.58</ele>
        <time>2019-05-04T09:47:22Z</time>
      </trkpt>
      <trkpt lat="41.7889098264" lon="2.4435220007">
        <ele>1679.12</ele>
        <time>2019-05-04T09:47:36Z</time>
      </trkpt>
      <trkpt lat="41.7888684198" lon="2.4434810970">
        <ele>1676.33</ele>
        <time>2019-05-04T09:47:52Z</time>
      </trkpt>
      <trkpt lat="41.7888334673" lon="2.4433706235">
        <ele>1673.77</ele>
        <time>2019-05-04T09:48:09Z</time>
      </trkpt>
      <trkpt lat="41.7887976766" lon="2.4432733096">
        <ele>1671.64</ele>
        <time>2019-05-04T09:48:23Z</time>
      </trkpt>
      <trkpt lat="41.7887388356" lon="2.4431813601">
        <ele>1669.60</ele>
        <time>2019-05-04T09:48:38Z</time>
      </trkpt>
      <trkpt lat="41.7886853591" lon="2.4431014806">
        <ele>1667.19</ele>
        <time>2019-05-04T09:48:53Z</time>
      </trkpt>
      <trkpt lat="41.7886325531" lon="2.4430864770">
        <ele>1664.52</ele>
        <time>2019-05-04T09:49:09Z</time>
      </trkpt>
      <trkpt lat="41.7886255123" lon="2.4430267140">
        <ele>1663.12</ele>
        <time>2019-05-04T09:49:30Z</time>
      </trkpt>
      <trkpt lat="41.7885623965" lon="2.4429687113">
        <ele>1660.50</ele>
        <time>2019-05-04T09:49:46Z</time>
      </trkpt>
      <trkpt lat="41.7885170504" lon="2.4429440685">
        <ele>1658.84</ele>
        <time>2019-05-04T09:50:01Z</time>
      </trkpt>
      <trkpt lat="41.7884712014" lon="2.4428796954">
        <ele>1655.77</ele>
        <time>2019-05-04T09:50:19Z</time>
      </trkpt>
      <trkpt lat="41.7884181440" lon="2.4428201839">
        <ele>1653.11</ele>
        <time>2019-05-04T09:50:35Z</time>
      </trkpt>
      <trkpt lat="41.7884078342" lon="2.4427094590">
        <ele>1651.18</ele>
        <time>2019-05-04T09:50:50Z</time>
      </trkpt>
      <trkpt lat="41.7883974407" lon="2.4426250532">
        <ele>1649.38</ele>
        <time>2019-05-04T09:51:07Z</time>
      </trkpt>
      <trkpt lat="41.7883819342" lon="2.4426372070">
        <ele>1649.20</ele>
        <time>2019-05-04T09:51:09Z</time>
      </trkpt>
      <trkpt lat="41.7882805131" lon="2.4425861612">
        <ele>1648.37</ele>
        <time>2019-05-04T09:51:27Z</time>
      </trkpt>
      <trkpt lat="41.7882827763" lon="2.4425442517">
        <ele>1648.09</ele>
        <time>2019-05-04T09:51:46Z</time>
      </trkpt>
      <trkpt lat="41.7883235123" lon="2.4424689822">
        <ele>1645.53</ele>
        <time>2019-05-04T09:52:05Z</time>
      </trkpt>
      <trkpt lat="41.7883385997" lon="2.4424544815">
        <ele>1645.33</ele>
        <time>2019-05-04T09:52:07Z</time>
      </trkpt>
      <trkpt lat="41.7883344926" lon="2.4423887674">
        <ele>1642.14</ele>
        <time>2019-05-04T09:52:18Z</time>
      </trkpt>
      <trkpt lat="41.7883287091" lon="2.4423129950">
        <ele>1638.96</ele>
        <time>2019-05-04T09:52:34Z</time>
      </trkpt>
      <trkpt lat="41.7883772403" lon="2.4422472809">
        <ele>1636.93</ele>
        <time>2019-05-04T09:52:44Z</time>
      </trkpt>
      <trkpt lat="41.7884470616" lon="2.4422038626">
        <ele>1635.73</ele>
        <time>2019-05-04T09:52:59Z</time>
      </trkpt>
      <trkpt lat="41.7885291204" lon="2.4421845004">
        <ele>1633.49</ele>
        <time>2019-05-04T09:53:19Z</time>
      </trkpt>
      <trkpt lat="41.7886175495" lon="2.4422414973">
        <ele>1633.45</ele>
        <time>2019-05-04T09:53:35Z</time>
      </trkpt>
      <trkpt lat="41.7886869516" lon="2.4422225542">
        <ele>1633.50</ele>
        <time>2019-05-04T09:53:49Z</time>
      </trkpt>
      <trkpt lat="41.7887160368" lon="2.4421820696">
        <ele>1631.81</ele>
        <time>2019-05-04T09:54:02Z</time>
      </trkpt>
      <trkpt lat="41.7887303699" lon="2.4421590194">
        <ele>1629.43</ele>
        <time>2019-05-04T09:54:20Z</time>
      </trkpt>
      <trkpt lat="41.7888058908" lon="2.4421175290">
        <ele>1627.51</ele>
        <time>2019-05-04T09:54:37Z</time>
      </trkpt>
      <trkpt lat="41.7888567690" lon="2.4420959037">
        <ele>1624.84</ele>
        <time>2019-05-04T09:54:53Z</time>
      </trkpt>
      <trkpt lat="41.7889016960" lon="2.4420596100">
        <ele>1622.43</ele>
        <time>2019-05-04T09:55:08Z</time>
      </trkpt>
      <trkpt lat="41.7889115028" lon="2.4420165271">
        <ele>1619.79</ele>
        <time>2019-05-04T09:55:26Z</time>
      </trkpt>
      <trkpt lat="41.7889697570" lon="2.4420315307">
        <ele>1617.15</ele>
        <time>2019-05-04T09:55:45Z</time>
      </trkpt>
      <trkpt lat="41.7890560906" lon="2.4421051238">
        <ele>1613.91</ele>
        <time>2019-05-04T09:56:04Z</time>
      </trkpt>
      <trkpt lat="41.7891720962" lon="2.4423153419">
        <ele>1611.80</ele>
        <time>2019-05-04T09:56:25Z</time>
      </trkpt>
      <trkpt lat="41.7892736010" lon="2.4424227979">
        <ele>1609.57</ele>
        <time>2019-05-04T09:56:42Z</time>
      </trkpt>
      <trkpt lat="41.7893689871" lon="2.4424879253">
        <ele>1607.65</ele>
        <time>2019-05-04T09:57:00Z</time>
      </trkpt>
      <trkpt lat="41.7894288339" lon="2.4425020069">
        <ele>1606.67</ele>
        <time>2019-05-04T09:57:17Z</time>
      </trkpt>
      <trkpt lat="41.7895205319" lon="2.4426105525">
        <ele>1607.81</ele>
        <time>2019-05-04T09:57:37Z</time>
      </trkpt>
      <trkpt lat="41.7895482760" lon="2.4426178448">
        <ele>1607.72</ele>
        <time>2019-05-04T09:57:40Z</time>
      </trkpt>
      <trkpt lat="41.7896311730" lon="2.4426067807">
        <ele>1606.67</ele>
        <time>2019-05-04T09:57:56Z</time>
      </trkpt>
      <trkpt lat="41.7896849010" lon="2.4426122289">
        <ele>1606.45</ele>
        <time>2019-05-04T09:58:08Z</time>
      </trkpt>
      <trkpt lat="41.7896942887" lon="2.4426130671">
        <ele>1607.26</ele>
        <time>2019-05-04T09:58:26Z</time>
      </trkpt>
      <trkpt lat="41.7896456737" lon="2.4426065292">
        <ele>1606.82</ele>
        <time>2019-05-04T09:58:51Z</time>
      </trkpt>
      <trkpt lat="41.7895668838" lon="2.4425843172">
        <ele>1606.63</ele>
        <time>2019-05-04T09:59:11Z</time>
      </trkpt>
      <trkpt lat="41.7894804664" lon="2.4425216205">
        <ele>1607.25</ele>
        <time>2019-05-04T09:59:35Z</time>
      </trkpt>
      <trkpt lat="41.7894197814" lon="2.4424907751">
        <ele>1607.39</ele>
        <time>2019-05-04T09:59:58Z</time>
      </trkpt>
      <trkpt lat="41.7892347928" lon="2.4424344487">
        <ele>1608.33</ele>
        <time>2019-05-04T10:00:16Z</time>
      </trkpt>
      <trkpt lat="41.7891282588" lon="2.4423236400">
        <ele>1611.36</ele>
        <time>2019-05-04T10:00:35Z</time>
      </trkpt>
      <trkpt lat="41.7890313640" lon="2.4421947263">
        <ele>1613.64</ele>
        <time>2019-05-04T10:00:53Z</time>
      </trkpt>
      <trkpt lat="41.7889600340" lon="2.4421171099">
        <ele>1616.66</ele>
        <time>2019-05-04T10:01:10Z</time>
      </trkpt>
      <trkpt lat="41.7888159491" lon="2.4419692531">
        <ele>1617.15</ele>
        <time>2019-05-04T10:01:33Z</time>
      </trkpt>
      <trkpt lat="41.7887081578" lon="2.4419090711">
        <ele>1615.60</ele>
        <time>2019-05-04T10:01:50Z</time>
      </trkpt>
      <trkpt lat="41.7886756361" lon="2.4418693408">
        <ele>1613.78</ele>
        <time>2019-05-04T10:02:14Z</time>
      </trkpt>
      <trkpt lat="41.7885854468" lon="2.4418220669">
        <ele>1610.65</ele>
        <time>2019-05-04T10:02:33Z</time>
      </trkpt>
      <trkpt lat="41.7885271087" lon="2.4417954125">
        <ele>1607.54</ele>
        <time>2019-05-04T10:02:57Z</time>
      </trkpt>
      <trkpt lat="41.7885193136" lon="2.4417623039">
        <ele>1605.07</ele>
        <time>2019-05-04T10:03:19Z</time>
      </trkpt>
      <trkpt lat="41.7884594668" lon="2.4416982662">
        <ele>1601.93</ele>
        <time>2019-05-04T10:03:40Z</time>
      </trkpt>
      <trkpt lat="41.7883811798" lon="2.4416483101">
        <ele>1598.83</ele>
        <time>2019-05-04T10:03:55Z</time>
      </trkpt>
      <trkpt lat="41.7883039825" lon="2.4415425304">
        <ele>1595.61</ele>
        <time>2019-05-04T10:04:14Z</time>
      </trkpt>
      <trkpt lat="41.7882722151" lon="2.4414522573">
        <ele>1592.47</ele>
        <time>2019-05-04T10:04:30Z</time>
      </trkpt>
      <trkpt lat="41.7882399447" lon="2.4413681030">
        <ele>1589.39</ele>
        <time>2019-05-04T10:04:45Z</time>
      </trkpt>
      <trkpt lat="41.7881966103" lon="2.4412702862">
        <ele>1586.29</ele>
        <time>2019-05-04T10:05:01Z</time>
      </trkpt>
      <trkpt lat="41.7881798465" lon="2.4411536101">
        <ele>1583.26</ele>
        <time>2019-05-04T10:05:22Z</time>
      </trkpt>
      <trkpt lat="41.7881540302" lon="2.4410599843">
        <ele>1580.22</ele>
        <time>2019-05-04T10:05:42Z</time>
      </trkpt>
      <trkpt lat="41.7881609872" lon="2.4409795180">
        <ele>1577.22</ele>
        <time>2019-05-04T10:06:01Z</time>
      </trkpt>
      <trkpt lat="41.7881666031" lon="2.4409687892">
        <ele>1577.00</ele>
        <time>2019-05-04T10:06:03Z</time>
      </trkpt>
      <trkpt lat="41.7881553713" lon="2.4408613332">
        <ele>1573.85</ele>
        <time>2019-05-04T10:06:27Z</time>
      </trkpt>
      <trkpt lat="41.7880650982" lon="2.4408091977">
        <ele>1572.48</ele>
        <time>2019-05-04T10:06:45Z</time>
      </trkpt>
      <trkpt lat="41.7879887391" lon="2.4407413881">
        <ele>1573.85</ele>
        <time>2019-05-04T10:07:07Z</time>
      </trkpt>
      <trkpt lat="41.7879340891" lon="2.4406175036">
        <ele>1573.84</ele>
        <time>2019-05-04T10:07:25Z</time>
      </trkpt>
      <trkpt lat="41.7878288124" lon="2.4405589979">
        <ele>1572.66</ele>
        <time>2019-05-04T10:07:44Z</time>
      </trkpt>
      <trkpt lat="41.7878075223" lon="2.4404770229">
        <ele>1571.14</ele>
        <time>2019-05-04T10:08:03Z</time>
      </trkpt>
      <trkpt lat="41.7877701391" lon="2.4403771106">
        <ele>1568.85</ele>
        <time>2019-05-04T10:08:23Z</time>
      </trkpt>
      <trkpt lat="41.7878708895" lon="2.4403735902">
        <ele>1566.07</ele>
        <time>2019-05-04T10:08:47Z</time>
      </trkpt>
      <trkpt lat="41.7879530322" lon="2.4403948803">
        <ele>1563.06</ele>
        <time>2019-05-04T10:09:02Z</time>
      </trkpt>
      <trkpt lat="41.7879388668" lon="2.4403377995">
        <ele>1559.88</ele>
        <time>2019-05-04T10:09:23Z</time>
      </trkpt>
      <trkpt lat="41.7878643516" lon="2.4402333610">
        <ele>1556.81</ele>
        <time>2019-05-04T10:09:41Z</time>
      </trkpt>
      <trkpt lat="41.7878062651" lon="2.4401471950">
        <ele>1553.70</ele>
        <time>2019-05-04T10:10:00Z</time>
      </trkpt>
      <trkpt lat="41.7877681274" lon="2.4400185328">
        <ele>1550.61</ele>
        <time>2019-05-04T10:10:25Z</time>
      </trkpt>
      <trkpt lat="41.7876985576" lon="2.4398896191">
        <ele>1547.89</ele>
        <time>2019-05-04T10:10:48Z</time>
      </trkpt>
      <trkpt lat="41.7876030877" lon="2.4398346338">
        <ele>1548.00</ele>
        <time>2019-05-04T10:11:05Z</time>
      </trkpt>
      <trkpt lat="41.7875600047" lon="2.4397593644">
        <ele>1548.75</ele>
        <time>2019-05-04T10:11:24Z</time>
      </trkpt>
      <trkpt lat="41.7875508685" lon="2.4397330452">
        <ele>1546.98</ele>
        <time>2019-05-04T10:11:50Z</time>
      </trkpt>
      <trkpt lat="41.7874606792" lon="2.4396718573">
        <ele>1546.15</ele>
        <time>2019-05-04T10:12:12Z</time>
      </trkpt>
      <trkpt lat="41.7874445021" lon="2.4396287743">
        <ele>1543.62</ele>
        <time>2019-05-04T10:12:30Z</time>
      </trkpt>
      <trkpt lat="41.7874377128" lon="2.4395830091">
        <ele>1540.53</ele>
        <time>2019-05-04T10:12:51Z</time>
      </trkpt>
      <trkpt lat="41.7874693964" lon="2.4395829253">
        <ele>1539.80</ele>
        <time>2019-05-04T10:13:11Z</time>
      </trkpt>
      <trkpt lat="41.7875398882" lon="2.4395644013">
        <ele>1537.47</ele>
        <time>2019-05-04T10:13:36Z</time>
      </trkpt>
      <trkpt lat="41.7875991482" lon="2.4395739567">
        <ele>1535.55</ele>
        <time>2019-05-04T10:13:56Z</time>
      </trkpt>
      <trkpt lat="41.7876487691" lon="2.4395768903">
        <ele>1533.43</ele>
        <time>2019-05-04T10:14:19Z</time>
      </trkpt>
      <trkpt lat="41.7876130622" lon="2.4395469669">
        <ele>1532.56</ele>
        <time>2019-05-04T10:14:29Z</time>
      </trkpt>
      <trkpt lat="41.7876043450" lon="2.4394647405">
        <ele>1529.67</ele>
        <time>2019-05-04T10:14:51Z</time>
      </trkpt>
      <trkpt lat="41.7876738310" lon="2.4394853599">
        <ele>1526.99</ele>
        <time>2019-05-04T10:15:13Z</time>
      </trkpt>
      <trkpt lat="41.7877192609" lon="2.4394588731">
        <ele>1523.90</ele>
        <time>2019-05-04T10:15:34Z</time>
      </trkpt>
      <trkpt lat="41.7877513636" lon="2.4394440372">
        <ele>1521.36</ele>
        <time>2019-05-04T10:15:57Z</time>
      </trkpt>
      <trkpt lat="41.7877952009" lon="2.4394207355">
        <ele>1518.66</ele>
        <time>2019-05-04T10:16:22Z</time>
      </trkpt>
      <trkpt lat="41.7878423072" lon="2.4393957574">
        <ele>1515.62</ele>
        <time>2019-05-04T10:16:45Z</time>
      </trkpt>
      <trkpt lat="41.7878557183" lon="2.4394166283">
        <ele>1514.80</ele>
        <time>2019-05-04T10:16:51Z</time>
      </trkpt>
      <trkpt lat="41.7879842129" lon="2.4394537602">
        <ele>1511.88</ele>
        <time>2019-05-04T10:17:11Z</time>
      </trkpt>
      <trkpt lat="41.7880615778" lon="2.4394615553">
        <ele>1508.87</ele>
        <time>2019-05-04T10:17:33Z</time>
      </trkpt>
      <trkpt lat="41.7881487496" lon="2.4394949153">
        <ele>1507.17</ele>
        <time>2019-05-04T10:17:54Z</time>
      </trkpt>
      <trkpt lat="41.7882371787" lon="2.4395486433">
        <ele>1505.57</ele>
        <time>2019-05-04T10:18:16Z</time>
      </trkpt>
      <trkpt lat="41.7882777471" lon="2.4396148603">
        <ele>1504.11</ele>
        <time>2019-05-04T10:18:35Z</time>
      </trkpt>
      <trkpt lat="41.7883313913" lon="2.4396782275">
        <ele>1503.13</ele>
        <time>2019-05-04T10:18:58Z</time>
      </trkpt>
      <trkpt lat="41.7883811798" lon="2.4396812450">
        <ele>1500.83</ele>
        <time>2019-05-04T10:19:21Z</time>
      </trkpt>
      <trkpt lat="41.7884128634" lon="2.4396186322">
        <ele>1498.71</ele>
        <time>2019-05-04T10:19:43Z</time>
      </trkpt>
      <trkpt lat="41.7883868795" lon="2.4395564385">
        <ele>1496.66</ele>
        <time>2019-05-04T10:20:03Z</time>
      </trkpt>
      <trkpt lat="41.7883620691" lon="2.4394513294">
        <ele>1495.53</ele>
        <time>2019-05-04T10:20:27Z</time>
      </trkpt>
      <trkpt lat="41.7883553635" lon="2.4394019600">
        <ele>1494.93</ele>
        <time>2019-05-04T10:20:48Z</time>
      </trkpt>
      <trkpt lat="41.7883231770" lon="2.4393478129">
        <ele>1492.64</ele>
        <time>2019-05-04T10:21:11Z</time>
      </trkpt>
      <trkpt lat="41.7882271204" lon="2.4392840266">
        <ele>1491.94</ele>
        <time>2019-05-04T10:21:34Z</time>
      </trkpt>
      <trkpt lat="41.7881121207" lon="2.4391897302">
        <ele>1491.15</ele>
        <time>2019-05-04T10:21:54Z</time>
      </trkpt>
      <trkpt lat="41.7880616616" lon="2.4390857108">
        <ele>1488.52</ele>
        <time>2019-05-04T10:22:14Z</time>
      </trkpt>
      <trkpt lat="41.7880252004" lon="2.4389241077">
        <ele>1485.38</ele>
        <time>2019-05-04T10:22:36Z</time>
      </trkpt>
      <trkpt lat="41.7879954446" lon="2.4388859700">
        <ele>1482.99</ele>
        <time>2019-05-04T10:23:00Z</time>
      </trkpt>
      <trkpt lat="41.7879956122" lon="2.4388269614">
        <ele>1481.16</ele>
        <time>2019-05-04T10:23:25Z</time>
      </trkpt>
      <trkpt lat="41.7879930977" lon="2.4387943558">
        <ele>1479.02</ele>
        <time>2019-05-04T10:23:47Z</time>
      </trkpt>
      <trkpt lat="41.7879873142" lon="2.4387429748">
        <ele>1476.30</ele>
        <time>2019-05-04T10:24:12Z</time>
      </trkpt>
      <trkpt lat="41.7879801895" lon="2.4386937730">
        <ele>1475.43</ele>
        <time>2019-05-04T10:24:22Z</time>
      </trkpt>
      <trkpt lat="41.7879817821" lon="2.4385997280">
        <ele>1473.15</ele>
        <time>2019-05-04T10:24:46Z</time>
      </trkpt>
      <trkpt lat="41.7880034912" lon="2.4385345168">
        <ele>1471.07</ele>
        <time>2019-05-04T10:25:11Z</time>
      </trkpt>
      <trkpt lat="41.7880281340" lon="2.4384884164">
        <ele>1470.75</ele>
        <time>2019-05-04T10:25:33Z</time>
      </trkpt>
      <trkpt lat="41.7880351748" lon="2.4383895937">
        <ele>1469.61</ele>
        <time>2019-05-04T10:25:58Z</time>
      </trkpt>
      <trkpt lat="41.7880731449" lon="2.4382957164">
        <ele>1466.45</ele>
        <time>2019-05-04T10:26:17Z</time>
      </trkpt>
      <trkpt lat="41.7880870588" lon="2.4384076148">
        <ele>1463.92</ele>
        <time>2019-05-04T10:26:39Z</time>
      </trkpt>
      <trkpt lat="41.7881190777" lon="2.4384156615">
        <ele>1461.43</ele>
        <time>2019-05-04T10:26:58Z</time>
      </trkpt>
      <trkpt lat="41.7881522700" lon="2.4383479357">
        <ele>1458.39</ele>
        <time>2019-05-04T10:27:19Z</time>
      </trkpt>
      <trkpt lat="41.7881800979" lon="2.4381862488">
        <ele>1456.58</ele>
        <time>2019-05-04T10:27:39Z</time>
      </trkpt>
      <trkpt lat="41.7882122006" lon="2.4381065369">
        <ele>1453.58</ele>
        <time>2019-05-04T10:28:00Z</time>
      </trkpt>
      <trkpt lat="41.7882425431" lon="2.4379754439">
        <ele>1451.15</ele>
        <time>2019-05-04T10:28:24Z</time>
      </trkpt>
      <trkpt lat="41.7882457282" lon="2.4378290959">
        <ele>1447.99</ele>
        <time>2019-05-04T10:28:44Z</time>
      </trkpt>
      <trkpt lat="41.7882436328" lon="2.4377006851">
        <ele>1444.86</ele>
        <time>2019-05-04T10:29:03Z</time>
      </trkpt>
      <trkpt lat="41.7882110272" lon="2.4375719391">
        <ele>1441.84</ele>
        <time>2019-05-04T10:29:18Z</time>
      </trkpt>
      <trkpt lat="41.7881985381" lon="2.4374547601">
        <ele>1438.83</ele>
        <time>2019-05-04T10:29:36Z</time>
      </trkpt>
      <trkpt lat="41.7881751526" lon="2.4373671692">
        <ele>1436.87</ele>
        <time>2019-05-04T10:30:00Z</time>
      </trkpt>
      <trkpt lat="41.7881297227" lon="2.4373192247">
        <ele>1435.74</ele>
        <time>2019-05-04T10:30:29Z</time>
      </trkpt>
      <trkpt lat="41.7881198321" lon="2.4373051431">
        <ele>1435.34</ele>
        <time>2019-05-04T10:30:56Z</time>
      </trkpt>
      <trkpt lat="41.7881193291" lon="2.4373296183">
        <ele>1434.61</ele>
        <time>2019-05-04T10:31:26Z</time>
      </trkpt>
      <trkpt lat="41.7881385237" lon="2.4372677598">
        <ele>1433.21</ele>
        <time>2019-05-04T10:31:52Z</time>
      </trkpt>
      <trkpt lat="41.7881662678" lon="2.4371712003">
        <ele>1431.70</ele>
        <time>2019-05-04T10:32:16Z</time>
      </trkpt>
      <trkpt lat="41.7881835345" lon="2.4371037260">
        <ele>1431.55</ele>
        <time>2019-05-04T10:32:40Z</time>
      </trkpt>
      <trkpt lat="41.7881484143" lon="2.4370532669">
        <ele>1431.53</ele>
        <time>2019-05-04T10:33:01Z</time>
      </trkpt>
      <trkpt lat="41.7880646791" lon="2.4368895683">
        <ele>1430.97</ele>
        <time>2019-05-04T10:33:20Z</time>
      </trkpt>
      <trkpt lat="41.7880148068" lon="2.4367701262">
        <ele>1429.18</ele>
        <time>2019-05-04T10:33:44Z</time>
      </trkpt>
      <trkpt lat="41.7879956961" lon="2.4366275501">
        <ele>1427.19</ele>
        <time>2019-05-04T10:34:04Z</time>
      </trkpt>
      <trkpt lat="41.7879676167" lon="2.4365293980">
        <ele>1424.10</ele>
        <time>2019-05-04T10:34:20Z</time>
      </trkpt>
      <trkpt lat="41.7879651021" lon="2.4364732392">
        <ele>1422.65</ele>
        <time>2019-05-04T10:34:36Z</time>
      </trkpt>
      <trkpt lat="41.7880158126" lon="2.4364915118">
        <ele>1421.69</ele>
        <time>2019-05-04T10:34:47Z</time>
      </trkpt>
      <trkpt lat="41.7880667746" lon="2.4364485126">
        <ele>1419.08</ele>
        <time>2019-05-04T10:35:06Z</time>
      </trkpt>
      <trkpt lat="41.7880755756" lon="2.4364200141">
        <ele>1418.42</ele>
        <time>2019-05-04T10:35:13Z</time>
      </trkpt>
      <trkpt lat="41.7880941834" lon="2.4362909328">
        <ele>1415.61</ele>
        <time>2019-05-04T10:35:36Z</time>
      </trkpt>
      <trkpt lat="41.7881274596" lon="2.4361768551">
        <ele>1412.57</ele>
        <time>2019-05-04T10:35:53Z</time>
      </trkpt>
      <trkpt lat="41.7881327402" lon="2.4360469356">
        <ele>1409.46</ele>
        <time>2019-05-04T10:36:11Z</time>
      </trkpt>
      <trkpt lat="41.7881427146" lon="2.4358771183">
        <ele>1406.50</ele>
        <time>2019-05-04T10:36:35Z</time>
      </trkpt>
      <trkpt lat="41.7881481629" lon="2.4357212149">
        <ele>1403.42</ele>
        <time>2019-05-04T10:36:55Z</time>
      </trkpt>
      <trkpt lat="41.7881329916" lon="2.4355600309">
        <ele>1400.41</ele>
        <time>2019-05-04T10:37:13Z</time>
      </trkpt>
      <trkpt lat="41.7881493364" lon="2.4354467075">
        <ele>1397.56</ele>
        <time>2019-05-04T10:37:35Z</time>
      </trkpt>
      <trkpt lat="41.7881234363" lon="2.4354521558">
        <ele>1398.44</ele>
        <time>2019-05-04T10:37:56Z</time>
      </trkpt>
      <trkpt lat="41.7881433852" lon="2.4353819992">
        <ele>1395.31</ele>
        <time>2019-05-04T10:38:19Z</time>
      </trkpt>
      <trkpt lat="41.7882493325" lon="2.4355198815">
        <ele>1393.11</ele>
        <time>2019-05-04T10:38:42Z</time>
      </trkpt>
      <trkpt lat="41.7883371748" lon="2.4356259964">
        <ele>1390.10</ele>
        <time>2019-05-04T10:38:59Z</time>
      </trkpt>
      <trkpt lat="41.7884069122" lon="2.4357622024">
        <ele>1387.26</ele>
        <time>2019-05-04T10:39:19Z</time>
      </trkpt>
      <trkpt lat="41.7884950899" lon="2.4359253980">
        <ele>1384.15</ele>
        <time>2019-05-04T10:39:38Z</time>
      </trkpt>
      <trkpt lat="41.7885211576" lon="2.4358704966">
        <ele>1381.09</ele>
        <time>2019-05-04T10:39:55Z</time>
      </trkpt>
      <trkpt lat="41.7885081656" lon="2.4357658066">
        <ele>1377.97</ele>
        <time>2019-05-04T10:40:12Z</time>
      </trkpt>
      <trkpt lat="41.7885578703" lon="2.4357608613">
        <ele>1375.22</ele>
        <time>2019-05-04T10:40:32Z</time>
      </trkpt>
      <trkpt lat="41.7886861134" lon="2.4359092209">
        <ele>1372.88</ele>
        <time>2019-05-04T10:40:53Z</time>
      </trkpt>
      <trkpt lat="41.7887718603" lon="2.4360247236">
        <ele>1369.82</ele>
        <time>2019-05-04T10:41:15Z</time>
      </trkpt>
      <trkpt lat="41.7888461240" lon="2.4360906053">
        <ele>1366.69</ele>
        <time>2019-05-04T10:41:34Z</time>
      </trkpt>
      <trkpt lat="41.7889002711" lon="2.4360950477">
        <ele>1363.62</ele>
        <time>2019-05-04T10:41:52Z</time>
      </trkpt>
      <trkpt lat="41.7889451142" lon="2.4359870050">
        <ele>1361.61</ele>
        <time>2019-05-04T10:42:14Z</time>
      </trkpt>
      <trkpt lat="41.7890130077" lon="2.4359073769">
        <ele>1358.55</ele>
        <time>2019-05-04T10:42:34Z</time>
      </trkpt>
      <trkpt lat="41.7890513130" lon="2.4358086381">
        <ele>1355.49</ele>
        <time>2019-05-04T10:42:54Z</time>
      </trkpt>
      <trkpt lat="41.7890407518" lon="2.4357161019">
        <ele>1352.40</ele>
        <time>2019-05-04T10:43:12Z</time>
      </trkpt>
      <trkpt lat="41.7890590243" lon="2.4356196262">
        <ele>1349.39</ele>
        <time>2019-05-04T10:43:34Z</time>
      </trkpt>
      <trkpt lat="41.7890282627" lon="2.4354025349">
        <ele>1346.28</ele>
        <time>2019-05-04T10:43:55Z</time>
      </trkpt>
      <trkpt lat="41.7890394945" lon="2.4352676701">
        <ele>1343.10</ele>
        <time>2019-05-04T10:44:14Z</time>
      </trkpt>
      <trkpt lat="41.7889783066" lon="2.4351257645">
        <ele>1339.97</ele>
        <time>2019-05-04T10:44:28Z</time>
      </trkpt>
      <trkpt lat="41.7889810726" lon="2.4349741358">
        <ele>1336.87</ele>
        <time>2019-05-04T10:44:48Z</time>
      </trkpt>
      <trkpt lat="41.7890298553" lon="2.4349349923">
        <ele>1334.98</ele>
        <time>2019-05-04T10:45:09Z</time>
      </trkpt>
      <trkpt lat="41.7891247384" lon="2.4350184761">
        <ele>1332.36</ele>
        <time>2019-05-04T10:45:33Z</time>
      </trkpt>
      <trkpt lat="41.7891839147" lon="2.4352266826">
        <ele>1331.72</ele>
        <time>2019-05-04T10:45:53Z</time>
      </trkpt>
      <trkpt lat="41.7892614473" lon="2.4354622979">
        <ele>1329.22</ele>
        <time>2019-05-04T10:46:16Z</time>
      </trkpt>
      <trkpt lat="41.7893343698" lon="2.4356164411">
        <ele>1327.17</ele>
        <time>2019-05-04T10:46:35Z</time>
      </trkpt>
      <trkpt lat="41.7894513812" lon="2.4357648846">
        <ele>1324.26</ele>
        <time>2019-05-04T10:46:56Z</time>
      </trkpt>
      <trkpt lat="41.7895399779" lon="2.4359122384">
        <ele>1321.78</ele>
        <time>2019-05-04T10:47:16Z</time>
      </trkpt>
      <trkpt lat="41.7896402255" lon="2.4360977300">
        <ele>1320.20</ele>
        <time>2019-05-04T10:47:37Z</time>
      </trkpt>
      <trkpt lat="41.7896900140" lon="2.4361513741">
        <ele>1317.19</ele>
        <time>2019-05-04T10:47:54Z</time>
      </trkpt>
      <trkpt lat="41.7896916065" lon="2.4361547269">
        <ele>1317.01</ele>
        <time>2019-05-04T10:47:55Z</time>
      </trkpt>
      <trkpt lat="41.7897999845" lon="2.4361760169">
        <ele>1313.75</ele>
        <time>2019-05-04T10:48:18Z</time>
      </trkpt>
      <trkpt lat="41.7898204364" lon="2.4360761885">
        <ele>1310.66</ele>
        <time>2019-05-04T10:48:39Z</time>
      </trkpt>
      <trkpt lat="41.7898637708" lon="2.4360220414">
        <ele>1307.63</ele>
        <time>2019-05-04T10:48:59Z</time>
      </trkpt>
      <trkpt lat="41.7899708916" lon="2.4360678066">
        <ele>1304.47</ele>
        <time>2019-05-04T10:49:17Z</time>
      </trkpt>
      <trkpt lat="41.7900700495" lon="2.4361384660">
        <ele>1301.34</ele>
        <time>2019-05-04T10:49:35Z</time>
      </trkpt>
      <trkpt lat="41.7902024835" lon="2.4362486042">
        <ele>1298.20</ele>
        <time>2019-05-04T10:49:53Z</time>
      </trkpt>
      <trkpt lat="41.7903016414" lon="2.4363567308">
        <ele>1296.52</ele>
        <time>2019-05-04T10:50:05Z</time>
      </trkpt>
      <trkpt lat="41.7903350014" lon="2.4362367857">
        <ele>1293.66</ele>
        <time>2019-05-04T10:50:26Z</time>
      </trkpt>
      <trkpt lat="41.7903315648" lon="2.4361220375">
        <ele>1290.63</ele>
        <time>2019-05-04T10:50:47Z</time>
      </trkpt>
      <trkpt lat="41.7903441377" lon="2.4359507952">
        <ele>1287.57</ele>
        <time>2019-05-04T10:51:08Z</time>
      </trkpt>
      <trkpt lat="41.7903199978" lon="2.4357890245">
        <ele>1285.03</ele>
        <time>2019-05-04T10:51:29Z</time>
      </trkpt>
      <trkpt lat="41.7902700417" lon="2.4356378987">
        <ele>1281.86</ele>
        <time>2019-05-04T10:51:51Z</time>
      </trkpt>
      <trkpt lat="41.7902314849" lon="2.4354560953">
        <ele>1279.15</ele>
        <time>2019-05-04T10:52:12Z</time>
      </trkpt>
      <trkpt lat="41.7901842948" lon="2.4351833481">
        <ele>1276.55</ele>
        <time>2019-05-04T10:52:36Z</time>
      </trkpt>
      <trkpt lat="41.7901788466" lon="2.4349165522">
        <ele>1274.06</ele>
        <time>2019-05-04T10:52:59Z</time>
      </trkpt>
      <trkpt lat="41.7902028188" lon="2.4347298034">
        <ele>1271.44</ele>
        <time>2019-05-04T10:53:18Z</time>
      </trkpt>
      <trkpt lat="41.7902096920" lon="2.4345289730">
        <ele>1268.30</ele>
        <time>2019-05-04T10:53:37Z</time>
      </trkpt>
      <trkpt lat="41.7901910841" lon="2.4343672022">
        <ele>1265.22</ele>
        <time>2019-05-04T10:53:56Z</time>
      </trkpt>
      <trkpt lat="41.7901338357" lon="2.4342056829">
        <ele>1262.12</ele>
        <time>2019-05-04T10:54:16Z</time>
      </trkpt>
      <trkpt lat="41.7902110331" lon="2.4341917690">
        <ele>1259.08</ele>
        <time>2019-05-04T10:54:32Z</time>
      </trkpt>
      <trkpt lat="41.7903117836" lon="2.4342766777">
        <ele>1256.06</ele>
        <time>2019-05-04T10:54:50Z</time>
      </trkpt>
      <trkpt lat="41.7903556209" lon="2.4343074393">
        <ele>1254.28</ele>
        <time>2019-05-04T10:55:03Z</time>
      </trkpt>
      <trkpt lat="41.7904456425" lon="2.4342455808">
        <ele>1251.13</ele>
        <time>2019-05-04T10:55:24Z</time>
      </trkpt>
      <trkpt lat="41.7905290425" lon="2.4342910945">
        <ele>1248.08</ele>
        <time>2019-05-04T10:55:44Z</time>
      </trkpt>
      <trkpt lat="41.7905953433" lon="2.4343582336">
        <ele>1244.91</ele>
        <time>2019-05-04T10:56:00Z</time>
      </trkpt>
      <trkpt lat="41.7906793300" lon="2.4344257079">
        <ele>1241.86</ele>
        <time>2019-05-04T10:56:17Z</time>
      </trkpt>
      <trkpt lat="41.7907686811" lon="2.4344878178">
        <ele>1238.68</ele>
        <time>2019-05-04T10:56:35Z</time>
      </trkpt>
      <trkpt lat="41.7907759733" lon="2.4344816990">
        <ele>1238.25</ele>
        <time>2019-05-04T10:56:38Z</time>
      </trkpt>
      <trkpt lat="41.7908004485" lon="2.4344783463">
        <ele>1238.00</ele>
        <time>2019-05-04T10:56:40Z</time>
      </trkpt>
      <trkpt lat="41.7908540089" lon="2.4343883246">
        <ele>1234.83</ele>
        <time>2019-05-04T10:57:03Z</time>
      </trkpt>
      <trkpt lat="41.7909148615" lon="2.4343818706">
        <ele>1231.70</ele>
        <time>2019-05-04T10:57:20Z</time>
      </trkpt>
      <trkpt lat="41.7909997702" lon="2.4344267137">
        <ele>1228.60</ele>
        <time>2019-05-04T10:57:38Z</time>
      </trkpt>
      <trkpt lat="41.7910907138" lon="2.4344417173">
        <ele>1225.56</ele>
        <time>2019-05-04T10:57:56Z</time>
      </trkpt>
      <trkpt lat="41.7912041210" lon="2.4344489258">
        <ele>1222.47</ele>
        <time>2019-05-04T10:58:17Z</time>
      </trkpt>
      <trkpt lat="41.7913032789" lon="2.4344780110">
        <ele>1219.46</ele>
        <time>2019-05-04T10:58:39Z</time>
      </trkpt>
      <trkpt lat="41.7913617846" lon="2.4345016479">
        <ele>1216.65</ele>
        <time>2019-05-04T10:59:05Z</time>
      </trkpt>
      <trkpt lat="41.7915104795" lon="2.4345779233">
        <ele>1213.53</ele>
        <time>2019-05-04T10:59:24Z</time>
      </trkpt>
      <trkpt lat="41.7915658001" lon="2.4346290529">
        <ele>1212.29</ele>
        <time>2019-05-04T10:59:33Z</time>
      </trkpt>
      <trkpt lat="41.7917015869" lon="2.4346843734">
        <ele>1209.04</ele>
        <time>2019-05-04T10:59:56Z</time>
      </trkpt>
      <trkpt lat="41.7918478511" lon="2.4347168114">
        <ele>1206.27</ele>
        <time>2019-05-04T11:00:16Z</time>
      </trkpt>
      <trkpt lat="41.7919630185" lon="2.4347053282">
        <ele>1204.24</ele>
        <time>2019-05-04T11:00:32Z</time>
      </trkpt>
      <trkpt lat="41.7921490967" lon="2.4347247742">
        <ele>1201.91</ele>
        <time>2019-05-04T11:00:55Z</time>
      </trkpt>
      <trkpt lat="41.7923318222" lon="2.4347836990">
        <ele>1200.05</ele>
        <time>2019-05-04T11:01:14Z</time>
      </trkpt>
      <trkpt lat="41.7924531084" lon="2.4347943440">
        <ele>1198.85</ele>
        <time>2019-05-04T11:01:29Z</time>
      </trkpt>
      <trkpt lat="41.7925666831" lon="2.4347472377">
        <ele>1197.79</ele>
        <time>2019-05-04T11:01:49Z</time>
      </trkpt>
      <trkpt lat="41.7926914897" lon="2.4347102735">
        <ele>1196.07</ele>
        <time>2019-05-04T11:02:08Z</time>
      </trkpt>
      <trkpt lat="41.7928244267" lon="2.4345827010">
        <ele>1193.89</ele>
        <time>2019-05-04T11:02:27Z</time>
      </trkpt>
      <trkpt lat="41.7929123528" lon="2.4344542064">
        <ele>1190.85</ele>
        <time>2019-05-04T11:02:44Z</time>
      </trkpt>
      <trkpt lat="41.7930175457" lon="2.4343640171">
        <ele>1189.12</ele>
        <time>2019-05-04T11:03:02Z</time>
      </trkpt>
      <trkpt lat="41.7931121774" lon="2.4341925234">
        <ele>1186.08</ele>
        <time>2019-05-04T11:03:22Z</time>
      </trkpt>
      <trkpt lat="41.7931979243" lon="2.4341371190">
        <ele>1183.04</ele>
        <time>2019-05-04T11:03:38Z</time>
      </trkpt>
      <trkpt lat="41.7932073120" lon="2.4341255520">
        <ele>1182.80</ele>
        <time>2019-05-04T11:03:41Z</time>
      </trkpt>
      <trkpt lat="41.7931133509" lon="2.4339730013">
        <ele>1179.83</ele>
        <time>2019-05-04T11:04:03Z</time>
      </trkpt>
      <trkpt lat="41.7929483112" lon="2.4339423236">
        <ele>1177.16</ele>
        <time>2019-05-04T11:04:28Z</time>
      </trkpt>
      <trkpt lat="41.7927722074" lon="2.4339499511">
        <ele>1174.93</ele>
        <time>2019-05-04T11:04:52Z</time>
      </trkpt>
      <trkpt lat="41.7926299665" lon="2.4339261465">
        <ele>1171.80</ele>
        <time>2019-05-04T11:05:15Z</time>
      </trkpt>
      <trkpt lat="41.7924955208" lon="2.4338320177">
        <ele>1169.56</ele>
        <time>2019-05-04T11:05:34Z</time>
      </trkpt>
      <trkpt lat="41.7924159765" lon="2.4337155093">
        <ele>1167.70</ele>
        <time>2019-05-04T11:05:51Z</time>
      </trkpt>
      <trkpt lat="41.7924671061" lon="2.4336359650">
        <ele>1165.14</ele>
        <time>2019-05-04T11:06:08Z</time>
      </trkpt>
      <trkpt lat="41.7926396057" lon="2.4336741865">
        <ele>1162.66</ele>
        <time>2019-05-04T11:06:27Z</time>
      </trkpt>
      <trkpt lat="41.7928369157" lon="2.4336350430">
        <ele>1161.70</ele>
        <time>2019-05-04T11:06:45Z</time>
      </trkpt>
      <trkpt lat="41.7930113431" lon="2.4335091468">
        <ele>1160.73</ele>
        <time>2019-05-04T11:07:05Z</time>
      </trkpt>
      <trkpt lat="41.7930516601" lon="2.4334819894">
        <ele>1159.97</ele>
        <time>2019-05-04T11:07:10Z</time>
      </trkpt>
      <trkpt lat="41.7932338826" lon="2.4333081488">
        <ele>1156.68</ele>
        <time>2019-05-04T11:07:31Z</time>
      </trkpt>
      <trkpt lat="41.7934511416" lon="2.4330880400">
        <ele>1153.95</ele>
        <time>2019-05-04T11:07:51Z</time>
      </trkpt>
      <trkpt lat="41.7935954779" lon="2.4329522531">
        <ele>1152.29</ele>
        <time>2019-05-04T11:08:07Z</time>
      </trkpt>
      <trkpt lat="41.7937867530" lon="2.4328074139">
        <ele>1150.35</ele>
        <time>2019-05-04T11:08:27Z</time>
      </trkpt>
      <trkpt lat="41.7939745076" lon="2.4326168932">
        <ele>1149.06</ele>
        <time>2019-05-04T11:08:46Z</time>
      </trkpt>
      <trkpt lat="41.7941843905" lon="2.4324944336">
        <ele>1147.48</ele>
        <time>2019-05-04T11:09:07Z</time>
      </trkpt>
      <trkpt lat="41.7942173313" lon="2.4324901588">
        <ele>1147.28</ele>
        <time>2019-05-04T11:09:12Z</time>
      </trkpt>
      <trkpt lat="41.7944391165" lon="2.4325620756">
        <ele>1145.60</ele>
        <time>2019-05-04T11:09:33Z</time>
      </trkpt>
      <trkpt lat="41.7946141306" lon="2.4327241816">
        <ele>1143.28</ele>
        <time>2019-05-04T11:09:53Z</time>
      </trkpt>
      <trkpt lat="41.7947232630" lon="2.4328986090">
        <ele>1140.87</ele>
        <time>2019-05-04T11:10:12Z</time>
      </trkpt>
      <trkpt lat="41.7948092613" lon="2.4331732839">
        <ele>1137.80</ele>
        <time>2019-05-04T11:10:33Z</time>
      </trkpt>
      <trkpt lat="41.7948484886" lon="2.4334581010">
        <ele>1134.79</ele>
        <time>2019-05-04T11:10:54Z</time>
      </trkpt>
      <trkpt lat="41.7948521767" lon="2.4335771240">
        <ele>1133.53</ele>
        <time>2019-05-04T11:11:02Z</time>
      </trkpt>
      <trkpt lat="41.7948751431" lon="2.4339009169">
        <ele>1130.22</ele>
        <time>2019-05-04T11:11:23Z</time>
      </trkpt>
      <trkpt lat="41.7949831020" lon="2.4342115503">
        <ele>1127.10</ele>
        <time>2019-05-04T11:11:41Z</time>
      </trkpt>
      <trkpt lat="41.7950311303" lon="2.4344141409">
        <ele>1123.91</ele>
        <time>2019-05-04T11:11:58Z</time>
      </trkpt>
      <trkpt lat="41.7950926535" lon="2.4347106926">
        <ele>1120.86</ele>
        <time>2019-05-04T11:12:18Z</time>
      </trkpt>
      <trkpt lat="41.7951254267" lon="2.4349655863">
        <ele>1120.88</ele>
        <time>2019-05-04T11:12:39Z</time>
      </trkpt>
      <trkpt lat="41.7951322161" lon="2.4352391716">
        <ele>1119.95</ele>
        <time>2019-05-04T11:13:01Z</time>
      </trkpt>
      <trkpt lat="41.7952296138" lon="2.4353395868">
        <ele>1120.19</ele>
        <time>2019-05-04T11:13:18Z</time>
      </trkpt>
      <trkpt lat="41.7953372374" lon="2.4352887925">
        <ele>1120.88</ele>
        <time>2019-05-04T11:13:30Z</time>
      </trkpt>
      <trkpt lat="41.7955142632" lon="2.4351624772">
        <ele>1122.63</ele>
        <time>2019-05-04T11:13:48Z</time>
      </trkpt>
      <trkpt lat="41.7957233079" lon="2.4350271095">
        <ele>1124.55</ele>
        <time>2019-05-04T11:14:07Z</time>
      </trkpt>
      <trkpt lat="41.7959556542" lon="2.4349606410">
        <ele>1125.90</ele>
        <time>2019-05-04T11:14:25Z</time>
      </trkpt>
      <trkpt lat="41.7961580772" lon="2.4348315597">
        <ele>1124.75</ele>
        <time>2019-05-04T11:14:41Z</time>
      </trkpt>
      <trkpt lat="41.7963587400" lon="2.4347034004">
        <ele>1123.60</ele>
        <time>2019-05-04T11:15:00Z</time>
      </trkpt>
      <trkpt lat="41.7965117935" lon="2.4347140454">
        <ele>1121.99</ele>
        <time>2019-05-04T11:15:14Z</time>
      </trkpt>
      <trkpt lat="41.7965727299" lon="2.4347244389">
        <ele>1121.65</ele>
        <time>2019-05-04T11:15:19Z</time>
      </trkpt>
      <trkpt lat="41.7966709659" lon="2.4346934259">
        <ele>1120.59</ele>
        <time>2019-05-04T11:15:36Z</time>
      </trkpt>
      <trkpt lat="41.7966698762" lon="2.4346803501">
        <ele>1120.28</ele>
        <time>2019-05-04T11:16:05Z</time>
      </trkpt>
      <trkpt lat="41.7966656853" lon="2.4347091001">
        <ele>1120.18</ele>
        <time>2019-05-04T11:16:28Z</time>
      </trkpt>
      <trkpt lat="41.7967974488" lon="2.4347345810">
        <ele>1119.58</ele>
        <time>2019-05-04T11:16:45Z</time>
      </trkpt>
      <trkpt lat="41.7969105206" lon="2.4348835275">
        <ele>1116.85</ele>
        <time>2019-05-04T11:17:04Z</time>
      </trkpt>
      <trkpt lat="41.7970008776" lon="2.4350384250">
        <ele>1114.24</ele>
        <time>2019-05-04T11:17:24Z</time>
      </trkpt>
      <trkpt lat="41.7970922403" lon="2.4350913148">
        <ele>1113.42</ele>
        <time>2019-05-04T11:17:53Z</time>
      </trkpt>
      <trkpt lat="41.7971607205" lon="2.4349772371">
        <ele>1111.20</ele>
        <time>2019-05-04T11:18:09Z</time>
      </trkpt>
      <trkpt lat="41.7972105928" lon="2.4347510096">
        <ele>1112.24</ele>
        <time>2019-05-04T11:18:25Z</time>
      </trkpt>
      <trkpt lat="41.7973456252" lon="2.4345760792">
        <ele>1113.59</ele>
        <time>2019-05-04T11:18:40Z</time>
      </trkpt>
      <trkpt lat="41.7976161093" lon="2.4343617540">
        <ele>1114.74</ele>
        <time>2019-05-04T11:19:04Z</time>
      </trkpt>
      <trkpt lat="41.7976372316" lon="2.4341645278">
        <ele>1115.80</ele>
        <time>2019-05-04T11:19:18Z</time>
      </trkpt>
      <trkpt lat="41.7976213899" lon="2.4340023380">
        <ele>1117.21</ele>
        <time>2019-05-04T11:19:30Z</time>
      </trkpt>
      <trkpt lat="41.7976307776" lon="2.4339319300">
        <ele>1117.85</ele>
        <time>2019-05-04T11:19:35Z</time>
      </trkpt>
      <trkpt lat="41.7976927198" lon="2.4338354543">
        <ele>1118.61</ele>
        <time>2019-05-04T11:19:44Z</time>
      </trkpt>
      <trkpt lat="41.7978540715" lon="2.4337598495">
        <ele>1120.37</ele>
        <time>2019-05-04T11:20:00Z</time>
      </trkpt>
      <trkpt lat="41.7979020160" lon="2.4337282497">
        <ele>1120.92</ele>
        <time>2019-05-04T11:20:05Z</time>
      </trkpt>
      <trkpt lat="41.7979981564" lon="2.4336801376">
        <ele>1121.81</ele>
        <time>2019-05-04T11:20:15Z</time>
      </trkpt>
      <trkpt lat="41.7980666365" lon="2.4336351268">
        <ele>1122.07</ele>
        <time>2019-05-04T11:20:20Z</time>
      </trkpt>
      <trkpt lat="41.7982438300" lon="2.4335202947">
        <ele>1123.35</ele>
        <time>2019-05-04T11:20:35Z</time>
      </trkpt>
      <trkpt lat="41.7984386254" lon="2.4333655648">
        <ele>1123.67</ele>
        <time>2019-05-04T11:20:52Z</time>
      </trkpt>
      <trkpt lat="41.7985812016" lon="2.4332757108">
        <ele>1122.82</ele>
        <time>2019-05-04T11:21:05Z</time>
      </trkpt>
      <trkpt lat="41.7987963650" lon="2.4331932329">
        <ele>1121.59</ele>
        <time>2019-05-04T11:21:23Z</time>
      </trkpt>
      <trkpt lat="41.7989910766" lon="2.4330424424">
        <ele>1120.91</ele>
        <time>2019-05-04T11:21:39Z</time>
      </trkpt>
      <trkpt lat="41.7991812620" lon="2.4327736348">
        <ele>1120.20</ele>
        <time>2019-05-04T11:21:58Z</time>
      </trkpt>
      <trkpt lat="41.7993556894" lon="2.4325624108">
        <ele>1120.67</ele>
        <time>2019-05-04T11:22:16Z</time>
      </trkpt>
      <trkpt lat="41.7995406780" lon="2.4324781727">
        <ele>1121.27</ele>
        <time>2019-05-04T11:22:32Z</time>
      </trkpt>
      <trkpt lat="41.7996297777" lon="2.4324908294">
        <ele>1121.43</ele>
        <time>2019-05-04T11:22:40Z</time>
      </trkpt>
      <trkpt lat="41.7998314463" lon="2.4326240178">
        <ele>1121.42</ele>
        <time>2019-05-04T11:22:54Z</time>
      </trkpt>
      <trkpt lat="41.7998549156" lon="2.4326464813">
        <ele>1121.51</ele>
        <time>2019-05-04T11:22:56Z</time>
      </trkpt>
      <trkpt lat="41.7999611981" lon="2.4328492396">
        <ele>1122.05</ele>
        <time>2019-05-04T11:23:10Z</time>
      </trkpt>
      <trkpt lat="41.7999752797" lon="2.4328861199">
        <ele>1122.05</ele>
        <time>2019-05-04T11:23:12Z</time>
      </trkpt>
      <trkpt lat="41.7999862600" lon="2.4329173844">
        <ele>1121.91</ele>
        <time>2019-05-04T11:23:14Z</time>
      </trkpt>
      <trkpt lat="41.8001041934" lon="2.4328134488">
        <ele>1122.31</ele>
        <time>2019-05-04T11:23:30Z</time>
      </trkpt>
      <trkpt lat="41.8002148345" lon="2.4326298852">
        <ele>1123.52</ele>
        <time>2019-05-04T11:23:44Z</time>
      </trkpt>
      <trkpt lat="41.8002242222" lon="2.4325997103">
        <ele>1123.82</ele>
        <time>2019-05-04T11:23:46Z</time>
      </trkpt>
      <trkpt lat="41.8002486136" lon="2.4325011391">
        <ele>1124.21</ele>
        <time>2019-05-04T11:23:52Z</time>
      </trkpt>
      <trkpt lat="41.8003714923" lon="2.4323688727">
        <ele>1125.06</ele>
        <time>2019-05-04T11:24:06Z</time>
      </trkpt>
      <trkpt lat="41.8005331792" lon="2.4323396198">
        <ele>1123.98</ele>
        <time>2019-05-04T11:24:22Z</time>
      </trkpt>
      <trkpt lat="41.8005936127" lon="2.4323267117">
        <ele>1123.56</ele>
        <time>2019-05-04T11:24:40Z</time>
      </trkpt>
      <trkpt lat="41.8006070238" lon="2.4323398713">
        <ele>1123.89</ele>
        <time>2019-05-04T11:25:19Z</time>
      </trkpt>
      <trkpt lat="41.8006343488" lon="2.4323160667">
        <ele>1123.42</ele>
        <time>2019-05-04T11:25:52Z</time>
      </trkpt>
      <trkpt lat="41.8007475883" lon="2.4322212674">
        <ele>1123.20</ele>
        <time>2019-05-04T11:26:04Z</time>
      </trkpt>
      <trkpt lat="41.8008325808" lon="2.4320857320">
        <ele>1123.62</ele>
        <time>2019-05-04T11:26:15Z</time>
      </trkpt>
      <trkpt lat="41.8008298147" lon="2.4318985641">
        <ele>1123.11</ele>
        <time>2019-05-04T11:26:26Z</time>
      </trkpt>
      <trkpt lat="41.8008619174" lon="2.4318299163">
        <ele>1122.94</ele>
        <time>2019-05-04T11:26:31Z</time>
      </trkpt>
      <trkpt lat="41.8009008095" lon="2.4317260645">
        <ele>1122.54</ele>
        <time>2019-05-04T11:26:38Z</time>
      </trkpt>
      <trkpt lat="41.8010355905" lon="2.4314802233">
        <ele>1122.27</ele>
        <time>2019-05-04T11:26:56Z</time>
      </trkpt>
      <trkpt lat="41.8011754844" lon="2.4312323704">
        <ele>1122.71</ele>
        <time>2019-05-04T11:27:14Z</time>
      </trkpt>
      <trkpt lat="41.8013332319" lon="2.4310555123">
        <ele>1121.72</ele>
        <time>2019-05-04T11:27:31Z</time>
      </trkpt>
      <trkpt lat="41.8015325535" lon="2.4309457093">
        <ele>1120.34</ele>
        <time>2019-05-04T11:27:48Z</time>
      </trkpt>
      <trkpt lat="41.8017020356" lon="2.4307926558">
        <ele>1117.32</ele>
        <time>2019-05-04T11:28:05Z</time>
      </trkpt>
      <trkpt lat="41.8018944003" lon="2.4306147918">
        <ele>1114.63</ele>
        <time>2019-05-04T11:28:23Z</time>
      </trkpt>
      <trkpt lat="41.8020039517" lon="2.4303380214">
        <ele>1111.68</ele>
        <time>2019-05-04T11:28:43Z</time>
      </trkpt>
      <trkpt lat="41.8020031136" lon="2.4303207546">
        <ele>1111.53</ele>
        <time>2019-05-04T11:28:44Z</time>
      </trkpt>
      <trkpt lat="41.8020141777" lon="2.4302682839">
        <ele>1111.02</ele>
        <time>2019-05-04T11:28:48Z</time>
      </trkpt>
      <trkpt lat="41.8020452745" lon="2.4301226065">
        <ele>1109.60</ele>
        <time>2019-05-04T11:28:57Z</time>
      </trkpt>
      <trkpt lat="41.8020316958" lon="2.4298691377">
        <ele>1107.14</ele>
        <time>2019-05-04T11:29:13Z</time>
      </trkpt>
      <trkpt lat="41.8019561749" lon="2.4296549801">
        <ele>1104.37</ele>
        <time>2019-05-04T11:29:27Z</time>
      </trkpt>
      <trkpt lat="41.8017976731" lon="2.4295216240">
        <ele>1101.25</ele>
        <time>2019-05-04T11:29:43Z</time>
      </trkpt>
      <trkpt lat="41.8016535044" lon="2.4293183628">
        <ele>1098.11</ele>
        <time>2019-05-04T11:30:00Z</time>
      </trkpt>
      <trkpt lat="41.8015957531" lon="2.4291496351">
        <ele>1096.12</ele>
        <time>2019-05-04T11:30:10Z</time>
      </trkpt>
      <trkpt lat="41.8015087489" lon="2.4288906343">
        <ele>1093.78</ele>
        <time>2019-05-04T11:30:26Z</time>
      </trkpt>
      <trkpt lat="41.8014771491" lon="2.4287689291">
        <ele>1092.64</ele>
        <time>2019-05-04T11:30:33Z</time>
      </trkpt>
      <trkpt lat="41.8014674261" lon="2.4287369940">
        <ele>1092.39</ele>
        <time>2019-05-04T11:30:35Z</time>
      </trkpt>
      <trkpt lat="41.8013911508" lon="2.4285606388">
        <ele>1090.74</ele>
        <time>2019-05-04T11:30:47Z</time>
      </trkpt>
      <trkpt lat="41.8013204075" lon="2.4283471517">
        <ele>1089.37</ele>
        <time>2019-05-04T11:31:01Z</time>
      </trkpt>
      <trkpt lat="41.8012432102" lon="2.4280918390">
        <ele>1086.94</ele>
        <time>2019-05-04T11:31:17Z</time>
      </trkpt>
      <trkpt lat="41.8011680245" lon="2.4277364463">
        <ele>1083.87</ele>
        <time>2019-05-04T11:31:38Z</time>
      </trkpt>
      <trkpt lat="41.8011066690" lon="2.4274753500">
        <ele>1081.54</ele>
        <time>2019-05-04T11:31:54Z</time>
      </trkpt>
      <trkpt lat="41.8010597304" lon="2.4271743558">
        <ele>1078.46</ele>
        <time>2019-05-04T11:32:13Z</time>
      </trkpt>
      <trkpt lat="41.8010143843" lon="2.4268492218">
        <ele>1075.89</ele>
        <time>2019-05-04T11:32:32Z</time>
      </trkpt>
      <trkpt lat="41.8010237720" lon="2.4265095871">
        <ele>1073.42</ele>
        <time>2019-05-04T11:32:51Z</time>
      </trkpt>
      <trkpt lat="41.8010167312" lon="2.4264375027">
        <ele>1072.67</ele>
        <time>2019-05-04T11:32:56Z</time>
      </trkpt>
      <trkpt lat="41.8009174895" lon="2.4261702038">
        <ele>1070.38</ele>
        <time>2019-05-04T11:33:12Z</time>
      </trkpt>
      <trkpt lat="41.8008735683" lon="2.4259113707">
        <ele>1068.70</ele>
        <time>2019-05-04T11:33:27Z</time>
      </trkpt>
      <trkpt lat="41.8009103648" lon="2.4258574750">
        <ele>1068.59</ele>
        <time>2019-05-04T11:33:32Z</time>
      </trkpt>
      <trkpt lat="41.8009931780" lon="2.4258401245">
        <ele>1068.97</ele>
        <time>2019-05-04T11:33:40Z</time>
      </trkpt>
      <trkpt lat="41.8010256160" lon="2.4258383643">
        <ele>1069.09</ele>
        <time>2019-05-04T11:33:42Z</time>
      </trkpt>
      <trkpt lat="41.8012656737" lon="2.4258772563">
        <ele>1071.13</ele>
        <time>2019-05-04T11:33:58Z</time>
      </trkpt>
      <trkpt lat="41.8014193140" lon="2.4258944392">
        <ele>1073.33</ele>
        <time>2019-05-04T11:34:13Z</time>
      </trkpt>
      <trkpt lat="41.8016061466" lon="2.4259111192">
        <ele>1075.04</ele>
        <time>2019-05-04T11:34:27Z</time>
      </trkpt>
      <trkpt lat="41.8018255848" lon="2.4258699641">
        <ele>1077.01</ele>
        <time>2019-05-04T11:34:43Z</time>
      </trkpt>
      <trkpt lat="41.8019551691" lon="2.4258532003">
        <ele>1079.15</ele>
        <time>2019-05-04T11:34:55Z</time>
      </trkpt>
      <trkpt lat="41.8021255732" lon="2.4257895816">
        <ele>1082.13</ele>
        <time>2019-05-04T11:35:12Z</time>
      </trkpt>
      <trkpt lat="41.8023360427" lon="2.4257137254">
        <ele>1084.82</ele>
        <time>2019-05-04T11:35:35Z</time>
      </trkpt>
      <trkpt lat="41.8024006672" lon="2.4256745819">
        <ele>1085.45</ele>
        <time>2019-05-04T11:35:41Z</time>
      </trkpt>
      <trkpt lat="41.8024958856" lon="2.4256206863">
        <ele>1086.24</ele>
        <time>2019-05-04T11:35:47Z</time>
      </trkpt>
      <trkpt lat="41.8025701493" lon="2.4255995639">
        <ele>1087.03</ele>
        <time>2019-05-04T11:35:52Z</time>
      </trkpt>
      <trkpt lat="41.8026196025" lon="2.4255413935">
        <ele>1087.32</ele>
        <time>2019-05-04T11:35:57Z</time>
      </trkpt>
      <trkpt lat="41.8026708160" lon="2.4254626036">
        <ele>1087.99</ele>
        <time>2019-05-04T11:36:04Z</time>
      </trkpt>
      <trkpt lat="41.8027421460" lon="2.4251632858">
        <ele>1088.85</ele>
        <time>2019-05-04T11:36:17Z</time>
      </trkpt>
      <trkpt lat="41.8027753383" lon="2.4247244094">
        <ele>1089.10</ele>
        <time>2019-05-04T11:36:33Z</time>
      </trkpt>
      <trkpt lat="41.8027689680" lon="2.4244913086">
        <ele>1089.63</ele>
        <time>2019-05-04T11:36:48Z</time>
      </trkpt>
      <trkpt lat="41.8027724884" lon="2.4244779814">
        <ele>1089.67</ele>
        <time>2019-05-04T11:36:49Z</time>
      </trkpt>
      <trkpt lat="41.8028478418" lon="2.4243155401">
        <ele>1089.95</ele>
        <time>2019-05-04T11:37:01Z</time>
      </trkpt>
      <trkpt lat="41.8028822914" lon="2.4242108501">
        <ele>1090.05</ele>
        <time>2019-05-04T11:37:06Z</time>
      </trkpt>
      <trkpt lat="41.8029589020" lon="2.4239146337">
        <ele>1090.78</ele>
        <time>2019-05-04T11:37:24Z</time>
      </trkpt>
      <trkpt lat="41.8029754981" lon="2.4238534458">
        <ele>1090.78</ele>
        <time>2019-05-04T11:37:29Z</time>
      </trkpt>
      <trkpt lat="41.8030220177" lon="2.4237928446">
        <ele>1090.17</ele>
        <time>2019-05-04T11:37:35Z</time>
      </trkpt>
      <trkpt lat="41.8030931801" lon="2.4236408807">
        <ele>1089.09</ele>
        <time>2019-05-04T11:37:49Z</time>
      </trkpt>
      <trkpt lat="41.8032035697" lon="2.4234143179">
        <ele>1087.99</ele>
        <time>2019-05-04T11:38:06Z</time>
      </trkpt>
      <trkpt lat="41.8033544440" lon="2.4230202846">
        <ele>1087.52</ele>
        <time>2019-05-04T11:38:23Z</time>
      </trkpt>
      <trkpt lat="41.8033909891" lon="2.4227062985">
        <ele>1087.89</ele>
        <time>2019-05-04T11:38:37Z</time>
      </trkpt>
      <trkpt lat="41.8033754826" lon="2.4226207193">
        <ele>1088.21</ele>
        <time>2019-05-04T11:38:44Z</time>
      </trkpt>
      <trkpt lat="41.8033862114" lon="2.4223784823">
        <ele>1088.32</ele>
        <time>2019-05-04T11:38:57Z</time>
      </trkpt>
      <trkpt lat="41.8033985328" lon="2.4220855348">
        <ele>1089.26</ele>
        <time>2019-05-04T11:39:15Z</time>
      </trkpt>
      <trkpt lat="41.8034598045" lon="2.4219194893">
        <ele>1090.17</ele>
        <time>2019-05-04T11:39:24Z</time>
      </trkpt>
      <trkpt lat="41.8035264406" lon="2.4218241870">
        <ele>1090.97</ele>
        <time>2019-05-04T11:39:34Z</time>
      </trkpt>
      <trkpt lat="41.8035535142" lon="2.4214685429">
        <ele>1091.91</ele>
        <time>2019-05-04T11:39:53Z</time>
      </trkpt>
      <trkpt lat="41.8035803363" lon="2.4211462587">
        <ele>1091.80</ele>
        <time>2019-05-04T11:40:09Z</time>
      </trkpt>
      <trkpt lat="41.8035820127" lon="2.4208709132">
        <ele>1092.54</ele>
        <time>2019-05-04T11:40:24Z</time>
      </trkpt>
      <trkpt lat="41.8035944179" lon="2.4206441827">
        <ele>1093.86</ele>
        <time>2019-05-04T11:40:39Z</time>
      </trkpt>
      <trkpt lat="41.8036435358" lon="2.4204306118">
        <ele>1094.77</ele>
        <time>2019-05-04T11:40:54Z</time>
      </trkpt>
      <trkpt lat="41.8037866149" lon="2.4200851936">
        <ele>1095.00</ele>
        <time>2019-05-04T11:41:15Z</time>
      </trkpt>
      <trkpt lat="41.8038921431" lon="2.4197885580">
        <ele>1093.91</ele>
        <time>2019-05-04T11:41:32Z</time>
      </trkpt>
      <trkpt lat="41.8038945738" lon="2.4197780807">
        <ele>1093.86</ele>
        <time>2019-05-04T11:41:33Z</time>
      </trkpt>
      <trkpt lat="41.8038727809" lon="2.4195131287">
        <ele>1093.04</ele>
        <time>2019-05-04T11:41:46Z</time>
      </trkpt>
      <trkpt lat="41.8038773909" lon="2.4194174074">
        <ele>1092.97</ele>
        <time>2019-05-04T11:41:51Z</time>
      </trkpt>
      <trkpt lat="41.8039265089" lon="2.4192044232">
        <ele>1094.06</ele>
        <time>2019-05-04T11:42:05Z</time>
      </trkpt>
      <trkpt lat="41.8039530795" lon="2.4191055167">
        <ele>1094.96</ele>
        <time>2019-05-04T11:42:12Z</time>
      </trkpt>
      <trkpt lat="41.8039581925" lon="2.4190492742">
        <ele>1095.44</ele>
        <time>2019-05-04T11:42:16Z</time>
      </trkpt>
      <trkpt lat="41.8040059693" lon="2.4189403933">
        <ele>1095.97</ele>
        <time>2019-05-04T11:42:23Z</time>
      </trkpt>
      <trkpt lat="41.8041114975" lon="2.4187232181">
        <ele>1097.21</ele>
        <time>2019-05-04T11:42:37Z</time>
      </trkpt>
      <trkpt lat="41.8042081408" lon="2.4185616150">
        <ele>1097.98</ele>
        <time>2019-05-04T11:42:50Z</time>
      </trkpt>
      <trkpt lat="41.8042743579" lon="2.4184801430">
        <ele>1098.23</ele>
        <time>2019-05-04T11:42:57Z</time>
      </trkpt>
      <trkpt lat="41.8042845000" lon="2.4184666481">
        <ele>1098.29</ele>
        <time>2019-05-04T11:42:58Z</time>
      </trkpt>
      <trkpt lat="41.8042995036" lon="2.4184521474">
        <ele>1098.36</ele>
        <time>2019-05-04T11:42:59Z</time>
      </trkpt>
      <trkpt lat="41.8043113220" lon="2.4184361380">
        <ele>1098.44</ele>
        <time>2019-05-04T11:43:00Z</time>
      </trkpt>
      <trkpt lat="41.8043549079" lon="2.4183348846">
        <ele>1098.96</ele>
        <time>2019-05-04T11:43:07Z</time>
      </trkpt>
      <trkpt lat="41.8043540698" lon="2.4183182884">
        <ele>1099.07</ele>
        <time>2019-05-04T11:43:08Z</time>
      </trkpt>
      <trkpt lat="41.8042814825" lon="2.4181353953">
        <ele>1100.70</ele>
        <time>2019-05-04T11:43:21Z</time>
      </trkpt>
      <trkpt lat="41.8042684067" lon="2.4181328807">
        <ele>1101.60</ele>
        <time>2019-05-04T11:43:38Z</time>
      </trkpt>
      <trkpt lat="41.8041966576" lon="2.4181294441">
        <ele>1100.32</ele>
        <time>2019-05-04T11:43:55Z</time>
      </trkpt>
      <trkpt lat="41.8040853459" lon="2.4181757960">
        <ele>1097.58</ele>
        <time>2019-05-04T11:44:12Z</time>
      </trkpt>
      <trkpt lat="41.8039650656" lon="2.4181515723">
        <ele>1094.47</ele>
        <time>2019-05-04T11:44:30Z</time>
      </trkpt>
      <trkpt lat="41.8038521614" lon="2.4181956612">
        <ele>1091.39</ele>
        <time>2019-05-04T11:44:55Z</time>
      </trkpt>
      <trkpt lat="41.8037651572" lon="2.4181831721">
        <ele>1088.57</ele>
        <time>2019-05-04T11:45:17Z</time>
      </trkpt>
      <trkpt lat="41.8037525844" lon="2.4181710184">
        <ele>1087.35</ele>
        <time>2019-05-04T11:45:25Z</time>
      </trkpt>
      <trkpt lat="41.8036465533" lon="2.4181150272">
        <ele>1084.87</ele>
        <time>2019-05-04T11:45:42Z</time>
      </trkpt>
      <trkpt lat="41.8035680149" lon="2.4179817550">
        <ele>1082.01</ele>
        <time>2019-05-04T11:46:02Z</time>
      </trkpt>
      <trkpt lat="41.8034677673" lon="2.4178677611">
        <ele>1079.37</ele>
        <time>2019-05-04T11:46:21Z</time>
      </trkpt>
      <trkpt lat="41.8034197390" lon="2.4178192299">
        <ele>1079.68</ele>
        <time>2019-05-04T11:46:34Z</time>
      </trkpt>
      <trkpt lat="41.8034119438" lon="2.4178354908">
        <ele>1079.78</ele>
        <time>2019-05-04T11:46:47Z</time>
      </trkpt>
      <trkpt lat="41.8034209963" lon="2.4178107642">
        <ele>1079.66</ele>
        <time>2019-05-04T11:47:19Z</time>
      </trkpt>
      <trkpt lat="41.8034416996" lon="2.4177737162">
        <ele>1081.35</ele>
        <time>2019-05-04T11:47:46Z</time>
      </trkpt>
      <trkpt lat="41.8033954315" lon="2.4178348202">
        <ele>1080.31</ele>
        <time>2019-05-04T11:48:07Z</time>
      </trkpt>
      <trkpt lat="41.8033547793" lon="2.4177955929">
        <ele>1080.34</ele>
        <time>2019-05-04T11:48:33Z</time>
      </trkpt>
      <trkpt lat="41.8033624906" lon="2.4177867081">
        <ele>1080.47</ele>
        <time>2019-05-04T11:48:37Z</time>
      </trkpt>
      <trkpt lat="41.8034691922" lon="2.4178346526">
        <ele>1079.64</ele>
        <time>2019-05-04T11:49:01Z</time>
      </trkpt>
      <trkpt lat="41.8035712838" lon="2.4179115146">
        <ele>1079.81</ele>
        <time>2019-05-04T11:49:16Z</time>
      </trkpt>
      <trkpt lat="41.8035850301" lon="2.4180329684">
        <ele>1082.60</ele>
        <time>2019-05-04T11:49:30Z</time>
      </trkpt>
      <trkpt lat="41.8036350701" lon="2.4181325454">
        <ele>1084.69</ele>
        <time>2019-05-04T11:49:45Z</time>
      </trkpt>
      <trkpt lat="41.8037271872" lon="2.4181412626">
        <ele>1087.87</ele>
        <time>2019-05-04T11:50:00Z</time>
      </trkpt>
      <trkpt lat="41.8038191367" lon="2.4181711860">
        <ele>1089.75</ele>
        <time>2019-05-04T11:50:11Z</time>
      </trkpt>
      <trkpt lat="41.8038655724" lon="2.4181541707">
        <ele>1091.49</ele>
        <time>2019-05-04T11:50:20Z</time>
      </trkpt>
      <trkpt lat="41.8039706815" lon="2.4181232415">
        <ele>1093.40</ele>
        <time>2019-05-04T11:50:33Z</time>
      </trkpt>
      <trkpt lat="41.8040868547" lon="2.4181520753">
        <ele>1095.87</ele>
        <time>2019-05-04T11:50:46Z</time>
      </trkpt>
      <trkpt lat="41.8041331228" lon="2.4181468785">
        <ele>1096.71</ele>
        <time>2019-05-04T11:50:52Z</time>
      </trkpt>
      <trkpt lat="41.8042173609" lon="2.4181187153">
        <ele>1099.96</ele>
        <time>2019-05-04T11:51:08Z</time>
      </trkpt>
      <trkpt lat="41.8042524811" lon="2.4179852754">
        <ele>1102.35</ele>
        <time>2019-05-04T11:51:24Z</time>
      </trkpt>
      <trkpt lat="41.8043098133" lon="2.4178508297">
        <ele>1104.36</ele>
        <time>2019-05-04T11:51:37Z</time>
      </trkpt>
      <trkpt lat="41.8043448497" lon="2.4177470617">
        <ele>1105.64</ele>
        <time>2019-05-04T11:51:46Z</time>
      </trkpt>
      <trkpt lat="41.8043534830" lon="2.4176698644">
        <ele>1106.43</ele>
        <time>2019-05-04T11:51:52Z</time>
      </trkpt>
      <trkpt lat="41.8043536507" lon="2.4176255241">
        <ele>1106.77</ele>
        <time>2019-05-04T11:51:55Z</time>
      </trkpt>
      <trkpt lat="41.8043621164" lon="2.4175193254">
        <ele>1107.59</ele>
        <time>2019-05-04T11:52:03Z</time>
      </trkpt>
      <trkpt lat="41.8043321092" lon="2.4174516834">
        <ele>1107.91</ele>
        <time>2019-05-04T11:52:08Z</time>
      </trkpt>
      <trkpt lat="41.8043267448" lon="2.4172434770">
        <ele>1109.15</ele>
        <time>2019-05-04T11:52:23Z</time>
      </trkpt>
      <trkpt lat="41.8043069635" lon="2.4170577340">
        <ele>1110.02</ele>
        <time>2019-05-04T11:52:35Z</time>
      </trkpt>
      <trkpt lat="41.8042887747" lon="2.4168398045">
        <ele>1111.26</ele>
        <time>2019-05-04T11:52:51Z</time>
      </trkpt>
      <trkpt lat="41.8042859249" lon="2.4168118928">
        <ele>1111.45</ele>
        <time>2019-05-04T11:52:53Z</time>
      </trkpt>
      <trkpt lat="41.8042915408" lon="2.4166333582">
        <ele>1113.18</ele>
        <time>2019-05-04T11:53:08Z</time>
      </trkpt>
      <trkpt lat="41.8043374736" lon="2.4165592622">
        <ele>1116.21</ele>
        <time>2019-05-04T11:53:23Z</time>
      </trkpt>
      <trkpt lat="41.8044391461" lon="2.4165046122">
        <ele>1119.12</ele>
        <time>2019-05-04T11:53:44Z</time>
      </trkpt>
      <trkpt lat="41.8045196962" lon="2.4164513033">
        <ele>1121.97</ele>
        <time>2019-05-04T11:53:57Z</time>
      </trkpt>
      <trkpt lat="41.8046213686" lon="2.4162798095">
        <ele>1124.07</ele>
        <time>2019-05-04T11:54:13Z</time>
      </trkpt>
      <trkpt lat="41.8046416529" lon="2.4161908776">
        <ele>1127.22</ele>
        <time>2019-05-04T11:54:24Z</time>
      </trkpt>
      <trkpt lat="41.8046847358" lon="2.4161270913">
        <ele>1130.09</ele>
        <time>2019-05-04T11:54:40Z</time>
      </trkpt>
      <trkpt lat="41.8047382124" lon="2.4160634726">
        <ele>1133.30</ele>
        <time>2019-05-04T11:54:54Z</time>
      </trkpt>
      <trkpt lat="41.8048139848" lon="2.4159667455">
        <ele>1136.65</ele>
        <time>2019-05-04T11:55:11Z</time>
      </trkpt>
      <trkpt lat="41.8048595823" lon="2.4157892168">
        <ele>1138.24</ele>
        <time>2019-05-04T11:55:28Z</time>
      </trkpt>
      <trkpt lat="41.8048978038" lon="2.4155999534">
        <ele>1140.56</ele>
        <time>2019-05-04T11:55:46Z</time>
      </trkpt>
      <trkpt lat="41.8048470095" lon="2.4154875521">
        <ele>1142.47</ele>
        <time>2019-05-04T11:55:59Z</time>
      </trkpt>
      <trkpt lat="41.8048000708" lon="2.4153330736">
        <ele>1145.84</ele>
        <time>2019-05-04T11:56:17Z</time>
      </trkpt>
      <trkpt lat="41.8047543894" lon="2.4152174871">
        <ele>1149.08</ele>
        <time>2019-05-04T11:56:32Z</time>
      </trkpt>
      <trkpt lat="41.8047315907" lon="2.4150746595">
        <ele>1152.23</ele>
        <time>2019-05-04T11:56:48Z</time>
      </trkpt>
      <trkpt lat="41.8046771921" lon="2.4149035849">
        <ele>1155.49</ele>
        <time>2019-05-04T11:57:04Z</time>
      </trkpt>
      <trkpt lat="41.8046331033" lon="2.4147432391">
        <ele>1158.64</ele>
        <time>2019-05-04T11:57:16Z</time>
      </trkpt>
      <trkpt lat="41.8046138249" lon="2.4146219529">
        <ele>1161.71</ele>
        <time>2019-05-04T11:57:32Z</time>
      </trkpt>
      <trkpt lat="41.8045895174" lon="2.4144859146">
        <ele>1164.84</ele>
        <time>2019-05-04T11:57:48Z</time>
      </trkpt>
      <trkpt lat="41.8045446742" lon="2.4143549893">
        <ele>1167.92</ele>
        <time>2019-05-04T11:58:03Z</time>
      </trkpt>
      <trkpt lat="41.8045246415" lon="2.4142402411">
        <ele>1171.02</ele>
        <time>2019-05-04T11:58:19Z</time>
      </trkpt>
      <trkpt lat="41.8044842407" lon="2.4141036998">
        <ele>1174.11</ele>
        <time>2019-05-04T11:58:38Z</time>
      </trkpt>
      <trkpt lat="41.8044597656" lon="2.4139187951">
        <ele>1176.91</ele>
        <time>2019-05-04T11:59:01Z</time>
      </trkpt>
      <trkpt lat="41.8044304289" lon="2.4137851037">
        <ele>1180.11</ele>
        <time>2019-05-04T11:59:19Z</time>
      </trkpt>
      <trkpt lat="41.8043648824" lon="2.4135709461">
        <ele>1183.21</ele>
        <time>2019-05-04T11:59:38Z</time>
      </trkpt>
      <trkpt lat="41.8043015990" lon="2.4134400208">
        <ele>1186.37</ele>
        <time>2019-05-04T11:59:56Z</time>
      </trkpt>
      <trkpt lat="41.8042665627" lon="2.4132841174">
        <ele>1189.24</ele>
        <time>2019-05-04T12:00:15Z</time>
      </trkpt>
      <trkpt lat="41.8042278383" lon="2.4130227696">
        <ele>1191.22</ele>
        <time>2019-05-04T12:00:35Z</time>
      </trkpt>
      <trkpt lat="41.8042248208" lon="2.4128584843">
        <ele>1194.30</ele>
        <time>2019-05-04T12:00:53Z</time>
      </trkpt>
      <trkpt lat="41.8042198755" lon="2.4126443267">
        <ele>1197.34</ele>
        <time>2019-05-04T12:01:12Z</time>
      </trkpt>
      <trkpt lat="41.8041636329" lon="2.4124472681">
        <ele>1200.34</ele>
        <time>2019-05-04T12:01:29Z</time>
      </trkpt>
      <trkpt lat="41.8041019421" lon="2.4122536462">
        <ele>1203.40</ele>
        <time>2019-05-04T12:01:45Z</time>
      </trkpt>
      <trkpt lat="41.8040670734" lon="2.4122294225">
        <ele>1206.46</ele>
        <time>2019-05-04T12:02:03Z</time>
      </trkpt>
      <trkpt lat="41.8040538300" lon="2.4121961463">
        <ele>1209.58</ele>
        <time>2019-05-04T12:02:21Z</time>
      </trkpt>
      <trkpt lat="41.8040389102" lon="2.4122251477">
        <ele>1212.60</ele>
        <time>2019-05-04T12:02:35Z</time>
      </trkpt>
      <trkpt lat="41.8040414248" lon="2.4122878443">
        <ele>1213.92</ele>
        <time>2019-05-04T12:02:41Z</time>
      </trkpt>
      <trkpt lat="41.8040931411" lon="2.4123546481">
        <ele>1216.82</ele>
        <time>2019-05-04T12:03:00Z</time>
      </trkpt>
      <trkpt lat="41.8040308636" lon="2.4124727491">
        <ele>1219.44</ele>
        <time>2019-05-04T12:03:16Z</time>
      </trkpt>
      <trkpt lat="41.8039036263" lon="2.4124974757">
        <ele>1222.45</ele>
        <time>2019-05-04T12:03:34Z</time>
      </trkpt>
      <trkpt lat="41.8038074858" lon="2.4125572387">
        <ele>1224.52</ele>
        <time>2019-05-04T12:03:53Z</time>
      </trkpt>
      <trkpt lat="41.8037127703" lon="2.4123819731">
        <ele>1227.34</ele>
        <time>2019-05-04T12:04:13Z</time>
      </trkpt>
      <trkpt lat="41.8036701903" lon="2.4122155085">
        <ele>1229.59</ele>
        <time>2019-05-04T12:04:28Z</time>
      </trkpt>
      <trkpt lat="41.8036267720" lon="2.4120580126">
        <ele>1232.77</ele>
        <time>2019-05-04T12:04:49Z</time>
      </trkpt>
      <trkpt lat="41.8035140354" lon="2.4119099882">
        <ele>1235.17</ele>
        <time>2019-05-04T12:05:05Z</time>
      </trkpt>
      <trkpt lat="41.8034499977" lon="2.4119435996">
        <ele>1238.23</ele>
        <time>2019-05-04T12:05:18Z</time>
      </trkpt>
      <trkpt lat="41.8033793382" lon="2.4118904583">
        <ele>1241.41</ele>
        <time>2019-05-04T12:05:34Z</time>
      </trkpt>
      <trkpt lat="41.8033516780" lon="2.4118855968">
        <ele>1244.43</ele>
        <time>2019-05-04T12:05:52Z</time>
      </trkpt>
      <trkpt lat="41.8033499178" lon="2.4118598644">
        <ele>1245.50</ele>
        <time>2019-05-04T12:06:00Z</time>
      </trkpt>
      <trkpt lat="41.8032769952" lon="2.4119469523">
        <ele>1248.03</ele>
        <time>2019-05-04T12:06:15Z</time>
      </trkpt>
      <trkpt lat="41.8031533621" lon="2.4119977467">
        <ele>1251.35</ele>
        <time>2019-05-04T12:06:31Z</time>
      </trkpt>
      <trkpt lat="41.8030560482" lon="2.4120264128">
        <ele>1254.51</ele>
        <time>2019-05-04T12:06:46Z</time>
      </trkpt>
      <trkpt lat="41.8029776774" lon="2.4120279215">
        <ele>1257.52</ele>
        <time>2019-05-04T12:07:01Z</time>
      </trkpt>
      <trkpt lat="41.8029015698" lon="2.4119823240">
        <ele>1260.84</ele>
        <time>2019-05-04T12:07:16Z</time>
      </trkpt>
      <trkpt lat="41.8028130569" lon="2.4119461142">
        <ele>1263.85</ele>
        <time>2019-05-04T12:07:30Z</time>
      </trkpt>
      <trkpt lat="41.8026846461" lon="2.4119099882">
        <ele>1266.92</ele>
        <time>2019-05-04T12:07:48Z</time>
      </trkpt>
      <trkpt lat="41.8026193511" lon="2.4118876085">
        <ele>1268.87</ele>
        <time>2019-05-04T12:07:58Z</time>
      </trkpt>
      <trkpt lat="41.8025299162" lon="2.4118676595">
        <ele>1272.13</ele>
        <time>2019-05-04T12:08:15Z</time>
      </trkpt>
      <trkpt lat="41.8024889287" lon="2.4117869418">
        <ele>1275.16</ele>
        <time>2019-05-04T12:08:29Z</time>
      </trkpt>
      <trkpt lat="41.8024367094" lon="2.4117571022">
        <ele>1278.24</ele>
        <time>2019-05-04T12:08:43Z</time>
      </trkpt>
      <trkpt lat="41.8024031818" lon="2.4116861075">
        <ele>1281.29</ele>
        <time>2019-05-04T12:08:58Z</time>
      </trkpt>
      <trkpt lat="41.8023196980" lon="2.4116377439">
        <ele>1284.36</ele>
        <time>2019-05-04T12:09:16Z</time>
      </trkpt>
      <trkpt lat="41.8023238052" lon="2.4115471356">
        <ele>1287.54</ele>
        <time>2019-05-04T12:09:30Z</time>
      </trkpt>
      <trkpt lat="41.8022979889" lon="2.4114763085">
        <ele>1290.62</ele>
        <time>2019-05-04T12:09:49Z</time>
      </trkpt>
      <trkpt lat="41.8023334444" lon="2.4114443734">
        <ele>1291.24</ele>
        <time>2019-05-04T12:10:21Z</time>
      </trkpt>
      <trkpt lat="41.8023976497" lon="2.4114299566">
        <ele>1291.47</ele>
        <time>2019-05-04T12:10:55Z</time>
      </trkpt>
      <trkpt lat="41.8023543153" lon="2.4113589618">
        <ele>1294.35</ele>
        <time>2019-05-04T12:11:16Z</time>
      </trkpt>
      <trkpt lat="41.8023178540" lon="2.4113291223">
        <ele>1297.46</ele>
        <time>2019-05-04T12:11:35Z</time>
      </trkpt>
      <trkpt lat="41.8022685684" lon="2.4112559482">
        <ele>1300.49</ele>
        <time>2019-05-04T12:11:53Z</time>
      </trkpt>
      <trkpt lat="41.8022220489" lon="2.4112437945">
        <ele>1303.39</ele>
        <time>2019-05-04T12:12:11Z</time>
      </trkpt>
      <trkpt lat="41.8022005912" lon="2.4111939222">
        <ele>1306.55</ele>
        <time>2019-05-04T12:12:30Z</time>
      </trkpt>
      <trkpt lat="41.8021949753" lon="2.4111982808">
        <ele>1306.87</ele>
        <time>2019-05-04T12:12:32Z</time>
      </trkpt>
      <trkpt lat="41.8021223042" lon="2.4111494981">
        <ele>1310.13</ele>
        <time>2019-05-04T12:12:49Z</time>
      </trkpt>
      <trkpt lat="41.8020530697" lon="2.4111362547">
        <ele>1313.22</ele>
        <time>2019-05-04T12:13:10Z</time>
      </trkpt>
      <trkpt lat="41.8019755371" lon="2.4111268669">
        <ele>1316.39</ele>
        <time>2019-05-04T12:13:27Z</time>
      </trkpt>
      <trkpt lat="41.8019025307" lon="2.4111266155">
        <ele>1319.53</ele>
        <time>2019-05-04T12:13:45Z</time>
      </trkpt>
      <trkpt lat="41.8018881977" lon="2.4110816047">
        <ele>1320.86</ele>
        <time>2019-05-04T12:13:53Z</time>
      </trkpt>
      <trkpt lat="41.8018618785" lon="2.4110153038">
        <ele>1324.14</ele>
        <time>2019-05-04T12:14:13Z</time>
      </trkpt>
      <trkpt lat="41.8018135149" lon="2.4109797645">
        <ele>1327.31</ele>
        <time>2019-05-04T12:14:29Z</time>
      </trkpt>
      <trkpt lat="41.8017608766" lon="2.4109468237">
        <ele>1330.51</ele>
        <time>2019-05-04T12:14:44Z</time>
      </trkpt>
      <trkpt lat="41.8017322943" lon="2.4109463207">
        <ele>1333.62</ele>
        <time>2019-05-04T12:14:59Z</time>
      </trkpt>
      <trkpt lat="41.8016949948" lon="2.4109475780">
        <ele>1335.82</ele>
        <time>2019-05-04T12:15:12Z</time>
      </trkpt>
      <trkpt lat="41.8016309571" lon="2.4109462369">
        <ele>1339.15</ele>
        <time>2019-05-04T12:15:32Z</time>
      </trkpt>
      <trkpt lat="41.8016308732" lon="2.4109275453">
        <ele>1339.93</ele>
        <time>2019-05-04T12:15:37Z</time>
      </trkpt>
      <trkpt lat="41.8016150314" lon="2.4108153116">
        <ele>1343.29</ele>
        <time>2019-05-04T12:15:55Z</time>
      </trkpt>
      <trkpt lat="41.8015575316" lon="2.4107721448">
        <ele>1345.34</ele>
        <time>2019-05-04T12:16:21Z</time>
      </trkpt>
      <trkpt lat="41.8015785702" lon="2.4107413832">
        <ele>1346.68</ele>
        <time>2019-05-04T12:16:43Z</time>
      </trkpt>
      <trkpt lat="41.8015692662" lon="2.4107376952">
        <ele>1346.96</ele>
        <time>2019-05-04T12:16:45Z</time>
      </trkpt>
      <trkpt lat="41.8015079945" lon="2.4107144773">
        <ele>1350.20</ele>
        <time>2019-05-04T12:17:06Z</time>
      </trkpt>
      <trkpt lat="41.8014852796" lon="2.4106938578">
        <ele>1353.35</ele>
        <time>2019-05-04T12:17:25Z</time>
      </trkpt>
      <trkpt lat="41.8013743032" lon="2.4106700532">
        <ele>1356.42</ele>
        <time>2019-05-04T12:17:42Z</time>
      </trkpt>
      <trkpt lat="41.8012844492" lon="2.4106283113">
        <ele>1359.44</ele>
        <time>2019-05-04T12:17:58Z</time>
      </trkpt>
      <trkpt lat="41.8012422882" lon="2.4106013216">
        <ele>1360.39</ele>
        <time>2019-05-04T12:18:04Z</time>
      </trkpt>
      <trkpt lat="41.8012251053" lon="2.4105905090">
        <ele>1360.71</ele>
        <time>2019-05-04T12:18:06Z</time>
      </trkpt>
      <trkpt lat="41.8011243548" lon="2.4106223602">
        <ele>1361.64</ele>
        <time>2019-05-04T12:18:14Z</time>
      </trkpt>
      <trkpt lat="41.8010941800" lon="2.4106505234">
        <ele>1361.96</ele>
        <time>2019-05-04T12:18:17Z</time>
      </trkpt>
      <trkpt lat="41.8009444792" lon="2.4107760005">
        <ele>1364.98</ele>
        <time>2019-05-04T12:18:37Z</time>
      </trkpt>
      <trkpt lat="41.8009138014" lon="2.4107711390">
        <ele>1365.78</ele>
        <time>2019-05-04T12:18:43Z</time>
      </trkpt>
      <trkpt lat="41.8008263782" lon="2.4107555486">
        <ele>1368.36</ele>
        <time>2019-05-04T12:19:03Z</time>
      </trkpt>
      <trkpt lat="41.8007523660" lon="2.4106378667">
        <ele>1370.80</ele>
        <time>2019-05-04T12:19:24Z</time>
      </trkpt>
      <trkpt lat="41.8006908428" lon="2.4104634393">
        <ele>1373.17</ele>
        <time>2019-05-04T12:19:46Z</time>
      </trkpt>
      <trkpt lat="41.8006718997" lon="2.4102735054">
        <ele>1375.43</ele>
        <time>2019-05-04T12:20:08Z</time>
      </trkpt>
      <trkpt lat="41.8006737437" lon="2.4100213777">
        <ele>1378.55</ele>
        <time>2019-05-04T12:20:29Z</time>
      </trkpt>
      <trkpt lat="41.8006853946" lon="2.4098092318">
        <ele>1381.55</ele>
        <time>2019-05-04T12:20:49Z</time>
      </trkpt>
      <trkpt lat="41.8007687107" lon="2.4096085690">
        <ele>1384.66</ele>
        <time>2019-05-04T12:21:11Z</time>
      </trkpt>
      <trkpt lat="41.8007875700" lon="2.4092822615">
        <ele>1387.88</ele>
        <time>2019-05-04T12:21:33Z</time>
      </trkpt>
      <trkpt lat="41.8007471692" lon="2.4090091791">
        <ele>1390.82</ele>
        <time>2019-05-04T12:21:53Z</time>
      </trkpt>
      <trkpt lat="41.8007376976" lon="2.4088250287">
        <ele>1393.95</ele>
        <time>2019-05-04T12:22:10Z</time>
      </trkpt>
      <trkpt lat="41.8007432297" lon="2.4087459035">
        <ele>1396.71</ele>
        <time>2019-05-04T12:22:25Z</time>
      </trkpt>
      <trkpt lat="41.8007519469" lon="2.4086007290">
        <ele>1399.89</ele>
        <time>2019-05-04T12:22:47Z</time>
      </trkpt>
      <trkpt lat="41.8008195888" lon="2.4084611703">
        <ele>1403.04</ele>
        <time>2019-05-04T12:23:06Z</time>
      </trkpt>
      <trkpt lat="41.8009081017" lon="2.4082736671">
        <ele>1406.08</ele>
        <time>2019-05-04T12:23:27Z</time>
      </trkpt>
      <trkpt lat="41.8010179047" lon="2.4081369583">
        <ele>1409.25</ele>
        <time>2019-05-04T12:23:47Z</time>
      </trkpt>
      <trkpt lat="41.8010549527" lon="2.4080465175">
        <ele>1411.20</ele>
        <time>2019-05-04T12:24:06Z</time>
      </trkpt>
      <trkpt lat="41.8010950182" lon="2.4079647940">
        <ele>1413.41</ele>
        <time>2019-05-04T12:24:27Z</time>
      </trkpt>
      <trkpt lat="41.8011246901" lon="2.4077478703">
        <ele>1415.69</ele>
        <time>2019-05-04T12:24:48Z</time>
      </trkpt>
      <trkpt lat="41.8011189066" lon="2.4076597765">
        <ele>1416.89</ele>
        <time>2019-05-04T12:25:08Z</time>
      </trkpt>
      <trkpt lat="41.8011201639" lon="2.4074868578">
        <ele>1418.87</ele>
        <time>2019-05-04T12:25:29Z</time>
      </trkpt>
      <trkpt lat="41.8011149671" lon="2.4073367380">
        <ele>1421.79</ele>
        <time>2019-05-04T12:25:51Z</time>
      </trkpt>
      <trkpt lat="41.8010944314" lon="2.4071934074">
        <ele>1424.41</ele>
        <time>2019-05-04T12:26:09Z</time>
      </trkpt>
      <trkpt lat="41.8010885641" lon="2.4070878793">
        <ele>1426.88</ele>
        <time>2019-05-04T12:26:27Z</time>
      </trkpt>
      <trkpt lat="41.8010795116" lon="2.4070566148">
        <ele>1429.90</ele>
        <time>2019-05-04T12:26:42Z</time>
      </trkpt>
      <trkpt lat="41.8011054117" lon="2.4070152082">
        <ele>1432.92</ele>
        <time>2019-05-04T12:27:05Z</time>
      </trkpt>
      <trkpt lat="41.8011233490" lon="2.4068468157">
        <ele>1436.04</ele>
        <time>2019-05-04T12:27:24Z</time>
      </trkpt>
      <trkpt lat="41.8011265341" lon="2.4067557883">
        <ele>1439.16</ele>
        <time>2019-05-04T12:27:39Z</time>
      </trkpt>
      <trkpt lat="41.8011311442" lon="2.4066004716">
        <ele>1442.30</ele>
        <time>2019-05-04T12:27:58Z</time>
      </trkpt>
      <trkpt lat="41.8011514284" lon="2.4064537883">
        <ele>1445.16</ele>
        <time>2019-05-04T12:28:18Z</time>
      </trkpt>
      <trkpt lat="41.8011733051" lon="2.4063801952">
        <ele>1446.63</ele>
        <time>2019-05-04T12:28:30Z</time>
      </trkpt>
      <trkpt lat="41.8011705391" lon="2.4062211905">
        <ele>1449.85</ele>
        <time>2019-05-04T12:28:52Z</time>
      </trkpt>
      <trkpt lat="41.8011440523" lon="2.4060092960">
        <ele>1452.54</ele>
        <time>2019-05-04T12:29:14Z</time>
      </trkpt>
      <trkpt lat="41.8011604808" lon="2.4058385566">
        <ele>1454.97</ele>
        <time>2019-05-04T12:29:33Z</time>
      </trkpt>
      <trkpt lat="41.8011454772" lon="2.4056611955">
        <ele>1457.41</ele>
        <time>2019-05-04T12:29:51Z</time>
      </trkpt>
      <trkpt lat="41.8010970298" lon="2.4055683240">
        <ele>1458.53</ele>
        <time>2019-05-04T12:30:04Z</time>
      </trkpt>
      <trkpt lat="41.8011043221" lon="2.4054503907">
        <ele>1459.58</ele>
        <time>2019-05-04T12:30:16Z</time>
      </trkpt>
      <trkpt lat="41.8010956049" lon="2.4052979238">
        <ele>1461.76</ele>
        <time>2019-05-04T12:30:34Z</time>
      </trkpt>
      <trkpt lat="41.8010699563" lon="2.4051366560">
        <ele>1464.40</ele>
        <time>2019-05-04T12:30:54Z</time>
      </trkpt>
      <trkpt lat="41.8010738119" lon="2.4049900565">
        <ele>1466.41</ele>
        <time>2019-05-04T12:31:12Z</time>
      </trkpt>
      <trkpt lat="41.8010734767" lon="2.4048276152">
        <ele>1469.45</ele>
        <time>2019-05-04T12:31:31Z</time>
      </trkpt>
      <trkpt lat="41.8010764942" lon="2.4046919122">
        <ele>1472.48</ele>
        <time>2019-05-04T12:31:50Z</time>
      </trkpt>
      <trkpt lat="41.8010822777" lon="2.4045711290">
        <ele>1475.33</ele>
        <time>2019-05-04T12:32:09Z</time>
      </trkpt>
      <trkpt lat="41.8010738958" lon="2.4044718035">
        <ele>1476.32</ele>
        <time>2019-05-04T12:32:18Z</time>
      </trkpt>
      <trkpt lat="41.8010916654" lon="2.4042955320">
        <ele>1479.20</ele>
        <time>2019-05-04T12:32:42Z</time>
      </trkpt>
      <trkpt lat="41.8011002149" lon="2.4040694721">
        <ele>1480.65</ele>
        <time>2019-05-04T12:32:59Z</time>
      </trkpt>
      <trkpt lat="41.8011283781" lon="2.4038801249">
        <ele>1481.19</ele>
        <time>2019-05-04T12:33:16Z</time>
      </trkpt>
      <trkpt lat="41.8011964392" lon="2.4037478585">
        <ele>1483.36</ele>
        <time>2019-05-04T12:33:37Z</time>
      </trkpt>
      <trkpt lat="41.8012701999" lon="2.4035885185">
        <ele>1483.27</ele>
        <time>2019-05-04T12:33:56Z</time>
      </trkpt>
      <trkpt lat="41.8013829365" lon="2.4033917952">
        <ele>1481.60</ele>
        <time>2019-05-04T12:34:17Z</time>
      </trkpt>
      <trkpt lat="41.8014754727" lon="2.4032088183">
        <ele>1480.49</ele>
        <time>2019-05-04T12:34:39Z</time>
      </trkpt>
      <trkpt lat="41.8015701883" lon="2.4030115083">
        <ele>1478.56</ele>
        <time>2019-05-04T12:34:59Z</time>
      </trkpt>
      <trkpt lat="41.8016597908" lon="2.4028524198">
        <ele>1478.79</ele>
        <time>2019-05-04T12:35:19Z</time>
      </trkpt>
      <trkpt lat="41.8017698452" lon="2.4026841950">
        <ele>1479.14</ele>
        <time>2019-05-04T12:35:38Z</time>
      </trkpt>
      <trkpt lat="41.8018813245" lon="2.4024779163">
        <ele>1478.72</ele>
        <time>2019-05-04T12:35:57Z</time>
      </trkpt>
      <trkpt lat="41.8019763753" lon="2.4023092724">
        <ele>1477.04</ele>
        <time>2019-05-04T12:36:17Z</time>
      </trkpt>
      <trkpt lat="41.8020641338" lon="2.4021894112">
        <ele>1473.99</ele>
        <time>2019-05-04T12:36:34Z</time>
      </trkpt>
      <trkpt lat="41.8021668959" lon="2.4019962084">
        <ele>1473.02</ele>
        <time>2019-05-04T12:36:54Z</time>
      </trkpt>
      <trkpt lat="41.8023197819" lon="2.4018455856">
        <ele>1471.82</ele>
        <time>2019-05-04T12:37:17Z</time>
      </trkpt>
      <trkpt lat="41.8023533095" lon="2.4018158298">
        <ele>1472.12</ele>
        <time>2019-05-04T12:37:22Z</time>
      </trkpt>
      <trkpt lat="41.8024002481" lon="2.4016980641">
        <ele>1472.86</ele>
        <time>2019-05-04T12:37:39Z</time>
      </trkpt>
      <trkpt lat="41.8024286628" lon="2.4016757682">
        <ele>1472.82</ele>
        <time>2019-05-04T12:37:42Z</time>
      </trkpt>
      <trkpt lat="41.8025543913" lon="2.4016224593">
        <ele>1471.89</ele>
        <time>2019-05-04T12:37:51Z</time>
      </trkpt>
      <trkpt lat="41.8026300799" lon="2.4015832320">
        <ele>1471.75</ele>
        <time>2019-05-04T12:38:05Z</time>
      </trkpt>
      <trkpt lat="41.8026855681" lon="2.4015509617">
        <ele>1471.91</ele>
        <time>2019-05-04T12:38:11Z</time>
      </trkpt>
      <trkpt lat="41.8028518651" lon="2.4014346208">
        <ele>1472.36</ele>
        <time>2019-05-04T12:38:32Z</time>
      </trkpt>
      <trkpt lat="41.8029834609" lon="2.4012162723">
        <ele>1471.59</ele>
        <time>2019-05-04T12:38:50Z</time>
      </trkpt>
      <trkpt lat="41.8031128775" lon="2.4009922240">
        <ele>1470.69</ele>
        <time>2019-05-04T12:39:08Z</time>
      </trkpt>
      <trkpt lat="41.8032331578" lon="2.4007774796">
        <ele>1471.51</ele>
        <time>2019-05-04T12:39:29Z</time>
      </trkpt>
      <trkpt lat="41.8033269513" lon="2.4005622324">
        <ele>1469.91</ele>
        <time>2019-05-04T12:39:49Z</time>
      </trkpt>
      <trkpt lat="41.8033676874" lon="2.4003284611">
        <ele>1470.11</ele>
        <time>2019-05-04T12:40:08Z</time>
      </trkpt>
      <trkpt lat="41.8034174759" lon="2.4001571350">
        <ele>1472.23</ele>
        <time>2019-05-04T12:40:27Z</time>
      </trkpt>
      <trkpt lat="41.8034386821" lon="2.4000358488">
        <ele>1471.94</ele>
        <time>2019-05-04T12:40:43Z</time>
      </trkpt>
      <trkpt lat="41.8035252672" lon="2.3998570628">
        <ele>1472.85</ele>
        <time>2019-05-04T12:41:01Z</time>
      </trkpt>
      <trkpt lat="41.8036088347" lon="2.3996646143">
        <ele>1475.53</ele>
        <time>2019-05-04T12:41:21Z</time>
      </trkpt>
      <trkpt lat="41.8036889657" lon="2.3994401470">
        <ele>1476.98</ele>
        <time>2019-05-04T12:41:41Z</time>
      </trkpt>
      <trkpt lat="41.8037526682" lon="2.3992757779">
        <ele>1479.74</ele>
        <time>2019-05-04T12:42:00Z</time>
      </trkpt>
      <trkpt lat="41.8038196396" lon="2.3991608620">
        <ele>1482.53</ele>
        <time>2019-05-04T12:42:19Z</time>
      </trkpt>
      <trkpt lat="41.8038768042" lon="2.3990606982">
        <ele>1485.58</ele>
        <time>2019-05-04T12:42:37Z</time>
      </trkpt>
      <trkpt lat="41.8039462063" lon="2.3989314493">
        <ele>1488.61</ele>
        <time>2019-05-04T12:42:55Z</time>
      </trkpt>
      <trkpt lat="41.8039609585" lon="2.3987216502">
        <ele>1490.51</ele>
        <time>2019-05-04T12:43:15Z</time>
      </trkpt>
      <trkpt lat="41.8039602879" lon="2.3985189758">
        <ele>1493.59</ele>
        <time>2019-05-04T12:43:34Z</time>
      </trkpt>
      <trkpt lat="41.8039956596" lon="2.3982452229">
        <ele>1496.61</ele>
        <time>2019-05-04T12:43:53Z</time>
      </trkpt>
      <trkpt lat="41.8040046282" lon="2.3981212545">
        <ele>1497.98</ele>
        <time>2019-05-04T12:44:01Z</time>
      </trkpt>
      <trkpt lat="41.8039654009" lon="2.3978869803">
        <ele>1500.80</ele>
        <time>2019-05-04T12:44:22Z</time>
      </trkpt>
      <trkpt lat="41.8039719388" lon="2.3977707233">
        <ele>1503.81</ele>
        <time>2019-05-04T12:44:39Z</time>
      </trkpt>
      <trkpt lat="41.8040027842" lon="2.3976714816">
        <ele>1506.86</ele>
        <time>2019-05-04T12:44:58Z</time>
      </trkpt>
      <trkpt lat="41.8040286843" lon="2.3975437414">
        <ele>1509.99</ele>
        <time>2019-05-04T12:45:18Z</time>
      </trkpt>
      <trkpt lat="41.8040612061" lon="2.3974642809">
        <ele>1513.10</ele>
        <time>2019-05-04T12:45:32Z</time>
      </trkpt>
      <trkpt lat="41.8041337933" lon="2.3973215371">
        <ele>1514.95</ele>
        <time>2019-05-04T12:45:50Z</time>
      </trkpt>
      <trkpt lat="41.8042207137" lon="2.3971585091">
        <ele>1517.39</ele>
        <time>2019-05-04T12:46:10Z</time>
      </trkpt>
      <trkpt lat="41.8043076340" lon="2.3969751969">
        <ele>1519.70</ele>
        <time>2019-05-04T12:46:28Z</time>
      </trkpt>
      <trkpt lat="41.8043404073" lon="2.3966993485">
        <ele>1521.74</ele>
        <time>2019-05-04T12:46:49Z</time>
      </trkpt>
      <trkpt lat="41.8043864239" lon="2.3964312114">
        <ele>1524.05</ele>
        <time>2019-05-04T12:47:11Z</time>
      </trkpt>
      <trkpt lat="41.8043596018" lon="2.3962613940">
        <ele>1527.07</ele>
        <time>2019-05-04T12:47:31Z</time>
      </trkpt>
      <trkpt lat="41.8043058738" lon="2.3960940074">
        <ele>1530.28</ele>
        <time>2019-05-04T12:47:52Z</time>
      </trkpt>
      <trkpt lat="41.8042446859" lon="2.3959263694">
        <ele>1531.93</ele>
        <time>2019-05-04T12:48:10Z</time>
      </trkpt>
      <trkpt lat="41.8041226454" lon="2.3957062606">
        <ele>1533.49</ele>
        <time>2019-05-04T12:48:30Z</time>
      </trkpt>
      <trkpt lat="41.8039918039" lon="2.3954717349">
        <ele>1535.68</ele>
        <time>2019-05-04T12:48:51Z</time>
      </trkpt>
      <trkpt lat="41.8039269280" lon="2.3952685576">
        <ele>1537.25</ele>
        <time>2019-05-04T12:49:13Z</time>
      </trkpt>
      <trkpt lat="41.8039849307" lon="2.3950274102">
        <ele>1537.98</ele>
        <time>2019-05-04T12:49:34Z</time>
      </trkpt>
      <trkpt lat="41.8040103279" lon="2.3949566670">
        <ele>1537.51</ele>
        <time>2019-05-04T12:49:38Z</time>
      </trkpt>
      <trkpt lat="41.8041273393" lon="2.3946012743">
        <ele>1534.66</ele>
        <time>2019-05-04T12:49:59Z</time>
      </trkpt>
      <trkpt lat="41.8042220548" lon="2.3944336362">
        <ele>1532.41</ele>
        <time>2019-05-04T12:50:20Z</time>
      </trkpt>
      <trkpt lat="41.8042993359" lon="2.3942351528">
        <ele>1529.87</ele>
        <time>2019-05-04T12:50:38Z</time>
      </trkpt>
      <trkpt lat="41.8043778744" lon="2.3940994497">
        <ele>1528.55</ele>
        <time>2019-05-04T12:50:56Z</time>
      </trkpt>
      <trkpt lat="41.8045545649" lon="2.3938647565">
        <ele>1526.98</ele>
        <time>2019-05-04T12:51:17Z</time>
      </trkpt>
      <trkpt lat="41.8046904355" lon="2.3935842980">
        <ele>1525.86</ele>
        <time>2019-05-04T12:51:38Z</time>
      </trkpt>
      <trkpt lat="41.8048562296" lon="2.3933297396">
        <ele>1524.55</ele>
        <time>2019-05-04T12:52:00Z</time>
      </trkpt>
      <trkpt lat="41.8050198443" lon="2.3931724951">
        <ele>1525.30</ele>
        <time>2019-05-04T12:52:19Z</time>
      </trkpt>
      <trkpt lat="41.8050573114" lon="2.3931434099">
        <ele>1525.51</ele>
        <time>2019-05-04T12:52:22Z</time>
      </trkpt>
      <trkpt lat="41.8051873147" lon="2.3928248137">
        <ele>1527.40</ele>
        <time>2019-05-04T12:52:44Z</time>
      </trkpt>
      <trkpt lat="41.8052324932" lon="2.3925972451">
        <ele>1527.37</ele>
        <time>2019-05-04T12:52:59Z</time>
      </trkpt>
      <trkpt lat="41.8052317388" lon="2.3923736997">
        <ele>1527.22</ele>
        <time>2019-05-04T12:53:21Z</time>
      </trkpt>
      <trkpt lat="41.8052397855" lon="2.3922701832">
        <ele>1526.82</ele>
        <time>2019-05-04T12:53:31Z</time>
      </trkpt>
      <trkpt lat="41.8052352592" lon="2.3920747172">
        <ele>1525.72</ele>
        <time>2019-05-04T12:53:48Z</time>
      </trkpt>
      <trkpt lat="41.8052391149" lon="2.3920416087">
        <ele>1525.57</ele>
        <time>2019-05-04T12:53:50Z</time>
      </trkpt>
      <trkpt lat="41.8052909989" lon="2.3916093539">
        <ele>1524.75</ele>
        <time>2019-05-04T12:54:15Z</time>
      </trkpt>
      <trkpt lat="41.8052992132" lon="2.3915808555">
        <ele>1524.67</ele>
        <time>2019-05-04T12:54:16Z</time>
      </trkpt>
      <trkpt lat="41.8052146398" lon="2.3911496066">
        <ele>1525.96</ele>
        <time>2019-05-04T12:54:37Z</time>
      </trkpt>
      <trkpt lat="41.8051791005" lon="2.3908761051">
        <ele>1526.91</ele>
        <time>2019-05-04T12:54:53Z</time>
      </trkpt>
      <trkpt lat="41.8051507697" lon="2.3907798808">
        <ele>1527.79</ele>
        <time>2019-05-04T12:55:12Z</time>
      </trkpt>
      <trkpt lat="41.8050214369" lon="2.3905481212">
        <ele>1529.62</ele>
        <time>2019-05-04T12:55:29Z</time>
      </trkpt>
      <trkpt lat="41.8050109595" lon="2.3905259930">
        <ele>1529.86</ele>
        <time>2019-05-04T12:55:31Z</time>
      </trkpt>
      <trkpt lat="41.8049652781" lon="2.3904004321">
        <ele>1532.57</ele>
        <time>2019-05-04T12:55:48Z</time>
      </trkpt>
      <trkpt lat="41.8049334269" lon="2.3903267551">
        <ele>1535.34</ele>
        <time>2019-05-04T12:56:03Z</time>
      </trkpt>
      <trkpt lat="41.8049349356" lon="2.3902977537">
        <ele>1535.61</ele>
        <time>2019-05-04T12:56:05Z</time>
      </trkpt>
      <trkpt lat="41.8049114663" lon="2.3902063072">
        <ele>1537.14</ele>
        <time>2019-05-04T12:56:16Z</time>
      </trkpt>
      <trkpt lat="41.8049138971" lon="2.3901243322">
        <ele>1540.46</ele>
        <time>2019-05-04T12:56:35Z</time>
      </trkpt>
      <trkpt lat="41.8049182557" lon="2.3899884615">
        <ele>1543.83</ele>
        <time>2019-05-04T12:56:49Z</time>
      </trkpt>
      <trkpt lat="41.8049402162" lon="2.3899025470">
        <ele>1546.10</ele>
        <time>2019-05-04T12:57:03Z</time>
      </trkpt>
      <trkpt lat="41.8049229495" lon="2.3898381740">
        <ele>1547.41</ele>
        <time>2019-05-04T12:57:12Z</time>
      </trkpt>
      <trkpt lat="41.8049264699" lon="2.3898090050">
        <ele>1548.10</ele>
        <time>2019-05-04T12:57:16Z</time>
      </trkpt>
      <trkpt lat="41.8048917688" lon="2.3897204082">
        <ele>1550.93</ele>
        <time>2019-05-04T12:57:34Z</time>
      </trkpt>
      <trkpt lat="41.8048737478" lon="2.3896800075">
        <ele>1552.09</ele>
        <time>2019-05-04T12:57:42Z</time>
      </trkpt>
      <trkpt lat="41.8048598338" lon="2.3895256128">
        <ele>1555.35</ele>
        <time>2019-05-04T12:58:01Z</time>
      </trkpt>
      <trkpt lat="41.8049256317" lon="2.3893856350">
        <ele>1558.46</ele>
        <time>2019-05-04T12:58:22Z</time>
      </trkpt>
      <trkpt lat="41.8050072715" lon="2.3893154785">
        <ele>1560.21</ele>
        <time>2019-05-04T12:58:36Z</time>
      </trkpt>
      <trkpt lat="41.8049801979" lon="2.3892790172">
        <ele>1563.04</ele>
        <time>2019-05-04T12:58:55Z</time>
      </trkpt>
      <trkpt lat="41.8049740791" lon="2.3892872315">
        <ele>1563.98</ele>
        <time>2019-05-04T12:59:00Z</time>
      </trkpt>
      <trkpt lat="41.8048736639" lon="2.3892743234">
        <ele>1566.72</ele>
        <time>2019-05-04T12:59:21Z</time>
      </trkpt>
      <trkpt lat="41.8047910184" lon="2.3892590683">
        <ele>1569.87</ele>
        <time>2019-05-04T12:59:41Z</time>
      </trkpt>
      <trkpt lat="41.8047393858" lon="2.3892113753">
        <ele>1572.10</ele>
        <time>2019-05-04T12:59:56Z</time>
      </trkpt>
      <trkpt lat="41.8047082052" lon="2.3891760036">
        <ele>1574.40</ele>
        <time>2019-05-04T13:00:09Z</time>
      </trkpt>
      <trkpt lat="41.8046551477" lon="2.3891099542">
        <ele>1577.68</ele>
        <time>2019-05-04T13:00:32Z</time>
      </trkpt>
      <trkpt lat="41.8046180997" lon="2.3890164122">
        <ele>1580.40</ele>
        <time>2019-05-04T13:00:52Z</time>
      </trkpt>
      <trkpt lat="41.8045822252" lon="2.3889461718">
        <ele>1582.75</ele>
        <time>2019-05-04T13:01:13Z</time>
      </trkpt>
      <trkpt lat="41.8045305926" lon="2.3888498638">
        <ele>1585.03</ele>
        <time>2019-05-04T13:01:35Z</time>
      </trkpt>
      <trkpt lat="41.8044589274" lon="2.3887696490">
        <ele>1586.76</ele>
        <time>2019-05-04T13:01:54Z</time>
      </trkpt>
      <trkpt lat="41.8044555746" lon="2.3886916973">
        <ele>1587.50</ele>
        <time>2019-05-04T13:02:08Z</time>
      </trkpt>
      <trkpt lat="41.8044180237" lon="2.3886158410">
        <ele>1588.78</ele>
        <time>2019-05-04T13:02:30Z</time>
      </trkpt>
      <trkpt lat="41.8043429218" lon="2.3885412421">
        <ele>1591.86</ele>
        <time>2019-05-04T13:02:51Z</time>
      </trkpt>
      <trkpt lat="41.8042958993" lon="2.3884642124">
        <ele>1594.90</ele>
        <time>2019-05-04T13:03:15Z</time>
      </trkpt>
      <trkpt lat="41.8042653892" lon="2.3883733526">
        <ele>1597.24</ele>
        <time>2019-05-04T13:03:35Z</time>
      </trkpt>
      <trkpt lat="41.8041995913" lon="2.3883006815">
        <ele>1600.07</ele>
        <time>2019-05-04T13:03:56Z</time>
      </trkpt>
      <trkpt lat="41.8041420076" lon="2.3882087320">
        <ele>1603.03</ele>
        <time>2019-05-04T13:04:15Z</time>
      </trkpt>
      <trkpt lat="41.8040596135" lon="2.3880932294">
        <ele>1606.26</ele>
        <time>2019-05-04T13:04:33Z</time>
      </trkpt>
      <trkpt lat="41.8040356413" lon="2.3880785611">
        <ele>1606.76</ele>
        <time>2019-05-04T13:04:36Z</time>
      </trkpt>
      <trkpt lat="41.8040244095" lon="2.3880609591">
        <ele>1607.10</ele>
        <time>2019-05-04T13:04:39Z</time>
      </trkpt>
      <trkpt lat="41.8040539138" lon="2.3879338894">
        <ele>1610.30</ele>
        <time>2019-05-04T13:05:00Z</time>
      </trkpt>
      <trkpt lat="41.8040431850" lon="2.3879014514">
        <ele>1613.15</ele>
        <time>2019-05-04T13:05:19Z</time>
      </trkpt>
      <trkpt lat="41.8040358927" lon="2.3878963385">
        <ele>1613.30</ele>
        <time>2019-05-04T13:05:20Z</time>
      </trkpt>
      <trkpt lat="41.8040505610" lon="2.3879029602">
        <ele>1614.04</ele>
        <time>2019-05-04T13:05:25Z</time>
      </trkpt>
      <trkpt lat="41.8040860165" lon="2.3878841009">
        <ele>1614.76</ele>
        <time>2019-05-04T13:05:32Z</time>
      </trkpt>
      <trkpt lat="41.8041072227" lon="2.3878858611">
        <ele>1615.14</ele>
        <time>2019-05-04T13:05:35Z</time>
      </trkpt>
      <trkpt lat="41.8041207176" lon="2.3878951650">
        <ele>1615.42</ele>
        <time>2019-05-04T13:05:37Z</time>
      </trkpt>
      <trkpt lat="41.8041772954" lon="2.3878592905">
        <ele>1617.16</ele>
        <time>2019-05-04T13:05:48Z</time>
      </trkpt>
      <trkpt lat="41.8042180315" lon="2.3878735397">
        <ele>1618.22</ele>
        <time>2019-05-04T13:06:09Z</time>
      </trkpt>
      <trkpt lat="41.8042643834" lon="2.3878423590">
        <ele>1619.38</ele>
        <time>2019-05-04T13:06:20Z</time>
      </trkpt>
      <trkpt lat="41.8043612782" lon="2.3877579533">
        <ele>1621.30</ele>
        <time>2019-05-04T13:06:36Z</time>
      </trkpt>
      <trkpt lat="41.8045569956" lon="2.3877360765">
        <ele>1623.81</ele>
        <time>2019-05-04T13:06:57Z</time>
      </trkpt>
      <trkpt lat="41.8046039343" lon="2.3877468053">
        <ele>1624.19</ele>
        <time>2019-05-04T13:07:00Z</time>
      </trkpt>
      <trkpt lat="41.8046244700" lon="2.3877273593">
        <ele>1624.38</ele>
        <time>2019-05-04T13:07:02Z</time>
      </trkpt>
      <trkpt lat="41.8047007453" lon="2.3876419477">
        <ele>1626.05</ele>
        <time>2019-05-04T13:07:19Z</time>
      </trkpt>
      <trkpt lat="41.8047745060" lon="2.3875121120">
        <ele>1628.91</ele>
        <time>2019-05-04T13:07:38Z</time>
      </trkpt>
      <trkpt lat="41.8049280625" lon="2.3873280454">
        <ele>1630.69</ele>
        <time>2019-05-04T13:07:58Z</time>
      </trkpt>
      <trkpt lat="41.8049821258" lon="2.3872207571">
        <ele>1631.18</ele>
        <time>2019-05-04T13:08:08Z</time>
      </trkpt>
      <trkpt lat="41.8050837982" lon="2.3870274704">
        <ele>1632.59</ele>
        <time>2019-05-04T13:08:24Z</time>
      </trkpt>
      <trkpt lat="41.8051060941" lon="2.3869964574">
        <ele>1632.90</ele>
        <time>2019-05-04T13:08:27Z</time>
      </trkpt>
      <trkpt lat="41.8052555434" lon="2.3869369458">
        <ele>1635.42</ele>
        <time>2019-05-04T13:08:46Z</time>
      </trkpt>
      <trkpt lat="41.8053047452" lon="2.3869656958">
        <ele>1636.96</ele>
        <time>2019-05-04T13:09:02Z</time>
      </trkpt>
      <trkpt lat="41.8054063339" lon="2.3868791945">
        <ele>1638.07</ele>
        <time>2019-05-04T13:09:28Z</time>
      </trkpt>
      <trkpt lat="41.8055104371" lon="2.3867897596">
        <ele>1640.58</ele>
        <time>2019-05-04T13:09:47Z</time>
      </trkpt>
      <trkpt lat="41.8055773247" lon="2.3867203575">
        <ele>1643.26</ele>
        <time>2019-05-04T13:10:04Z</time>
      </trkpt>
      <trkpt lat="41.8056899775" lon="2.3866011668">
        <ele>1646.27</ele>
        <time>2019-05-04T13:10:28Z</time>
      </trkpt>
      <trkpt lat="41.8057633191" lon="2.3864904419">
        <ele>1648.80</ele>
        <time>2019-05-04T13:10:46Z</time>
      </trkpt>
      <trkpt lat="41.8058007862" lon="2.3864145856">
        <ele>1650.07</ele>
        <time>2019-05-04T13:10:56Z</time>
      </trkpt>
      <trkpt lat="41.8058978487" lon="2.3863133322">
        <ele>1652.46</ele>
        <time>2019-05-04T13:11:12Z</time>
      </trkpt>
      <trkpt lat="41.8059912231" lon="2.3861686606">
        <ele>1655.09</ele>
        <time>2019-05-04T13:11:29Z</time>
      </trkpt>
      <trkpt lat="41.8060635589" lon="2.3861425091">
        <ele>1656.99</ele>
        <time>2019-05-04T13:11:47Z</time>
      </trkpt>
      <trkpt lat="41.8061454501" lon="2.3860846739">
        <ele>1659.15</ele>
        <time>2019-05-04T13:12:00Z</time>
      </trkpt>
      <trkpt lat="41.8061610404" lon="2.3860738613">
        <ele>1659.37</ele>
        <time>2019-05-04T13:12:02Z</time>
      </trkpt>
      <trkpt lat="41.8061996810" lon="2.3860456981">
        <ele>1659.76</ele>
        <time>2019-05-04T13:12:06Z</time>
      </trkpt>
      <trkpt lat="41.8064218014" lon="2.3859126773">
        <ele>1659.20</ele>
        <time>2019-05-04T13:12:26Z</time>
      </trkpt>
      <trkpt lat="41.8065431714" lon="2.3858118430">
        <ele>1658.86</ele>
        <time>2019-05-04T13:12:41Z</time>
      </trkpt>
      <trkpt lat="41.8065610249" lon="2.3858027905">
        <ele>1659.09</ele>
        <time>2019-05-04T13:12:43Z</time>
      </trkpt>
      <trkpt lat="41.8066845741" lon="2.3856576160">
        <ele>1660.46</ele>
        <time>2019-05-04T13:12:59Z</time>
      </trkpt>
      <trkpt lat="41.8067574129" lon="2.3855276126">
        <ele>1662.03</ele>
        <time>2019-05-04T13:13:14Z</time>
      </trkpt>
      <trkpt lat="41.8067877553" lon="2.3855020478">
        <ele>1662.49</ele>
        <time>2019-05-04T13:13:18Z</time>
      </trkpt>
      <trkpt lat="41.8068200257" lon="2.3854563665">
        <ele>1663.24</ele>
        <time>2019-05-04T13:13:24Z</time>
      </trkpt>
      <trkpt lat="41.8068656232" lon="2.3853561189">
        <ele>1663.67</ele>
        <time>2019-05-04T13:13:33Z</time>
      </trkpt>
      <trkpt lat="41.8068963010" lon="2.3853094317">
        <ele>1663.51</ele>
        <time>2019-05-04T13:13:37Z</time>
      </trkpt>
      <trkpt lat="41.8069341872" lon="2.3852728028">
        <ele>1662.98</ele>
        <time>2019-05-04T13:13:42Z</time>
      </trkpt>
      <trkpt lat="41.8069745041" lon="2.3852561228">
        <ele>1662.89</ele>
        <time>2019-05-04T13:13:47Z</time>
      </trkpt>
      <trkpt lat="41.8070756737" lon="2.3851842061">
        <ele>1664.53</ele>
        <time>2019-05-04T13:14:02Z</time>
      </trkpt>
      <trkpt lat="41.8071103748" lon="2.3851593118">
        <ele>1664.69</ele>
        <time>2019-05-04T13:14:06Z</time>
      </trkpt>
      <trkpt lat="41.8071449082" lon="2.3850973696">
        <ele>1664.66</ele>
        <time>2019-05-04T13:14:11Z</time>
      </trkpt>
      <trkpt lat="41.8072583154" lon="2.3849938530">
        <ele>1665.04</ele>
        <time>2019-05-04T13:14:26Z</time>
      </trkpt>
      <trkpt lat="41.8073231913" lon="2.3849468306">
        <ele>1666.20</ele>
        <time>2019-05-04T13:14:36Z</time>
      </trkpt>
      <trkpt lat="41.8073397037" lon="2.3849331681">
        <ele>1666.49</ele>
        <time>2019-05-04T13:14:38Z</time>
      </trkpt>
      <trkpt lat="41.8073963653" lon="2.3848749138">
        <ele>1667.46</ele>
        <time>2019-05-04T13:14:46Z</time>
      </trkpt>
      <trkpt lat="41.8074090220" lon="2.3848221917">
        <ele>1667.83</ele>
        <time>2019-05-04T13:14:50Z</time>
      </trkpt>
      <trkpt lat="41.8074219301" lon="2.3847507779">
        <ele>1667.92</ele>
        <time>2019-05-04T13:14:55Z</time>
      </trkpt>
      <trkpt lat="41.8075402826" lon="2.3845470138">
        <ele>1667.12</ele>
        <time>2019-05-04T13:15:16Z</time>
      </trkpt>
      <trkpt lat="41.8076629099" lon="2.3844857421">
        <ele>1668.42</ele>
        <time>2019-05-04T13:15:33Z</time>
      </trkpt>
      <trkpt lat="41.8076686934" lon="2.3844656255">
        <ele>1668.58</ele>
        <time>2019-05-04T13:15:35Z</time>
      </trkpt>
      <trkpt lat="41.8077268638" lon="2.3843528051">
        <ele>1669.53</ele>
        <time>2019-05-04T13:15:45Z</time>
      </trkpt>
      <trkpt lat="41.8078569509" lon="2.3842036910">
        <ele>1671.44</ele>
        <time>2019-05-04T13:16:01Z</time>
      </trkpt>
      <trkpt lat="41.8079583719" lon="2.3840212170">
        <ele>1672.25</ele>
        <time>2019-05-04T13:16:16Z</time>
      </trkpt>
      <trkpt lat="41.8080576137" lon="2.3838792276">
        <ele>1673.69</ele>
        <time>2019-05-04T13:16:30Z</time>
      </trkpt>
      <trkpt lat="41.8081118446" lon="2.3837109189">
        <ele>1675.29</ele>
        <time>2019-05-04T13:16:45Z</time>
      </trkpt>
      <trkpt lat="41.8081229087" lon="2.3835534230">
        <ele>1676.99</ele>
        <time>2019-05-04T13:17:00Z</time>
      </trkpt>
      <trkpt lat="41.8081828393" lon="2.3834096733">
        <ele>1680.15</ele>
        <time>2019-05-04T13:17:18Z</time>
      </trkpt>
      <trkpt lat="41.8082708493" lon="2.3832375929">
        <ele>1683.07</ele>
        <time>2019-05-04T13:17:34Z</time>
      </trkpt>
      <trkpt lat="41.8083705101" lon="2.3831108585">
        <ele>1686.13</ele>
        <time>2019-05-04T13:17:48Z</time>
      </trkpt>
      <trkpt lat="41.8085240666" lon="2.3829302285">
        <ele>1688.51</ele>
        <time>2019-05-04T13:18:07Z</time>
      </trkpt>
      <trkpt lat="41.8086663913" lon="2.3828065954">
        <ele>1689.62</ele>
        <time>2019-05-04T13:18:22Z</time>
      </trkpt>
      <trkpt lat="41.8087585084" lon="2.3827246204">
        <ele>1690.51</ele>
        <time>2019-05-04T13:18:39Z</time>
      </trkpt>
      <trkpt lat="41.8087958079" lon="2.3827135563">
        <ele>1691.33</ele>
        <time>2019-05-04T13:18:56Z</time>
      </trkpt>
      <trkpt lat="41.8087932095" lon="2.3826998100">
        <ele>1691.18</ele>
        <time>2019-05-04T13:19:15Z</time>
      </trkpt>
      <trkpt lat="41.8087635376" lon="2.3826890811">
        <ele>1691.30</ele>
        <time>2019-05-04T13:19:40Z</time>
      </trkpt>
      <trkpt lat="41.8087716680" lon="2.3826817051">
        <ele>1691.60</ele>
        <time>2019-05-04T13:19:57Z</time>
      </trkpt>
      <trkpt lat="41.8087669741" lon="2.3826939426">
        <ele>1691.43</ele>
        <time>2019-05-04T13:20:27Z</time>
      </trkpt>
      <trkpt lat="41.8087456841" lon="2.3825635202">
        <ele>1689.43</ele>
        <time>2019-05-04T13:20:47Z</time>
      </trkpt>
      <trkpt lat="41.8086940516" lon="2.3824515380">
        <ele>1688.30</ele>
        <time>2019-05-04T13:21:01Z</time>
      </trkpt>
      <trkpt lat="41.8086901959" lon="2.3823856562">
        <ele>1687.47</ele>
        <time>2019-05-04T13:21:06Z</time>
      </trkpt>
      <trkpt lat="41.8086600211" lon="2.3822550662">
        <ele>1685.15</ele>
        <time>2019-05-04T13:21:15Z</time>
      </trkpt>
      <trkpt lat="41.8085793033" lon="2.3820994981">
        <ele>1682.08</ele>
        <time>2019-05-04T13:21:30Z</time>
      </trkpt>
      <trkpt lat="41.8085121643" lon="2.3819575086">
        <ele>1678.86</ele>
        <time>2019-05-04T13:21:43Z</time>
      </trkpt>
      <trkpt lat="41.8084770441" lon="2.3818413354">
        <ele>1675.70</ele>
        <time>2019-05-04T13:21:57Z</time>
      </trkpt>
      <trkpt lat="41.8084275909" lon="2.3816760443">
        <ele>1672.68</ele>
        <time>2019-05-04T13:22:14Z</time>
      </trkpt>
      <trkpt lat="41.8084206339" lon="2.3816579394">
        <ele>1672.29</ele>
        <time>2019-05-04T13:22:16Z</time>
      </trkpt>
      <trkpt lat="41.8083928060" lon="2.3815920576">
        <ele>1670.90</ele>
        <time>2019-05-04T13:22:22Z</time>
      </trkpt>
      <trkpt lat="41.8083514832" lon="2.3815132678">
        <ele>1669.23</ele>
        <time>2019-05-04T13:22:30Z</time>
      </trkpt>
      <trkpt lat="41.8082483020" lon="2.3813535087">
        <ele>1666.25</ele>
        <time>2019-05-04T13:22:48Z</time>
      </trkpt>
      <trkpt lat="41.8081567716" lon="2.3812513333">
        <ele>1663.82</ele>
        <time>2019-05-04T13:23:04Z</time>
      </trkpt>
      <trkpt lat="41.8080654927" lon="2.3811924923">
        <ele>1660.84</ele>
        <time>2019-05-04T13:23:22Z</time>
      </trkpt>
      <trkpt lat="41.8079884630" lon="2.3812190630">
        <ele>1658.92</ele>
        <time>2019-05-04T13:23:37Z</time>
      </trkpt>
      <trkpt lat="41.8078998663" lon="2.3811687715">
        <ele>1656.48</ele>
        <time>2019-05-04T13:23:53Z</time>
      </trkpt>
      <trkpt lat="41.8078388460" lon="2.3810762353">
        <ele>1654.51</ele>
        <time>2019-05-04T13:24:10Z</time>
      </trkpt>
      <trkpt lat="41.8078168016" lon="2.3810002953">
        <ele>1651.32</ele>
        <time>2019-05-04T13:24:26Z</time>
      </trkpt>
      <trkpt lat="41.8078001216" lon="2.3809179012">
        <ele>1648.47</ele>
        <time>2019-05-04T13:24:49Z</time>
      </trkpt>
      <trkpt lat="41.8077530991" lon="2.3808626644">
        <ele>1646.77</ele>
        <time>2019-05-04T13:25:04Z</time>
      </trkpt>
      <trkpt lat="41.8077121116" lon="2.3807645123">
        <ele>1644.28</ele>
        <time>2019-05-04T13:25:23Z</time>
      </trkpt>
      <trkpt lat="41.8076737225" lon="2.3806662764">
        <ele>1642.12</ele>
        <time>2019-05-04T13:25:38Z</time>
      </trkpt>
      <trkpt lat="41.8076442182" lon="2.3805921804">
        <ele>1640.42</ele>
        <time>2019-05-04T13:25:55Z</time>
      </trkpt>
      <trkpt lat="41.8076169770" lon="2.3804867361">
        <ele>1638.23</ele>
        <time>2019-05-04T13:26:14Z</time>
      </trkpt>
      <trkpt lat="41.8076183181" lon="2.3803808726">
        <ele>1636.46</ele>
        <time>2019-05-04T13:26:31Z</time>
      </trkpt>
      <trkpt lat="41.8076241016" lon="2.3803142365">
        <ele>1634.52</ele>
        <time>2019-05-04T13:26:53Z</time>
      </trkpt>
      <trkpt lat="41.8076075893" lon="2.3802951258">
        <ele>1634.00</ele>
        <time>2019-05-04T13:27:14Z</time>
      </trkpt>
      <trkpt lat="41.8075716309" lon="2.3803028371">
        <ele>1632.74</ele>
        <time>2019-05-04T13:27:33Z</time>
      </trkpt>
      <trkpt lat="41.8075708766" lon="2.3801682238">
        <ele>1629.96</ele>
        <time>2019-05-04T13:27:55Z</time>
      </trkpt>
      <trkpt lat="41.8075525202" lon="2.3800351191">
        <ele>1626.98</ele>
        <time>2019-05-04T13:28:18Z</time>
      </trkpt>
      <trkpt lat="41.8075374328" lon="2.3799171858">
        <ele>1623.72</ele>
        <time>2019-05-04T13:28:35Z</time>
      </trkpt>
      <trkpt lat="41.8074891530" lon="2.3799178563">
        <ele>1621.63</ele>
        <time>2019-05-04T13:28:51Z</time>
      </trkpt>
      <trkpt lat="41.8074428849" lon="2.3798433412">
        <ele>1618.60</ele>
        <time>2019-05-04T13:29:06Z</time>
      </trkpt>
      <trkpt lat="41.8074086029" lon="2.3797393218">
        <ele>1616.69</ele>
        <time>2019-05-04T13:29:21Z</time>
      </trkpt>
      <trkpt lat="41.8073869776" lon="2.3796210531">
        <ele>1613.90</ele>
        <time>2019-05-04T13:29:37Z</time>
      </trkpt>
      <trkpt lat="41.8073770031" lon="2.3795870226">
        <ele>1612.88</ele>
        <time>2019-05-04T13:29:41Z</time>
      </trkpt>
      <trkpt lat="41.8073816132" lon="2.3794190492">
        <ele>1610.35</ele>
        <time>2019-05-04T13:29:58Z</time>
      </trkpt>
      <trkpt lat="41.8073418830" lon="2.3793154489">
        <ele>1607.32</ele>
        <time>2019-05-04T13:30:18Z</time>
      </trkpt>
      <trkpt lat="41.8073141389" lon="2.3791980185">
        <ele>1605.16</ele>
        <time>2019-05-04T13:30:33Z</time>
      </trkpt>
      <trkpt lat="41.8072579801" lon="2.3790909816">
        <ele>1602.38</ele>
        <time>2019-05-04T13:30:50Z</time>
      </trkpt>
      <trkpt lat="41.8072313257" lon="2.3790087551">
        <ele>1599.95</ele>
        <time>2019-05-04T13:31:09Z</time>
      </trkpt>
      <trkpt lat="41.8072237819" lon="2.3789603915">
        <ele>1599.03</ele>
        <time>2019-05-04T13:31:35Z</time>
      </trkpt>
      <trkpt lat="41.8072344270" lon="2.3788372613">
        <ele>1598.03</ele>
        <time>2019-05-04T13:32:02Z</time>
      </trkpt>
      <trkpt lat="41.8071764242" lon="2.3786982894">
        <ele>1595.73</ele>
        <time>2019-05-04T13:32:18Z</time>
      </trkpt>
      <trkpt lat="41.8071260490" lon="2.3785678670">
        <ele>1593.62</ele>
        <time>2019-05-04T13:32:35Z</time>
      </trkpt>
      <trkpt lat="41.8071156554" lon="2.3785068467">
        <ele>1593.07</ele>
        <time>2019-05-04T13:32:41Z</time>
      </trkpt>
      <trkpt lat="41.8070877437" lon="2.3783392925">
        <ele>1591.55</ele>
        <time>2019-05-04T13:32:59Z</time>
      </trkpt>
      <trkpt lat="41.8070066907" lon="2.3782394640">
        <ele>1588.70</ele>
        <time>2019-05-04T13:33:15Z</time>
      </trkpt>
      <trkpt lat="41.8069105502" lon="2.3781788629">
        <ele>1585.76</ele>
        <time>2019-05-04T13:33:31Z</time>
      </trkpt>
      <trkpt lat="41.8068603426" lon="2.3781540524">
        <ele>1584.59</ele>
        <time>2019-05-04T13:33:38Z</time>
      </trkpt>
      <trkpt lat="41.8067444209" lon="2.3780609295">
        <ele>1581.48</ele>
        <time>2019-05-04T13:33:55Z</time>
      </trkpt>
      <trkpt lat="41.8066714145" lon="2.3780240491">
        <ele>1579.71</ele>
        <time>2019-05-04T13:34:05Z</time>
      </trkpt>
      <trkpt lat="41.8065126613" lon="2.3780821357">
        <ele>1576.26</ele>
        <time>2019-05-04T13:34:25Z</time>
      </trkpt>
      <trkpt lat="41.8064472824" lon="2.3780505359">
        <ele>1574.10</ele>
        <time>2019-05-04T13:34:34Z</time>
      </trkpt>
      <trkpt lat="41.8063011859" lon="2.3779382184">
        <ele>1570.82</ele>
        <time>2019-05-04T13:34:52Z</time>
      </trkpt>
      <trkpt lat="41.8061621301" lon="2.3778149206">
        <ele>1567.57</ele>
        <time>2019-05-04T13:35:07Z</time>
      </trkpt>
      <trkpt lat="41.8060315400" lon="2.3776711710">
        <ele>1564.46</ele>
        <time>2019-05-04T13:35:22Z</time>
      </trkpt>
      <trkpt lat="41.8059079070" lon="2.3774802312">
        <ele>1561.76</ele>
        <time>2019-05-04T13:35:40Z</time>
      </trkpt>
      <trkpt lat="41.8057836033" lon="2.3772450350">
        <ele>1558.67</ele>
        <time>2019-05-04T13:35:59Z</time>
      </trkpt>
      <trkpt lat="41.8056993652" lon="2.3770071566">
        <ele>1556.02</ele>
        <time>2019-05-04T13:36:18Z</time>
      </trkpt>
      <trkpt lat="41.8055871315" lon="2.3767485749">
        <ele>1553.71</ele>
        <time>2019-05-04T13:36:39Z</time>
      </trkpt>
      <trkpt lat="41.8055432942" lon="2.3766614869">
        <ele>1553.48</ele>
        <time>2019-05-04T13:36:46Z</time>
      </trkpt>
      <trkpt lat="41.8055264466" lon="2.3765790090">
        <ele>1552.95</ele>
        <time>2019-05-04T13:36:52Z</time>
      </trkpt>
      <trkpt lat="41.8055268656" lon="2.3765167315">
        <ele>1552.51</ele>
        <time>2019-05-04T13:36:57Z</time>
      </trkpt>
      <trkpt lat="41.8055059947" lon="2.3763290606">
        <ele>1551.02</ele>
        <time>2019-05-04T13:37:13Z</time>
      </trkpt>
      <trkpt lat="41.8055158015" lon="2.3762103729">
        <ele>1549.54</ele>
        <time>2019-05-04T13:37:23Z</time>
      </trkpt>
      <trkpt lat="41.8055147119" lon="2.3761807010">
        <ele>1549.24</ele>
        <time>2019-05-04T13:37:25Z</time>
      </trkpt>
      <trkpt lat="41.8055060785" lon="2.3761121370">
        <ele>1548.67</ele>
        <time>2019-05-04T13:37:32Z</time>
      </trkpt>
      <trkpt lat="41.8054929189" lon="2.3759154137">
        <ele>1546.62</ele>
        <time>2019-05-04T13:37:48Z</time>
      </trkpt>
      <trkpt lat="41.8054743949" lon="2.3757317662">
        <ele>1545.18</ele>
        <time>2019-05-04T13:38:03Z</time>
      </trkpt>
      <trkpt lat="41.8054639176" lon="2.3756886832">
        <ele>1544.84</ele>
        <time>2019-05-04T13:38:07Z</time>
      </trkpt>
      <trkpt lat="41.8054252770" lon="2.3754784651">
        <ele>1543.09</ele>
        <time>2019-05-04T13:38:25Z</time>
      </trkpt>
      <trkpt lat="41.8054142967" lon="2.3754235636">
        <ele>1542.58</ele>
        <time>2019-05-04T13:38:29Z</time>
      </trkpt>
      <trkpt lat="41.8053537793" lon="2.3752511479">
        <ele>1540.36</ele>
        <time>2019-05-04T13:38:46Z</time>
      </trkpt>
      <trkpt lat="41.8053223472" lon="2.3750541732">
        <ele>1538.21</ele>
        <time>2019-05-04T13:39:05Z</time>
      </trkpt>
      <trkpt lat="41.8053058349" lon="2.3750238307">
        <ele>1537.80</ele>
        <time>2019-05-04T13:39:08Z</time>
      </trkpt>
      <trkpt lat="41.8052968662" lon="2.3749162909">
        <ele>1536.87</ele>
        <time>2019-05-04T13:39:17Z</time>
      </trkpt>
      <trkpt lat="41.8052798510" lon="2.3748262692">
        <ele>1536.13</ele>
        <time>2019-05-04T13:39:24Z</time>
      </trkpt>
      <trkpt lat="41.8052298948" lon="2.3746140394">
        <ele>1534.57</ele>
        <time>2019-05-04T13:39:39Z</time>
      </trkpt>
      <trkpt lat="41.8051960319" lon="2.3744573817">
        <ele>1532.88</ele>
        <time>2019-05-04T13:39:53Z</time>
      </trkpt>
      <trkpt lat="41.8051845487" lon="2.3743337486">
        <ele>1531.57</ele>
        <time>2019-05-04T13:40:04Z</time>
      </trkpt>
      <trkpt lat="41.8051350117" lon="2.3741359357">
        <ele>1530.31</ele>
        <time>2019-05-04T13:40:20Z</time>
      </trkpt>
      <trkpt lat="41.8051007297" lon="2.3739880789">
        <ele>1528.67</ele>
        <time>2019-05-04T13:40:35Z</time>
      </trkpt>
      <trkpt lat="41.8050590716" lon="2.3738283198">
        <ele>1526.70</ele>
        <time>2019-05-04T13:40:50Z</time>
      </trkpt>
      <trkpt lat="41.8049962074" lon="2.3735761084">
        <ele>1525.44</ele>
        <time>2019-05-04T13:41:07Z</time>
      </trkpt>
      <trkpt lat="41.8049555551" lon="2.3733134195">
        <ele>1523.70</ele>
        <time>2019-05-04T13:41:24Z</time>
      </trkpt>
      <trkpt lat="41.8048864882" lon="2.3731027823">
        <ele>1521.97</ele>
        <time>2019-05-04T13:41:39Z</time>
      </trkpt>
      <trkpt lat="41.8048433214" lon="2.3729174584">
        <ele>1520.31</ele>
        <time>2019-05-04T13:41:58Z</time>
      </trkpt>
      <trkpt lat="41.8048366997" lon="2.3728928994">
        <ele>1520.74</ele>
        <time>2019-05-04T13:42:17Z</time>
      </trkpt>
      <trkpt lat="41.8048106320" lon="2.3728183843">
        <ele>1520.48</ele>
        <time>2019-05-04T13:42:22Z</time>
      </trkpt>
      <trkpt lat="41.8046815507" lon="2.3724791687">
        <ele>1519.85</ele>
        <time>2019-05-04T13:42:45Z</time>
      </trkpt>
      <trkpt lat="41.8046399765" lon="2.3721321579">
        <ele>1518.75</ele>
        <time>2019-05-04T13:43:07Z</time>
      </trkpt>
      <trkpt lat="41.8045806326" lon="2.3717119731">
        <ele>1519.01</ele>
        <time>2019-05-04T13:43:32Z</time>
      </trkpt>
      <trkpt lat="41.8045528047" lon="2.3714665510">
        <ele>1519.05</ele>
        <time>2019-05-04T13:43:48Z</time>
      </trkpt>
      <trkpt lat="41.8045423273" lon="2.3714054469">
        <ele>1519.17</ele>
        <time>2019-05-04T13:43:53Z</time>
      </trkpt>
      <trkpt lat="41.8045323528" lon="2.3712933809">
        <ele>1519.34</ele>
        <time>2019-05-04T13:44:00Z</time>
      </trkpt>
      <trkpt lat="41.8045388907" lon="2.3712173570">
        <ele>1519.37</ele>
        <time>2019-05-04T13:44:05Z</time>
      </trkpt>
      <trkpt lat="41.8045000825" lon="2.3709092382">
        <ele>1519.22</ele>
        <time>2019-05-04T13:44:24Z</time>
      </trkpt>
      <trkpt lat="41.8045132421" lon="2.3706536740">
        <ele>1520.34</ele>
        <time>2019-05-04T13:44:42Z</time>
      </trkpt>
      <trkpt lat="41.8045317661" lon="2.3704624828">
        <ele>1520.99</ele>
        <time>2019-05-04T13:44:57Z</time>
      </trkpt>
      <trkpt lat="41.8045171816" lon="2.3703680187">
        <ele>1521.05</ele>
        <time>2019-05-04T13:45:06Z</time>
      </trkpt>
      <trkpt lat="41.8045398127" lon="2.3701126222">
        <ele>1520.80</ele>
        <time>2019-05-04T13:45:23Z</time>
      </trkpt>
      <trkpt lat="41.8045747653" lon="2.3698490113">
        <ele>1520.02</ele>
        <time>2019-05-04T13:45:42Z</time>
      </trkpt>
      <trkpt lat="41.8046021741" lon="2.3696729075">
        <ele>1519.88</ele>
        <time>2019-05-04T13:45:57Z</time>
      </trkpt>
      <trkpt lat="41.8046331871" lon="2.3696235381">
        <ele>1518.99</ele>
        <time>2019-05-04T13:46:04Z</time>
      </trkpt>
      <trkpt lat="41.8046444189" lon="2.3694728315">
        <ele>1519.26</ele>
        <time>2019-05-04T13:46:19Z</time>
      </trkpt>
      <trkpt lat="41.8046508729" lon="2.3693831451">
        <ele>1518.84</ele>
        <time>2019-05-04T13:46:29Z</time>
      </trkpt>
      <trkpt lat="41.8046300020" lon="2.3691895232">
        <ele>1519.21</ele>
        <time>2019-05-04T13:46:42Z</time>
      </trkpt>
      <trkpt lat="41.8046330195" lon="2.3690557480">
        <ele>1519.29</ele>
        <time>2019-05-04T13:46:51Z</time>
      </trkpt>
      <trkpt lat="41.8046404794" lon="2.3687875271">
        <ele>1519.04</ele>
        <time>2019-05-04T13:47:09Z</time>
      </trkpt>
      <trkpt lat="41.8045549840" lon="2.3685673345">
        <ele>1517.84</ele>
        <time>2019-05-04T13:47:26Z</time>
      </trkpt>
      <trkpt lat="41.8045024294" lon="2.3683924880">
        <ele>1516.62</ele>
        <time>2019-05-04T13:47:40Z</time>
      </trkpt>
      <trkpt lat="41.8044639565" lon="2.3682883009">
        <ele>1516.00</ele>
        <time>2019-05-04T13:47:48Z</time>
      </trkpt>
      <trkpt lat="41.8044576701" lon="2.3680991214">
        <ele>1515.14</ele>
        <time>2019-05-04T13:48:04Z</time>
      </trkpt>
      <trkpt lat="41.8044279143" lon="2.3680348322">
        <ele>1514.52</ele>
        <time>2019-05-04T13:48:09Z</time>
      </trkpt>
      <trkpt lat="41.8043874297" lon="2.3676638491">
        <ele>1513.18</ele>
        <time>2019-05-04T13:48:33Z</time>
      </trkpt>
      <trkpt lat="41.8044375535" lon="2.3673453368">
        <ele>1512.17</ele>
        <time>2019-05-04T13:48:53Z</time>
      </trkpt>
      <trkpt lat="41.8045360409" lon="2.3670758586">
        <ele>1512.51</ele>
        <time>2019-05-04T13:49:12Z</time>
      </trkpt>
      <trkpt lat="41.8047056068" lon="2.3667990044">
        <ele>1512.15</ele>
        <time>2019-05-04T13:49:36Z</time>
      </trkpt>
      <trkpt lat="41.8048556428" lon="2.3666203860">
        <ele>1509.11</ele>
        <time>2019-05-04T13:49:55Z</time>
      </trkpt>
      <trkpt lat="41.8049930222" lon="2.3663547635">
        <ele>1506.69</ele>
        <time>2019-05-04T13:50:17Z</time>
      </trkpt>
      <trkpt lat="41.8050275557" lon="2.3662762251">
        <ele>1505.58</ele>
        <time>2019-05-04T13:50:35Z</time>
      </trkpt>
      <trkpt lat="41.8050388712" lon="2.3661992792">
        <ele>1504.79</ele>
        <time>2019-05-04T13:50:52Z</time>
      </trkpt>
      <trkpt lat="41.8050853908" lon="2.3660556134">
        <ele>1502.77</ele>
        <time>2019-05-04T13:51:10Z</time>
      </trkpt>
      <trkpt lat="41.8050720636" lon="2.3659841157">
        <ele>1499.73</ele>
        <time>2019-05-04T13:51:24Z</time>
      </trkpt>
      <trkpt lat="41.8050641008" lon="2.3658834491">
        <ele>1497.25</ele>
        <time>2019-05-04T13:51:42Z</time>
      </trkpt>
      <trkpt lat="41.8051027413" lon="2.3658014741">
        <ele>1494.21</ele>
        <time>2019-05-04T13:52:04Z</time>
      </trkpt>
      <trkpt lat="41.8051147275" lon="2.3657429684">
        <ele>1492.75</ele>
        <time>2019-05-04T13:52:18Z</time>
      </trkpt>
      <trkpt lat="41.8051601574" lon="2.3656449839">
        <ele>1489.85</ele>
        <time>2019-05-04T13:52:38Z</time>
      </trkpt>
      <trkpt lat="41.8051910866" lon="2.3655657750">
        <ele>1487.62</ele>
        <time>2019-05-04T13:52:55Z</time>
      </trkpt>
      <trkpt lat="41.8052577227" lon="2.3654910922">
        <ele>1485.07</ele>
        <time>2019-05-04T13:53:12Z</time>
      </trkpt>
      <trkpt lat="41.8053096067" lon="2.3653834686">
        <ele>1481.90</ele>
        <time>2019-05-04T13:53:30Z</time>
      </trkpt>
      <trkpt lat="41.8053857144" lon="2.3652879149">
        <ele>1478.78</ele>
        <time>2019-05-04T13:53:48Z</time>
      </trkpt>
      <trkpt lat="41.8054429628" lon="2.3652439937">
        <ele>1475.73</ele>
        <time>2019-05-04T13:54:02Z</time>
      </trkpt>
      <trkpt lat="41.8054941762" lon="2.3652167525">
        <ele>1473.92</ele>
        <time>2019-05-04T13:54:18Z</time>
      </trkpt>
      <trkpt lat="41.8054888956" lon="2.3651553132">
        <ele>1471.93</ele>
        <time>2019-05-04T13:54:35Z</time>
      </trkpt>
      <trkpt lat="41.8055518437" lon="2.3650817201">
        <ele>1470.55</ele>
        <time>2019-05-04T13:54:50Z</time>
      </trkpt>
      <trkpt lat="41.8056228384" lon="2.3650292493">
        <ele>1467.97</ele>
        <time>2019-05-04T13:55:06Z</time>
      </trkpt>
      <trkpt lat="41.8056928273" lon="2.3649802152">
        <ele>1465.46</ele>
        <time>2019-05-04T13:55:25Z</time>
      </trkpt>
      <trkpt lat="41.8057220802" lon="2.3649383895">
        <ele>1464.06</ele>
        <time>2019-05-04T13:55:42Z</time>
      </trkpt>
      <trkpt lat="41.8057878781" lon="2.3648741841">
        <ele>1461.38</ele>
        <time>2019-05-04T13:56:02Z</time>
      </trkpt>
      <trkpt lat="41.8058674224" lon="2.3648105655">
        <ele>1458.34</ele>
        <time>2019-05-04T13:56:17Z</time>
      </trkpt>
      <trkpt lat="41.8059513252" lon="2.3647245672">
        <ele>1455.27</ele>
        <time>2019-05-04T13:56:35Z</time>
      </trkpt>
      <trkpt lat="41.8060276844" lon="2.3646538239">
        <ele>1452.13</ele>
        <time>2019-05-04T13:56:54Z</time>
      </trkpt>
      <trkpt lat="41.8060966674" lon="2.3646013532">
        <ele>1449.52</ele>
        <time>2019-05-04T13:57:12Z</time>
      </trkpt>
      <trkpt lat="41.8061549217" lon="2.3645172827">
        <ele>1446.80</ele>
        <time>2019-05-04T13:57:31Z</time>
      </trkpt>
      <trkpt lat="41.8062205520" lon="2.3644572683">
        <ele>1444.72</ele>
        <time>2019-05-04T13:57:49Z</time>
      </trkpt>
      <trkpt lat="41.8063058797" lon="2.3643725272">
        <ele>1442.28</ele>
        <time>2019-05-04T13:58:09Z</time>
      </trkpt>
      <trkpt lat="41.8063523155" lon="2.3642950784">
        <ele>1439.77</ele>
        <time>2019-05-04T13:58:27Z</time>
      </trkpt>
      <trkpt lat="41.8064040318" lon="2.3642228264">
        <ele>1437.96</ele>
        <time>2019-05-04T13:58:45Z</time>
      </trkpt>
      <trkpt lat="41.8064144254" lon="2.3641526699">
        <ele>1435.87</ele>
        <time>2019-05-04T13:59:01Z</time>
      </trkpt>
      <trkpt lat="41.8064358830" lon="2.3640673421">
        <ele>1432.76</ele>
        <time>2019-05-04T13:59:19Z</time>
      </trkpt>
      <trkpt lat="41.8064593524" lon="2.3639922403">
        <ele>1429.88</ele>
        <time>2019-05-04T13:59:36Z</time>
      </trkpt>
      <trkpt lat="41.8064886052" lon="2.3639422841">
        <ele>1427.64</ele>
        <time>2019-05-04T13:59:53Z</time>
      </trkpt>
      <trkpt lat="41.8064207118" lon="2.3638729658">
        <ele>1425.25</ele>
        <time>2019-05-04T14:00:09Z</time>
      </trkpt>
      <trkpt lat="41.8064439297" lon="2.3637955170">
        <ele>1423.00</ele>
        <time>2019-05-04T14:00:25Z</time>
      </trkpt>
      <trkpt lat="41.8064945564" lon="2.3636567127">
        <ele>1420.18</ele>
        <time>2019-05-04T14:00:42Z</time>
      </trkpt>
      <trkpt lat="41.8064675666" lon="2.3635992128">
        <ele>1416.43</ele>
        <time>2019-05-04T14:00:51Z</time>
      </trkpt>
      <trkpt lat="41.8064499646" lon="2.3635456525">
        <ele>1413.29</ele>
        <time>2019-05-04T14:00:59Z</time>
      </trkpt>
      <trkpt lat="41.8064902816" lon="2.3634201754">
        <ele>1410.39</ele>
        <time>2019-05-04T14:01:15Z</time>
      </trkpt>
      <trkpt lat="41.8065104820" lon="2.3633704707">
        <ele>1409.34</ele>
        <time>2019-05-04T14:01:20Z</time>
      </trkpt>
      <trkpt lat="41.8065697420" lon="2.3632137291">
        <ele>1406.14</ele>
        <time>2019-05-04T14:01:38Z</time>
      </trkpt>
      <trkpt lat="41.8065808900" lon="2.3631310835">
        <ele>1403.11</ele>
        <time>2019-05-04T14:01:47Z</time>
      </trkpt>
      <trkpt lat="41.8065998331" lon="2.3630810436">
        <ele>1401.81</ele>
        <time>2019-05-04T14:01:52Z</time>
      </trkpt>
      <trkpt lat="41.8066433351" lon="2.3629579134">
        <ele>1398.41</ele>
        <time>2019-05-04T14:02:05Z</time>
      </trkpt>
      <trkpt lat="41.8067076243" lon="2.3628802132">
        <ele>1395.85</ele>
        <time>2019-05-04T14:02:19Z</time>
      </trkpt>
      <trkpt lat="41.8067111447" lon="2.3627593461">
        <ele>1392.82</ele>
        <time>2019-05-04T14:02:36Z</time>
      </trkpt>
      <trkpt lat="41.8066896871" lon="2.3626532312">
        <ele>1389.63</ele>
        <time>2019-05-04T14:02:51Z</time>
      </trkpt>
      <trkpt lat="41.8066678941" lon="2.3625180312">
        <ele>1386.62</ele>
        <time>2019-05-04T14:03:09Z</time>
      </trkpt>
      <trkpt lat="41.8066550698" lon="2.3624365591">
        <ele>1383.61</ele>
        <time>2019-05-04T14:03:21Z</time>
      </trkpt>
      <trkpt lat="41.8066143338" lon="2.3623163626">
        <ele>1381.07</ele>
        <time>2019-05-04T14:03:38Z</time>
      </trkpt>
      <trkpt lat="41.8065570015" lon="2.3622006923">
        <ele>1378.77</ele>
        <time>2019-05-04T14:03:55Z</time>
      </trkpt>
      <trkpt lat="41.8064732663" lon="2.3620607983">
        <ele>1375.67</ele>
        <time>2019-05-04T14:04:13Z</time>
      </trkpt>
      <trkpt lat="41.8064218014" lon="2.3618991952">
        <ele>1372.66</ele>
        <time>2019-05-04T14:04:31Z</time>
      </trkpt>
      <trkpt lat="41.8063933030" lon="2.3617205769">
        <ele>1369.55</ele>
        <time>2019-05-04T14:04:47Z</time>
      </trkpt>
      <trkpt lat="41.8063556682" lon="2.3615520168">
        <ele>1366.50</ele>
        <time>2019-05-04T14:05:03Z</time>
      </trkpt>
      <trkpt lat="41.8063516449" lon="2.3615404498">
        <ele>1366.37</ele>
        <time>2019-05-04T14:05:04Z</time>
      </trkpt>
      <trkpt lat="41.8063854240" lon="2.3614086024">
        <ele>1365.17</ele>
        <time>2019-05-04T14:05:14Z</time>
      </trkpt>
      <trkpt lat="41.8063529022" lon="2.3610880785">
        <ele>1364.20</ele>
        <time>2019-05-04T14:05:34Z</time>
      </trkpt>
      <trkpt lat="41.8063054606" lon="2.3607842345">
        <ele>1364.70</ele>
        <time>2019-05-04T14:05:52Z</time>
      </trkpt>
      <trkpt lat="41.8062539119" lon="2.3604995012">
        <ele>1365.53</ele>
        <time>2019-05-04T14:06:10Z</time>
      </trkpt>
      <trkpt lat="41.8061996810" lon="2.3602189589">
        <ele>1364.99</ele>
        <time>2019-05-04T14:06:27Z</time>
      </trkpt>
      <trkpt lat="41.8061338831" lon="2.3599395901">
        <ele>1363.78</ele>
        <time>2019-05-04T14:06:44Z</time>
      </trkpt>
      <trkpt lat="41.8060834240" lon="2.3595805932">
        <ele>1364.88</ele>
        <time>2019-05-04T14:07:05Z</time>
      </trkpt>
      <trkpt lat="41.8060870282" lon="2.3593259510">
        <ele>1366.52</ele>
        <time>2019-05-04T14:07:22Z</time>
      </trkpt>
      <trkpt lat="41.8061551731" lon="2.3590984661">
        <ele>1366.35</ele>
        <time>2019-05-04T14:07:37Z</time>
      </trkpt>
      <trkpt lat="41.8062167801" lon="2.3588093743">
        <ele>1367.17</ele>
        <time>2019-05-04T14:07:56Z</time>
      </trkpt>
      <trkpt lat="41.8063153513" lon="2.3585794587">
        <ele>1368.03</ele>
        <time>2019-05-04T14:08:14Z</time>
      </trkpt>
      <trkpt lat="41.8063401617" lon="2.3585455120">
        <ele>1368.31</ele>
        <time>2019-05-04T14:08:18Z</time>
      </trkpt>
      <trkpt lat="41.8063430116" lon="2.3585054465">
        <ele>1368.37</ele>
        <time>2019-05-04T14:08:21Z</time>
      </trkpt>
      <trkpt lat="41.8064886890" lon="2.3583261576">
        <ele>1366.91</ele>
        <time>2019-05-04T14:08:40Z</time>
      </trkpt>
      <trkpt lat="41.8065329455" lon="2.3582085595">
        <ele>1365.24</ele>
        <time>2019-05-04T14:08:49Z</time>
      </trkpt>
      <trkpt lat="41.8066560756" lon="2.3579370696">
        <ele>1363.96</ele>
        <time>2019-05-04T14:09:09Z</time>
      </trkpt>
      <trkpt lat="41.8066836521" lon="2.3578343913">
        <ele>1363.71</ele>
        <time>2019-05-04T14:09:17Z</time>
      </trkpt>
      <trkpt lat="41.8067076243" lon="2.3575914837">
        <ele>1361.04</ele>
        <time>2019-05-04T14:09:33Z</time>
      </trkpt>
      <trkpt lat="41.8067372963" lon="2.3572242726">
        <ele>1359.66</ele>
        <time>2019-05-04T14:09:57Z</time>
      </trkpt>
      <trkpt lat="41.8067357875" lon="2.3569962010">
        <ele>1359.84</ele>
        <time>2019-05-04T14:10:13Z</time>
      </trkpt>
      <trkpt lat="41.8067293335" lon="2.3566810414">
        <ele>1359.64</ele>
        <time>2019-05-04T14:10:33Z</time>
      </trkpt>
      <trkpt lat="41.8066856638" lon="2.3564890120">
        <ele>1360.44</ele>
        <time>2019-05-04T14:10:47Z</time>
      </trkpt>
      <trkpt lat="41.8066631164" lon="2.3562178575">
        <ele>1360.37</ele>
        <time>2019-05-04T14:11:07Z</time>
      </trkpt>
      <trkpt lat="41.8066530582" lon="2.3560221400">
        <ele>1359.09</ele>
        <time>2019-05-04T14:11:21Z</time>
      </trkpt>
      <trkpt lat="41.8065500446" lon="2.3558724392">
        <ele>1355.89</ele>
        <time>2019-05-04T14:11:39Z</time>
      </trkpt>
      <trkpt lat="41.8064792175" lon="2.3557043821">
        <ele>1353.00</ele>
        <time>2019-05-04T14:11:55Z</time>
      </trkpt>
      <trkpt lat="41.8065128289" lon="2.3555006180">
        <ele>1352.25</ele>
        <time>2019-05-04T14:12:09Z</time>
      </trkpt>
      <trkpt lat="41.8064679857" lon="2.3552633263">
        <ele>1352.90</ele>
        <time>2019-05-04T14:12:27Z</time>
      </trkpt>
      <trkpt lat="41.8063963205" lon="2.3551225942">
        <ele>1349.85</ele>
        <time>2019-05-04T14:12:44Z</time>
      </trkpt>
      <trkpt lat="41.8063299358" lon="2.3550350033">
        <ele>1346.70</ele>
        <time>2019-05-04T14:13:00Z</time>
      </trkpt>
      <trkpt lat="41.8062608689" lon="2.3548997194">
        <ele>1343.98</ele>
        <time>2019-05-04T14:13:15Z</time>
      </trkpt>
      <trkpt lat="41.8061860185" lon="2.3547775950">
        <ele>1340.89</ele>
        <time>2019-05-04T14:13:34Z</time>
      </trkpt>
      <trkpt lat="41.8061358947" lon="2.3546744976">
        <ele>1337.82</ele>
        <time>2019-05-04T14:13:49Z</time>
      </trkpt>
      <trkpt lat="41.8061093241" lon="2.3546055984">
        <ele>1336.27</ele>
        <time>2019-05-04T14:14:11Z</time>
      </trkpt>
      <trkpt lat="41.8060472980" lon="2.3544298299">
        <ele>1333.71</ele>
        <time>2019-05-04T14:14:29Z</time>
      </trkpt>
      <trkpt lat="41.8059996888" lon="2.3543157522">
        <ele>1332.47</ele>
        <time>2019-05-04T14:14:41Z</time>
      </trkpt>
      <trkpt lat="41.8059640657" lon="2.3541491199">
        <ele>1330.65</ele>
        <time>2019-05-04T14:14:55Z</time>
      </trkpt>
      <trkpt lat="41.8058696855" lon="2.3539651372">
        <ele>1328.17</ele>
        <time>2019-05-04T14:15:13Z</time>
      </trkpt>
      <trkpt lat="41.8058531731" lon="2.3539338727">
        <ele>1327.64</ele>
        <time>2019-05-04T14:15:16Z</time>
      </trkpt>
      <trkpt lat="41.8058161251" lon="2.3537326232">
        <ele>1325.21</ele>
        <time>2019-05-04T14:15:32Z</time>
      </trkpt>
      <trkpt lat="41.8057654984" lon="2.3535312898">
        <ele>1322.87</ele>
        <time>2019-05-04T14:15:51Z</time>
      </trkpt>
      <trkpt lat="41.8057533447" lon="2.3535110895">
        <ele>1322.62</ele>
        <time>2019-05-04T14:15:53Z</time>
      </trkpt>
      <trkpt lat="41.8056887202" lon="2.3533537611">
        <ele>1320.46</ele>
        <time>2019-05-04T14:16:10Z</time>
      </trkpt>
      <trkpt lat="41.8056290410" lon="2.3532468919">
        <ele>1317.54</ele>
        <time>2019-05-04T14:16:28Z</time>
      </trkpt>
      <trkpt lat="41.8056235928" lon="2.3532201536">
        <ele>1317.21</ele>
        <time>2019-05-04T14:16:31Z</time>
      </trkpt>
      <trkpt lat="41.8056108523" lon="2.3531946726">
        <ele>1316.90</ele>
        <time>2019-05-04T14:16:33Z</time>
      </trkpt>
      <trkpt lat="41.8055070005" lon="2.3530548625">
        <ele>1313.65</ele>
        <time>2019-05-04T14:16:49Z</time>
      </trkpt>
      <trkpt lat="41.8054556195" lon="2.3529615719">
        <ele>1310.50</ele>
        <time>2019-05-04T14:17:03Z</time>
      </trkpt>
      <trkpt lat="41.8054091837" lon="2.3528633360">
        <ele>1307.46</ele>
        <time>2019-05-04T14:17:19Z</time>
      </trkpt>
      <trkpt lat="41.8053429667" lon="2.3527615797">
        <ele>1305.74</ele>
        <time>2019-05-04T14:17:33Z</time>
      </trkpt>
      <trkpt lat="41.8052874785" lon="2.3526469991">
        <ele>1303.58</ele>
        <time>2019-05-04T14:17:47Z</time>
      </trkpt>
      <trkpt lat="41.8052536994" lon="2.3525857273">
        <ele>1302.46</ele>
        <time>2019-05-04T14:17:53Z</time>
      </trkpt>
      <trkpt lat="41.8051663600" lon="2.3524410557">
        <ele>1299.58</ele>
        <time>2019-05-04T14:18:10Z</time>
      </trkpt>
      <trkpt lat="41.8051197566" lon="2.3524012417">
        <ele>1298.33</ele>
        <time>2019-05-04T14:18:16Z</time>
      </trkpt>
      <trkpt lat="41.8050511926" lon="2.3523035925">
        <ele>1296.17</ele>
        <time>2019-05-04T14:18:28Z</time>
      </trkpt>
      <trkpt lat="41.8050071876" lon="2.3522607610">
        <ele>1295.05</ele>
        <time>2019-05-04T14:18:34Z</time>
      </trkpt>
      <trkpt lat="41.8049354386" lon="2.3521703202">
        <ele>1292.98</ele>
        <time>2019-05-04T14:18:45Z</time>
      </trkpt>
      <trkpt lat="41.8049055152" lon="2.3521430790">
        <ele>1292.01</ele>
        <time>2019-05-04T14:18:50Z</time>
      </trkpt>
      <trkpt lat="41.8048558943" lon="2.3520834837">
        <ele>1290.46</ele>
        <time>2019-05-04T14:18:58Z</time>
      </trkpt>
      <trkpt lat="41.8048398849" lon="2.3520714138">
        <ele>1290.01</ele>
        <time>2019-05-04T14:19:00Z</time>
      </trkpt>
      <trkpt lat="41.8047809601" lon="2.3519542348">
        <ele>1288.06</ele>
        <time>2019-05-04T14:19:19Z</time>
      </trkpt>
      <trkpt lat="41.8047377933" lon="2.3518638778">
        <ele>1286.98</ele>
        <time>2019-05-04T14:19:41Z</time>
      </trkpt>
      <trkpt lat="41.8046468496" lon="2.3518034443">
        <ele>1283.84</ele>
        <time>2019-05-04T14:19:56Z</time>
      </trkpt>
      <trkpt lat="41.8045997433" lon="2.3517736048">
        <ele>1282.22</ele>
        <time>2019-05-04T14:20:09Z</time>
      </trkpt>
      <trkpt lat="41.8045566604" lon="2.3517557513">
        <ele>1281.29</ele>
        <time>2019-05-04T14:20:13Z</time>
      </trkpt>
      <trkpt lat="41.8043588474" lon="2.3516120855">
        <ele>1277.98</ele>
        <time>2019-05-04T14:20:34Z</time>
      </trkpt>
      <trkpt lat="41.8042402435" lon="2.3514600378">
        <ele>1275.08</ele>
        <time>2019-05-04T14:20:52Z</time>
      </trkpt>
      <trkpt lat="41.8041562568" lon="2.3513358179">
        <ele>1272.46</ele>
        <time>2019-05-04T14:21:09Z</time>
      </trkpt>
      <trkpt lat="41.8040714320" lon="2.3512799107">
        <ele>1269.97</ele>
        <time>2019-05-04T14:21:24Z</time>
      </trkpt>
      <trkpt lat="41.8039830867" lon="2.3511748016">
        <ele>1266.92</ele>
        <time>2019-05-04T14:21:40Z</time>
      </trkpt>
      <trkpt lat="41.8039426021" lon="2.3510567844">
        <ele>1265.05</ele>
        <time>2019-05-04T14:21:51Z</time>
      </trkpt>
      <trkpt lat="41.8037855253" lon="2.3509665951">
        <ele>1261.76</ele>
        <time>2019-05-04T14:22:09Z</time>
      </trkpt>
      <trkpt lat="41.8037048914" lon="2.3509221710">
        <ele>1258.65</ele>
        <time>2019-05-04T14:22:21Z</time>
      </trkpt>
      <trkpt lat="41.8036127742" lon="2.3508377653">
        <ele>1255.55</ele>
        <time>2019-05-04T14:22:35Z</time>
      </trkpt>
      <trkpt lat="41.8035072461" lon="2.3507815227">
        <ele>1252.49</ele>
        <time>2019-05-04T14:22:48Z</time>
      </trkpt>
      <trkpt lat="41.8033995386" lon="2.3506759945">
        <ele>1249.46</ele>
        <time>2019-05-04T14:23:03Z</time>
      </trkpt>
      <trkpt lat="41.8033298012" lon="2.3505067639">
        <ele>1246.40</ele>
        <time>2019-05-04T14:23:23Z</time>
      </trkpt>
      <trkpt lat="41.8032650929" lon="2.3503715638">
        <ele>1243.84</ele>
        <time>2019-05-04T14:23:38Z</time>
      </trkpt>
      <trkpt lat="41.8032071739" lon="2.3502672929">
        <ele>1240.80</ele>
        <time>2019-05-04T14:23:51Z</time>
      </trkpt>
      <trkpt lat="41.8031109497" lon="2.3501529638">
        <ele>1237.63</ele>
        <time>2019-05-04T14:24:08Z</time>
      </trkpt>
      <trkpt lat="41.8030790146" lon="2.3500478547">
        <ele>1235.22</ele>
        <time>2019-05-04T14:24:23Z</time>
      </trkpt>
      <trkpt lat="41.8030035775" lon="2.3499755189">
        <ele>1233.04</ele>
        <time>2019-05-04T14:24:39Z</time>
      </trkpt>
      <trkpt lat="41.8028595764" lon="2.3499652091">
        <ele>1230.14</ele>
        <time>2019-05-04T14:24:58Z</time>
      </trkpt>
      <trkpt lat="41.8027558085" lon="2.3499026801">
        <ele>1227.03</ele>
        <time>2019-05-04T14:25:15Z</time>
      </trkpt>
      <trkpt lat="41.8027575687" lon="2.3497927096">
        <ele>1224.66</ele>
        <time>2019-05-04T14:25:31Z</time>
      </trkpt>
      <trkpt lat="41.8026745878" lon="2.3496751115">
        <ele>1221.58</ele>
        <time>2019-05-04T14:25:50Z</time>
      </trkpt>
      <trkpt lat="41.8026133999" lon="2.3496085592">
        <ele>1219.79</ele>
        <time>2019-05-04T14:26:04Z</time>
      </trkpt>
      <trkpt lat="41.8025639467" lon="2.3495052103">
        <ele>1216.89</ele>
        <time>2019-05-04T14:26:20Z</time>
      </trkpt>
      <trkpt lat="41.8024821393" lon="2.3494508956">
        <ele>1213.69</ele>
        <time>2019-05-04T14:26:38Z</time>
      </trkpt>
      <trkpt lat="41.8023828138" lon="2.3493558448">
        <ele>1210.71</ele>
        <time>2019-05-04T14:26:56Z</time>
      </trkpt>
      <trkpt lat="41.8023103941" lon="2.3492967524">
        <ele>1207.70</ele>
        <time>2019-05-04T14:27:10Z</time>
      </trkpt>
      <trkpt lat="41.8022446800" lon="2.3492066469">
        <ele>1204.61</ele>
        <time>2019-05-04T14:27:29Z</time>
      </trkpt>
      <trkpt lat="41.8021638785" lon="2.3491137754">
        <ele>1201.57</ele>
        <time>2019-05-04T14:27:50Z</time>
      </trkpt>
      <trkpt lat="41.8020831607" lon="2.3489988595">
        <ele>1198.47</ele>
        <time>2019-05-04T14:28:05Z</time>
      </trkpt>
      <trkpt lat="41.8019990064" lon="2.3489159625">
        <ele>1195.33</ele>
        <time>2019-05-04T14:28:24Z</time>
      </trkpt>
      <trkpt lat="41.8019241560" lon="2.3488317244">
        <ele>1192.07</ele>
        <time>2019-05-04T14:28:42Z</time>
      </trkpt>
      <trkpt lat="41.8019033689" lon="2.3486822750">
        <ele>1189.12</ele>
        <time>2019-05-04T14:29:01Z</time>
      </trkpt>
      <trkpt lat="41.8018136825" lon="2.3486582190">
        <ele>1186.22</ele>
        <time>2019-05-04T14:29:19Z</time>
      </trkpt>
      <trkpt lat="41.8017688394" lon="2.3486071732">
        <ele>1183.25</ele>
        <time>2019-05-04T14:29:35Z</time>
      </trkpt>
      <trkpt lat="41.8017229065" lon="2.3485540319">
        <ele>1181.24</ele>
        <time>2019-05-04T14:29:49Z</time>
      </trkpt>
      <trkpt lat="41.8016729504" lon="2.3484697100">
        <ele>1178.18</ele>
        <time>2019-05-04T14:30:07Z</time>
      </trkpt>
      <trkpt lat="41.8016454577" lon="2.3483578954">
        <ele>1175.00</ele>
        <time>2019-05-04T14:30:24Z</time>
      </trkpt>
      <trkpt lat="41.8016343098" lon="2.3483402096">
        <ele>1174.64</ele>
        <time>2019-05-04T14:30:26Z</time>
      </trkpt>
      <trkpt lat="41.8016001955" lon="2.3483510222">
        <ele>1173.66</ele>
        <time>2019-05-04T14:30:30Z</time>
      </trkpt>
      <trkpt lat="41.8015726190" lon="2.3483883217">
        <ele>1172.75</ele>
        <time>2019-05-04T14:30:34Z</time>
      </trkpt>
      <trkpt lat="41.8014823459" lon="2.3485616595">
        <ele>1170.63</ele>
        <time>2019-05-04T14:30:51Z</time>
      </trkpt>
      <trkpt lat="41.8013829365" lon="2.3486489151">
        <ele>1169.04</ele>
        <time>2019-05-04T14:31:05Z</time>
      </trkpt>
      <trkpt lat="41.8013365846" lon="2.3485517688">
        <ele>1167.65</ele>
        <time>2019-05-04T14:31:22Z</time>
      </trkpt>
      <trkpt lat="41.8013196532" lon="2.3484111205">
        <ele>1164.50</ele>
        <time>2019-05-04T14:31:37Z</time>
      </trkpt>
      <trkpt lat="41.8012572080" lon="2.3482438177">
        <ele>1161.40</ele>
        <time>2019-05-04T14:31:56Z</time>
      </trkpt>
      <trkpt lat="41.8012063298" lon="2.3481300753">
        <ele>1158.28</ele>
        <time>2019-05-04T14:32:11Z</time>
      </trkpt>
      <trkpt lat="41.8011530209" lon="2.3480263911">
        <ele>1155.17</ele>
        <time>2019-05-04T14:32:25Z</time>
      </trkpt>
      <trkpt lat="41.8011448067" lon="2.3479907680">
        <ele>1154.38</ele>
        <time>2019-05-04T14:32:29Z</time>
      </trkpt>
      <trkpt lat="41.8011730537" lon="2.3478800431">
        <ele>1152.19</ele>
        <time>2019-05-04T14:32:48Z</time>
      </trkpt>
      <trkpt lat="41.8011786696" lon="2.3478810489">
        <ele>1152.33</ele>
        <time>2019-05-04T14:33:10Z</time>
      </trkpt>
      <trkpt lat="41.8011558708" lon="2.3477954697">
        <ele>1151.11</ele>
        <time>2019-05-04T14:33:28Z</time>
      </trkpt>
      <trkpt lat="41.8011085130" lon="2.3476525582">
        <ele>1148.28</ele>
        <time>2019-05-04T14:33:44Z</time>
      </trkpt>
      <trkpt lat="41.8010061700" lon="2.3476545699">
        <ele>1145.69</ele>
        <time>2019-05-04T14:34:01Z</time>
      </trkpt>
      <trkpt lat="41.8009345047" lon="2.3476496246">
        <ele>1142.66</ele>
        <time>2019-05-04T14:34:16Z</time>
      </trkpt>
      <trkpt lat="41.8008744065" lon="2.3475493770">
        <ele>1142.74</ele>
        <time>2019-05-04T14:34:28Z</time>
      </trkpt>
      <trkpt lat="41.8007339258" lon="2.3473929707">
        <ele>1142.08</ele>
        <time>2019-05-04T14:34:47Z</time>
      </trkpt>
      <trkpt lat="41.8007221073" lon="2.3473726027">
        <ele>1141.94</ele>
        <time>2019-05-04T14:34:49Z</time>
      </trkpt>
      <trkpt lat="41.8006870709" lon="2.3473095708">
        <ele>1141.40</ele>
        <time>2019-05-04T14:35:05Z</time>
      </trkpt>
      <trkpt lat="41.8006783538" lon="2.3473525699">
        <ele>1141.55</ele>
        <time>2019-05-04T14:35:23Z</time>
      </trkpt>
      <trkpt lat="41.8005206902" lon="2.3472722713">
        <ele>1141.49</ele>
        <time>2019-05-04T14:35:39Z</time>
      </trkpt>
      <trkpt lat="41.8003806286" lon="2.3470234964">
        <ele>1141.29</ele>
        <time>2019-05-04T14:36:29Z</time>
      </trkpt>
      <trkpt lat="41.8004446663" lon="2.3471596185">
        <ele>1141.50</ele>
        <time>2019-05-04T14:37:57Z</time>
      </trkpt>
      <trkpt lat="41.8004353624" lon="2.3471710179">
        <ele>1141.45</ele>
        <time>2019-05-04T14:38:39Z</time>
      </trkpt>
      <trkpt lat="41.8004603405" lon="2.3472047970">
        <ele>1141.40</ele>
        <time>2019-05-04T14:39:22Z</time>
      </trkpt>
      <trkpt lat="41.8004637770" lon="2.3471664079">
        <ele>1141.65</ele>
        <time>2019-05-04T14:40:06Z</time>
      </trkpt>
      <trkpt lat="41.8004626874" lon="2.3471898772">
        <ele>1141.48</ele>
        <time>2019-05-04T14:40:18Z</time>
      </trkpt>
      <trkpt lat="41.8004966341" lon="2.3472457845">
        <ele>1141.41</ele>
        <time>2019-05-04T14:40:40Z</time>
      </trkpt>
      <trkpt lat="41.8005613424" lon="2.3472509813">
        <ele>1141.53</ele>
        <time>2019-05-04T14:40:48Z</time>
      </trkpt>
      <trkpt lat="41.8005813751" lon="2.3472300265">
        <ele>1141.44</ele>
        <time>2019-05-04T14:41:24Z</time>
      </trkpt>
      <trkpt lat="41.8006022461" lon="2.3472647276">
        <ele>1141.35</ele>
        <time>2019-05-04T14:41:55Z</time>
      </trkpt>
      <trkpt lat="41.8006243743" lon="2.3472628836">
        <ele>1141.66</ele>
        <time>2019-05-04T14:42:28Z</time>
      </trkpt>
      <trkpt lat="41.8006386235" lon="2.3472349718">
        <ele>1141.21</ele>
        <time>2019-05-04T14:42:58Z</time>
      </trkpt>
      <trkpt lat="41.8006387074" lon="2.3472239077">
        <ele>1141.41</ele>
        <time>2019-05-04T14:43:31Z</time>
      </trkpt>
      <trkpt lat="41.8006447423" lon="2.3472749535">
        <ele>1141.41</ele>
        <time>2019-05-04T14:44:44Z</time>
      </trkpt>
      <trkpt lat="41.8006268889" lon="2.3472732771">
        <ele>1141.68</ele>
        <time>2019-05-04T14:45:15Z</time>
      </trkpt>
      <trkpt lat="41.8005954567" lon="2.3472491372">
        <ele>1141.73</ele>
        <time>2019-05-04T14:45:46Z</time>
      </trkpt>
      <trkpt lat="41.8005882483" lon="2.3472429346">
        <ele>1141.97</ele>
        <time>2019-05-04T14:46:19Z</time>
      </trkpt>
      <trkpt lat="41.8005820457" lon="2.3472037073">
        <ele>1141.91</ele>
        <time>2019-05-04T14:46:50Z</time>
      </trkpt>
      <trkpt lat="41.8005966302" lon="2.3472071439">
        <ele>1141.98</ele>
        <time>2019-05-04T14:47:22Z</time>
      </trkpt>
      <trkpt lat="41.8005915172" lon="2.3472139332">
        <ele>1141.93</ele>
        <time>2019-05-04T14:47:43Z</time>
      </trkpt>
      <trkpt lat="41.8006832991" lon="2.3473618738">
        <ele>1139.32</ele>
        <time>2019-05-04T14:59:04Z</time>
      </trkpt>
      <trkpt lat="41.8006915133" lon="2.3473684955">
        <ele>1139.32</ele>
        <time>2019-05-04T14:59:05Z</time>
      </trkpt>
      <trkpt lat="41.8007190898" lon="2.3473826610">
        <ele>1139.32</ele>
        <time>2019-05-04T14:59:08Z</time>
      </trkpt>
      <trkpt lat="41.8007484265" lon="2.3474028613">
        <ele>1139.31</ele>
        <time>2019-05-04T14:59:11Z</time>
      </trkpt>
      <trkpt lat="41.8008037470" lon="2.3475085571">
        <ele>1139.38</ele>
        <time>2019-05-04T14:59:20Z</time>
      </trkpt>
      <trkpt lat="41.8008218519" lon="2.3475262430">
        <ele>1139.50</ele>
        <time>2019-05-04T14:59:22Z</time>
      </trkpt>
      <trkpt lat="41.8008633424" lon="2.3475273326">
        <ele>1139.68</ele>
        <time>2019-05-04T14:59:26Z</time>
      </trkpt>
      <trkpt lat="41.8008717243" lon="2.3474786337">
        <ele>1140.04</ele>
        <time>2019-05-04T14:59:30Z</time>
      </trkpt>
      <trkpt lat="41.8007635139" lon="2.3472130951">
        <ele>1142.42</ele>
        <time>2019-05-04T14:59:49Z</time>
      </trkpt>
      <trkpt lat="41.8005923554" lon="2.3470347282">
        <ele>1144.53</ele>
        <time>2019-05-04T15:00:07Z</time>
      </trkpt>
      <trkpt lat="41.8004374579" lon="2.3469134420">
        <ele>1145.83</ele>
        <time>2019-05-04T15:00:21Z</time>
      </trkpt>
      <trkpt lat="41.8002854940" lon="2.3468047287">
        <ele>1146.63</ele>
        <time>2019-05-04T15:00:34Z</time>
      </trkpt>
      <trkpt lat="41.8002067041" lon="2.3467715364">
        <ele>1147.26</ele>
        <time>2019-05-04T15:00:41Z</time>
      </trkpt>
      <trkpt lat="41.8000218831" lon="2.3467142042">
        <ele>1148.47</ele>
        <time>2019-05-04T15:00:56Z</time>
      </trkpt>
      <trkpt lat="41.7999221385" lon="2.3467127793">
        <ele>1149.44</ele>
        <time>2019-05-04T15:01:05Z</time>
      </trkpt>
      <trkpt lat="41.7997776344" lon="2.3467398528">
        <ele>1150.79</ele>
        <time>2019-05-04T15:01:17Z</time>
      </trkpt>
      <trkpt lat="41.7995975073" lon="2.3467489891">
        <ele>1151.50</ele>
        <time>2019-05-04T15:01:31Z</time>
      </trkpt>
      <trkpt lat="41.7995493952" lon="2.3467420321">
        <ele>1151.88</ele>
        <time>2019-05-04T15:01:35Z</time>
      </trkpt>
      <trkpt lat="41.7994891293" lon="2.3467336502">
        <ele>1152.29</ele>
        <time>2019-05-04T15:01:41Z</time>
      </trkpt>
      <trkpt lat="41.7993222456" lon="2.3466105200">
        <ele>1153.22</ele>
        <time>2019-05-04T15:01:56Z</time>
      </trkpt>
      <trkpt lat="41.7991749756" lon="2.3464879766">
        <ele>1154.27</ele>
        <time>2019-05-04T15:02:10Z</time>
      </trkpt>
      <trkpt lat="41.7991416994" lon="2.3464579694">
        <ele>1154.43</ele>
        <time>2019-05-04T15:02:13Z</time>
      </trkpt>
      <trkpt lat="41.7990689445" lon="2.3464084323">
        <ele>1154.95</ele>
        <time>2019-05-04T15:02:20Z</time>
      </trkpt>
      <trkpt lat="41.7990268674" lon="2.3464121204">
        <ele>1155.13</ele>
        <time>2019-05-04T15:02:23Z</time>
      </trkpt>
      <trkpt lat="41.7989212554" lon="2.3463954404">
        <ele>1156.11</ele>
        <time>2019-05-04T15:02:32Z</time>
      </trkpt>
      <trkpt lat="41.7989062518" lon="2.3463849630">
        <ele>1156.19</ele>
        <time>2019-05-04T15:02:33Z</time>
      </trkpt>
      <trkpt lat="41.7987626698" lon="2.3462977912">
        <ele>1157.52</ele>
        <time>2019-05-04T15:02:46Z</time>
      </trkpt>
      <trkpt lat="41.7986481730" lon="2.3461960349">
        <ele>1158.89</ele>
        <time>2019-05-04T15:02:58Z</time>
      </trkpt>
      <trkpt lat="41.7986248713" lon="2.3461872339">
        <ele>1159.04</ele>
        <time>2019-05-04T15:03:00Z</time>
      </trkpt>
      <trkpt lat="41.7985758372" lon="2.3461640161">
        <ele>1159.51</ele>
        <time>2019-05-04T15:03:06Z</time>
      </trkpt>
      <trkpt lat="41.7985664494" lon="2.3461835459">
        <ele>1159.58</ele>
        <time>2019-05-04T15:03:08Z</time>
      </trkpt>
      <trkpt lat="41.7985195946" lon="2.3462645151">
        <ele>1159.70</ele>
        <time>2019-05-04T15:03:14Z</time>
      </trkpt>
      <trkpt lat="41.7984618433" lon="2.3463355098">
        <ele>1159.85</ele>
        <time>2019-05-04T15:03:19Z</time>
      </trkpt>
      <trkpt lat="41.7982683051" lon="2.3464351706">
        <ele>1159.73</ele>
        <time>2019-05-04T15:03:34Z</time>
      </trkpt>
      <trkpt lat="41.7982553132" lon="2.3464330751">
        <ele>1159.73</ele>
        <time>2019-05-04T15:03:35Z</time>
      </trkpt>
      <trkpt lat="41.7981000803" lon="2.3464081809">
        <ele>1159.73</ele>
        <time>2019-05-04T15:03:45Z</time>
      </trkpt>
      <trkpt lat="41.7979640421" lon="2.3463272117">
        <ele>1160.58</ele>
        <time>2019-05-04T15:03:57Z</time>
      </trkpt>
      <trkpt lat="41.7978707515" lon="2.3462663591">
        <ele>1161.03</ele>
        <time>2019-05-04T15:04:05Z</time>
      </trkpt>
      <trkpt lat="41.7977513094" lon="2.3461205978">
        <ele>1162.27</ele>
        <time>2019-05-04T15:04:18Z</time>
      </trkpt>
      <trkpt lat="41.7976858467" lon="2.3460377846">
        <ele>1163.19</ele>
        <time>2019-05-04T15:04:26Z</time>
      </trkpt>
      <trkpt lat="41.7975942325" lon="2.3459727410">
        <ele>1164.09</ele>
        <time>2019-05-04T15:04:34Z</time>
      </trkpt>
      <trkpt lat="41.7975470424" lon="2.3459587432">
        <ele>1164.42</ele>
        <time>2019-05-04T15:04:38Z</time>
      </trkpt>
      <trkpt lat="41.7974158656" lon="2.3459643591">
        <ele>1165.24</ele>
        <time>2019-05-04T15:04:50Z</time>
      </trkpt>
      <trkpt lat="41.7972349841" lon="2.3460369464">
        <ele>1165.92</ele>
        <time>2019-05-04T15:05:05Z</time>
      </trkpt>
      <trkpt lat="41.7970632389" lon="2.3460752517">
        <ele>1166.69</ele>
        <time>2019-05-04T15:05:19Z</time>
      </trkpt>
      <trkpt lat="41.7968741432" lon="2.3460675403">
        <ele>1167.72</ele>
        <time>2019-05-04T15:05:32Z</time>
      </trkpt>
      <trkpt lat="41.7967453133" lon="2.3459843919">
        <ele>1168.79</ele>
        <time>2019-05-04T15:05:43Z</time>
      </trkpt>
      <trkpt lat="41.7966475803" lon="2.3457950447">
        <ele>1169.94</ele>
        <time>2019-05-04T15:05:58Z</time>
      </trkpt>
      <trkpt lat="41.7966446467" lon="2.3455145862">
        <ele>1170.97</ele>
        <time>2019-05-04T15:06:17Z</time>
      </trkpt>
      <trkpt lat="41.7966990452" lon="2.3452707566">
        <ele>1172.16</ele>
        <time>2019-05-04T15:06:34Z</time>
      </trkpt>
      <trkpt lat="41.7967221793" lon="2.3451121710">
        <ele>1173.01</ele>
        <time>2019-05-04T15:06:44Z</time>
      </trkpt>
      <trkpt lat="41.7967515998" lon="2.3448996060">
        <ele>1173.57</ele>
        <time>2019-05-04T15:06:58Z</time>
      </trkpt>
      <trkpt lat="41.7967474088" lon="2.3448193911">
        <ele>1173.72</ele>
        <time>2019-05-04T15:07:04Z</time>
      </trkpt>
      <trkpt lat="41.7967068404" lon="2.3446900584">
        <ele>1173.97</ele>
        <time>2019-05-04T15:07:09Z</time>
      </trkpt>
      <trkpt lat="41.7965513561" lon="2.3444571253">
        <ele>1175.17</ele>
        <time>2019-05-04T15:07:26Z</time>
      </trkpt>
      <trkpt lat="41.7963518668" lon="2.3442248628">
        <ele>1176.98</ele>
        <time>2019-05-04T15:07:46Z</time>
      </trkpt>
      <trkpt lat="41.7961206939" lon="2.3441096116">
        <ele>1178.74</ele>
        <time>2019-05-04T15:08:06Z</time>
      </trkpt>
      <trkpt lat="41.7958647106" lon="2.3441257887">
        <ele>1180.62</ele>
        <time>2019-05-04T15:08:26Z</time>
      </trkpt>
      <trkpt lat="41.7956045363" lon="2.3441174068">
        <ele>1181.80</ele>
        <time>2019-05-04T15:08:47Z</time>
      </trkpt>
      <trkpt lat="41.7953558452" lon="2.3441500124">
        <ele>1182.31</ele>
        <time>2019-05-04T15:09:07Z</time>
      </trkpt>
      <trkpt lat="41.7951578647" lon="2.3441684525">
        <ele>1183.02</ele>
        <time>2019-05-04T15:09:24Z</time>
      </trkpt>
      <trkpt lat="41.7951091658" lon="2.3441925924">
        <ele>1183.32</ele>
        <time>2019-05-04T15:09:28Z</time>
      </trkpt>
      <trkpt lat="41.7948594689" lon="2.3443566263">
        <ele>1184.67</ele>
        <time>2019-05-04T15:09:49Z</time>
      </trkpt>
      <trkpt lat="41.7945980374" lon="2.3443238530">
        <ele>1185.25</ele>
        <time>2019-05-04T15:10:09Z</time>
      </trkpt>
      <trkpt lat="41.7943481728" lon="2.3442534450">
        <ele>1186.11</ele>
        <time>2019-05-04T15:10:29Z</time>
      </trkpt>
      <trkpt lat="41.7941484321" lon="2.3441780917">
        <ele>1187.36</ele>
        <time>2019-05-04T15:10:45Z</time>
      </trkpt>
      <trkpt lat="41.7939356994" lon="2.3440491781">
        <ele>1188.94</ele>
        <time>2019-05-04T15:11:04Z</time>
      </trkpt>
      <trkpt lat="41.7937288340" lon="2.3439275566">
        <ele>1191.00</ele>
        <time>2019-05-04T15:11:24Z</time>
      </trkpt>
      <trkpt lat="41.7935570888" lon="2.3437401373">
        <ele>1193.29</ele>
        <time>2019-05-04T15:11:43Z</time>
      </trkpt>
      <trkpt lat="41.7934249900" lon="2.3435418215">
        <ele>1194.64</ele>
        <time>2019-05-04T15:11:59Z</time>
      </trkpt>
      <trkpt lat="41.7932631355" lon="2.3432958964">
        <ele>1195.64</ele>
        <time>2019-05-04T15:12:19Z</time>
      </trkpt>
      <trkpt lat="41.7931146920" lon="2.3430854268">
        <ele>1197.46</ele>
        <time>2019-05-04T15:12:37Z</time>
      </trkpt>
      <trkpt lat="41.7929561902" lon="2.3429034557">
        <ele>1199.88</ele>
        <time>2019-05-04T15:12:55Z</time>
      </trkpt>
      <trkpt lat="41.7927597184" lon="2.3427513242">
        <ele>1201.57</ele>
        <time>2019-05-04T15:13:13Z</time>
      </trkpt>
      <trkpt lat="41.7925232649" lon="2.3426150344">
        <ele>1202.04</ele>
        <time>2019-05-04T15:13:33Z</time>
      </trkpt>
      <trkpt lat="41.7922635097" lon="2.3424691055">
        <ele>1202.03</ele>
        <time>2019-05-04T15:13:56Z</time>
      </trkpt>
      <trkpt lat="41.7920363601" lon="2.3423849512">
        <ele>1202.59</ele>
        <time>2019-05-04T15:14:15Z</time>
      </trkpt>
      <trkpt lat="41.7919157445" lon="2.3423489928">
        <ele>1202.59</ele>
        <time>2019-05-04T15:14:26Z</time>
      </trkpt>
      <trkpt lat="41.7916436680" lon="2.3422653414">
        <ele>1203.07</ele>
        <time>2019-05-04T15:14:49Z</time>
      </trkpt>
      <trkpt lat="41.7915402353" lon="2.3424926586">
        <ele>1202.94</ele>
        <time>2019-05-04T15:15:07Z</time>
      </trkpt>
      <trkpt lat="41.7913495470" lon="2.3426138610">
        <ele>1202.05</ele>
        <time>2019-05-04T15:15:25Z</time>
      </trkpt>
      <trkpt lat="41.7910829186" lon="2.3425261024">
        <ele>1201.19</ele>
        <time>2019-05-04T15:15:48Z</time>
      </trkpt>
      <trkpt lat="41.7908473033" lon="2.3425099254">
        <ele>1200.41</ele>
        <time>2019-05-04T15:16:08Z</time>
      </trkpt>
      <trkpt lat="41.7906520888" lon="2.3423911538">
        <ele>1199.11</ele>
        <time>2019-05-04T15:16:26Z</time>
      </trkpt>
      <trkpt lat="41.7905683536" lon="2.3420849629">
        <ele>1199.19</ele>
        <time>2019-05-04T15:16:48Z</time>
      </trkpt>
      <trkpt lat="41.7905484885" lon="2.3417970445">
        <ele>1199.75</ele>
        <time>2019-05-04T15:17:09Z</time>
      </trkpt>
      <trkpt lat="41.7905446328" lon="2.3415855691">
        <ele>1199.60</ele>
        <time>2019-05-04T15:17:23Z</time>
      </trkpt>
      <trkpt lat="41.7905080039" lon="2.3412772827">
        <ele>1200.41</ele>
        <time>2019-05-04T15:17:41Z</time>
      </trkpt>
      <trkpt lat="41.7903964408" lon="2.3408909608">
        <ele>1200.64</ele>
        <time>2019-05-04T15:18:03Z</time>
      </trkpt>
      <trkpt lat="41.7902109493" lon="2.3406491429">
        <ele>1199.77</ele>
        <time>2019-05-04T15:18:22Z</time>
      </trkpt>
      <trkpt lat="41.7900098674" lon="2.3404188920">
        <ele>1199.59</ele>
        <time>2019-05-04T15:18:41Z</time>
      </trkpt>
      <trkpt lat="41.7897579912" lon="2.3401168920">
        <ele>1198.34</ele>
        <time>2019-05-04T15:19:08Z</time>
      </trkpt>
      <trkpt lat="41.7895257287" lon="2.3398543708">
        <ele>1196.66</ele>
        <time>2019-05-04T15:19:33Z</time>
      </trkpt>
      <trkpt lat="41.7893355433" lon="2.3396070208">
        <ele>1196.43</ele>
        <time>2019-05-04T15:19:54Z</time>
      </trkpt>
      <trkpt lat="41.7892421689" lon="2.3393032607">
        <ele>1196.36</ele>
        <time>2019-05-04T15:20:15Z</time>
      </trkpt>
      <trkpt lat="41.7892078869" lon="2.3390080500">
        <ele>1195.68</ele>
        <time>2019-05-04T15:20:35Z</time>
      </trkpt>
      <trkpt lat="41.7892308533" lon="2.3386900406">
        <ele>1194.95</ele>
        <time>2019-05-04T15:20:55Z</time>
      </trkpt>
      <trkpt lat="41.7892767861" lon="2.3383675050">
        <ele>1194.49</ele>
        <time>2019-05-04T15:21:14Z</time>
      </trkpt>
      <trkpt lat="41.7893080506" lon="2.3380351625">
        <ele>1194.23</ele>
        <time>2019-05-04T15:21:35Z</time>
      </trkpt>
      <trkpt lat="41.7892888561" lon="2.3377488367">
        <ele>1192.92</ele>
        <time>2019-05-04T15:21:52Z</time>
      </trkpt>
      <trkpt lat="41.7891497165" lon="2.3374009877">
        <ele>1190.42</ele>
        <time>2019-05-04T15:22:14Z</time>
      </trkpt>
      <trkpt lat="41.7890098225" lon="2.3370936234">
        <ele>1188.34</ele>
        <time>2019-05-04T15:22:35Z</time>
      </trkpt>
      <trkpt lat="41.7887423560" lon="2.3370087147">
        <ele>1186.17</ele>
        <time>2019-05-04T15:22:57Z</time>
      </trkpt>
      <trkpt lat="41.7885866202" lon="2.3368264083">
        <ele>1183.10</ele>
        <time>2019-05-04T15:23:16Z</time>
      </trkpt>
      <trkpt lat="41.7885577865" lon="2.3365843389">
        <ele>1180.09</ele>
        <time>2019-05-04T15:23:33Z</time>
      </trkpt>
      <trkpt lat="41.7884847801" lon="2.3362740409">
        <ele>1177.97</ele>
        <time>2019-05-04T15:23:53Z</time>
      </trkpt>
      <trkpt lat="41.7884018831" lon="2.3360155430">
        <ele>1175.89</ele>
        <time>2019-05-04T15:24:10Z</time>
      </trkpt>
      <trkpt lat="41.7883872148" lon="2.3357129563">
        <ele>1173.32</ele>
        <time>2019-05-04T15:24:29Z</time>
      </trkpt>
      <trkpt lat="41.7883920763" lon="2.3356999643">
        <ele>1173.11</ele>
        <time>2019-05-04T15:24:30Z</time>
      </trkpt>
      <trkpt lat="41.7884664237" lon="2.3353931028">
        <ele>1170.20</ele>
        <time>2019-05-04T15:24:49Z</time>
      </trkpt>
      <trkpt lat="41.7885142006" lon="2.3351809569">
        <ele>1168.46</ele>
        <time>2019-05-04T15:25:02Z</time>
      </trkpt>
      <trkpt lat="41.7884934973" lon="2.3349371273">
        <ele>1166.22</ele>
        <time>2019-05-04T15:25:17Z</time>
      </trkpt>
      <trkpt lat="41.7884428706" lon="2.3346311878">
        <ele>1163.91</ele>
        <time>2019-05-04T15:25:36Z</time>
      </trkpt>
      <trkpt lat="41.7884153780" lon="2.3344099894">
        <ele>1162.88</ele>
        <time>2019-05-04T15:25:50Z</time>
      </trkpt>
      <trkpt lat="41.7884141207" lon="2.3341029603">
        <ele>1160.15</ele>
        <time>2019-05-04T15:26:09Z</time>
      </trkpt>
      <trkpt lat="41.7884348240" lon="2.3337053228">
        <ele>1157.08</ele>
        <time>2019-05-04T15:26:32Z</time>
      </trkpt>
      <trkpt lat="41.7884170543" lon="2.3333428893">
        <ele>1154.57</ele>
        <time>2019-05-04T15:26:52Z</time>
      </trkpt>
      <trkpt lat="41.7882915772" lon="2.3329325952">
        <ele>1153.04</ele>
        <time>2019-05-04T15:27:16Z</time>
      </trkpt>
      <trkpt lat="41.7882038187" lon="2.3325842433">
        <ele>1151.82</ele>
        <time>2019-05-04T15:27:37Z</time>
      </trkpt>
      <trkpt lat="41.7880965304" lon="2.3321962450">
        <ele>1150.62</ele>
        <time>2019-05-04T15:28:01Z</time>
      </trkpt>
      <trkpt lat="41.7880125437" lon="2.3317947518">
        <ele>1150.38</ele>
        <time>2019-05-04T15:28:24Z</time>
      </trkpt>
      <trkpt lat="41.7878644355" lon="2.3314286303">
        <ele>1150.41</ele>
        <time>2019-05-04T15:28:47Z</time>
      </trkpt>
      <trkpt lat="41.7877194285" lon="2.3311048374">
        <ele>1151.06</ele>
        <time>2019-05-04T15:29:08Z</time>
      </trkpt>
      <trkpt lat="41.7875645310" lon="2.3308532126">
        <ele>1151.89</ele>
        <time>2019-05-04T15:29:28Z</time>
      </trkpt>
      <trkpt lat="41.7873435002" lon="2.3307000753">
        <ele>1153.41</ele>
        <time>2019-05-04T15:29:48Z</time>
      </trkpt>
      <trkpt lat="41.7872795463" lon="2.3306290805">
        <ele>1154.15</ele>
        <time>2019-05-04T15:29:55Z</time>
      </trkpt>
      <trkpt lat="41.7871141713" lon="2.3303409107">
        <ele>1156.25</ele>
        <time>2019-05-04T15:30:16Z</time>
      </trkpt>
      <trkpt lat="41.7869454436" lon="2.3300170340">
        <ele>1157.35</ele>
        <time>2019-05-04T15:30:39Z</time>
      </trkpt>
      <trkpt lat="41.7868445255" lon="2.3296700232">
        <ele>1155.33</ele>
        <time>2019-05-04T15:31:02Z</time>
      </trkpt>
      <trkpt lat="41.7866269313" lon="2.3293020576">
        <ele>1154.02</ele>
        <time>2019-05-04T15:31:30Z</time>
      </trkpt>
      <trkpt lat="41.7864864506" lon="2.3290435597">
        <ele>1150.91</ele>
        <time>2019-05-04T15:31:49Z</time>
      </trkpt>
      <trkpt lat="41.7863147054" lon="2.3286765162">
        <ele>1148.97</ele>
        <time>2019-05-04T15:32:15Z</time>
      </trkpt>
      <trkpt lat="41.7861266993" lon="2.3282904457">
        <ele>1148.47</ele>
        <time>2019-05-04T15:32:41Z</time>
      </trkpt>
      <trkpt lat="41.7859807704" lon="2.3281262442">
        <ele>1149.09</ele>
        <time>2019-05-04T15:32:56Z</time>
      </trkpt>
      <trkpt lat="41.7859677784" lon="2.3281171918">
        <ele>1149.04</ele>
        <time>2019-05-04T15:32:57Z</time>
      </trkpt>
      <trkpt lat="41.7859162297" lon="2.3280709237">
        <ele>1148.81</ele>
        <time>2019-05-04T15:33:01Z</time>
      </trkpt>
      <trkpt lat="41.7857488431" lon="2.3279770464">
        <ele>1148.88</ele>
        <time>2019-05-04T15:33:13Z</time>
      </trkpt>
      <trkpt lat="41.7856090330" lon="2.3279129248">
        <ele>1149.18</ele>
        <time>2019-05-04T15:33:24Z</time>
      </trkpt>
      <trkpt lat="41.7854602542" lon="2.3278279323">
        <ele>1149.27</ele>
        <time>2019-05-04T15:33:36Z</time>
      </trkpt>
      <trkpt lat="41.7852865811" lon="2.3278182093">
        <ele>1149.73</ele>
        <time>2019-05-04T15:33:50Z</time>
      </trkpt>
      <trkpt lat="41.7850911152" lon="2.3278768826">
        <ele>1150.70</ele>
        <time>2019-05-04T15:34:06Z</time>
      </trkpt>
      <trkpt lat="41.7848728504" lon="2.3279475421">
        <ele>1152.23</ele>
        <time>2019-05-04T15:34:24Z</time>
      </trkpt>
      <trkpt lat="41.7846649792" lon="2.3280297685">
        <ele>1153.35</ele>
        <time>2019-05-04T15:34:42Z</time>
      </trkpt>
      <trkpt lat="41.7844355665" lon="2.3281642143">
        <ele>1155.97</ele>
        <time>2019-05-04T15:35:02Z</time>
      </trkpt>
      <trkpt lat="41.7842283659" lon="2.3283089697">
        <ele>1157.78</ele>
        <time>2019-05-04T15:35:20Z</time>
      </trkpt>
      <trkpt lat="41.7840380128" lon="2.3284829780">
        <ele>1159.30</ele>
        <time>2019-05-04T15:35:38Z</time>
      </trkpt>
      <trkpt lat="41.7838269565" lon="2.3286480177">
        <ele>1160.50</ele>
        <time>2019-05-04T15:35:57Z</time>
      </trkpt>
      <trkpt lat="41.7836055066" lon="2.3287991434">
        <ele>1161.89</ele>
        <time>2019-05-04T15:36:16Z</time>
      </trkpt>
      <trkpt lat="41.7834278103" lon="2.3289569747">
        <ele>1163.60</ele>
        <time>2019-05-04T15:36:33Z</time>
      </trkpt>
      <trkpt lat="41.7832487728" lon="2.3290794343">
        <ele>1164.74</ele>
        <time>2019-05-04T15:36:49Z</time>
      </trkpt>
      <trkpt lat="41.7830259819" lon="2.3291583080">
        <ele>1166.56</ele>
        <time>2019-05-04T15:37:07Z</time>
      </trkpt>
      <trkpt lat="41.7827874329" lon="2.3292250279">
        <ele>1168.92</ele>
        <time>2019-05-04T15:37:27Z</time>
      </trkpt>
      <trkpt lat="41.7825395800" lon="2.3292868026">
        <ele>1170.87</ele>
        <time>2019-05-04T15:37:47Z</time>
      </trkpt>
      <trkpt lat="41.7822863627" lon="2.3293033987">
        <ele>1172.12</ele>
        <time>2019-05-04T15:38:08Z</time>
      </trkpt>
      <trkpt lat="41.7820676789" lon="2.3292025644">
        <ele>1174.04</ele>
        <time>2019-05-04T15:38:28Z</time>
      </trkpt>
      <trkpt lat="41.7818901502" lon="2.3291738145">
        <ele>1177.18</ele>
        <time>2019-05-04T15:38:45Z</time>
      </trkpt>
      <trkpt lat="41.7817410361" lon="2.3293213360">
        <ele>1180.02</ele>
        <time>2019-05-04T15:39:04Z</time>
      </trkpt>
      <trkpt lat="41.7815959454" lon="2.3294539377">
        <ele>1182.80</ele>
        <time>2019-05-04T15:39:21Z</time>
      </trkpt>
      <trkpt lat="41.7814426403" lon="2.3296184745">
        <ele>1185.58</ele>
        <time>2019-05-04T15:39:39Z</time>
      </trkpt>
      <trkpt lat="41.7812880781" lon="2.3297659121">
        <ele>1188.04</ele>
        <time>2019-05-04T15:39:56Z</time>
      </trkpt>
      <trkpt lat="41.7810961325" lon="2.3298633937">
        <ele>1190.23</ele>
        <time>2019-05-04T15:40:14Z</time>
      </trkpt>
      <trkpt lat="41.7809207831" lon="2.3299675807">
        <ele>1192.04</ele>
        <time>2019-05-04T15:40:31Z</time>
      </trkpt>
      <trkpt lat="41.7807335313" lon="2.3300544173">
        <ele>1193.36</ele>
        <time>2019-05-04T15:40:48Z</time>
      </trkpt>
      <trkpt lat="41.7804972455" lon="2.3300823290">
        <ele>1195.58</ele>
        <time>2019-05-04T15:41:08Z</time>
      </trkpt>
      <trkpt lat="41.7802933976" lon="2.3301236518">
        <ele>1196.47</ele>
        <time>2019-05-04T15:41:25Z</time>
      </trkpt>
      <trkpt lat="41.7800753843" lon="2.3301539104">
        <ele>1197.79</ele>
        <time>2019-05-04T15:41:43Z</time>
      </trkpt>
      <trkpt lat="41.7798419483" lon="2.3301871866">
        <ele>1199.04</ele>
        <time>2019-05-04T15:42:03Z</time>
      </trkpt>
      <trkpt lat="41.7796436325" lon="2.3302173615">
        <ele>1200.69</ele>
        <time>2019-05-04T15:42:20Z</time>
      </trkpt>
      <trkpt lat="41.7794122081" lon="2.3302161042">
        <ele>1202.38</ele>
        <time>2019-05-04T15:42:39Z</time>
      </trkpt>
      <trkpt lat="41.7791193444" lon="2.3301840015">
        <ele>1203.67</ele>
        <time>2019-05-04T15:43:03Z</time>
      </trkpt>
      <trkpt lat="41.7788706534" lon="2.3301368114">
        <ele>1206.08</ele>
        <time>2019-05-04T15:43:24Z</time>
      </trkpt>
      <trkpt lat="41.7786117364" lon="2.3300716840">
        <ele>1206.57</ele>
        <time>2019-05-04T15:43:45Z</time>
      </trkpt>
      <trkpt lat="41.7783838324" lon="2.3299631383">
        <ele>1206.75</ele>
        <time>2019-05-04T15:44:05Z</time>
      </trkpt>
      <trkpt lat="41.7781674955" lon="2.3297508247">
        <ele>1204.64</ele>
        <time>2019-05-04T15:44:27Z</time>
      </trkpt>
      <trkpt lat="41.7780002765" lon="2.3295889702">
        <ele>1203.64</ele>
        <time>2019-05-04T15:44:45Z</time>
      </trkpt>
      <trkpt lat="41.7777394317" lon="2.3294158000">
        <ele>1201.47</ele>
        <time>2019-05-04T15:45:08Z</time>
      </trkpt>
      <trkpt lat="41.7775058281" lon="2.3292645905">
        <ele>1200.23</ele>
        <time>2019-05-04T15:45:28Z</time>
      </trkpt>
      <trkpt lat="41.7772473302" lon="2.3291918356">
        <ele>1200.16</ele>
        <time>2019-05-04T15:45:49Z</time>
      </trkpt>
      <trkpt lat="41.7770527024" lon="2.3290840443">
        <ele>1199.39</ele>
        <time>2019-05-04T15:46:07Z</time>
      </trkpt>
      <trkpt lat="41.7768020835" lon="2.3288918473">
        <ele>1198.28</ele>
        <time>2019-05-04T15:46:31Z</time>
      </trkpt>
      <trkpt lat="41.7766110599" lon="2.3287264723">
        <ele>1196.90</ele>
        <time>2019-05-04T15:46:50Z</time>
      </trkpt>
      <trkpt lat="41.7763970699" lon="2.3285982292">
        <ele>1195.76</ele>
        <time>2019-05-04T15:47:10Z</time>
      </trkpt>
      <trkpt lat="41.7763483711" lon="2.3285678867">
        <ele>1195.30</ele>
        <time>2019-05-04T15:47:28Z</time>
      </trkpt>
      <trkpt lat="41.7762491293" lon="2.3285417352">
        <ele>1194.90</ele>
        <time>2019-05-04T15:47:52Z</time>
      </trkpt>
      <trkpt lat="41.7760118376" lon="2.3284797091">
        <ele>1193.20</ele>
        <time>2019-05-04T15:48:13Z</time>
      </trkpt>
      <trkpt lat="41.7757238355" lon="2.3285015859">
        <ele>1192.28</ele>
        <time>2019-05-04T15:48:37Z</time>
      </trkpt>
      <trkpt lat="41.7754352465" lon="2.3285784479">
        <ele>1191.51</ele>
        <time>2019-05-04T15:49:02Z</time>
      </trkpt>
      <trkpt lat="41.7751816940" lon="2.3286199383">
        <ele>1191.53</ele>
        <time>2019-05-04T15:49:23Z</time>
      </trkpt>
      <trkpt lat="41.7749903351" lon="2.3286854010">
        <ele>1192.41</ele>
        <time>2019-05-04T15:49:41Z</time>
      </trkpt>
      <trkpt lat="41.7747704778" lon="2.3288232833">
        <ele>1193.61</ele>
        <time>2019-05-04T15:50:01Z</time>
      </trkpt>
      <trkpt lat="41.7745683063" lon="2.3289011512">
        <ele>1195.02</ele>
        <time>2019-05-04T15:50:19Z</time>
      </trkpt>
      <trkpt lat="41.7743519694" lon="2.3290268797">
        <ele>1195.62</ele>
        <time>2019-05-04T15:50:38Z</time>
      </trkpt>
      <trkpt lat="41.7741254903" lon="2.3291899916">
        <ele>1195.77</ele>
        <time>2019-05-04T15:50:59Z</time>
      </trkpt>
      <trkpt lat="41.7738815770" lon="2.3292968608">
        <ele>1196.29</ele>
        <time>2019-05-04T15:51:20Z</time>
      </trkpt>
      <trkpt lat="41.7736837640" lon="2.3294247687">
        <ele>1196.92</ele>
        <time>2019-05-04T15:51:39Z</time>
      </trkpt>
      <trkpt lat="41.7734327260" lon="2.3295355774">
        <ele>1198.35</ele>
        <time>2019-05-04T15:52:00Z</time>
      </trkpt>
      <trkpt lat="41.7732621543" lon="2.3293057457">
        <ele>1199.11</ele>
        <time>2019-05-04T15:52:21Z</time>
      </trkpt>
      <trkpt lat="41.7730848771" lon="2.3292974476">
        <ele>1200.52</ele>
        <time>2019-05-04T15:52:38Z</time>
      </trkpt>
      <trkpt lat="41.7729288898" lon="2.3294503335">
        <ele>1202.79</ele>
        <time>2019-05-04T15:52:57Z</time>
      </trkpt>
      <trkpt lat="41.7728517763" lon="2.3296283651">
        <ele>1205.57</ele>
        <time>2019-05-04T15:53:13Z</time>
      </trkpt>
      <trkpt lat="41.7727416381" lon="2.3298184667">
        <ele>1207.60</ele>
        <time>2019-05-04T15:53:30Z</time>
      </trkpt>
      <trkpt lat="41.7726454139" lon="2.3301078938">
        <ele>1209.37</ele>
        <time>2019-05-04T15:53:51Z</time>
      </trkpt>
      <trkpt lat="41.7725662049" lon="2.3304092232">
        <ele>1210.80</ele>
        <time>2019-05-04T15:54:11Z</time>
      </trkpt>
      <trkpt lat="41.7724652868" lon="2.3306816351">
        <ele>1212.36</ele>
        <time>2019-05-04T15:54:30Z</time>
      </trkpt>
      <trkpt lat="41.7723904364" lon="2.3309708945">
        <ele>1214.03</ele>
        <time>2019-05-04T15:54:49Z</time>
      </trkpt>
      <trkpt lat="41.7723393068" lon="2.3312335834">
        <ele>1215.35</ele>
        <time>2019-05-04T15:55:08Z</time>
      </trkpt>
      <trkpt lat="41.7722828966" lon="2.3314608168">
        <ele>1218.25</ele>
        <time>2019-05-04T15:55:26Z</time>
      </trkpt>
      <trkpt lat="41.7721155938" lon="2.3316762317">
        <ele>1221.28</ele>
        <time>2019-05-04T15:55:48Z</time>
      </trkpt>
      <trkpt lat="41.7719093151" lon="2.3317744676">
        <ele>1222.82</ele>
        <time>2019-05-04T15:56:07Z</time>
      </trkpt>
      <trkpt lat="41.7716941517" lon="2.3318809178">
        <ele>1225.75</ele>
        <time>2019-05-04T15:56:28Z</time>
      </trkpt>
      <trkpt lat="41.7715200596" lon="2.3319467995">
        <ele>1227.66</ele>
        <time>2019-05-04T15:56:44Z</time>
      </trkpt>
      <trkpt lat="41.7713055667" lon="2.3320633918">
        <ele>1230.54</ele>
        <time>2019-05-04T15:57:05Z</time>
      </trkpt>
      <trkpt lat="41.7711195722" lon="2.3321616277">
        <ele>1232.12</ele>
        <time>2019-05-04T15:57:22Z</time>
      </trkpt>
      <trkpt lat="41.7709133774" lon="2.3322008550">
        <ele>1234.01</ele>
        <time>2019-05-04T15:57:40Z</time>
      </trkpt>
      <trkpt lat="41.7706958670" lon="2.3321910482">
        <ele>1235.94</ele>
        <time>2019-05-04T15:57:58Z</time>
      </trkpt>
      <trkpt lat="41.7704227008" lon="2.3322048783">
        <ele>1237.34</ele>
        <time>2019-05-04T15:58:19Z</time>
      </trkpt>
      <trkpt lat="41.7701650411" lon="2.3322405852">
        <ele>1238.93</ele>
        <time>2019-05-04T15:58:40Z</time>
      </trkpt>
      <trkpt lat="41.7698896118" lon="2.3322230671">
        <ele>1239.98</ele>
        <time>2019-05-04T15:59:02Z</time>
      </trkpt>
      <trkpt lat="41.7696130089" lon="2.3322011065">
        <ele>1241.20</ele>
        <time>2019-05-04T15:59:24Z</time>
      </trkpt>
      <trkpt lat="41.7694086581" lon="2.3322108295">
        <ele>1242.22</ele>
        <time>2019-05-04T15:59:43Z</time>
      </trkpt>
      <trkpt lat="41.7694084905" lon="2.3322108295">
        <ele>1242.36</ele>
        <time>2019-05-04T15:59:55Z</time>
      </trkpt>
      <trkpt lat="41.7693640664" lon="2.3322052974">
        <ele>1242.45</ele>
        <time>2019-05-04T15:59:59Z</time>
      </trkpt>
      <trkpt lat="41.7690614797" lon="2.3321895394">
        <ele>1242.63</ele>
        <time>2019-05-04T16:00:23Z</time>
      </trkpt>
      <trkpt lat="41.7687800992" lon="2.3321953230">
        <ele>1243.43</ele>
        <time>2019-05-04T16:00:45Z</time>
      </trkpt>
      <trkpt lat="41.7685043346" lon="2.3321856000">
        <ele>1244.21</ele>
        <time>2019-05-04T16:01:07Z</time>
      </trkpt>
      <trkpt lat="41.7682594992" lon="2.3321173713">
        <ele>1245.92</ele>
        <time>2019-05-04T16:01:28Z</time>
      </trkpt>
      <trkpt lat="41.7680215370" lon="2.3319931515">
        <ele>1246.90</ele>
        <time>2019-05-04T16:01:48Z</time>
      </trkpt>
      <trkpt lat="41.7677414138" lon="2.3319279402">
        <ele>1248.35</ele>
        <time>2019-05-04T16:02:10Z</time>
      </trkpt>
      <trkpt lat="41.7674870230" lon="2.3318814207">
        <ele>1250.10</ele>
        <time>2019-05-04T16:02:31Z</time>
      </trkpt>
      <trkpt lat="41.7672545929" lon="2.3320154473">
        <ele>1251.49</ele>
        <time>2019-05-04T16:02:52Z</time>
      </trkpt>
      <trkpt lat="41.7670490686" lon="2.3321936466">
        <ele>1252.75</ele>
        <time>2019-05-04T16:03:12Z</time>
      </trkpt>
      <trkpt lat="41.7668833584" lon="2.3323950637">
        <ele>1253.67</ele>
        <time>2019-05-04T16:03:31Z</time>
      </trkpt>
      <trkpt lat="41.7667794228" lon="2.3327036854">
        <ele>1255.49</ele>
        <time>2019-05-04T16:03:51Z</time>
      </trkpt>
      <trkpt lat="41.7667360883" lon="2.3329947051">
        <ele>1256.20</ele>
        <time>2019-05-04T16:04:08Z</time>
      </trkpt>
      <trkpt lat="41.7665903270" lon="2.3333244491">
        <ele>1255.86</ele>
        <time>2019-05-04T16:04:31Z</time>
      </trkpt>
      <trkpt lat="41.7663283087" lon="2.3335267883">
        <ele>1255.94</ele>
        <time>2019-05-04T16:04:54Z</time>
      </trkpt>
      <trkpt lat="41.7660555616" lon="2.3336176481">
        <ele>1256.64</ele>
        <time>2019-05-04T16:05:16Z</time>
      </trkpt>
      <trkpt lat="41.7657903582" lon="2.3337244336">
        <ele>1257.63</ele>
        <time>2019-05-04T16:05:38Z</time>
      </trkpt>
      <trkpt lat="41.7655425053" lon="2.3337625712">
        <ele>1260.43</ele>
        <time>2019-05-04T16:05:59Z</time>
      </trkpt>
      <trkpt lat="41.7653038725" lon="2.3336184025">
        <ele>1262.41</ele>
        <time>2019-05-04T16:06:20Z</time>
      </trkpt>
      <trkpt lat="41.7650862783" lon="2.3334043287">
        <ele>1262.73</ele>
        <time>2019-05-04T16:06:41Z</time>
      </trkpt>
      <trkpt lat="41.7648409400" lon="2.3332326673">
        <ele>1263.20</ele>
        <time>2019-05-04T16:07:04Z</time>
      </trkpt>
      <trkpt lat="41.7646895628" lon="2.3331193440">
        <ele>1263.21</ele>
        <time>2019-05-04T16:07:18Z</time>
      </trkpt>
      <trkpt lat="41.7646020558" lon="2.3331335932">
        <ele>1263.10</ele>
        <time>2019-05-04T16:07:25Z</time>
      </trkpt>
      <trkpt lat="41.7645623256" lon="2.3331541289">
        <ele>1263.06</ele>
        <time>2019-05-04T16:07:30Z</time>
      </trkpt>
      <trkpt lat="41.7645601463" lon="2.3331294861">
        <ele>1262.65</ele>
        <time>2019-05-04T16:07:47Z</time>
      </trkpt>
      <trkpt lat="41.7645393591" lon="2.3331513628">
        <ele>1262.37</ele>
        <time>2019-05-04T16:07:57Z</time>
      </trkpt>
      <trkpt lat="41.7644989584" lon="2.3332692124">
        <ele>1261.98</ele>
        <time>2019-05-04T16:08:07Z</time>
      </trkpt>
      <trkpt lat="41.7643187474" lon="2.3334781732">
        <ele>1260.73</ele>
        <time>2019-05-04T16:08:29Z</time>
      </trkpt>
      <trkpt lat="41.7641342618" lon="2.3337318096">
        <ele>1261.19</ele>
        <time>2019-05-04T16:08:52Z</time>
      </trkpt>
      <trkpt lat="41.7639882490" lon="2.3339705262">
        <ele>1262.25</ele>
        <time>2019-05-04T16:09:12Z</time>
      </trkpt>
      <trkpt lat="41.7638633586" lon="2.3342284374">
        <ele>1264.26</ele>
        <time>2019-05-04T16:09:30Z</time>
      </trkpt>
      <trkpt lat="41.7638382129" lon="2.3342621326">
        <ele>1264.56</ele>
        <time>2019-05-04T16:09:33Z</time>
      </trkpt>
      <trkpt lat="41.7637072038" lon="2.3344993405">
        <ele>1267.07</ele>
        <time>2019-05-04T16:09:51Z</time>
      </trkpt>
      <trkpt lat="41.7636170983" lon="2.3347406555">
        <ele>1268.52</ele>
        <time>2019-05-04T16:10:08Z</time>
      </trkpt>
      <trkpt lat="41.7635554075" lon="2.3350075353">
        <ele>1270.38</ele>
        <time>2019-05-04T16:10:27Z</time>
      </trkpt>
      <trkpt lat="41.7635170184" lon="2.3352781031">
        <ele>1272.75</ele>
        <time>2019-05-04T16:10:46Z</time>
      </trkpt>
      <trkpt lat="41.7634947225" lon="2.3355366010">
        <ele>1275.10</ele>
        <time>2019-05-04T16:11:03Z</time>
      </trkpt>
      <trkpt lat="41.7634647153" lon="2.3357685283">
        <ele>1276.54</ele>
        <time>2019-05-04T16:11:17Z</time>
      </trkpt>
      <trkpt lat="41.7634148430" lon="2.3360290378">
        <ele>1278.56</ele>
        <time>2019-05-04T16:11:33Z</time>
      </trkpt>
      <trkpt lat="41.7633378133" lon="2.3362917267">
        <ele>1280.51</ele>
        <time>2019-05-04T16:11:51Z</time>
      </trkpt>
      <trkpt lat="41.7632619571" lon="2.3365229834">
        <ele>1281.82</ele>
        <time>2019-05-04T16:12:07Z</time>
      </trkpt>
      <trkpt lat="41.7631984223" lon="2.3367948923">
        <ele>1284.02</ele>
        <time>2019-05-04T16:12:25Z</time>
      </trkpt>
      <trkpt lat="41.7631467897" lon="2.3370413203">
        <ele>1285.55</ele>
        <time>2019-05-04T16:12:41Z</time>
      </trkpt>
      <trkpt lat="41.7630816624" lon="2.3373067752">
        <ele>1286.57</ele>
        <time>2019-05-04T16:12:58Z</time>
      </trkpt>
      <trkpt lat="41.7630560137" lon="2.3375724815">
        <ele>1287.91</ele>
        <time>2019-05-04T16:13:15Z</time>
      </trkpt>
      <trkpt lat="41.7630312033" lon="2.3378992081">
        <ele>1288.57</ele>
        <time>2019-05-04T16:13:34Z</time>
      </trkpt>
      <trkpt lat="41.7629889585" lon="2.3382236715">
        <ele>1288.18</ele>
        <time>2019-05-04T16:13:54Z</time>
      </trkpt>
      <trkpt lat="41.7630544212" lon="2.3384952452">
        <ele>1287.50</ele>
        <time>2019-05-04T16:14:11Z</time>
      </trkpt>
      <trkpt lat="41.7631663196" lon="2.3387689143">
        <ele>1286.75</ele>
        <time>2019-05-04T16:14:30Z</time>
      </trkpt>
      <trkpt lat="41.7631791439" lon="2.3389036115">
        <ele>1285.51</ele>
        <time>2019-05-04T16:14:39Z</time>
      </trkpt>
      <trkpt lat="41.7631574348" lon="2.3390232213">
        <ele>1284.51</ele>
        <time>2019-05-04T16:14:55Z</time>
      </trkpt>
      <trkpt lat="41.7631574348" lon="2.3390097264">
        <ele>1284.46</ele>
        <time>2019-05-04T16:14:56Z</time>
      </trkpt>
      <trkpt lat="41.7631487176" lon="2.3387627956">
        <ele>1285.03</ele>
        <time>2019-05-04T16:15:13Z</time>
      </trkpt>
      <trkpt lat="41.7630908825" lon="2.3385970853">
        <ele>1286.19</ele>
        <time>2019-05-04T16:15:25Z</time>
      </trkpt>
      <trkpt lat="41.7629982624" lon="2.3383929022">
        <ele>1287.05</ele>
        <time>2019-05-04T16:15:38Z</time>
      </trkpt>
      <trkpt lat="41.7629792355" lon="2.3382193968">
        <ele>1287.54</ele>
        <time>2019-05-04T16:15:49Z</time>
      </trkpt>
      <trkpt lat="41.7629797384" lon="2.3381544370">
        <ele>1287.67</ele>
        <time>2019-05-04T16:15:53Z</time>
      </trkpt>
      <trkpt lat="41.7630273476" lon="2.3380354140">
        <ele>1288.06</ele>
        <time>2019-05-04T16:16:02Z</time>
      </trkpt>
      <trkpt lat="41.7630200554" lon="2.3378525209">
        <ele>1288.10</ele>
        <time>2019-05-04T16:16:11Z</time>
      </trkpt>
      <trkpt lat="41.7630431056" lon="2.3377951048">
        <ele>1288.21</ele>
        <time>2019-05-04T16:16:15Z</time>
      </trkpt>
      <trkpt lat="41.7630659044" lon="2.3376951087">
        <ele>1288.39</ele>
        <time>2019-05-04T16:16:23Z</time>
      </trkpt>
      <trkpt lat="41.7630726099" lon="2.3375940230">
        <ele>1288.41</ele>
        <time>2019-05-04T16:16:28Z</time>
      </trkpt>
      <trkpt lat="41.7630922236" lon="2.3374246247">
        <ele>1287.95</ele>
        <time>2019-05-04T16:16:37Z</time>
      </trkpt>
      <trkpt lat="41.7631386593" lon="2.3371678870">
        <ele>1286.95</ele>
        <time>2019-05-04T16:16:53Z</time>
      </trkpt>
      <trkpt lat="41.7631626315" lon="2.3370151687">
        <ele>1285.99</ele>
        <time>2019-05-04T16:17:00Z</time>
      </trkpt>
      <trkpt lat="41.7632034514" lon="2.3369262367">
        <ele>1285.58</ele>
        <time>2019-05-04T16:17:07Z</time>
      </trkpt>
      <trkpt lat="41.7632298544" lon="2.3367233109">
        <ele>1285.08</ele>
        <time>2019-05-04T16:17:19Z</time>
      </trkpt>
      <trkpt lat="41.7632414214" lon="2.3365748674">
        <ele>1284.17</ele>
        <time>2019-05-04T16:17:27Z</time>
      </trkpt>
      <trkpt lat="41.7632120010" lon="2.3365894519">
        <ele>1283.11</ele>
        <time>2019-05-04T16:17:35Z</time>
      </trkpt>
      <trkpt lat="41.7630737834" lon="2.3367186170">
        <ele>1283.65</ele>
        <time>2019-05-04T16:17:47Z</time>
      </trkpt>
      <trkpt lat="41.7630431894" lon="2.3367218021">
        <ele>1283.81</ele>
        <time>2019-05-04T16:17:50Z</time>
      </trkpt>
      <trkpt lat="41.7629873659" lon="2.3367454391">
        <ele>1283.64</ele>
        <time>2019-05-04T16:17:55Z</time>
      </trkpt>
      <trkpt lat="41.7628907226" lon="2.3368575051">
        <ele>1282.79</ele>
        <time>2019-05-04T16:18:05Z</time>
      </trkpt>
      <trkpt lat="41.7628600448" lon="2.3369294219">
        <ele>1282.56</ele>
        <time>2019-05-04T16:18:10Z</time>
      </trkpt>
      <trkpt lat="41.7628539260" lon="2.3370237183">
        <ele>1282.47</ele>
        <time>2019-05-04T16:18:16Z</time>
      </trkpt>
      <trkpt lat="41.7628429458" lon="2.3371395562">
        <ele>1283.37</ele>
        <time>2019-05-04T16:18:24Z</time>
      </trkpt>
      <trkpt lat="41.7628505733" lon="2.3372060247">
        <ele>1283.97</ele>
        <time>2019-05-04T16:18:29Z</time>
      </trkpt>
      <trkpt lat="41.7627556901" lon="2.3373678792">
        <ele>1284.32</ele>
        <time>2019-05-04T16:18:44Z</time>
      </trkpt>
      <trkpt lat="41.7626230046" lon="2.3374920990">
        <ele>1283.66</ele>
        <time>2019-05-04T16:19:03Z</time>
      </trkpt>
      <trkpt lat="41.7625944223" lon="2.3375162389">
        <ele>1283.46</ele>
        <time>2019-05-04T16:19:06Z</time>
      </trkpt>
      <trkpt lat="41.7624700349" lon="2.3376200907">
        <ele>1282.22</ele>
        <time>2019-05-04T16:19:18Z</time>
      </trkpt>
      <trkpt lat="41.7623614892" lon="2.3377378564">
        <ele>1279.62</ele>
        <time>2019-05-04T16:19:33Z</time>
      </trkpt>
      <trkpt lat="41.7622758262" lon="2.3377816100">
        <ele>1277.12</ele>
        <time>2019-05-04T16:19:49Z</time>
      </trkpt>
      <trkpt lat="41.7621546239" lon="2.3377855495">
        <ele>1274.44</ele>
        <time>2019-05-04T16:20:06Z</time>
      </trkpt>
      <trkpt lat="41.7621153127" lon="2.3377985414">
        <ele>1273.74</ele>
        <time>2019-05-04T16:20:10Z</time>
      </trkpt>
      <trkpt lat="41.7620453238" lon="2.3378010560">
        <ele>1272.51</ele>
        <time>2019-05-04T16:20:18Z</time>
      </trkpt>
      <trkpt lat="41.7619951162" lon="2.3377749883">
        <ele>1271.67</ele>
        <time>2019-05-04T16:20:22Z</time>
      </trkpt>
      <trkpt lat="41.7618170846" lon="2.3377138004">
        <ele>1270.23</ele>
        <time>2019-05-04T16:20:37Z</time>
      </trkpt>
      <trkpt lat="41.7616224568" lon="2.3376392853">
        <ele>1269.25</ele>
        <time>2019-05-04T16:20:52Z</time>
      </trkpt>
      <trkpt lat="41.7615363747" lon="2.3375982139">
        <ele>1268.48</ele>
        <time>2019-05-04T16:21:00Z</time>
      </trkpt>
      <trkpt lat="41.7613844946" lon="2.3376247007">
        <ele>1267.51</ele>
        <time>2019-05-04T16:21:11Z</time>
      </trkpt>
      <trkpt lat="41.7612238135" lon="2.3376354296">
        <ele>1266.66</ele>
        <time>2019-05-04T16:21:23Z</time>
      </trkpt>
      <trkpt lat="41.7610525712" lon="2.3376347590">
        <ele>1265.90</ele>
        <time>2019-05-04T16:21:37Z</time>
      </trkpt>
      <trkpt lat="41.7608692590" lon="2.3376311548">
        <ele>1264.99</ele>
        <time>2019-05-04T16:21:53Z</time>
      </trkpt>
      <trkpt lat="41.7607071530" lon="2.3375983816">
        <ele>1264.09</ele>
        <time>2019-05-04T16:22:07Z</time>
      </trkpt>
      <trkpt lat="41.7605038080" lon="2.3375467490">
        <ele>1263.48</ele>
        <time>2019-05-04T16:22:24Z</time>
      </trkpt>
      <trkpt lat="41.7603529338" lon="2.3374466691">
        <ele>1262.61</ele>
        <time>2019-05-04T16:22:40Z</time>
      </trkpt>
      <trkpt lat="41.7603360023" lon="2.3374339286">
        <ele>1262.52</ele>
        <time>2019-05-04T16:22:42Z</time>
      </trkpt>
      <trkpt lat="41.7601474095" lon="2.3371999059">
        <ele>1261.23</ele>
        <time>2019-05-04T16:23:01Z</time>
      </trkpt>
      <trkpt lat="41.7599681206" lon="2.3369574174">
        <ele>1259.65</ele>
        <time>2019-05-04T16:23:21Z</time>
      </trkpt>
      <trkpt lat="41.7597785220" lon="2.3367340397">
        <ele>1258.82</ele>
        <time>2019-05-04T16:23:39Z</time>
      </trkpt>
      <trkpt lat="41.7597311642" lon="2.3366753664">
        <ele>1258.61</ele>
        <time>2019-05-04T16:23:47Z</time>
      </trkpt>
      <trkpt lat="41.7595709022" lon="2.3366911244">
        <ele>1258.29</ele>
        <time>2019-05-04T16:23:59Z</time>
      </trkpt>
      <trkpt lat="41.7594156694" lon="2.3368580081">
        <ele>1258.48</ele>
        <time>2019-05-04T16:24:14Z</time>
      </trkpt>
      <trkpt lat="41.7592782900" lon="2.3370141629">
        <ele>1259.29</ele>
        <time>2019-05-04T16:24:29Z</time>
      </trkpt>
      <trkpt lat="41.7591332830" lon="2.3371612653">
        <ele>1260.38</ele>
        <time>2019-05-04T16:24:44Z</time>
      </trkpt>
      <trkpt lat="41.7590286769" lon="2.3372391332">
        <ele>1261.89</ele>
        <time>2019-05-04T16:24:55Z</time>
      </trkpt>
      <trkpt lat="41.7590179481" lon="2.3372437432">
        <ele>1262.02</ele>
        <time>2019-05-04T16:24:56Z</time>
      </trkpt>
      <trkpt lat="41.7589841690" lon="2.3372703977">
        <ele>1262.46</ele>
        <time>2019-05-04T16:25:00Z</time>
      </trkpt>
      <trkpt lat="41.7588866875" lon="2.3373452481">
        <ele>1262.38</ele>
        <time>2019-05-04T16:25:11Z</time>
      </trkpt>
      <trkpt lat="41.7588550039" lon="2.3374109622">
        <ele>1261.63</ele>
        <time>2019-05-04T16:25:16Z</time>
      </trkpt>
      <trkpt lat="41.7588121723" lon="2.3374786880">
        <ele>1260.87</ele>
        <time>2019-05-04T16:25:22Z</time>
      </trkpt>
      <trkpt lat="41.7587555107" lon="2.3375429772">
        <ele>1260.24</ele>
        <time>2019-05-04T16:25:28Z</time>
      </trkpt>
      <trkpt lat="41.7586973403" lon="2.3376570549">
        <ele>1259.50</ele>
        <time>2019-05-04T16:25:36Z</time>
      </trkpt>
      <trkpt lat="41.7586006131" lon="2.3377985414">
        <ele>1259.12</ele>
        <time>2019-05-04T16:25:49Z</time>
      </trkpt>
      <trkpt lat="41.7585956678" lon="2.3378106952">
        <ele>1259.11</ele>
        <time>2019-05-04T16:25:50Z</time>
      </trkpt>
      <trkpt lat="41.7584978510" lon="2.3379553668">
        <ele>1259.19</ele>
        <time>2019-05-04T16:26:02Z</time>
      </trkpt>
      <trkpt lat="41.7584807519" lon="2.3379739746">
        <ele>1259.13</ele>
        <time>2019-05-04T16:26:04Z</time>
      </trkpt>
      <trkpt lat="41.7583898921" lon="2.3379607312">
        <ele>1258.94</ele>
        <time>2019-05-04T16:26:11Z</time>
      </trkpt>
      <trkpt lat="41.7582152132" lon="2.3379306402">
        <ele>1259.43</ele>
        <time>2019-05-04T16:26:27Z</time>
      </trkpt>
      <trkpt lat="41.7579821963" lon="2.3379229289">
        <ele>1260.35</ele>
        <time>2019-05-04T16:26:46Z</time>
      </trkpt>
      <trkpt lat="41.7577392887" lon="2.3379133735">
        <ele>1261.26</ele>
        <time>2019-05-04T16:27:06Z</time>
      </trkpt>
      <trkpt lat="41.7575534619" lon="2.3379841167">
        <ele>1262.87</ele>
        <time>2019-05-04T16:27:24Z</time>
      </trkpt>
      <trkpt lat="41.7575080320" lon="2.3380095977">
        <ele>1263.53</ele>
        <time>2019-05-04T16:27:29Z</time>
      </trkpt>
      <trkpt lat="41.7573549785" lon="2.3381516710">
        <ele>1265.54</ele>
        <time>2019-05-04T16:27:46Z</time>
      </trkpt>
      <trkpt lat="41.7572537251" lon="2.3383226618">
        <ele>1266.94</ele>
        <time>2019-05-04T16:28:00Z</time>
      </trkpt>
      <trkpt lat="41.7571225483" lon="2.3385325447">
        <ele>1268.90</ele>
        <time>2019-05-04T16:28:19Z</time>
      </trkpt>
      <trkpt lat="41.7570031062" lon="2.3387555033">
        <ele>1270.74</ele>
        <time>2019-05-04T16:28:36Z</time>
      </trkpt>
      <trkpt lat="41.7568642180" lon="2.3389219679">
        <ele>1271.83</ele>
        <time>2019-05-04T16:28:51Z</time>
      </trkpt>
      <trkpt lat="41.7567008547" lon="2.3391089682">
        <ele>1272.25</ele>
        <time>2019-05-04T16:29:09Z</time>
      </trkpt>
      <trkpt lat="41.7565394193" lon="2.3392924480">
        <ele>1271.55</ele>
        <time>2019-05-04T16:29:26Z</time>
      </trkpt>
      <trkpt lat="41.7564015370" lon="2.3394222837">
        <ele>1270.71</ele>
        <time>2019-05-04T16:29:40Z</time>
      </trkpt>
      <trkpt lat="41.7562576197" lon="2.3396156542">
        <ele>1270.31</ele>
        <time>2019-05-04T16:29:57Z</time>
      </trkpt>
      <trkpt lat="41.7561230902" lon="2.3398155626">
        <ele>1270.73</ele>
        <time>2019-05-04T16:30:14Z</time>
      </trkpt>
      <trkpt lat="41.7560009658" lon="2.3400451429">
        <ele>1270.73</ele>
        <time>2019-05-04T16:30:31Z</time>
      </trkpt>
      <trkpt lat="41.7558484990" lon="2.3402666766">
        <ele>1269.69</ele>
        <time>2019-05-04T16:30:49Z</time>
      </trkpt>
      <trkpt lat="41.7557132151" lon="2.3404212389">
        <ele>1269.25</ele>
        <time>2019-05-04T16:31:03Z</time>
      </trkpt>
      <trkpt lat="41.7555604968" lon="2.3406283557">
        <ele>1269.62</ele>
        <time>2019-05-04T16:31:21Z</time>
      </trkpt>
      <trkpt lat="41.7554414738" lon="2.3408358917">
        <ele>1270.39</ele>
        <time>2019-05-04T16:31:38Z</time>
      </trkpt>
      <trkpt lat="41.7552544735" lon="2.3409653082">
        <ele>1269.85</ele>
        <time>2019-05-04T16:31:55Z</time>
      </trkpt>
      <trkpt lat="41.7550763581" lon="2.3411582597">
        <ele>1269.45</ele>
        <time>2019-05-04T16:32:14Z</time>
      </trkpt>
      <trkpt lat="41.7550458480" lon="2.3411710002">
        <ele>1269.36</ele>
        <time>2019-05-04T16:32:17Z</time>
      </trkpt>
      <trkpt lat="41.7550056987" lon="2.3412368819">
        <ele>1269.22</ele>
        <time>2019-05-04T16:32:22Z</time>
      </trkpt>
      <trkpt lat="41.7549645435" lon="2.3413229641">
        <ele>1269.04</ele>
        <time>2019-05-04T16:32:28Z</time>
      </trkpt>
      <trkpt lat="41.7548897769" lon="2.3414626066">
        <ele>1269.75</ele>
        <time>2019-05-04T16:32:39Z</time>
      </trkpt>
      <trkpt lat="41.7548704147" lon="2.3414952122">
        <ele>1269.90</ele>
        <time>2019-05-04T16:32:42Z</time>
      </trkpt>
      <trkpt lat="41.7548554111" lon="2.3415193520">
        <ele>1270.02</ele>
        <time>2019-05-04T16:32:44Z</time>
      </trkpt>
      <trkpt lat="41.7547702510" lon="2.3416703939">
        <ele>1270.92</ele>
        <time>2019-05-04T16:32:57Z</time>
      </trkpt>
      <trkpt lat="41.7547381483" lon="2.3417523690">
        <ele>1271.76</ele>
        <time>2019-05-04T16:33:03Z</time>
      </trkpt>
      <trkpt lat="41.7547052074" lon="2.3417878244">
        <ele>1272.31</ele>
        <time>2019-05-04T16:33:07Z</time>
      </trkpt>
      <trkpt lat="41.7546822410" lon="2.3418302368">
        <ele>1272.92</ele>
        <time>2019-05-04T16:33:11Z</time>
      </trkpt>
      <trkpt lat="41.7546582688" lon="2.3418574780">
        <ele>1273.33</ele>
        <time>2019-05-04T16:33:14Z</time>
      </trkpt>
      <trkpt lat="41.7546143476" lon="2.3419404589">
        <ele>1274.07</ele>
        <time>2019-05-04T16:33:22Z</time>
      </trkpt>
      <trkpt lat="41.7545565963" lon="2.3420910817">
        <ele>1275.04</ele>
        <time>2019-05-04T16:33:33Z</time>
      </trkpt>
      <trkpt lat="41.7544868588" lon="2.3422190733">
        <ele>1276.64</ele>
        <time>2019-05-04T16:33:47Z</time>
      </trkpt>
      <trkpt lat="41.7544760462" lon="2.3422381841">
        <ele>1276.93</ele>
        <time>2019-05-04T16:33:49Z</time>
      </trkpt>
      <trkpt lat="41.7543550953" lon="2.3423988651">
        <ele>1277.77</ele>
        <time>2019-05-04T16:34:05Z</time>
      </trkpt>
      <trkpt lat="41.7543188855" lon="2.3424359132">
        <ele>1277.70</ele>
        <time>2019-05-04T16:34:09Z</time>
      </trkpt>
      <trkpt lat="41.7542510759" lon="2.3426276911">
        <ele>1277.92</ele>
        <time>2019-05-04T16:34:23Z</time>
      </trkpt>
      <trkpt lat="41.7542015389" lon="2.3427331354">
        <ele>1278.93</ele>
        <time>2019-05-04T16:34:37Z</time>
      </trkpt>
      <trkpt lat="41.7541207373" lon="2.3427307047">
        <ele>1281.86</ele>
        <time>2019-05-04T16:34:56Z</time>
      </trkpt>
      <trkpt lat="41.7540471442" lon="2.3426864482">
        <ele>1284.96</ele>
        <time>2019-05-04T16:35:12Z</time>
      </trkpt>
      <trkpt lat="41.7540122755" lon="2.3426784016">
        <ele>1285.97</ele>
        <time>2019-05-04T16:35:19Z</time>
      </trkpt>
      <trkpt lat="41.7539515067" lon="2.3426978476">
        <ele>1286.65</ele>
        <time>2019-05-04T16:35:24Z</time>
      </trkpt>
      <trkpt lat="41.7538390215" lon="2.3427674174">
        <ele>1287.26</ele>
        <time>2019-05-04T16:35:40Z</time>
      </trkpt>
      <trkpt lat="41.7536894884" lon="2.3429194652">
        <ele>1287.39</ele>
        <time>2019-05-04T16:35:57Z</time>
      </trkpt>
      <trkpt lat="41.7536448129" lon="2.3429627996">
        <ele>1287.64</ele>
        <time>2019-05-04T16:36:04Z</time>
      </trkpt>
      <trkpt lat="41.7535268795" lon="2.3430855945">
        <ele>1288.58</ele>
        <time>2019-05-04T16:36:20Z</time>
      </trkpt>
      <trkpt lat="41.7533739936" lon="2.3431781307">
        <ele>1291.58</ele>
        <time>2019-05-04T16:36:42Z</time>
      </trkpt>
      <trkpt lat="41.7533664498" lon="2.3431834951">
        <ele>1291.67</ele>
        <time>2019-05-04T16:36:43Z</time>
      </trkpt>
      <trkpt lat="41.7533496022" lon="2.3432009295">
        <ele>1291.82</ele>
        <time>2019-05-04T16:36:45Z</time>
      </trkpt>
      <trkpt lat="41.7532309983" lon="2.3433246464">
        <ele>1292.79</ele>
        <time>2019-05-04T16:37:02Z</time>
      </trkpt>
      <trkpt lat="41.7530983128" lon="2.3434226308">
        <ele>1292.91</ele>
        <time>2019-05-04T16:37:17Z</time>
      </trkpt>
      <trkpt lat="41.7530729156" lon="2.3434590083">
        <ele>1292.57</ele>
        <time>2019-05-04T16:37:21Z</time>
      </trkpt>
      <trkpt lat="41.7530102190" lon="2.3436705675">
        <ele>1293.93</ele>
        <time>2019-05-04T16:37:37Z</time>
      </trkpt>
      <trkpt lat="41.7529883422" lon="2.3437285703">
        <ele>1294.17</ele>
        <time>2019-05-04T16:37:41Z</time>
      </trkpt>
      <trkpt lat="41.7528785393" lon="2.3438936938">
        <ele>1293.65</ele>
        <time>2019-05-04T16:37:56Z</time>
      </trkpt>
      <trkpt lat="41.7527829856" lon="2.3441240285">
        <ele>1293.13</ele>
        <time>2019-05-04T16:38:14Z</time>
      </trkpt>
      <trkpt lat="41.7527161818" lon="2.3443562072">
        <ele>1292.33</ele>
        <time>2019-05-04T16:38:29Z</time>
      </trkpt>
      <trkpt lat="41.7526231427" lon="2.3445929959">
        <ele>1291.90</ele>
        <time>2019-05-04T16:38:45Z</time>
      </trkpt>
      <trkpt lat="41.7525093164" lon="2.3448151164">
        <ele>1291.19</ele>
        <time>2019-05-04T16:39:02Z</time>
      </trkpt>
      <trkpt lat="41.7524932232" lon="2.3449141905">
        <ele>1290.86</ele>
        <time>2019-05-04T16:39:08Z</time>
      </trkpt>
      <trkpt lat="41.7524821591" lon="2.3449972551">
        <ele>1290.20</ele>
        <time>2019-05-04T16:39:13Z</time>
      </trkpt>
      <trkpt lat="41.7524856795" lon="2.3451871891">
        <ele>1288.30</ele>
        <time>2019-05-04T16:39:25Z</time>
      </trkpt>
      <trkpt lat="41.7524163611" lon="2.3453914560">
        <ele>1285.91</ele>
        <time>2019-05-04T16:39:41Z</time>
      </trkpt>
      <trkpt lat="41.7523556761" lon="2.3456087150">
        <ele>1284.63</ele>
        <time>2019-05-04T16:39:56Z</time>
      </trkpt>
      <trkpt lat="41.7522104178" lon="2.3457985651">
        <ele>1284.09</ele>
        <time>2019-05-04T16:40:12Z</time>
      </trkpt>
      <trkpt lat="41.7520859465" lon="2.3459899239">
        <ele>1283.10</ele>
        <time>2019-05-04T16:40:28Z</time>
      </trkpt>
      <trkpt lat="41.7519444600" lon="2.3461726494">
        <ele>1282.23</ele>
        <time>2019-05-04T16:40:45Z</time>
      </trkpt>
      <trkpt lat="41.7517551128" lon="2.3462910019">
        <ele>1282.16</ele>
        <time>2019-05-04T16:41:02Z</time>
      </trkpt>
      <trkpt lat="41.7515679449" lon="2.3463238589">
        <ele>1282.42</ele>
        <time>2019-05-04T16:41:17Z</time>
      </trkpt>
      <trkpt lat="41.7515000515" lon="2.3463350907">
        <ele>1282.79</ele>
        <time>2019-05-04T16:41:23Z</time>
      </trkpt>
      <trkpt lat="41.7514604051" lon="2.3463551234">
        <ele>1282.98</ele>
        <time>2019-05-04T16:41:27Z</time>
      </trkpt>
      <trkpt lat="41.7512589879" lon="2.3463932611">
        <ele>1284.37</ele>
        <time>2019-05-04T16:41:45Z</time>
      </trkpt>
      <trkpt lat="41.7511150707" lon="2.3463510163">
        <ele>1286.45</ele>
        <time>2019-05-04T16:41:59Z</time>
      </trkpt>
      <trkpt lat="41.7509834748" lon="2.3462405428">
        <ele>1287.88</ele>
        <time>2019-05-04T16:42:14Z</time>
      </trkpt>
      <trkpt lat="41.7508353665" lon="2.3461447377">
        <ele>1289.98</ele>
        <time>2019-05-04T16:42:31Z</time>
      </trkpt>
      <trkpt lat="41.7508113943" lon="2.3461322486">
        <ele>1290.41</ele>
        <time>2019-05-04T16:42:34Z</time>
      </trkpt>
      <trkpt lat="41.7506886832" lon="2.3460607510">
        <ele>1292.37</ele>
        <time>2019-05-04T16:42:49Z</time>
      </trkpt>
      <trkpt lat="41.7506471928" lon="2.3460754193">
        <ele>1292.85</ele>
        <time>2019-05-04T16:42:54Z</time>
      </trkpt>
      <trkpt lat="41.7504881881" lon="2.3460748326">
        <ele>1294.48</ele>
        <time>2019-05-04T16:43:10Z</time>
      </trkpt>
      <trkpt lat="41.7503543291" lon="2.3459783569">
        <ele>1296.23</ele>
        <time>2019-05-04T16:43:25Z</time>
      </trkpt>
      <trkpt lat="41.7502187937" lon="2.3458640277">
        <ele>1298.00</ele>
        <time>2019-05-04T16:43:41Z</time>
      </trkpt>
      <trkpt lat="41.7500618007" lon="2.3457616009">
        <ele>1299.34</ele>
        <time>2019-05-04T16:43:58Z</time>
      </trkpt>
      <trkpt lat="41.7499518301" lon="2.3456701543">
        <ele>1301.03</ele>
        <time>2019-05-04T16:44:13Z</time>
      </trkpt>
      <trkpt lat="41.7498032190" lon="2.3455212917">
        <ele>1303.85</ele>
        <time>2019-05-04T16:44:33Z</time>
      </trkpt>
      <trkpt lat="41.7496864591" lon="2.3454360478">
        <ele>1305.45</ele>
        <time>2019-05-04T16:44:49Z</time>
      </trkpt>
      <trkpt lat="41.7495974433" lon="2.3453964014">
        <ele>1307.14</ele>
        <time>2019-05-04T16:45:01Z</time>
      </trkpt>
      <trkpt lat="41.7495600600" lon="2.3454048671">
        <ele>1307.46</ele>
        <time>2019-05-04T16:45:05Z</time>
      </trkpt>
      <trkpt lat="41.7493523564" lon="2.3454408254">
        <ele>1308.41</ele>
        <time>2019-05-04T16:45:25Z</time>
      </trkpt>
      <trkpt lat="41.7492210958" lon="2.3454557452">
        <ele>1309.85</ele>
        <time>2019-05-04T16:45:42Z</time>
      </trkpt>
      <trkpt lat="41.7491550464" lon="2.3455550708">
        <ele>1312.28</ele>
        <time>2019-05-04T16:46:00Z</time>
      </trkpt>
      <trkpt lat="41.7491444852" lon="2.3455943819">
        <ele>1313.56</ele>
        <time>2019-05-04T16:46:18Z</time>
      </trkpt>
      <trkpt lat="41.7491117120" lon="2.3455726728">
        <ele>1313.49</ele>
        <time>2019-05-04T16:46:38Z</time>
      </trkpt>
      <trkpt lat="41.7491151486" lon="2.3455809709">
        <ele>1313.65</ele>
        <time>2019-05-04T16:47:02Z</time>
      </trkpt>
      <trkpt lat="41.7491080239" lon="2.3456098884">
        <ele>1313.87</ele>
        <time>2019-05-04T16:47:27Z</time>
      </trkpt>
      <trkpt lat="41.7491111252" lon="2.3456143308">
        <ele>1314.05</ele>
        <time>2019-05-04T16:47:55Z</time>
      </trkpt>
      <trkpt lat="41.7491064314" lon="2.3455922026">
        <ele>1313.68</ele>
        <time>2019-05-04T16:48:14Z</time>
      </trkpt>
      <trkpt lat="41.7491113767" lon="2.3455963098">
        <ele>1314.37</ele>
        <time>2019-05-04T16:48:47Z</time>
      </trkpt>
      <trkpt lat="41.7491143942" lon="2.3455984890">
        <ele>1314.27</ele>
        <time>2019-05-04T16:49:04Z</time>
      </trkpt>
      <trkpt lat="41.7491264641" lon="2.3456224613">
        <ele>1314.60</ele>
        <time>2019-05-04T16:49:28Z</time>
      </trkpt>
      <trkpt lat="41.7491657753" lon="2.3456290830">
        <ele>1314.56</ele>
        <time>2019-05-04T16:49:42Z</time>
      </trkpt>
      <trkpt lat="41.7491557170" lon="2.3456679750">
        <ele>1314.32</ele>
        <time>2019-05-04T16:49:58Z</time>
      </trkpt>
      <trkpt lat="41.7491490953" lon="2.3456268199">
        <ele>1314.56</ele>
        <time>2019-05-04T16:50:15Z</time>
      </trkpt>
      <trkpt lat="41.7491447367" lon="2.3456350341">
        <ele>1314.37</ele>
        <time>2019-05-04T16:50:34Z</time>
      </trkpt>
      <trkpt lat="41.7491025757" lon="2.3456089664">
        <ele>1314.48</ele>
        <time>2019-05-04T16:50:56Z</time>
      </trkpt>
      <trkpt lat="41.7491021566" lon="2.3456083797">
        <ele>1314.22</ele>
        <time>2019-05-04T16:51:24Z</time>
      </trkpt>
      <trkpt lat="41.7491355166" lon="2.3456293344">
        <ele>1314.29</ele>
        <time>2019-05-04T16:51:46Z</time>
      </trkpt>
      <trkpt lat="41.7491784319" lon="2.3456556536">
        <ele>1314.18</ele>
        <time>2019-05-04T16:52:00Z</time>
      </trkpt>
      <trkpt lat="41.7491879873" lon="2.3455789592">
        <ele>1313.90</ele>
        <time>2019-05-04T16:52:17Z</time>
      </trkpt>
      <trkpt lat="41.7491136398" lon="2.3455088865">
        <ele>1313.00</ele>
        <time>2019-05-04T16:52:35Z</time>
      </trkpt>
      <trkpt lat="41.7490527872" lon="2.3456032667">
        <ele>1312.80</ele>
        <time>2019-05-04T16:52:53Z</time>
      </trkpt>
      <trkpt lat="41.7490329221" lon="2.3457547277">
        <ele>1311.35</ele>
        <time>2019-05-04T16:53:13Z</time>
      </trkpt>
      <trkpt lat="41.7489987239" lon="2.3458327632">
        <ele>1309.39</ele>
        <time>2019-05-04T16:53:28Z</time>
      </trkpt>
      <trkpt lat="41.7489867378" lon="2.3458792828">
        <ele>1306.66</ele>
        <time>2019-05-04T16:53:44Z</time>
      </trkpt>
      <trkpt lat="41.7489693034" lon="2.3459145706">
        <ele>1306.68</ele>
        <time>2019-05-04T16:54:07Z</time>
      </trkpt>
      <trkpt lat="41.7489569820" lon="2.3459533788">
        <ele>1305.36</ele>
        <time>2019-05-04T16:54:27Z</time>
      </trkpt>
      <trkpt lat="41.7489321716" lon="2.3460534588">
        <ele>1302.47</ele>
        <time>2019-05-04T16:54:45Z</time>
      </trkpt>
      <trkpt lat="41.7488827184" lon="2.3461326677">
        <ele>1299.34</ele>
        <time>2019-05-04T16:55:04Z</time>
      </trkpt>
      <trkpt lat="41.7488393839" lon="2.3462632578">
        <ele>1296.21</ele>
        <time>2019-05-04T16:55:27Z</time>
      </trkpt>
      <trkpt lat="41.7488014977" lon="2.3463373538">
        <ele>1293.42</ele>
        <time>2019-05-04T16:55:46Z</time>
      </trkpt>
      <trkpt lat="41.7487460095" lon="2.3464349192">
        <ele>1290.72</ele>
        <time>2019-05-04T16:56:04Z</time>
      </trkpt>
      <trkpt lat="41.7486759368" lon="2.3465015553">
        <ele>1288.10</ele>
        <time>2019-05-04T16:56:25Z</time>
      </trkpt>
      <trkpt lat="41.7486123182" lon="2.3465661798">
        <ele>1285.44</ele>
        <time>2019-05-04T16:56:43Z</time>
      </trkpt>
      <trkpt lat="41.7486147489" lon="2.3467105161">
        <ele>1282.78</ele>
        <time>2019-05-04T16:57:00Z</time>
      </trkpt>
      <trkpt lat="41.7486062832" lon="2.3468748014">
        <ele>1279.97</ele>
        <time>2019-05-04T16:57:19Z</time>
      </trkpt>
      <trkpt lat="41.7485492863" lon="2.3470245022">
        <ele>1277.30</ele>
        <time>2019-05-04T16:57:39Z</time>
      </trkpt>
      <trkpt lat="41.7485244758" lon="2.3471379932">
        <ele>1274.60</ele>
        <time>2019-05-04T16:57:57Z</time>
      </trkpt>
      <trkpt lat="41.7485023476" lon="2.3472629674">
        <ele>1271.74</ele>
        <time>2019-05-04T16:58:15Z</time>
      </trkpt>
      <trkpt lat="41.7484148405" lon="2.3473637179">
        <ele>1268.70</ele>
        <time>2019-05-04T16:58:35Z</time>
      </trkpt>
      <trkpt lat="41.7483300157" lon="2.3475301825">
        <ele>1265.67</ele>
        <time>2019-05-04T16:58:58Z</time>
      </trkpt>
      <trkpt lat="41.7483203765" lon="2.3477288336">
        <ele>1263.18</ele>
        <time>2019-05-04T16:59:19Z</time>
      </trkpt>
      <trkpt lat="41.7483122461" lon="2.3478819709">
        <ele>1260.94</ele>
        <time>2019-05-04T16:59:37Z</time>
      </trkpt>
      <trkpt lat="41.7483159341" lon="2.3480142374">
        <ele>1258.57</ele>
        <time>2019-05-04T16:59:54Z</time>
      </trkpt>
      <trkpt lat="41.7482881062" lon="2.3481450789">
        <ele>1256.36</ele>
        <time>2019-05-04T17:00:13Z</time>
      </trkpt>
      <trkpt lat="41.7482882738" lon="2.3482572287">
        <ele>1253.62</ele>
        <time>2019-05-04T17:00:28Z</time>
      </trkpt>
      <trkpt lat="41.7482248228" lon="2.3483182490">
        <ele>1250.86</ele>
        <time>2019-05-04T17:00:47Z</time>
      </trkpt>
      <trkpt lat="41.7481400818" lon="2.3483952787">
        <ele>1247.70</ele>
        <time>2019-05-04T17:01:07Z</time>
      </trkpt>
      <trkpt lat="41.7480810732" lon="2.3484820314">
        <ele>1244.88</ele>
        <time>2019-05-04T17:01:26Z</time>
      </trkpt>
      <trkpt lat="41.7480379902" lon="2.3485430516">
        <ele>1242.63</ele>
        <time>2019-05-04T17:01:49Z</time>
      </trkpt>
      <trkpt lat="41.7480142694" lon="2.3486776650">
        <ele>1240.19</ele>
        <time>2019-05-04T17:02:08Z</time>
      </trkpt>
      <trkpt lat="41.7480073124" lon="2.3487725481">
        <ele>1237.39</ele>
        <time>2019-05-04T17:02:28Z</time>
      </trkpt>
      <trkpt lat="41.7479705159" lon="2.3488940857">
        <ele>1234.37</ele>
        <time>2019-05-04T17:02:49Z</time>
      </trkpt>
      <trkpt lat="41.7479535844" lon="2.3489743005">
        <ele>1231.97</ele>
        <time>2019-05-04T17:03:08Z</time>
      </trkpt>
      <trkpt lat="41.7479450349" lon="2.3490829300">
        <ele>1229.68</ele>
        <time>2019-05-04T17:03:29Z</time>
      </trkpt>
      <trkpt lat="41.7479605414" lon="2.3491735384">
        <ele>1227.60</ele>
        <time>2019-05-04T17:03:48Z</time>
      </trkpt>
      <trkpt lat="41.7479774728" lon="2.3492825031">
        <ele>1225.39</ele>
        <time>2019-05-04T17:04:07Z</time>
      </trkpt>
      <trkpt lat="41.7480177898" lon="2.3494286835">
        <ele>1222.99</ele>
        <time>2019-05-04T17:04:27Z</time>
      </trkpt>
      <trkpt lat="41.7479844298" lon="2.3495470360">
        <ele>1220.05</ele>
        <time>2019-05-04T17:04:49Z</time>
      </trkpt>
      <trkpt lat="41.7478360701" lon="2.3496183660">
        <ele>1218.63</ele>
        <time>2019-05-04T17:05:07Z</time>
      </trkpt>
      <trkpt lat="41.7477421090" lon="2.3497629538">
        <ele>1216.49</ele>
        <time>2019-05-04T17:05:25Z</time>
      </trkpt>
      <trkpt lat="41.7477148678" lon="2.3498128261">
        <ele>1216.07</ele>
        <time>2019-05-04T17:05:30Z</time>
      </trkpt>
      <trkpt lat="41.7476571165" lon="2.3500859085">
        <ele>1214.78</ele>
        <time>2019-05-04T17:05:48Z</time>
      </trkpt>
      <trkpt lat="41.7475113552" lon="2.3502211925">
        <ele>1213.79</ele>
        <time>2019-05-04T17:06:05Z</time>
      </trkpt>
      <trkpt lat="41.7474848684" lon="2.3502477631">
        <ele>1213.79</ele>
        <time>2019-05-04T17:06:08Z</time>
      </trkpt>
      <trkpt lat="41.7473881412" lon="2.3504005652">
        <ele>1214.58</ele>
        <time>2019-05-04T17:06:23Z</time>
      </trkpt>
      <trkpt lat="41.7472614907" lon="2.3505110387">
        <ele>1217.45</ele>
        <time>2019-05-04T17:06:41Z</time>
      </trkpt>
      <trkpt lat="41.7472471576" lon="2.3505309876">
        <ele>1217.70</ele>
        <time>2019-05-04T17:06:43Z</time>
      </trkpt>
      <trkpt lat="41.7470713891" lon="2.3506127950">
        <ele>1218.31</ele>
        <time>2019-05-04T17:07:00Z</time>
      </trkpt>
      <trkpt lat="41.7469027452" lon="2.3506318219">
        <ele>1219.68</ele>
        <time>2019-05-04T17:07:16Z</time>
      </trkpt>
      <trkpt lat="41.7467982229" lon="2.3507063370">
        <ele>1221.91</ele>
        <time>2019-05-04T17:07:31Z</time>
      </trkpt>
      <trkpt lat="41.7467081174" lon="2.3508107755">
        <ele>1224.05</ele>
        <time>2019-05-04T17:07:47Z</time>
      </trkpt>
      <trkpt lat="41.7466060258" lon="2.3509362526">
        <ele>1227.17</ele>
        <time>2019-05-04T17:08:06Z</time>
      </trkpt>
      <trkpt lat="41.7464902718" lon="2.3510545213">
        <ele>1229.90</ele>
        <time>2019-05-04T17:08:24Z</time>
      </trkpt>
      <trkpt lat="41.7463725060" lon="2.3511717841">
        <ele>1232.54</ele>
        <time>2019-05-04T17:08:40Z</time>
      </trkpt>
      <trkpt lat="41.7463663034" lon="2.3511829320">
        <ele>1232.68</ele>
        <time>2019-05-04T17:08:41Z</time>
      </trkpt>
      <trkpt lat="41.7463051993" lon="2.3512758035">
        <ele>1233.46</ele>
        <time>2019-05-04T17:08:50Z</time>
      </trkpt>
      <trkpt lat="41.7462042812" lon="2.3515015282">
        <ele>1231.94</ele>
        <time>2019-05-04T17:09:08Z</time>
      </trkpt>
      <trkpt lat="41.7460900359" lon="2.3517117463">
        <ele>1230.69</ele>
        <time>2019-05-04T17:09:26Z</time>
      </trkpt>
      <trkpt lat="41.7460793070" lon="2.3517313600">
        <ele>1230.63</ele>
        <time>2019-05-04T17:09:28Z</time>
      </trkpt>
      <trkpt lat="41.7459726892" lon="2.3519404046">
        <ele>1228.90</ele>
        <time>2019-05-04T17:09:46Z</time>
      </trkpt>
      <trkpt lat="41.7457942385" lon="2.3520795442">
        <ele>1227.30</ele>
        <time>2019-05-04T17:10:04Z</time>
      </trkpt>
      <trkpt lat="41.7456716113" lon="2.3522987310">
        <ele>1226.44</ele>
        <time>2019-05-04T17:10:21Z</time>
      </trkpt>
      <trkpt lat="41.7455524206" lon="2.3525542114">
        <ele>1226.27</ele>
        <time>2019-05-04T17:10:42Z</time>
      </trkpt>
      <trkpt lat="41.7455147021" lon="2.3525775131">
        <ele>1227.02</ele>
        <time>2019-05-04T17:10:55Z</time>
      </trkpt>
      <trkpt lat="41.7455007881" lon="2.3525535408">
        <ele>1227.25</ele>
        <time>2019-05-04T17:10:58Z</time>
      </trkpt>
      <trkpt lat="41.7454159632" lon="2.3524030857">
        <ele>1227.28</ele>
        <time>2019-05-04T17:11:13Z</time>
      </trkpt>
      <trkpt lat="41.7453946732" lon="2.3524029180">
        <ele>1227.14</ele>
        <time>2019-05-04T17:11:15Z</time>
      </trkpt>
      <trkpt lat="41.7453007121" lon="2.3524503596">
        <ele>1226.34</ele>
        <time>2019-05-04T17:11:26Z</time>
      </trkpt>
      <trkpt lat="41.7452816013" lon="2.3525231145">
        <ele>1226.08</ele>
        <time>2019-05-04T17:11:32Z</time>
      </trkpt>
      <trkpt lat="41.7453550268" lon="2.3526216857">
        <ele>1227.48</ele>
        <time>2019-05-04T17:11:45Z</time>
      </trkpt>
      <trkpt lat="41.7454456352" lon="2.3526362702">
        <ele>1228.52</ele>
        <time>2019-05-04T17:11:57Z</time>
      </trkpt>
      <trkpt lat="41.7454795819" lon="2.3528087698">
        <ele>1228.68</ele>
        <time>2019-05-04T17:12:14Z</time>
      </trkpt>
      <trkpt lat="41.7454656679" lon="2.3529142980">
        <ele>1227.73</ele>
        <time>2019-05-04T17:12:28Z</time>
      </trkpt>
      <trkpt lat="41.7454603873" lon="2.3529536091">
        <ele>1227.28</ele>
        <time>2019-05-04T17:12:31Z</time>
      </trkpt>
      <trkpt lat="41.7453883868" lon="2.3532200698">
        <ele>1225.40</ele>
        <time>2019-05-04T17:12:51Z</time>
      </trkpt>
      <trkpt lat="41.7453453038" lon="2.3534644861">
        <ele>1224.83</ele>
        <time>2019-05-04T17:13:07Z</time>
      </trkpt>
      <trkpt lat="41.7453103513" lon="2.3535367381">
        <ele>1224.84</ele>
        <time>2019-05-04T17:13:13Z</time>
      </trkpt>
      <trkpt lat="41.7452684417" lon="2.3536713514">
        <ele>1226.07</ele>
        <time>2019-05-04T17:13:24Z</time>
      </trkpt>
      <trkpt lat="41.7452222575" lon="2.3537816573">
        <ele>1226.23</ele>
        <time>2019-05-04T17:13:40Z</time>
      </trkpt>
      <trkpt lat="41.7451582197" lon="2.3538846709">
        <ele>1223.31</ele>
        <time>2019-05-04T17:14:01Z</time>
      </trkpt>
      <trkpt lat="41.7451486643" lon="2.3539741058">
        <ele>1221.94</ele>
        <time>2019-05-04T17:14:28Z</time>
      </trkpt>
      <trkpt lat="41.7451189086" lon="2.3539986648">
        <ele>1220.21</ele>
        <time>2019-05-04T17:14:49Z</time>
      </trkpt>
      <trkpt lat="41.7450591456" lon="2.3540452681">
        <ele>1218.22</ele>
        <time>2019-05-04T17:15:08Z</time>
      </trkpt>
      <trkpt lat="41.7450114526" lon="2.3540698271">
        <ele>1215.81</ele>
        <time>2019-05-04T17:15:25Z</time>
      </trkpt>
      <trkpt lat="41.7450003885" lon="2.3541627824">
        <ele>1214.29</ele>
        <time>2019-05-04T17:15:49Z</time>
      </trkpt>
      <trkpt lat="41.7449709680" lon="2.3543150816">
        <ele>1212.01</ele>
        <time>2019-05-04T17:16:10Z</time>
      </trkpt>
      <trkpt lat="41.7449583113" lon="2.3545375373">
        <ele>1209.30</ele>
        <time>2019-05-04T17:16:31Z</time>
      </trkpt>
      <trkpt lat="41.7449318245" lon="2.3546836339">
        <ele>1207.50</ele>
        <time>2019-05-04T17:16:51Z</time>
      </trkpt>
      <trkpt lat="41.7449110374" lon="2.3547477555">
        <ele>1204.43</ele>
        <time>2019-05-04T17:17:12Z</time>
      </trkpt>
      <trkpt lat="41.7449138872" lon="2.3548700474">
        <ele>1202.25</ele>
        <time>2019-05-04T17:17:37Z</time>
      </trkpt>
      <trkpt lat="41.7448766716" lon="2.3550377693">
        <ele>1199.15</ele>
        <time>2019-05-04T17:17:58Z</time>
      </trkpt>
      <trkpt lat="41.7449028231" lon="2.3551141284">
        <ele>1196.87</ele>
        <time>2019-05-04T17:18:19Z</time>
      </trkpt>
      <trkpt lat="41.7448780127" lon="2.3551771604">
        <ele>1194.91</ele>
        <time>2019-05-04T17:18:43Z</time>
      </trkpt>
      <trkpt lat="41.7448406294" lon="2.3552446347">
        <ele>1193.30</ele>
        <time>2019-05-04T17:19:01Z</time>
      </trkpt>
      <trkpt lat="41.7448209319" lon="2.3552964348">
        <ele>1191.34</ele>
        <time>2019-05-04T17:19:22Z</time>
      </trkpt>
      <trkpt lat="41.7447755020" lon="2.3553550243">
        <ele>1190.19</ele>
        <time>2019-05-04T17:19:51Z</time>
      </trkpt>
      <trkpt lat="41.7447001487" lon="2.3554877099">
        <ele>1187.48</ele>
        <time>2019-05-04T17:20:13Z</time>
      </trkpt>
      <trkpt lat="41.7446574010" lon="2.3556782305">
        <ele>1185.63</ele>
        <time>2019-05-04T17:20:32Z</time>
      </trkpt>
      <trkpt lat="41.7446519528" lon="2.3557907157">
        <ele>1185.04</ele>
        <time>2019-05-04T17:20:40Z</time>
      </trkpt>
      <trkpt lat="41.7446267232" lon="2.3558302782">
        <ele>1184.81</ele>
        <time>2019-05-04T17:20:44Z</time>
      </trkpt>
      <trkpt lat="41.7444356997" lon="2.3559836671">
        <ele>1184.98</ele>
        <time>2019-05-04T17:21:03Z</time>
      </trkpt>
      <trkpt lat="41.7443559878" lon="2.3562518042">
        <ele>1185.03</ele>
        <time>2019-05-04T17:21:21Z</time>
      </trkpt>
      <trkpt lat="41.7442596797" lon="2.3563435860">
        <ele>1185.86</ele>
        <time>2019-05-04T17:21:38Z</time>
      </trkpt>
      <trkpt lat="41.7441378906" lon="2.3563840706">
        <ele>1188.31</ele>
        <time>2019-05-04T17:21:58Z</time>
      </trkpt>
      <trkpt lat="41.7440564185" lon="2.3564666323">
        <ele>1191.43</ele>
        <time>2019-05-04T17:22:15Z</time>
      </trkpt>
      <trkpt lat="41.7439499684" lon="2.3565917742">
        <ele>1192.91</ele>
        <time>2019-05-04T17:22:32Z</time>
      </trkpt>
      <trkpt lat="41.7438402493" lon="2.3567154072">
        <ele>1195.02</ele>
        <time>2019-05-04T17:22:53Z</time>
      </trkpt>
      <trkpt lat="41.7438119184" lon="2.3567514494">
        <ele>1194.85</ele>
        <time>2019-05-04T17:22:56Z</time>
      </trkpt>
      <trkpt lat="41.7436899617" lon="2.3569079395">
        <ele>1195.46</ele>
        <time>2019-05-04T17:23:14Z</time>
      </trkpt>
      <trkpt lat="41.7436814960" lon="2.3569197580">
        <ele>1195.51</ele>
        <time>2019-05-04T17:23:15Z</time>
      </trkpt>
      <trkpt lat="41.7436063103" lon="2.3570535332">
        <ele>1196.42</ele>
        <time>2019-05-04T17:23:32Z</time>
      </trkpt>
      <trkpt lat="41.7436376587" lon="2.3571253661">
        <ele>1199.46</ele>
        <time>2019-05-04T17:23:51Z</time>
      </trkpt>
      <trkpt lat="41.7436407600" lon="2.3572540283">
        <ele>1201.67</ele>
        <time>2019-05-04T17:24:07Z</time>
      </trkpt>
      <trkpt lat="41.7435645685" lon="2.3574036453">
        <ele>1203.86</ele>
        <time>2019-05-04T17:24:24Z</time>
      </trkpt>
      <trkpt lat="41.7434743792" lon="2.3575595487">
        <ele>1205.66</ele>
        <time>2019-05-04T17:24:44Z</time>
      </trkpt>
      <trkpt lat="41.7433948349" lon="2.3577099200">
        <ele>1208.11</ele>
        <time>2019-05-04T17:25:03Z</time>
      </trkpt>
      <trkpt lat="41.7433471419" lon="2.3578267638">
        <ele>1207.28</ele>
        <time>2019-05-04T17:25:22Z</time>
      </trkpt>
      <trkpt lat="41.7433015443" lon="2.3579198867">
        <ele>1205.39</ele>
        <time>2019-05-04T17:25:37Z</time>
      </trkpt>
      <trkpt lat="41.7432638258" lon="2.3579746205">
        <ele>1204.13</ele>
        <time>2019-05-04T17:25:46Z</time>
      </trkpt>
      <trkpt lat="41.7431380134" lon="2.3580859322">
        <ele>1201.76</ele>
        <time>2019-05-04T17:26:04Z</time>
      </trkpt>
      <trkpt lat="41.7431027256" lon="2.3580991756">
        <ele>1201.12</ele>
        <time>2019-05-04T17:26:08Z</time>
      </trkpt>
      <trkpt lat="41.7429650947" lon="2.3581771273">
        <ele>1198.84</ele>
        <time>2019-05-04T17:26:26Z</time>
      </trkpt>
      <trkpt lat="41.7429513484" lon="2.3581873532">
        <ele>1198.69</ele>
        <time>2019-05-04T17:26:28Z</time>
      </trkpt>
      <trkpt lat="41.7428192496" lon="2.3583487887">
        <ele>1196.56</ele>
        <time>2019-05-04T17:26:46Z</time>
      </trkpt>
      <trkpt lat="41.7427165713" lon="2.3586139083">
        <ele>1193.99</ele>
        <time>2019-05-04T17:27:09Z</time>
      </trkpt>
      <trkpt lat="41.7426340096" lon="2.3587823845">
        <ele>1192.01</ele>
        <time>2019-05-04T17:27:25Z</time>
      </trkpt>
      <trkpt lat="41.7425552197" lon="2.3589237034">
        <ele>1190.34</ele>
        <time>2019-05-04T17:27:41Z</time>
      </trkpt>
      <trkpt lat="41.7424412258" lon="2.3591241147">
        <ele>1189.24</ele>
        <time>2019-05-04T17:28:00Z</time>
      </trkpt>
      <trkpt lat="41.7423752602" lon="2.3592579737">
        <ele>1191.21</ele>
        <time>2019-05-04T17:28:16Z</time>
      </trkpt>
      <trkpt lat="41.7423355300" lon="2.3594061658">
        <ele>1193.57</ele>
        <time>2019-05-04T17:28:31Z</time>
      </trkpt>
      <trkpt lat="41.7423201073" lon="2.3595529329">
        <ele>1196.68</ele>
        <time>2019-05-04T17:28:46Z</time>
      </trkpt>
      <trkpt lat="41.7422879208" lon="2.3596976046">
        <ele>1199.58</ele>
        <time>2019-05-04T17:29:01Z</time>
      </trkpt>
      <trkpt lat="41.7422762699" lon="2.3598794080">
        <ele>1202.50</ele>
        <time>2019-05-04T17:29:19Z</time>
      </trkpt>
      <trkpt lat="41.7422118969" lon="2.3600119259">
        <ele>1205.56</ele>
        <time>2019-05-04T17:29:36Z</time>
      </trkpt>
      <trkpt lat="41.7421981506" lon="2.3601706792">
        <ele>1208.31</ele>
        <time>2019-05-04T17:29:54Z</time>
      </trkpt>
      <trkpt lat="41.7421864159" lon="2.3602892831">
        <ele>1211.32</ele>
        <time>2019-05-04T17:30:08Z</time>
      </trkpt>
      <trkpt lat="41.7421862483" lon="2.3604387324">
        <ele>1214.38</ele>
        <time>2019-05-04T17:30:27Z</time>
      </trkpt>
      <trkpt lat="41.7421559058" lon="2.3605650477">
        <ele>1217.54</ele>
        <time>2019-05-04T17:30:44Z</time>
      </trkpt>
      <trkpt lat="41.7421131581" lon="2.3606688157">
        <ele>1220.60</ele>
        <time>2019-05-04T17:31:02Z</time>
      </trkpt>
      <trkpt lat="41.7420953047" lon="2.3607981484">
        <ele>1223.66</ele>
        <time>2019-05-04T17:31:20Z</time>
      </trkpt>
      <trkpt lat="41.7420507967" lon="2.3609303311">
        <ele>1226.75</ele>
        <time>2019-05-04T17:31:37Z</time>
      </trkpt>
      <trkpt lat="41.7420402355" lon="2.3610546347">
        <ele>1229.84</ele>
        <time>2019-05-04T17:31:54Z</time>
      </trkpt>
      <trkpt lat="41.7420404870" lon="2.3611521162">
        <ele>1232.85</ele>
        <time>2019-05-04T17:32:09Z</time>
      </trkpt>
      <trkpt lat="41.7420769483" lon="2.3612392042">
        <ele>1235.85</ele>
        <time>2019-05-04T17:32:26Z</time>
      </trkpt>
      <trkpt lat="41.7421114817" lon="2.3613210954">
        <ele>1239.00</ele>
        <time>2019-05-04T17:32:42Z</time>
      </trkpt>
      <trkpt lat="41.7421494517" lon="2.3614191636">
        <ele>1242.07</ele>
        <time>2019-05-04T17:33:01Z</time>
      </trkpt>
      <trkpt lat="41.7421743460" lon="2.3615316488">
        <ele>1245.18</ele>
        <time>2019-05-04T17:33:22Z</time>
      </trkpt>
      <trkpt lat="41.7421907745" lon="2.3616323993">
        <ele>1247.86</ele>
        <time>2019-05-04T17:33:41Z</time>
      </trkpt>
      <trkpt lat="41.7422054429" lon="2.3617483210">
        <ele>1251.10</ele>
        <time>2019-05-04T17:34:01Z</time>
      </trkpt>
      <trkpt lat="41.7421719152" lon="2.3618511669">
        <ele>1254.16</ele>
        <time>2019-05-04T17:34:19Z</time>
      </trkpt>
      <trkpt lat="41.7421456799" lon="2.3619507439">
        <ele>1257.04</ele>
        <time>2019-05-04T17:34:36Z</time>
      </trkpt>
      <trkpt lat="41.7421383038" lon="2.3620644864">
        <ele>1259.87</ele>
        <time>2019-05-04T17:34:57Z</time>
      </trkpt>
      <trkpt lat="41.7421184387" lon="2.3621533345">
        <ele>1260.39</ele>
        <time>2019-05-04T17:35:23Z</time>
      </trkpt>
      <trkpt lat="41.7421455123" lon="2.3623078968">
        <ele>1262.73</ele>
        <time>2019-05-04T17:35:43Z</time>
      </trkpt>
      <trkpt lat="41.7421867512" lon="2.3623699229">
        <ele>1263.40</ele>
        <time>2019-05-04T17:35:51Z</time>
      </trkpt>
      <trkpt lat="41.7422494479" lon="2.3625746928">
        <ele>1262.61</ele>
        <time>2019-05-04T17:36:07Z</time>
      </trkpt>
      <trkpt lat="41.7423054390" lon="2.3627727572">
        <ele>1261.77</ele>
        <time>2019-05-04T17:36:24Z</time>
      </trkpt>
      <trkpt lat="41.7423750088" lon="2.3629170936">
        <ele>1261.02</ele>
        <time>2019-05-04T17:36:37Z</time>
      </trkpt>
      <trkpt lat="41.7424382921" lon="2.3630891740">
        <ele>1261.28</ele>
        <time>2019-05-04T17:36:55Z</time>
      </trkpt>
      <trkpt lat="41.7424423154" lon="2.3631009925">
        <ele>1261.11</ele>
        <time>2019-05-04T17:36:56Z</time>
      </trkpt>
      <trkpt lat="41.7424678802" lon="2.3631780222">
        <ele>1260.53</ele>
        <time>2019-05-04T17:37:04Z</time>
      </trkpt>
      <trkpt lat="41.7424936127" lon="2.3633392062">
        <ele>1259.84</ele>
        <time>2019-05-04T17:37:17Z</time>
      </trkpt>
      <trkpt lat="41.7425510287" lon="2.3636284657">
        <ele>1258.83</ele>
        <time>2019-05-04T17:37:38Z</time>
      </trkpt>
      <trkpt lat="41.7425495200" lon="2.3639151268">
        <ele>1258.80</ele>
        <time>2019-05-04T17:37:57Z</time>
      </trkpt>
      <trkpt lat="41.7425693013" lon="2.3641114309">
        <ele>1260.44</ele>
        <time>2019-05-04T17:38:12Z</time>
      </trkpt>
      <trkpt lat="41.7426325008" lon="2.3643139377">
        <ele>1261.84</ele>
        <time>2019-05-04T17:38:27Z</time>
      </trkpt>
      <trkpt lat="41.7426787689" lon="2.3644793127">
        <ele>1263.96</ele>
        <time>2019-05-04T17:38:45Z</time>
      </trkpt>
      <trkpt lat="41.7426403798" lon="2.3645876069">
        <ele>1265.89</ele>
        <time>2019-05-04T17:38:57Z</time>
      </trkpt>
      <trkpt lat="41.7426330037" lon="2.3646296002">
        <ele>1266.22</ele>
        <time>2019-05-04T17:39:00Z</time>
      </trkpt>
      <trkpt lat="41.7426066846" lon="2.3649190273">
        <ele>1266.49</ele>
        <time>2019-05-04T17:39:20Z</time>
      </trkpt>
      <trkpt lat="41.7426356860" lon="2.3651724961">
        <ele>1266.29</ele>
        <time>2019-05-04T17:39:37Z</time>
      </trkpt>
      <trkpt lat="41.7427016515" lon="2.3653970473">
        <ele>1267.97</ele>
        <time>2019-05-04T17:39:54Z</time>
      </trkpt>
      <trkpt lat="41.7426801100" lon="2.3654799443">
        <ele>1268.95</ele>
        <time>2019-05-04T17:40:09Z</time>
      </trkpt>
      <trkpt lat="41.7426527012" lon="2.3655038327">
        <ele>1269.28</ele>
        <time>2019-05-04T17:40:22Z</time>
      </trkpt>
      <trkpt lat="41.7426616699" lon="2.3655361030">
        <ele>1269.43</ele>
        <time>2019-05-04T17:40:51Z</time>
      </trkpt>
      <trkpt lat="41.7426433973" lon="2.3655680381">
        <ele>1269.04</ele>
        <time>2019-05-04T17:41:07Z</time>
      </trkpt>
      <trkpt lat="41.7426569760" lon="2.3655498493">
        <ele>1269.02</ele>
        <time>2019-05-04T17:41:23Z</time>
      </trkpt>
      <trkpt lat="41.7426445708" lon="2.3655515257">
        <ele>1269.44</ele>
        <time>2019-05-04T17:41:46Z</time>
      </trkpt>
      <trkpt lat="41.7426480912" lon="2.3655626737">
        <ele>1269.33</ele>
        <time>2019-05-04T17:42:03Z</time>
      </trkpt>
      <trkpt lat="41.7426486779" lon="2.3655582312">
        <ele>1269.42</ele>
        <time>2019-05-04T17:42:33Z</time>
      </trkpt>
      <trkpt lat="41.7426437326" lon="2.3655638471">
        <ele>1268.86</ele>
        <time>2019-05-04T17:42:54Z</time>
      </trkpt>
      <trkpt lat="41.7426366080" lon="2.3655764200">
        <ele>1268.37</ele>
        <time>2019-05-04T17:43:12Z</time>
      </trkpt>
      <trkpt lat="41.7426557187" lon="2.3655739054">
        <ele>1268.66</ele>
        <time>2019-05-04T17:43:36Z</time>
      </trkpt>
      <trkpt lat="41.7426439002" lon="2.3655424733">
        <ele>1269.05</ele>
        <time>2019-05-04T17:43:52Z</time>
      </trkpt>
      <trkpt lat="41.7426384520" lon="2.3655567225">
        <ele>1269.29</ele>
        <time>2019-05-04T17:44:15Z</time>
      </trkpt>
      <trkpt lat="41.7425719835" lon="2.3656526953">
        <ele>1267.47</ele>
        <time>2019-05-04T17:44:34Z</time>
      </trkpt>
      <trkpt lat="41.7424541339" lon="2.3657438066">
        <ele>1264.89</ele>
        <time>2019-05-04T17:44:55Z</time>
      </trkpt>
      <trkpt lat="41.7423581611" lon="2.3658020608">
        <ele>1261.94</ele>
        <time>2019-05-04T17:45:15Z</time>
      </trkpt>
      <trkpt lat="41.7422802094" lon="2.3658780847">
        <ele>1258.91</ele>
        <time>2019-05-04T17:45:35Z</time>
      </trkpt>
      <trkpt lat="41.7422301695" lon="2.3659435473">
        <ele>1255.84</ele>
        <time>2019-05-04T17:45:51Z</time>
      </trkpt>
      <trkpt lat="41.7421774473" lon="2.3660259414">
        <ele>1252.75</ele>
        <time>2019-05-04T17:46:09Z</time>
      </trkpt>
      <trkpt lat="41.7421243060" lon="2.3660686892">
        <ele>1250.16</ele>
        <time>2019-05-04T17:46:32Z</time>
      </trkpt>
      <trkpt lat="41.7420981545" lon="2.3661329783">
        <ele>1248.33</ele>
        <time>2019-05-04T17:46:52Z</time>
      </trkpt>
      <trkpt lat="41.7420893535" lon="2.3661954235">
        <ele>1246.19</ele>
        <time>2019-05-04T17:47:11Z</time>
      </trkpt>
      <trkpt lat="41.7420685664" lon="2.3662685975">
        <ele>1243.66</ele>
        <time>2019-05-04T17:47:32Z</time>
      </trkpt>
      <trkpt lat="41.7420459352" lon="2.3663266841">
        <ele>1241.69</ele>
        <time>2019-05-04T17:47:52Z</time>
      </trkpt>
      <trkpt lat="41.7420135811" lon="2.3663260136">
        <ele>1239.07</ele>
        <time>2019-05-04T17:48:14Z</time>
      </trkpt>
      <trkpt lat="41.7419849150" lon="2.3663852736">
        <ele>1237.52</ele>
        <time>2019-05-04T17:48:34Z</time>
      </trkpt>
      <trkpt lat="41.7419660557" lon="2.3663954157">
        <ele>1235.68</ele>
        <time>2019-05-04T17:48:56Z</time>
      </trkpt>
      <trkpt lat="41.7419516388" lon="2.3664448690">
        <ele>1234.87</ele>
        <time>2019-05-04T17:49:15Z</time>
      </trkpt>
      <trkpt lat="41.7419150937" lon="2.3665218987">
        <ele>1232.22</ele>
        <time>2019-05-04T17:49:40Z</time>
      </trkpt>
      <trkpt lat="41.7419335339" lon="2.3666235711">
        <ele>1229.05</ele>
        <time>2019-05-04T17:50:00Z</time>
      </trkpt>
      <trkpt lat="41.7419874296" lon="2.3667525686">
        <ele>1226.46</ele>
        <time>2019-05-04T17:50:23Z</time>
      </trkpt>
      <trkpt lat="41.7419912014" lon="2.3668217193">
        <ele>1224.03</ele>
        <time>2019-05-04T17:50:42Z</time>
      </trkpt>
      <trkpt lat="41.7420308478" lon="2.3669611942">
        <ele>1222.49</ele>
        <time>2019-05-04T17:51:01Z</time>
      </trkpt>
      <trkpt lat="41.7420661356" lon="2.3670906108">
        <ele>1220.46</ele>
        <time>2019-05-04T17:51:19Z</time>
      </trkpt>
      <trkpt lat="41.7420922872" lon="2.3672243860">
        <ele>1217.92</ele>
        <time>2019-05-04T17:51:41Z</time>
      </trkpt>
      <trkpt lat="41.7420993280" lon="2.3672339413">
        <ele>1217.80</ele>
        <time>2019-05-04T17:51:42Z</time>
      </trkpt>
      <trkpt lat="41.7421546485" lon="2.3673133180">
        <ele>1216.84</ele>
        <time>2019-05-04T17:51:50Z</time>
      </trkpt>
      <trkpt lat="41.7421136610" lon="2.3675163276">
        <ele>1214.11</ele>
        <time>2019-05-04T17:52:09Z</time>
      </trkpt>
      <trkpt lat="41.7420801334" lon="2.3676023260">
        <ele>1211.74</ele>
        <time>2019-05-04T17:52:29Z</time>
      </trkpt>
      <trkpt lat="41.7420780379" lon="2.3676249571">
        <ele>1211.17</ele>
        <time>2019-05-04T17:52:35Z</time>
      </trkpt>
      <trkpt lat="41.7420911975" lon="2.3676876538">
        <ele>1210.52</ele>
        <time>2019-05-04T17:52:40Z</time>
      </trkpt>
      <trkpt lat="41.7421495356" lon="2.3678290565">
        <ele>1208.20</ele>
        <time>2019-05-04T17:53:00Z</time>
      </trkpt>
      <trkpt lat="41.7421222944" lon="2.3679237720">
        <ele>1205.15</ele>
        <time>2019-05-04T17:53:19Z</time>
      </trkpt>
      <trkpt lat="41.7420740146" lon="2.3679420445">
        <ele>1202.18</ele>
        <time>2019-05-04T17:53:41Z</time>
      </trkpt>
      <trkpt lat="41.7420534790" lon="2.3680203315">
        <ele>1199.94</ele>
        <time>2019-05-04T17:54:08Z</time>
      </trkpt>
      <trkpt lat="41.7420292553" lon="2.3680787534">
        <ele>1197.76</ele>
        <time>2019-05-04T17:54:33Z</time>
      </trkpt>
      <trkpt lat="41.7420108151" lon="2.3681214172">
        <ele>1196.06</ele>
        <time>2019-05-04T17:54:51Z</time>
      </trkpt>
      <trkpt lat="41.7419572547" lon="2.3682187311">
        <ele>1193.03</ele>
        <time>2019-05-04T17:55:12Z</time>
      </trkpt>
      <trkpt lat="41.7419879325" lon="2.3682897259">
        <ele>1190.50</ele>
        <time>2019-05-04T17:55:33Z</time>
      </trkpt>
      <trkpt lat="41.7419584282" lon="2.3683807533">
        <ele>1187.64</ele>
        <time>2019-05-04T17:56:02Z</time>
      </trkpt>
      <trkpt lat="41.7419497110" lon="2.3684672546">
        <ele>1184.64</ele>
        <time>2019-05-04T17:56:23Z</time>
      </trkpt>
      <trkpt lat="41.7419640440" lon="2.3686234094">
        <ele>1181.64</ele>
        <time>2019-05-04T17:56:50Z</time>
      </trkpt>
      <trkpt lat="41.7419958953" lon="2.3687948193">
        <ele>1178.55</ele>
        <time>2019-05-04T17:57:15Z</time>
      </trkpt>
      <trkpt lat="41.7420092225" lon="2.3688242398">
        <ele>1178.17</ele>
        <time>2019-05-04T17:57:18Z</time>
      </trkpt>
      <trkpt lat="41.7419927940" lon="2.3690303508">
        <ele>1176.82</ele>
        <time>2019-05-04T17:57:32Z</time>
      </trkpt>
      <trkpt lat="41.7419745214" lon="2.3691870086">
        <ele>1175.50</ele>
        <time>2019-05-04T17:57:49Z</time>
      </trkpt>
      <trkpt lat="41.7419925425" lon="2.3690741882">
        <ele>1175.48</ele>
        <time>2019-05-04T17:58:11Z</time>
      </trkpt>
      <trkpt lat="41.7420120724" lon="2.3688251618">
        <ele>1177.34</ele>
        <time>2019-05-04T17:58:37Z</time>
      </trkpt>
      <trkpt lat="41.7421043571" lon="2.3687088210">
        <ele>1177.20</ele>
        <time>2019-05-04T17:59:00Z</time>
      </trkpt>
      <trkpt lat="41.7421690654" lon="2.3685385846">
        <ele>1178.81</ele>
        <time>2019-05-04T17:59:17Z</time>
      </trkpt>
      <trkpt lat="41.7422908545" lon="2.3684386723">
        <ele>1180.80</ele>
        <time>2019-05-04T17:59:39Z</time>
      </trkpt>
      <trkpt lat="41.7424682155" lon="2.3682945874">
        <ele>1183.66</ele>
        <time>2019-05-04T18:00:03Z</time>
      </trkpt>
      <trkpt lat="41.7425688822" lon="2.3681805097">
        <ele>1185.64</ele>
        <time>2019-05-04T18:00:22Z</time>
      </trkpt>
      <trkpt lat="41.7426749971" lon="2.3680992890">
        <ele>1186.44</ele>
        <time>2019-05-04T18:00:39Z</time>
      </trkpt>
      <trkpt lat="41.7427607439" lon="2.3680103570">
        <ele>1186.99</ele>
        <time>2019-05-04T18:01:02Z</time>
      </trkpt>
      <trkpt lat="41.7428811081" lon="2.3679034878">
        <ele>1187.65</ele>
        <time>2019-05-04T18:01:22Z</time>
      </trkpt>
      <trkpt lat="41.7430220079" lon="2.3678452335">
        <ele>1188.87</ele>
        <time>2019-05-04T18:01:40Z</time>
      </trkpt>
      <trkpt lat="41.7430941761" lon="2.3678620812">
        <ele>1188.87</ele>
        <time>2019-05-04T18:01:48Z</time>
      </trkpt>
      <trkpt lat="41.7432649154" lon="2.3679091875">
        <ele>1188.76</ele>
        <time>2019-05-04T18:02:05Z</time>
      </trkpt>
      <trkpt lat="41.7434494011" lon="2.3679265380">
        <ele>1190.05</ele>
        <time>2019-05-04T18:02:22Z</time>
      </trkpt>
      <trkpt lat="41.7434619740" lon="2.3679315671">
        <ele>1190.04</ele>
        <time>2019-05-04T18:02:23Z</time>
      </trkpt>
      <trkpt lat="41.7435022071" lon="2.3679469898">
        <ele>1190.26</ele>
        <time>2019-05-04T18:02:53Z</time>
      </trkpt>
      <trkpt lat="41.7435521632" lon="2.3679508455">
        <ele>1189.54</ele>
        <time>2019-05-04T18:03:09Z</time>
      </trkpt>
      <trkpt lat="41.7436284386" lon="2.3679128755">
        <ele>1188.06</ele>
        <time>2019-05-04T18:03:30Z</time>
      </trkpt>
      <trkpt lat="41.7436877824" lon="2.3679162282">
        <ele>1184.96</ele>
        <time>2019-05-04T18:03:50Z</time>
      </trkpt>
      <trkpt lat="41.7437655665" lon="2.3678614944">
        <ele>1182.41</ele>
        <time>2019-05-04T18:04:11Z</time>
      </trkpt>
      <trkpt lat="41.7438041233" lon="2.3679067567">
        <ele>1179.37</ele>
        <time>2019-05-04T18:04:34Z</time>
      </trkpt>
      <trkpt lat="41.7438515648" lon="2.3679413740">
        <ele>1176.56</ele>
        <time>2019-05-04T18:04:58Z</time>
      </trkpt>
      <trkpt lat="41.7439002637" lon="2.3679593112">
        <ele>1174.97</ele>
        <time>2019-05-04T18:05:19Z</time>
      </trkpt>
      <trkpt lat="41.7439373955" lon="2.3679512646">
        <ele>1172.29</ele>
        <time>2019-05-04T18:05:40Z</time>
      </trkpt>
      <trkpt lat="41.7439756170" lon="2.3680030648">
        <ele>1169.72</ele>
        <time>2019-05-04T18:06:03Z</time>
      </trkpt>
      <trkpt lat="41.7440511379" lon="2.3680229299">
        <ele>1166.82</ele>
        <time>2019-05-04T18:06:26Z</time>
      </trkpt>
      <trkpt lat="41.7441430874" lon="2.3680695333">
        <ele>1164.01</ele>
        <time>2019-05-04T18:06:51Z</time>
      </trkpt>
      <trkpt lat="41.7442225479" lon="2.3680768255">
        <ele>1161.65</ele>
        <time>2019-05-04T18:07:10Z</time>
      </trkpt>
      <trkpt lat="41.7442979850" lon="2.3680803459">
        <ele>1159.76</ele>
        <time>2019-05-04T18:07:26Z</time>
      </trkpt>
      <trkpt lat="41.7444159184" lon="2.3681546934">
        <ele>1156.94</ele>
        <time>2019-05-04T18:07:50Z</time>
      </trkpt>
      <trkpt lat="41.7445319239" lon="2.3681550287">
        <ele>1155.89</ele>
        <time>2019-05-04T18:08:13Z</time>
      </trkpt>
      <trkpt lat="41.7446685489" lon="2.3681971896">
        <ele>1155.14</ele>
        <time>2019-05-04T18:08:34Z</time>
      </trkpt>
      <trkpt lat="41.7447672039" lon="2.3682718724">
        <ele>1152.83</ele>
        <time>2019-05-04T18:08:54Z</time>
      </trkpt>
      <trkpt lat="41.7448647693" lon="2.3683236726">
        <ele>1150.44</ele>
        <time>2019-05-04T18:09:12Z</time>
      </trkpt>
      <trkpt lat="41.7449534498" lon="2.3683779873">
        <ele>1149.05</ele>
        <time>2019-05-04T18:09:28Z</time>
      </trkpt>
      <trkpt lat="41.7450116202" lon="2.3683894705">
        <ele>1148.51</ele>
        <time>2019-05-04T18:09:44Z</time>
      </trkpt>
      <trkpt lat="41.7450490035" lon="2.3683820944">
        <ele>1146.70</ele>
        <time>2019-05-04T18:10:06Z</time>
      </trkpt>
      <trkpt lat="41.7451109458" lon="2.3684085812">
        <ele>1143.88</ele>
        <time>2019-05-04T18:10:31Z</time>
      </trkpt>
      <trkpt lat="41.7452347465" lon="2.3683372512">
        <ele>1141.04</ele>
        <time>2019-05-04T18:10:52Z</time>
      </trkpt>
      <trkpt lat="41.7453498300" lon="2.3682897259">
        <ele>1138.71</ele>
        <time>2019-05-04T18:11:15Z</time>
      </trkpt>
      <trkpt lat="41.7454428691" lon="2.3682793323">
        <ele>1136.31</ele>
        <time>2019-05-04T18:11:38Z</time>
      </trkpt>
      <trkpt lat="41.7455372494" lon="2.3682818469">
        <ele>1133.74</ele>
        <time>2019-05-04T18:12:03Z</time>
      </trkpt>
      <trkpt lat="41.7455416080" lon="2.3682809249">
        <ele>1133.73</ele>
        <time>2019-05-04T18:12:04Z</time>
      </trkpt>
      <trkpt lat="41.7456875369" lon="2.3682388477">
        <ele>1131.87</ele>
        <time>2019-05-04T18:12:28Z</time>
      </trkpt>
      <trkpt lat="41.7457597051" lon="2.3682451341">
        <ele>1129.93</ele>
        <time>2019-05-04T18:12:53Z</time>
      </trkpt>
      <trkpt lat="41.7459343839" lon="2.3682504985">
        <ele>1127.66</ele>
        <time>2019-05-04T18:13:14Z</time>
      </trkpt>
      <trkpt lat="41.7460520659" lon="2.3683100101">
        <ele>1125.06</ele>
        <time>2019-05-04T18:13:34Z</time>
      </trkpt>
      <trkpt lat="41.7461630423" lon="2.3683714494">
        <ele>1122.30</ele>
        <time>2019-05-04T18:13:55Z</time>
      </trkpt>
      <trkpt lat="41.7462931294" lon="2.3684228305">
        <ele>1119.42</ele>
        <time>2019-05-04T18:14:19Z</time>
      </trkpt>
      <trkpt lat="41.7463948019" lon="2.3684775643">
        <ele>1117.09</ele>
        <time>2019-05-04T18:14:39Z</time>
      </trkpt>
      <trkpt lat="41.7465247214" lon="2.3684798274">
        <ele>1115.73</ele>
        <time>2019-05-04T18:15:00Z</time>
      </trkpt>
      <trkpt lat="41.7466419004" lon="2.3685343936">
        <ele>1113.66</ele>
        <time>2019-05-04T18:15:22Z</time>
      </trkpt>
      <trkpt lat="41.7467739992" lon="2.3686229903">
        <ele>1110.94</ele>
        <time>2019-05-04T18:15:44Z</time>
      </trkpt>
      <trkpt lat="41.7468573991" lon="2.3687325418">
        <ele>1108.04</ele>
        <time>2019-05-04T18:16:04Z</time>
      </trkpt>
      <trkpt lat="41.7469578143" lon="2.3688115831">
        <ele>1105.46</ele>
        <time>2019-05-04T18:16:26Z</time>
      </trkpt>
      <trkpt lat="41.7470373586" lon="2.3689307738">
        <ele>1103.80</ele>
        <time>2019-05-04T18:16:48Z</time>
      </trkpt>
      <trkpt lat="41.7470958643" lon="2.3690258246">
        <ele>1102.05</ele>
        <time>2019-05-04T18:17:05Z</time>
      </trkpt>
      <trkpt lat="41.7471356783" lon="2.3691401538">
        <ele>1099.35</ele>
        <time>2019-05-04T18:17:25Z</time>
      </trkpt>
      <trkpt lat="41.7472183239" lon="2.3692249786">
        <ele>1097.12</ele>
        <time>2019-05-04T18:17:46Z</time>
      </trkpt>
      <trkpt lat="41.7473106924" lon="2.3692932073">
        <ele>1094.03</ele>
        <time>2019-05-04T18:18:08Z</time>
      </trkpt>
      <trkpt lat="41.7474026419" lon="2.3693641182">
        <ele>1091.47</ele>
        <time>2019-05-04T18:18:31Z</time>
      </trkpt>
      <trkpt lat="41.7475021351" lon="2.3693613522">
        <ele>1089.31</ele>
        <time>2019-05-04T18:18:51Z</time>
      </trkpt>
      <trkpt lat="41.7475986946" lon="2.3693403136">
        <ele>1086.91</ele>
        <time>2019-05-04T18:19:14Z</time>
      </trkpt>
      <trkpt lat="41.7477027979" lon="2.3693878390">
        <ele>1084.25</ele>
        <time>2019-05-04T18:19:40Z</time>
      </trkpt>
      <trkpt lat="41.7478451226" lon="2.3694590013">
        <ele>1081.38</ele>
        <time>2019-05-04T18:20:03Z</time>
      </trkpt>
      <trkpt lat="41.7479043826" lon="2.3694485240">
        <ele>1079.66</ele>
        <time>2019-05-04T18:20:19Z</time>
      </trkpt>
      <trkpt lat="41.7479183804" lon="2.3694578279">
        <ele>1079.31</ele>
        <time>2019-05-04T18:20:42Z</time>
      </trkpt>
      <trkpt lat="41.7479417659" lon="2.3694313411">
        <ele>1078.87</ele>
        <time>2019-05-04T18:21:09Z</time>
      </trkpt>
      <trkpt lat="41.7479702644" lon="2.3693895154">
        <ele>1076.62</ele>
        <time>2019-05-04T18:21:31Z</time>
      </trkpt>
      <trkpt lat="41.7480147723" lon="2.3693199456">
        <ele>1074.69</ele>
        <time>2019-05-04T18:21:53Z</time>
      </trkpt>
      <trkpt lat="41.7480819952" lon="2.3693306744">
        <ele>1072.19</ele>
        <time>2019-05-04T18:22:14Z</time>
      </trkpt>
      <trkpt lat="41.7481321190" lon="2.3693538085">
        <ele>1069.07</ele>
        <time>2019-05-04T18:22:37Z</time>
      </trkpt>
      <trkpt lat="41.7482235655" lon="2.3694356158">
        <ele>1066.11</ele>
        <time>2019-05-04T18:22:59Z</time>
      </trkpt>
      <trkpt lat="41.7482874356" lon="2.3695145734">
        <ele>1064.09</ele>
        <time>2019-05-04T18:23:19Z</time>
      </trkpt>
      <trkpt lat="41.7483189516" lon="2.3695980571">
        <ele>1061.43</ele>
        <time>2019-05-04T18:23:41Z</time>
      </trkpt>
      <trkpt lat="41.7484179419" lon="2.3696980532">
        <ele>1059.26</ele>
        <time>2019-05-04T18:24:01Z</time>
      </trkpt>
      <trkpt lat="41.7485510465" lon="2.3697371129">
        <ele>1057.15</ele>
        <time>2019-05-04T18:24:18Z</time>
      </trkpt>
      <trkpt lat="41.7486191075" lon="2.3698314093">
        <ele>1055.04</ele>
        <time>2019-05-04T18:24:36Z</time>
      </trkpt>
      <trkpt lat="41.7486300878" lon="2.3698485084">
        <ele>1054.79</ele>
        <time>2019-05-04T18:24:38Z</time>
      </trkpt>
      <trkpt lat="41.7486537248" lon="2.3698797729">
        <ele>1054.29</ele>
        <time>2019-05-04T18:24:41Z</time>
      </trkpt>
      <trkpt lat="41.7487728316" lon="2.3700474110">
        <ele>1051.91</ele>
        <time>2019-05-04T18:25:01Z</time>
      </trkpt>
      <trkpt lat="41.7488036770" lon="2.3702244367">
        <ele>1049.54</ele>
        <time>2019-05-04T18:25:21Z</time>
      </trkpt>
      <trkpt lat="41.7488607578" lon="2.3703116924">
        <ele>1047.69</ele>
        <time>2019-05-04T18:25:33Z</time>
      </trkpt>
      <trkpt lat="41.7489864863" lon="2.3703586310">
        <ele>1045.67</ele>
        <time>2019-05-04T18:25:52Z</time>
      </trkpt>
      <trkpt lat="41.7491113767" lon="2.3704018816">
        <ele>1044.64</ele>
        <time>2019-05-04T18:26:07Z</time>
      </trkpt>
      <trkpt lat="41.7492513545" lon="2.3705116007">
        <ele>1042.73</ele>
        <time>2019-05-04T18:26:25Z</time>
      </trkpt>
      <trkpt lat="41.7493308987" lon="2.3705791589">
        <ele>1040.96</ele>
        <time>2019-05-04T18:26:43Z</time>
      </trkpt>
      <trkpt lat="41.7494537774" lon="2.3706266005">
        <ele>1039.96</ele>
        <time>2019-05-04T18:27:01Z</time>
      </trkpt>
      <trkpt lat="41.7495453916" lon="2.3707918916">
        <ele>1037.14</ele>
        <time>2019-05-04T18:27:20Z</time>
      </trkpt>
      <trkpt lat="41.7495733034" lon="2.3708128463">
        <ele>1034.96</ele>
        <time>2019-05-04T18:27:39Z</time>
      </trkpt>
      <trkpt lat="41.7496036459" lon="2.3708239943">
        <ele>1033.93</ele>
        <time>2019-05-04T18:27:58Z</time>
      </trkpt>
      <trkpt lat="41.7496858723" lon="2.3709021136">
        <ele>1032.52</ele>
        <time>2019-05-04T18:28:17Z</time>
      </trkpt>
      <trkpt lat="41.7497810908" lon="2.3710103240">
        <ele>1031.42</ele>
        <time>2019-05-04T18:28:33Z</time>
      </trkpt>
      <trkpt lat="41.7498120200" lon="2.3710868508">
        <ele>1029.76</ele>
        <time>2019-05-04T18:28:53Z</time>
      </trkpt>
      <trkpt lat="41.7498647422" lon="2.3711714242">
        <ele>1027.93</ele>
        <time>2019-05-04T18:29:12Z</time>
      </trkpt>
      <trkpt lat="41.7499478906" lon="2.3711389024">
        <ele>1027.40</ele>
        <time>2019-05-04T18:29:29Z</time>
      </trkpt>
      <trkpt lat="41.7499991041" lon="2.3711607791">
        <ele>1025.62</ele>
        <time>2019-05-04T18:29:49Z</time>
      </trkpt>
      <trkpt lat="41.7500624713" lon="2.3711952288">
        <ele>1023.53</ele>
        <time>2019-05-04T18:30:11Z</time>
      </trkpt>
      <trkpt lat="41.7500632256" lon="2.3712481186">
        <ele>1021.36</ele>
        <time>2019-05-04T18:30:35Z</time>
      </trkpt>
      <trkpt lat="41.7501519062" lon="2.3713885155">
        <ele>1019.34</ele>
        <time>2019-05-04T18:30:57Z</time>
      </trkpt>
      <trkpt lat="41.7502577696" lon="2.3715387192">
        <ele>1017.44</ele>
        <time>2019-05-04T18:31:20Z</time>
      </trkpt>
      <trkpt lat="41.7503332067" lon="2.3716075346">
        <ele>1015.73</ele>
        <time>2019-05-04T18:31:41Z</time>
      </trkpt>
      <trkpt lat="41.7504395731" lon="2.3717061896">
        <ele>1014.04</ele>
        <time>2019-05-04T18:32:01Z</time>
      </trkpt>
      <trkpt lat="41.7505248170" lon="2.3717822973">
        <ele>1011.78</ele>
        <time>2019-05-04T18:32:22Z</time>
      </trkpt>
      <trkpt lat="41.7506041098" lon="2.3718739953">
        <ele>1009.44</ele>
        <time>2019-05-04T18:32:41Z</time>
      </trkpt>
      <trkpt lat="41.7506626993" lon="2.3719768412">
        <ele>1006.60</ele>
        <time>2019-05-04T18:33:02Z</time>
      </trkpt>
      <trkpt lat="41.7507638689" lon="2.3720532842">
        <ele>1004.52</ele>
        <time>2019-05-04T18:33:21Z</time>
      </trkpt>
      <trkpt lat="41.7508921959" lon="2.3721965309">
        <ele>1002.81</ele>
        <time>2019-05-04T18:33:41Z</time>
      </trkpt>
      <trkpt lat="41.7509828042" lon="2.3723729700">
        <ele>999.86</ele>
        <time>2019-05-04T18:34:02Z</time>
      </trkpt>
      <trkpt lat="41.7510019988" lon="2.3723875545">
        <ele>999.67</ele>
        <time>2019-05-04T18:34:04Z</time>
      </trkpt>
      <trkpt lat="41.7510706466" lon="2.3724130355">
        <ele>999.20</ele>
        <time>2019-05-04T18:34:11Z</time>
      </trkpt>
      <trkpt lat="41.7511366121" lon="2.3725510854">
        <ele>998.81</ele>
        <time>2019-05-04T18:34:26Z</time>
      </trkpt>
      <trkpt lat="41.7512656935" lon="2.3726624809">
        <ele>997.83</ele>
        <time>2019-05-04T18:34:46Z</time>
      </trkpt>
      <trkpt lat="41.7513380293" lon="2.3727621417">
        <ele>995.04</ele>
        <time>2019-05-04T18:35:10Z</time>
      </trkpt>
      <trkpt lat="41.7514895741" lon="2.3729434423">
        <ele>992.66</ele>
        <time>2019-05-04T18:35:30Z</time>
      </trkpt>
      <trkpt lat="41.7515283823" lon="2.3729668278">
        <ele>992.44</ele>
        <time>2019-05-04T18:35:33Z</time>
      </trkpt>
      <trkpt lat="41.7516468186" lon="2.3731055483">
        <ele>991.87</ele>
        <time>2019-05-04T18:35:48Z</time>
      </trkpt>
      <trkpt lat="41.7516465671" lon="2.3731275089">
        <ele>991.67</ele>
        <time>2019-05-04T18:35:50Z</time>
      </trkpt>
      <trkpt lat="41.7515848763" lon="2.3732020240">
        <ele>990.42</ele>
        <time>2019-05-04T18:36:07Z</time>
      </trkpt>
      <trkpt lat="41.7516519316" lon="2.3732378148">
        <ele>989.96</ele>
        <time>2019-05-04T18:36:26Z</time>
      </trkpt>
      <trkpt lat="41.7516971938" lon="2.3732997570">
        <ele>988.28</ele>
        <time>2019-05-04T18:36:46Z</time>
      </trkpt>
      <trkpt lat="41.7517473176" lon="2.3733124975">
        <ele>986.50</ele>
        <time>2019-05-04T18:37:05Z</time>
      </trkpt>
      <trkpt lat="41.7517815996" lon="2.3734164331">
        <ele>984.60</ele>
        <time>2019-05-04T18:37:27Z</time>
      </trkpt>
      <trkpt lat="41.7517956812" lon="2.3734954745">
        <ele>982.86</ele>
        <time>2019-05-04T18:37:48Z</time>
      </trkpt>
      <trkpt lat="41.7518191505" lon="2.3735399824">
        <ele>980.60</ele>
        <time>2019-05-04T18:38:02Z</time>
      </trkpt>
      <trkpt lat="41.7518760636" lon="2.3736347817">
        <ele>978.01</ele>
        <time>2019-05-04T18:38:26Z</time>
      </trkpt>
      <trkpt lat="41.7518543545" lon="2.3737081233">
        <ele>975.24</ele>
        <time>2019-05-04T18:38:49Z</time>
      </trkpt>
      <trkpt lat="41.7518642452" lon="2.3737838957">
        <ele>972.97</ele>
        <time>2019-05-04T18:39:13Z</time>
      </trkpt>
      <trkpt lat="41.7518993653" lon="2.3738672119">
        <ele>969.95</ele>
        <time>2019-05-04T18:39:35Z</time>
      </trkpt>
      <trkpt lat="41.7519476451" lon="2.3739013262">
        <ele>967.85</ele>
        <time>2019-05-04T18:40:02Z</time>
      </trkpt>
      <trkpt lat="41.7520024627" lon="2.3739138152">
        <ele>966.05</ele>
        <time>2019-05-04T18:40:24Z</time>
      </trkpt>
      <trkpt lat="41.7520279437" lon="2.3739936948">
        <ele>963.33</ele>
        <time>2019-05-04T18:40:50Z</time>
      </trkpt>
      <trkpt lat="41.7520761397" lon="2.3740501050">
        <ele>960.34</ele>
        <time>2019-05-04T18:41:11Z</time>
      </trkpt>
      <trkpt lat="41.7521484755" lon="2.3740733229">
        <ele>957.27</ele>
        <time>2019-05-04T18:41:29Z</time>
      </trkpt>
      <trkpt lat="41.7522579432" lon="2.3739528749">
        <ele>955.71</ele>
        <time>2019-05-04T18:41:48Z</time>
      </trkpt>
      <trkpt lat="41.7523631360" lon="2.3738017492">
        <ele>952.55</ele>
        <time>2019-05-04T18:42:10Z</time>
      </trkpt>
      <trkpt lat="41.7524316162" lon="2.3736454267">
        <ele>950.27</ele>
        <time>2019-05-04T18:42:32Z</time>
      </trkpt>
      <trkpt lat="41.7525078915" lon="2.3734691553">
        <ele>947.21</ele>
        <time>2019-05-04T18:42:52Z</time>
      </trkpt>
      <trkpt lat="41.7525665648" lon="2.3735780362">
        <ele>944.38</ele>
        <time>2019-05-04T18:43:10Z</time>
      </trkpt>
      <trkpt lat="41.7526414152" lon="2.3736827262">
        <ele>941.13</ele>
        <time>2019-05-04T18:43:30Z</time>
      </trkpt>
      <trkpt lat="41.7526993342" lon="2.3738313373">
        <ele>938.02</ele>
        <time>2019-05-04T18:43:46Z</time>
      </trkpt>
      <trkpt lat="41.7527481169" lon="2.3739338480">
        <ele>934.92</ele>
        <time>2019-05-04T18:44:09Z</time>
      </trkpt>
      <trkpt lat="41.7528176866" lon="2.3740713950">
        <ele>932.51</ele>
        <time>2019-05-04T18:44:31Z</time>
      </trkpt>
      <trkpt lat="41.7528574169" lon="2.3742240295">
        <ele>930.06</ele>
        <time>2019-05-04T18:44:47Z</time>
      </trkpt>
      <trkpt lat="41.7528448440" lon="2.3744374327">
        <ele>927.45</ele>
        <time>2019-05-04T18:45:09Z</time>
      </trkpt>
      <trkpt lat="41.7527847458" lon="2.3745427933">
        <ele>924.42</ele>
        <time>2019-05-04T18:45:31Z</time>
      </trkpt>
      <trkpt lat="41.7527202051" lon="2.3746556975">
        <ele>921.28</ele>
        <time>2019-05-04T18:45:52Z</time>
      </trkpt>
      <trkpt lat="41.7526618671" lon="2.3747491557">
        <ele>918.09</ele>
        <time>2019-05-04T18:46:09Z</time>
      </trkpt>
      <trkpt lat="41.7525557522" lon="2.3748640716">
        <ele>915.06</ele>
        <time>2019-05-04T18:46:30Z</time>
      </trkpt>
      <trkpt lat="41.7525016051" lon="2.3749575298">
        <ele>913.55</ele>
        <time>2019-05-04T18:46:47Z</time>
      </trkpt>
      <trkpt lat="41.7525503039" lon="2.3749676719">
        <ele>913.10</ele>
        <time>2019-05-04T18:46:53Z</time>
      </trkpt>
      <trkpt lat="41.7526491266" lon="2.3749738745">
        <ele>912.15</ele>
        <time>2019-05-04T18:47:09Z</time>
      </trkpt>
      <trkpt lat="41.7528038565" lon="2.3749084119">
        <ele>912.19</ele>
        <time>2019-05-04T18:47:29Z</time>
      </trkpt>
      <trkpt lat="41.7530007474" lon="2.3748996947">
        <ele>911.44</ele>
        <time>2019-05-04T18:47:49Z</time>
      </trkpt>
      <trkpt lat="41.7532356922" lon="2.3749209009">
        <ele>909.89</ele>
        <time>2019-05-04T18:48:11Z</time>
      </trkpt>
      <trkpt lat="41.7533883266" lon="2.3749290314">
        <ele>909.11</ele>
        <time>2019-05-04T18:48:27Z</time>
      </trkpt>
      <trkpt lat="41.7534836289" lon="2.3748963419">
        <ele>908.22</ele>
        <time>2019-05-04T18:48:36Z</time>
      </trkpt>
      <trkpt lat="41.7536675278" lon="2.3749529198">
        <ele>905.78</ele>
        <time>2019-05-04T18:48:52Z</time>
      </trkpt>
      <trkpt lat="41.7538427096" lon="2.3750808276">
        <ele>903.15</ele>
        <time>2019-05-04T18:49:11Z</time>
      </trkpt>
      <trkpt lat="41.7539670970" lon="2.3752016947">
        <ele>901.00</ele>
        <time>2019-05-04T18:49:27Z</time>
      </trkpt>
      <trkpt lat="41.7539343238" lon="2.3753876891">
        <ele>898.87</ele>
        <time>2019-05-04T18:49:45Z</time>
      </trkpt>
      <trkpt lat="41.7538139597" lon="2.3754775431">
        <ele>896.21</ele>
        <time>2019-05-04T18:50:03Z</time>
      </trkpt>
      <trkpt lat="41.7536334973" lon="2.3756164312">
        <ele>894.11</ele>
        <time>2019-05-04T18:50:22Z</time>
      </trkpt>
      <trkpt lat="41.7536135484" lon="2.3756238073">
        <ele>893.87</ele>
        <time>2019-05-04T18:50:24Z</time>
      </trkpt>
      <trkpt lat="41.7534324992" lon="2.3756480310">
        <ele>891.35</ele>
        <time>2019-05-04T18:50:43Z</time>
      </trkpt>
      <trkpt lat="41.7532600835" lon="2.3756629508">
        <ele>889.25</ele>
        <time>2019-05-04T18:51:00Z</time>
      </trkpt>
      <trkpt lat="41.7530822195" lon="2.3756797984">
        <ele>886.89</ele>
        <time>2019-05-04T18:51:19Z</time>
      </trkpt>
      <trkpt lat="41.7529381346" lon="2.3757393938">
        <ele>884.54</ele>
        <time>2019-05-04T18:51:39Z</time>
      </trkpt>
      <trkpt lat="41.7527963128" lon="2.3757844046">
        <ele>883.15</ele>
        <time>2019-05-04T18:51:56Z</time>
      </trkpt>
      <trkpt lat="41.7526058760" lon="2.3757849075">
        <ele>881.09</ele>
        <time>2019-05-04T18:52:19Z</time>
      </trkpt>
      <trkpt lat="41.7523692548" lon="2.3757698201">
        <ele>878.27</ele>
        <time>2019-05-04T18:52:45Z</time>
      </trkpt>
      <trkpt lat="41.7522141058" lon="2.3757373821">
        <ele>875.64</ele>
        <time>2019-05-04T18:53:05Z</time>
      </trkpt>
      <trkpt lat="41.7520784866" lon="2.3757196963">
        <ele>872.56</ele>
        <time>2019-05-04T18:53:24Z</time>
      </trkpt>
      <trkpt lat="41.7520230822" lon="2.3757548165">
        <ele>871.72</ele>
        <time>2019-05-04T18:53:30Z</time>
      </trkpt>
      <trkpt lat="41.7520709429" lon="2.3759196885">
        <ele>869.36</ele>
        <time>2019-05-04T18:53:49Z</time>
      </trkpt>
      <trkpt lat="41.7522353120" lon="2.3760050163">
        <ele>866.35</ele>
        <time>2019-05-04T18:54:12Z</time>
      </trkpt>
      <trkpt lat="41.7523852643" lon="2.3761346843">
        <ele>863.32</ele>
        <time>2019-05-04T18:54:33Z</time>
      </trkpt>
      <trkpt lat="41.7525219731" lon="2.3762552999">
        <ele>860.82</ele>
        <time>2019-05-04T18:54:51Z</time>
      </trkpt>
      <trkpt lat="41.7525363062" lon="2.3762713093">
        <ele>860.60</ele>
        <time>2019-05-04T18:54:53Z</time>
      </trkpt>
      <trkpt lat="41.7527010106" lon="2.3764169868">
        <ele>857.77</ele>
        <time>2019-05-04T18:55:15Z</time>
      </trkpt>
      <trkpt lat="41.7528190278" lon="2.3765495885">
        <ele>855.52</ele>
        <time>2019-05-04T18:55:33Z</time>
      </trkpt>
      <trkpt lat="41.7529753502" lon="2.3766851239">
        <ele>852.57</ele>
        <time>2019-05-04T18:55:56Z</time>
      </trkpt>
      <trkpt lat="41.7531810421" lon="2.3767159693">
        <ele>849.61</ele>
        <time>2019-05-04T18:56:24Z</time>
      </trkpt>
      <trkpt lat="41.7533808667" lon="2.3767536040">
        <ele>846.54</ele>
        <time>2019-05-04T18:56:46Z</time>
      </trkpt>
      <trkpt lat="41.7535966169" lon="2.3768269457">
        <ele>843.53</ele>
        <time>2019-05-04T18:57:10Z</time>
      </trkpt>
      <trkpt lat="41.7537447251" lon="2.3768969346">
        <ele>841.30</ele>
        <time>2019-05-04T18:57:28Z</time>
      </trkpt>
      <trkpt lat="41.7539526802" lon="2.3769542668">
        <ele>839.33</ele>
        <time>2019-05-04T18:57:52Z</time>
      </trkpt>
      <trkpt lat="41.7540034745" lon="2.3769602180">
        <ele>838.89</ele>
        <time>2019-05-04T18:57:57Z</time>
      </trkpt>
      <trkpt lat="41.7541905586" lon="2.3769452982">
        <ele>837.11</ele>
        <time>2019-05-04T18:58:15Z</time>
      </trkpt>
      <trkpt lat="41.7543525808" lon="2.3769380059">
        <ele>835.76</ele>
        <time>2019-05-04T18:58:31Z</time>
      </trkpt>
      <trkpt lat="41.7545182910" lon="2.3768918216">
        <ele>833.74</ele>
        <time>2019-05-04T18:58:50Z</time>
      </trkpt>
      <trkpt lat="41.7546498030" lon="2.3767757323">
        <ele>831.43</ele>
        <time>2019-05-04T18:59:09Z</time>
      </trkpt>
      <trkpt lat="41.7547692452" lon="2.3769177217">
        <ele>828.60</ele>
        <time>2019-05-04T18:59:30Z</time>
      </trkpt>
      <trkpt lat="41.7546960711" lon="2.3770698532">
        <ele>826.06</ele>
        <time>2019-05-04T18:59:48Z</time>
      </trkpt>
      <trkpt lat="41.7545653973" lon="2.3772369046">
        <ele>823.08</ele>
        <time>2019-05-04T19:00:08Z</time>
      </trkpt>
      <trkpt lat="41.7544520739" lon="2.3773820791">
        <ele>820.95</ele>
        <time>2019-05-04T19:00:25Z</time>
      </trkpt>
      <trkpt lat="41.7542846873" lon="2.3775037844">
        <ele>818.48</ele>
        <time>2019-05-04T19:00:46Z</time>
      </trkpt>
      <trkpt lat="41.7542571109" lon="2.3775233980">
        <ele>817.94</ele>
        <time>2019-05-04T19:00:49Z</time>
      </trkpt>
      <trkpt lat="41.7540784925" lon="2.3776002601">
        <ele>815.92</ele>
        <time>2019-05-04T19:01:09Z</time>
      </trkpt>
      <trkpt lat="41.7538912408" lon="2.3776500486">
        <ele>814.36</ele>
        <time>2019-05-04T19:01:30Z</time>
      </trkpt>
      <trkpt lat="41.7537451442" lon="2.3776902817">
        <ele>813.00</ele>
        <time>2019-05-04T19:01:45Z</time>
      </trkpt>
      <trkpt lat="41.7535455711" lon="2.3777580913">
        <ele>811.64</ele>
        <time>2019-05-04T19:02:04Z</time>
      </trkpt>
      <trkpt lat="41.7533286475" lon="2.3778241407">
        <ele>810.37</ele>
        <time>2019-05-04T19:02:24Z</time>
      </trkpt>
      <trkpt lat="41.7531249672" lon="2.3778478615">
        <ele>808.16</ele>
        <time>2019-05-04T19:02:44Z</time>
      </trkpt>
      <trkpt lat="41.7529848218" lon="2.3778321035">
        <ele>806.36</ele>
        <time>2019-05-04T19:03:03Z</time>
      </trkpt>
      <trkpt lat="41.7529430799" lon="2.3778173514">
        <ele>805.46</ele>
        <time>2019-05-04T19:03:26Z</time>
      </trkpt>
      <trkpt lat="41.7527988274" lon="2.3777895235">
        <ele>803.94</ele>
        <time>2019-05-04T19:03:45Z</time>
      </trkpt>
      <trkpt lat="41.7528378870" lon="2.3779418226">
        <ele>801.62</ele>
        <time>2019-05-04T19:04:05Z</time>
      </trkpt>
      <trkpt lat="41.7528861668" lon="2.3780432437">
        <ele>798.56</ele>
        <time>2019-05-04T19:04:23Z</time>
      </trkpt>
      <trkpt lat="41.7529635318" lon="2.3781930283">
        <ele>795.68</ele>
        <time>2019-05-04T19:04:41Z</time>
      </trkpt>
      <trkpt lat="41.7530840635" lon="2.3782913480">
        <ele>794.79</ele>
        <time>2019-05-04T19:04:54Z</time>
      </trkpt>
      <trkpt lat="41.7531277332" lon="2.3783299886">
        <ele>794.55</ele>
        <time>2019-05-04T19:05:12Z</time>
      </trkpt>
      <trkpt lat="41.7531913519" lon="2.3784387857">
        <ele>792.25</ele>
        <time>2019-05-04T19:05:33Z</time>
      </trkpt>
      <trkpt lat="41.7530626059" lon="2.3785339203">
        <ele>789.53</ele>
        <time>2019-05-04T19:05:53Z</time>
      </trkpt>
      <trkpt lat="41.7529134080" lon="2.3785920907">
        <ele>786.93</ele>
        <time>2019-05-04T19:06:17Z</time>
      </trkpt>
      <trkpt lat="41.7528599314" lon="2.3786082678">
        <ele>785.90</ele>
        <time>2019-05-04T19:06:37Z</time>
      </trkpt>
      <trkpt lat="41.7527432553" lon="2.3786385264">
        <ele>783.00</ele>
        <time>2019-05-04T19:06:59Z</time>
      </trkpt>
      <trkpt lat="41.7527753580" lon="2.3788014706">
        <ele>781.16</ele>
        <time>2019-05-04T19:07:15Z</time>
      </trkpt>
      <trkpt lat="41.7528722528" lon="2.3789765686">
        <ele>778.27</ele>
        <time>2019-05-04T19:07:35Z</time>
      </trkpt>
      <trkpt lat="41.7529747635" lon="2.3790784087">
        <ele>775.15</ele>
        <time>2019-05-04T19:07:54Z</time>
      </trkpt>
      <trkpt lat="41.7530695628" lon="2.3791480623">
        <ele>772.71</ele>
        <time>2019-05-04T19:08:12Z</time>
      </trkpt>
      <trkpt lat="41.7532274779" lon="2.3792342283">
        <ele>769.73</ele>
        <time>2019-05-04T19:08:33Z</time>
      </trkpt>
      <trkpt lat="41.7533542123" lon="2.3793687578">
        <ele>766.62</ele>
        <time>2019-05-04T19:08:58Z</time>
      </trkpt>
      <trkpt lat="41.7532309145" lon="2.3794804886">
        <ele>763.68</ele>
        <time>2019-05-04T19:09:20Z</time>
      </trkpt>
      <trkpt lat="41.7530286592" lon="2.3794803210">
        <ele>762.00</ele>
        <time>2019-05-04T19:09:45Z</time>
      </trkpt>
      <trkpt lat="41.7529327702" lon="2.3794775549">
        <ele>758.98</ele>
        <time>2019-05-04T19:10:05Z</time>
      </trkpt>
      <trkpt lat="41.7529376317" lon="2.3794799857">
        <ele>757.39</ele>
        <time>2019-05-04T19:10:42Z</time>
      </trkpt>
      <trkpt lat="41.7529076245" lon="2.3795087356">
        <ele>757.39</ele>
        <time>2019-05-04T19:11:37Z</time>
      </trkpt>
      <trkpt lat="41.7529051099" lon="2.3794985935">
        <ele>757.30</ele>
        <time>2019-05-04T19:12:30Z</time>
      </trkpt>
      <trkpt lat="41.7528412398" lon="2.3795233201">
        <ele>757.14</ele>
        <time>2019-05-04T19:12:56Z</time>
      </trkpt>
      <trkpt lat="41.7527952231" lon="2.3795223143">
        <ele>755.78</ele>
        <time>2019-05-04T19:13:15Z</time>
      </trkpt>
      <trkpt lat="41.7527776212" lon="2.3795466218">
        <ele>755.06</ele>
        <time>2019-05-04T19:13:36Z</time>
      </trkpt>
      <trkpt lat="41.7526698299" lon="2.3795451969">
        <ele>753.35</ele>
        <time>2019-05-04T19:14:02Z</time>
      </trkpt>
      <trkpt lat="41.7525542434" lon="2.3794908822">
        <ele>750.29</ele>
        <time>2019-05-04T19:14:23Z</time>
      </trkpt>
      <trkpt lat="41.7524647247" lon="2.3794220667">
        <ele>748.47</ele>
        <time>2019-05-04T19:14:43Z</time>
      </trkpt>
      <trkpt lat="41.7524876911" lon="2.3795541655">
        <ele>746.31</ele>
        <time>2019-05-04T19:15:00Z</time>
      </trkpt>
      <trkpt lat="41.7526301835" lon="2.3797521461">
        <ele>744.05</ele>
        <time>2019-05-04T19:15:18Z</time>
      </trkpt>
      <trkpt lat="41.7527244799" lon="2.3798574228">
        <ele>743.25</ele>
        <time>2019-05-04T19:15:28Z</time>
      </trkpt>
      <trkpt lat="41.7528643738" lon="2.3799677286">
        <ele>742.24</ele>
        <time>2019-05-04T19:15:42Z</time>
      </trkpt>
      <trkpt lat="41.7530616838" lon="2.3801413178">
        <ele>740.22</ele>
        <time>2019-05-04T19:16:03Z</time>
      </trkpt>
      <trkpt lat="41.7531242128" lon="2.3802140728">
        <ele>739.13</ele>
        <time>2019-05-04T19:16:09Z</time>
      </trkpt>
      <trkpt lat="41.7532778531" lon="2.3802899290">
        <ele>736.65</ele>
        <time>2019-05-04T19:16:26Z</time>
      </trkpt>
      <trkpt lat="41.7534677032" lon="2.3803941999">
        <ele>733.64</ele>
        <time>2019-05-04T19:16:47Z</time>
      </trkpt>
      <trkpt lat="41.7536426336" lon="2.3805314954">
        <ele>731.95</ele>
        <time>2019-05-04T19:17:07Z</time>
      </trkpt>
      <trkpt lat="41.7537536938" lon="2.3807298113">
        <ele>730.24</ele>
        <time>2019-05-04T19:17:27Z</time>
      </trkpt>
      <trkpt lat="41.7538184021" lon="2.3809839506">
        <ele>728.76</ele>
        <time>2019-05-04T19:17:45Z</time>
      </trkpt>
      <trkpt lat="41.7538554501" lon="2.3811766505">
        <ele>727.86</ele>
        <time>2019-05-04T19:17:59Z</time>
      </trkpt>
      <trkpt lat="41.7539363354" lon="2.3814193066">
        <ele>726.58</ele>
        <time>2019-05-04T19:18:16Z</time>
      </trkpt>
      <trkpt lat="41.7540065758" lon="2.3816505633">
        <ele>724.70</ele>
        <time>2019-05-04T19:18:32Z</time>
      </trkpt>
      <trkpt lat="41.7540600523" lon="2.3818553332">
        <ele>723.12</ele>
        <time>2019-05-04T19:18:46Z</time>
      </trkpt>
      <trkpt lat="41.7541313823" lon="2.3820471950">
        <ele>721.77</ele>
        <time>2019-05-04T19:19:00Z</time>
      </trkpt>
      <trkpt lat="41.7541621439" lon="2.3820922058">
        <ele>721.39</ele>
        <time>2019-05-04T19:19:04Z</time>
      </trkpt>
      <trkpt lat="41.7542564403" lon="2.3821988236">
        <ele>719.89</ele>
        <time>2019-05-04T19:19:17Z</time>
      </trkpt>
      <trkpt lat="41.7544075660" lon="2.3823837284">
        <ele>718.79</ele>
        <time>2019-05-04T19:19:36Z</time>
      </trkpt>
      <trkpt lat="41.7545262538" lon="2.3825430684">
        <ele>716.91</ele>
        <time>2019-05-04T19:19:50Z</time>
      </trkpt>
      <trkpt lat="41.7546011880" lon="2.3826630972">
        <ele>715.82</ele>
        <time>2019-05-04T19:20:02Z</time>
      </trkpt>
      <trkpt lat="41.7546056304" lon="2.3826781008">
        <ele>715.75</ele>
        <time>2019-05-04T19:20:03Z</time>
      </trkpt>
      <trkpt lat="41.7546446063" lon="2.3827594891">
        <ele>715.18</ele>
        <time>2019-05-04T19:20:10Z</time>
      </trkpt>
      <trkpt lat="41.7547407467" lon="2.3829322401">
        <ele>714.12</ele>
        <time>2019-05-04T19:20:25Z</time>
      </trkpt>
      <trkpt lat="41.7548232246" lon="2.3830775823">
        <ele>713.27</ele>
        <time>2019-05-04T19:20:38Z</time>
      </trkpt>
      <trkpt lat="41.7549333628" lon="2.3831645865">
        <ele>712.67</ele>
        <time>2019-05-04T19:20:53Z</time>
      </trkpt>
      <trkpt lat="41.7551142443" lon="2.3832638282">
        <ele>709.86</ele>
        <time>2019-05-04T19:21:14Z</time>
      </trkpt>
      <trkpt lat="41.7550476082" lon="2.3833421152">
        <ele>708.09</ele>
        <time>2019-05-04T19:21:28Z</time>
      </trkpt>
      <trkpt lat="41.7549711652" lon="2.3833692726">
        <ele>704.97</ele>
        <time>2019-05-04T19:21:47Z</time>
      </trkpt>
      <trkpt lat="41.7548573390" lon="2.3834091704">
        <ele>703.56</ele>
        <time>2019-05-04T19:22:03Z</time>
      </trkpt>
      <trkpt lat="41.7546743620" lon="2.3834018782">
        <ele>700.63</ele>
        <time>2019-05-04T19:22:22Z</time>
      </trkpt>
      <trkpt lat="41.7545414250" lon="2.3832850344">
        <ele>699.13</ele>
        <time>2019-05-04T19:22:36Z</time>
      </trkpt>
      <trkpt lat="41.7544300295" lon="2.3830883112">
        <ele>696.71</ele>
        <time>2019-05-04T19:22:54Z</time>
      </trkpt>
      <trkpt lat="41.7543386668" lon="2.3832302168">
        <ele>694.15</ele>
        <time>2019-05-04T19:23:13Z</time>
      </trkpt>
      <trkpt lat="41.7543412652" lon="2.3832451366">
        <ele>694.01</ele>
        <time>2019-05-04T19:23:14Z</time>
      </trkpt>
      <trkpt lat="41.7543851864" lon="2.3835095018">
        <ele>691.37</ele>
        <time>2019-05-04T19:23:33Z</time>
      </trkpt>
      <trkpt lat="41.7543991003" lon="2.3836035468">
        <ele>690.47</ele>
        <time>2019-05-04T19:23:40Z</time>
      </trkpt>
      <trkpt lat="41.7544766329" lon="2.3838050477">
        <ele>688.15</ele>
        <time>2019-05-04T19:23:56Z</time>
      </trkpt>
      <trkpt lat="41.7546091508" lon="2.3839417566">
        <ele>685.47</ele>
        <time>2019-05-04T19:24:15Z</time>
      </trkpt>
      <trkpt lat="41.7547541577" lon="2.3840515595">
        <ele>682.28</ele>
        <time>2019-05-04T19:24:33Z</time>
      </trkpt>
      <trkpt lat="41.7548943032" lon="2.3841879331">
        <ele>679.26</ele>
        <time>2019-05-04T19:24:50Z</time>
      </trkpt>
      <trkpt lat="41.7549828999" lon="2.3843808845">
        <ele>676.16</ele>
        <time>2019-05-04T19:25:08Z</time>
      </trkpt>
      <trkpt lat="41.7550554033" lon="2.3846429028">
        <ele>673.12</ele>
        <time>2019-05-04T19:25:29Z</time>
      </trkpt>
      <trkpt lat="41.7551021744" lon="2.3848349322">
        <ele>670.19</ele>
        <time>2019-05-04T19:25:47Z</time>
      </trkpt>
      <trkpt lat="41.7551384680" lon="2.3850158136">
        <ele>667.48</ele>
        <time>2019-05-04T19:26:04Z</time>
      </trkpt>
      <trkpt lat="41.7551564891" lon="2.3851077631">
        <ele>666.31</ele>
        <time>2019-05-04T19:26:12Z</time>
      </trkpt>
      <trkpt lat="41.7552294955" lon="2.3853402771">
        <ele>663.68</ele>
        <time>2019-05-04T19:26:33Z</time>
      </trkpt>
      <trkpt lat="41.7552985623" lon="2.3855227511">
        <ele>661.26</ele>
        <time>2019-05-04T19:26:51Z</time>
      </trkpt>
      <trkpt lat="41.7553128954" lon="2.3855575360">
        <ele>660.88</ele>
        <time>2019-05-04T19:26:54Z</time>
      </trkpt>
      <trkpt lat="41.7554817908" lon="2.3857806623">
        <ele>657.72</ele>
        <time>2019-05-04T19:27:16Z</time>
      </trkpt>
      <trkpt lat="41.7555495165" lon="2.3857965879">
        <ele>657.09</ele>
        <time>2019-05-04T19:27:23Z</time>
      </trkpt>
      <trkpt lat="41.7556734849" lon="2.3856665846">
        <ele>654.58</ele>
        <time>2019-05-04T19:27:39Z</time>
      </trkpt>
      <trkpt lat="41.7557158135" lon="2.3855883814">
        <ele>653.77</ele>
        <time>2019-05-04T19:27:46Z</time>
      </trkpt>
      <trkpt lat="41.7558171507" lon="2.3854287062">
        <ele>651.51</ele>
        <time>2019-05-04T19:28:03Z</time>
      </trkpt>
      <trkpt lat="41.7559104413" lon="2.3852017242">
        <ele>649.59</ele>
        <time>2019-05-04T19:28:23Z</time>
      </trkpt>
      <trkpt lat="41.7560486589" lon="2.3849346768">
        <ele>646.49</ele>
        <time>2019-05-04T19:28:48Z</time>
      </trkpt>
      <trkpt lat="41.7560925800" lon="2.3846597504">
        <ele>644.04</ele>
        <time>2019-05-04T19:29:11Z</time>
      </trkpt>
      <trkpt lat="41.7561706994" lon="2.3844022583">
        <ele>641.34</ele>
        <time>2019-05-04T19:29:34Z</time>
      </trkpt>
      <trkpt lat="41.7562704440" lon="2.3841730971">
        <ele>639.09</ele>
        <time>2019-05-04T19:29:56Z</time>
      </trkpt>
      <trkpt lat="41.7564167082" lon="2.3839700036">
        <ele>636.17</ele>
        <time>2019-05-04T19:30:18Z</time>
      </trkpt>
      <trkpt lat="41.7565159500" lon="2.3837151099">
        <ele>633.17</ele>
        <time>2019-05-04T19:30:40Z</time>
      </trkpt>
      <trkpt lat="41.7565891240" lon="2.3834736273">
        <ele>630.76</ele>
        <time>2019-05-04T19:31:01Z</time>
      </trkpt>
      <trkpt lat="41.7566441931" lon="2.3831556179">
        <ele>628.39</ele>
        <time>2019-05-04T19:31:24Z</time>
      </trkpt>
      <trkpt lat="41.7567522358" lon="2.3828274664">
        <ele>627.41</ele>
        <time>2019-05-04T19:31:48Z</time>
      </trkpt>
      <trkpt lat="41.7568760365" lon="2.3824945372">
        <ele>626.30</ele>
        <time>2019-05-04T19:32:13Z</time>
      </trkpt>
      <trkpt lat="41.7569446843" lon="2.3823194392">
        <ele>625.41</ele>
        <time>2019-05-04T19:32:27Z</time>
      </trkpt>
      <trkpt lat="41.7570103146" lon="2.3821044434">
        <ele>624.71</ele>
        <time>2019-05-04T19:32:44Z</time>
      </trkpt>
      <trkpt lat="41.7570506316" lon="2.3818850052">
        <ele>624.60</ele>
        <time>2019-05-04T19:33:00Z</time>
      </trkpt>
      <trkpt lat="41.7570586782" lon="2.3817970790">
        <ele>624.66</ele>
        <time>2019-05-04T19:33:07Z</time>
      </trkpt>
      <trkpt lat="41.7571004201" lon="2.3815286066">
        <ele>625.49</ele>
        <time>2019-05-04T19:33:27Z</time>
      </trkpt>
      <trkpt lat="41.7571602669" lon="2.3812041432">
        <ele>626.28</ele>
        <time>2019-05-04T19:33:49Z</time>
      </trkpt>
      <trkpt lat="41.7572533060" lon="2.3810481559">
        <ele>627.22</ele>
        <time>2019-05-04T19:34:04Z</time>
      </trkpt>
      <trkpt lat="41.7573066149" lon="2.3809438851">
        <ele>627.51</ele>
        <time>2019-05-04T19:34:12Z</time>
      </trkpt>
      <trkpt lat="41.7573274020" lon="2.3808796797">
        <ele>627.65</ele>
        <time>2019-05-04T19:34:16Z</time>
      </trkpt>
      <trkpt lat="41.7574928608" lon="2.3806557991">
        <ele>627.27</ele>
        <time>2019-05-04T19:34:38Z</time>
      </trkpt>
      <trkpt lat="41.7574809585" lon="2.3806187510">
        <ele>627.20</ele>
        <time>2019-05-04T19:34:39Z</time>
      </trkpt>
      <trkpt lat="41.7576092016" lon="2.3804782704">
        <ele>626.02</ele>
        <time>2019-05-04T19:34:54Z</time>
      </trkpt>
      <trkpt lat="41.7577401269" lon="2.3804381210">
        <ele>623.05</ele>
        <time>2019-05-04T19:35:14Z</time>
      </trkpt>
      <trkpt lat="41.7577828746" lon="2.3804825451">
        <ele>622.63</ele>
        <time>2019-05-04T19:35:44Z</time>
      </trkpt>
      <trkpt lat="41.7580324039" lon="2.3805661127">
        <ele>620.17</ele>
        <time>2019-05-04T19:36:12Z</time>
      </trkpt>
      <trkpt lat="41.7582668457" lon="2.3805051763">
        <ele>618.03</ele>
        <time>2019-05-04T19:36:34Z</time>
      </trkpt>
      <trkpt lat="41.7583106831" lon="2.3804697208">
        <ele>617.70</ele>
        <time>2019-05-04T19:36:38Z</time>
      </trkpt>
      <trkpt lat="41.7584813386" lon="2.3802957125">
        <ele>616.38</ele>
        <time>2019-05-04T19:36:56Z</time>
      </trkpt>
      <trkpt lat="41.7585565243" lon="2.3801360372">
        <ele>615.52</ele>
        <time>2019-05-04T19:37:09Z</time>
      </trkpt>
      <trkpt lat="41.7586035468" lon="2.3800639529">
        <ele>614.83</ele>
        <time>2019-05-04T19:37:15Z</time>
      </trkpt>
      <trkpt lat="41.7587107513" lon="2.3799051996">
        <ele>613.72</ele>
        <time>2019-05-04T19:37:28Z</time>
      </trkpt>
      <trkpt lat="41.7587359808" lon="2.3798684031">
        <ele>613.25</ele>
        <time>2019-05-04T19:37:40Z</time>
      </trkpt>
      <trkpt lat="41.7588107474" lon="2.3796452768">
        <ele>612.26</ele>
        <time>2019-05-04T19:37:59Z</time>
      </trkpt>
      <trkpt lat="41.7589023616" lon="2.3795435205">
        <ele>611.30</ele>
        <time>2019-05-04T19:38:08Z</time>
      </trkpt>
      <trkpt lat="41.7589359730" lon="2.3794778902">
        <ele>610.97</ele>
        <time>2019-05-04T19:38:13Z</time>
      </trkpt>
      <trkpt lat="41.7589519825" lon="2.3794249166">
        <ele>610.48</ele>
        <time>2019-05-04T19:38:17Z</time>
      </trkpt>
      <trkpt lat="41.7590465304" lon="2.3793685064">
        <ele>609.22</ele>
        <time>2019-05-04T19:38:28Z</time>
      </trkpt>
      <trkpt lat="41.7591541540" lon="2.3794761300">
        <ele>606.29</ele>
        <time>2019-05-04T19:38:43Z</time>
      </trkpt>
      <trkpt lat="41.7592163477" lon="2.3796387389">
        <ele>602.97</ele>
        <time>2019-05-04T19:38:59Z</time>
      </trkpt>
      <trkpt lat="41.7592989095" lon="2.3798385635">
        <ele>599.73</ele>
        <time>2019-05-04T19:39:19Z</time>
      </trkpt>
      <trkpt lat="41.7593803816" lon="2.3799925391">
        <ele>596.68</ele>
        <time>2019-05-04T19:39:35Z</time>
      </trkpt>
      <trkpt lat="41.7594640329" lon="2.3801440839">
        <ele>593.68</ele>
        <time>2019-05-04T19:39:51Z</time>
      </trkpt>
      <trkpt lat="41.7595137376" lon="2.3802809604">
        <ele>591.45</ele>
        <time>2019-05-04T19:40:02Z</time>
      </trkpt>
      <trkpt lat="41.7595149111" lon="2.3804296553">
        <ele>588.66</ele>
        <time>2019-05-04T19:40:15Z</time>
      </trkpt>
      <trkpt lat="41.7595546413" lon="2.3805967905">
        <ele>585.49</ele>
        <time>2019-05-04T19:40:32Z</time>
      </trkpt>
      <trkpt lat="41.7596401367" lon="2.3808179889">
        <ele>582.65</ele>
        <time>2019-05-04T19:40:52Z</time>
      </trkpt>
      <trkpt lat="41.7596460041" lon="2.3808453977">
        <ele>582.33</ele>
        <time>2019-05-04T19:40:54Z</time>
      </trkpt>
      <trkpt lat="41.7596551403" lon="2.3809541110">
        <ele>580.79</ele>
        <time>2019-05-04T19:41:02Z</time>
      </trkpt>
      <trkpt lat="41.7596236244" lon="2.3811914027">
        <ele>578.46</ele>
        <time>2019-05-04T19:41:20Z</time>
      </trkpt>
      <trkpt lat="41.7596320063" lon="2.3813440371">
        <ele>576.54</ele>
        <time>2019-05-04T19:41:33Z</time>
      </trkpt>
      <trkpt lat="41.7595874984" lon="2.3815751262">
        <ele>573.27</ele>
        <time>2019-05-04T19:41:52Z</time>
      </trkpt>
      <trkpt lat="41.7595845647" lon="2.3815885372">
        <ele>573.12</ele>
        <time>2019-05-04T19:41:53Z</time>
      </trkpt>
      <trkpt lat="41.7595729139" lon="2.3817929719">
        <ele>571.51</ele>
        <time>2019-05-04T19:42:07Z</time>
      </trkpt>
      <trkpt lat="41.7595275678" lon="2.3819387332">
        <ele>570.04</ele>
        <time>2019-05-04T19:42:18Z</time>
      </trkpt>
      <trkpt lat="41.7595517077" lon="2.3821377195">
        <ele>568.38</ele>
        <time>2019-05-04T19:42:33Z</time>
      </trkpt>
      <trkpt lat="41.7595744226" lon="2.3824261408">
        <ele>565.36</ele>
        <time>2019-05-04T19:42:54Z</time>
      </trkpt>
      <trkpt lat="41.7595724110" lon="2.3824932799">
        <ele>564.62</ele>
        <time>2019-05-04T19:42:59Z</time>
      </trkpt>
      <trkpt lat="41.7595446669" lon="2.3826164100">
        <ele>562.42</ele>
        <time>2019-05-04T19:43:10Z</time>
      </trkpt>
      <trkpt lat="41.7595341895" lon="2.3826468363">
        <ele>561.86</ele>
        <time>2019-05-04T19:43:13Z</time>
      </trkpt>
      <trkpt lat="41.7594868317" lon="2.3827067669">
        <ele>561.37</ele>
        <time>2019-05-04T19:43:17Z</time>
      </trkpt>
      <trkpt lat="41.7594243865" lon="2.3827810306">
        <ele>560.32</ele>
        <time>2019-05-04T19:43:25Z</time>
      </trkpt>
      <trkpt lat="41.7593507096" lon="2.3829029035">
        <ele>559.09</ele>
        <time>2019-05-04T19:43:36Z</time>
      </trkpt>
      <trkpt lat="41.7592892703" lon="2.3829689529">
        <ele>558.26</ele>
        <time>2019-05-04T19:43:44Z</time>
      </trkpt>
      <trkpt lat="41.7592005059" lon="2.3830812704">
        <ele>556.88</ele>
        <time>2019-05-04T19:43:56Z</time>
      </trkpt>
      <trkpt lat="41.7590706702" lon="2.3831594735">
        <ele>554.69</ele>
        <time>2019-05-04T19:44:12Z</time>
      </trkpt>
      <trkpt lat="41.7588792276" lon="2.3831566237">
        <ele>552.36</ele>
        <time>2019-05-04T19:44:33Z</time>
      </trkpt>
      <trkpt lat="41.7587900441" lon="2.3832707014">
        <ele>549.80</ele>
        <time>2019-05-04T19:44:50Z</time>
      </trkpt>
      <trkpt lat="41.7588928901" lon="2.3833551072">
        <ele>548.52</ele>
        <time>2019-05-04T19:45:03Z</time>
      </trkpt>
      <trkpt lat="41.7590394896" lon="2.3834043927">
        <ele>546.48</ele>
        <time>2019-05-04T19:45:16Z</time>
      </trkpt>
      <trkpt lat="41.7591040302" lon="2.3834027164">
        <ele>545.74</ele>
        <time>2019-05-04T19:45:23Z</time>
      </trkpt>
      <trkpt lat="41.7592361290" lon="2.3834091704">
        <ele>544.40</ele>
        <time>2019-05-04T19:45:34Z</time>
      </trkpt>
      <trkpt lat="41.7594462633" lon="2.3834413569">
        <ele>542.54</ele>
        <time>2019-05-04T19:45:50Z</time>
      </trkpt>
      <trkpt lat="41.7596027534" lon="2.3834344838">
        <ele>541.23</ele>
        <time>2019-05-04T19:46:02Z</time>
      </trkpt>
      <trkpt lat="41.7596888356" lon="2.3833954241">
        <ele>540.35</ele>
        <time>2019-05-04T19:46:12Z</time>
      </trkpt>
      <trkpt lat="41.7597838864" lon="2.3833141197">
        <ele>539.41</ele>
        <time>2019-05-04T19:46:22Z</time>
      </trkpt>
      <trkpt lat="41.7598573957" lon="2.3832191527">
        <ele>538.47</ele>
        <time>2019-05-04T19:46:30Z</time>
      </trkpt>
      <trkpt lat="41.7599860579" lon="2.3830478266">
        <ele>536.62</ele>
        <time>2019-05-04T19:46:46Z</time>
      </trkpt>
      <trkpt lat="41.7600184958" lon="2.3830302246">
        <ele>536.20</ele>
        <time>2019-05-04T19:46:50Z</time>
      </trkpt>
      <trkpt lat="41.7600381933" lon="2.3830324877">
        <ele>535.72</ele>
        <time>2019-05-04T19:46:54Z</time>
      </trkpt>
      <trkpt lat="41.7600446474" lon="2.3830655124">
        <ele>535.13</ele>
        <time>2019-05-04T19:46:58Z</time>
      </trkpt>
      <trkpt lat="41.7600360140" lon="2.3831251077">
        <ele>534.63</ele>
        <time>2019-05-04T19:47:02Z</time>
      </trkpt>
      <trkpt lat="41.7600270454" lon="2.3831687775">
        <ele>534.27</ele>
        <time>2019-05-04T19:47:05Z</time>
      </trkpt>
      <trkpt lat="41.7599998880" lon="2.3832006287">
        <ele>533.97</ele>
        <time>2019-05-04T19:47:08Z</time>
      </trkpt>
      <trkpt lat="41.7599203438" lon="2.3833063245">
        <ele>532.71</ele>
        <time>2019-05-04T19:47:18Z</time>
      </trkpt>
      <trkpt lat="41.7598200962" lon="2.3834729567">
        <ele>530.77</ele>
        <time>2019-05-04T19:47:33Z</time>
      </trkpt>
      <trkpt lat="41.7597517837" lon="2.3835975118">
        <ele>529.07</ele>
        <time>2019-05-04T19:47:44Z</time>
      </trkpt>
      <trkpt lat="41.7597187590" lon="2.3837657366">
        <ele>527.28</ele>
        <time>2019-05-04T19:47:56Z</time>
      </trkpt>
      <trkpt lat="41.7597159930" lon="2.3837759625">
        <ele>527.20</ele>
        <time>2019-05-04T19:47:57Z</time>
      </trkpt>
      <trkpt lat="41.7596770171" lon="2.3838505615">
        <ele>526.39</ele>
        <time>2019-05-04T19:48:04Z</time>
      </trkpt>
      <trkpt lat="41.7595854867" lon="2.3839324526">
        <ele>524.60</ele>
        <time>2019-05-04T19:48:16Z</time>
      </trkpt>
      <trkpt lat="41.7595708184" lon="2.3839436844">
        <ele>524.31</ele>
        <time>2019-05-04T19:48:18Z</time>
      </trkpt>
      <trkpt lat="41.7595421523" lon="2.3839504737">
        <ele>523.97</ele>
        <time>2019-05-04T19:48:21Z</time>
      </trkpt>
      <trkpt lat="41.7594429106" lon="2.3840037826">
        <ele>522.74</ele>
        <time>2019-05-04T19:48:31Z</time>
      </trkpt>
      <trkpt lat="41.7594150826" lon="2.3840337899">
        <ele>522.12</ele>
        <time>2019-05-04T19:48:35Z</time>
      </trkpt>
      <trkpt lat="41.7593790404" lon="2.3840500508">
        <ele>521.58</ele>
        <time>2019-05-04T19:48:38Z</time>
      </trkpt>
      <trkpt lat="41.7592995800" lon="2.3840762861">
        <ele>520.42</ele>
        <time>2019-05-04T19:48:45Z</time>
      </trkpt>
      <trkpt lat="41.7591203749" lon="2.3841345403">
        <ele>518.76</ele>
        <time>2019-05-04T19:48:59Z</time>
      </trkpt>
      <trkpt lat="41.7590213008" lon="2.3842077143">
        <ele>517.03</ele>
        <time>2019-05-04T19:49:11Z</time>
      </trkpt>
      <trkpt lat="41.7588662356" lon="2.3843088001">
        <ele>515.17</ele>
        <time>2019-05-04T19:49:27Z</time>
      </trkpt>
      <trkpt lat="41.7588307802" lon="2.3845165875">
        <ele>513.05</ele>
        <time>2019-05-04T19:49:45Z</time>
      </trkpt>
      <trkpt lat="41.7588850949" lon="2.3846716527">
        <ele>511.43</ele>
        <time>2019-05-04T19:49:58Z</time>
      </trkpt>
      <trkpt lat="41.7589464504" lon="2.3849596549">
        <ele>508.86</ele>
        <time>2019-05-04T19:50:19Z</time>
      </trkpt>
      <trkpt lat="41.7589288484" lon="2.3851966951">
        <ele>506.26</ele>
        <time>2019-05-04T19:50:38Z</time>
      </trkpt>
      <trkpt lat="41.7588138487" lon="2.3854883015">
        <ele>503.15</ele>
        <time>2019-05-04T19:51:03Z</time>
      </trkpt>
      <trkpt lat="41.7588014435" lon="2.3855116870">
        <ele>502.78</ele>
        <time>2019-05-04T19:51:05Z</time>
      </trkpt>
      <trkpt lat="41.7585991882" lon="2.3856712785">
        <ele>500.86</ele>
        <time>2019-05-04T19:51:27Z</time>
      </trkpt>
      <trkpt lat="41.7584255151" lon="2.3857020400">
        <ele>499.49</ele>
        <time>2019-05-04T19:51:44Z</time>
      </trkpt>
      <trkpt lat="41.7583473120" lon="2.3857022077">
        <ele>499.16</ele>
        <time>2019-05-04T19:51:51Z</time>
      </trkpt>
      <trkpt lat="41.7581661791" lon="2.3857306223">
        <ele>498.24</ele>
        <time>2019-05-04T19:52:06Z</time>
      </trkpt>
      <trkpt lat="41.7580494191" lon="2.3857934028">
        <ele>497.67</ele>
        <time>2019-05-04T19:52:17Z</time>
      </trkpt>
      <trkpt lat="41.7579210922" lon="2.3860374838">
        <ele>495.97</ele>
        <time>2019-05-04T19:52:38Z</time>
      </trkpt>
      <trkpt lat="41.7580097727" lon="2.3861637991">
        <ele>494.28</ele>
        <time>2019-05-04T19:52:55Z</time>
      </trkpt>
      <trkpt lat="41.7581505887" lon="2.3860610370">
        <ele>492.14</ele>
        <time>2019-05-04T19:53:14Z</time>
      </trkpt>
      <trkpt lat="41.7582845315" lon="2.3859829176">
        <ele>489.85</ele>
        <time>2019-05-04T19:53:32Z</time>
      </trkpt>
      <trkpt lat="41.7585294507" lon="2.3859979212">
        <ele>486.79</ele>
        <time>2019-05-04T19:53:54Z</time>
      </trkpt>
      <trkpt lat="41.7586715240" lon="2.3860443570">
        <ele>484.79</ele>
        <time>2019-05-04T19:54:07Z</time>
      </trkpt>
      <trkpt lat="41.7588639725" lon="2.3861363064">
        <ele>482.49</ele>
        <time>2019-05-04T19:54:25Z</time>
      </trkpt>
      <trkpt lat="41.7589362245" lon="2.3861711752">
        <ele>481.43</ele>
        <time>2019-05-04T19:54:33Z</time>
      </trkpt>
      <trkpt lat="41.7591015156" lon="2.3862199578">
        <ele>479.60</ele>
        <time>2019-05-04T19:54:49Z</time>
      </trkpt>
      <trkpt lat="41.7593110632" lon="2.3863044474">
        <ele>476.68</ele>
        <time>2019-05-04T19:55:11Z</time>
      </trkpt>
      <trkpt lat="41.7595193535" lon="2.3863612767">
        <ele>473.74</ele>
        <time>2019-05-04T19:55:30Z</time>
      </trkpt>
      <trkpt lat="41.7597051803" lon="2.3863816448">
        <ele>471.22</ele>
        <time>2019-05-04T19:55:48Z</time>
      </trkpt>
      <trkpt lat="41.7598733213" lon="2.3863570020">
        <ele>468.98</ele>
        <time>2019-05-04T19:56:05Z</time>
      </trkpt>
      <trkpt lat="41.7600407917" lon="2.3864329420">
        <ele>466.58</ele>
        <time>2019-05-04T19:56:25Z</time>
      </trkpt>
      <trkpt lat="41.7600422166" lon="2.3865576647">
        <ele>465.43</ele>
        <time>2019-05-04T19:56:35Z</time>
      </trkpt>
      <trkpt lat="41.7598801944" lon="2.3867102154">
        <ele>462.84</ele>
        <time>2019-05-04T19:56:55Z</time>
      </trkpt>
      <trkpt lat="41.7596949544" lon="2.3868283164">
        <ele>460.04</ele>
        <time>2019-05-04T19:57:17Z</time>
      </trkpt>
      <trkpt lat="41.7595141567" lon="2.3869290669">
        <ele>456.99</ele>
        <time>2019-05-04T19:57:37Z</time>
      </trkpt>
      <trkpt lat="41.7593315151" lon="2.3870307393">
        <ele>454.28</ele>
        <time>2019-05-04T19:57:56Z</time>
      </trkpt>
      <trkpt lat="41.7591119930" lon="2.3870623391">
        <ele>451.50</ele>
        <time>2019-05-04T19:58:18Z</time>
      </trkpt>
      <trkpt lat="41.7589248251" lon="2.3870104551">
        <ele>448.59</ele>
        <time>2019-05-04T19:58:38Z</time>
      </trkpt>
      <trkpt lat="41.7587239109" lon="2.3870322481">
        <ele>445.52</ele>
        <time>2019-05-04T19:58:57Z</time>
      </trkpt>
      <trkpt lat="41.7585964222" lon="2.3871719744">
        <ele>442.92</ele>
        <time>2019-05-04T19:59:15Z</time>
      </trkpt>
      <trkpt lat="41.7585454602" lon="2.3872470763">
        <ele>441.65</ele>
        <time>2019-05-04T19:59:22Z</time>
      </trkpt>
      <trkpt lat="41.7584975995" lon="2.3873749841">
        <ele>440.17</ele>
        <time>2019-05-04T19:59:31Z</time>
      </trkpt>
      <trkpt lat="41.7584468052" lon="2.3876288719">
        <ele>437.65</ele>
        <time>2019-05-04T19:59:50Z</time>
      </trkpt>
      <trkpt lat="41.7583450489" lon="2.3878017068">
        <ele>434.96</ele>
        <time>2019-05-04T20:00:08Z</time>
      </trkpt>
      <trkpt lat="41.7581900675" lon="2.3879192211">
        <ele>431.86</ele>
        <time>2019-05-04T20:00:28Z</time>
      </trkpt>
      <trkpt lat="41.7581713758" lon="2.3880900443">
        <ele>430.07</ele>
        <time>2019-05-04T20:00:45Z</time>
      </trkpt>
      <trkpt lat="41.7582477350" lon="2.3880795669">
        <ele>429.10</ele>
        <time>2019-05-04T20:00:53Z</time>
      </trkpt>
      <trkpt lat="41.7584221624" lon="2.3879405949">
        <ele>425.92</ele>
        <time>2019-05-04T20:01:13Z</time>
      </trkpt>
      <trkpt lat="41.7585870344" lon="2.3878272716">
        <ele>422.95</ele>
        <time>2019-05-04T20:01:32Z</time>
      </trkpt>
      <trkpt lat="41.7587806564" lon="2.3877535108">
        <ele>420.21</ele>
        <time>2019-05-04T20:01:51Z</time>
      </trkpt>
      <trkpt lat="41.7588581052" lon="2.3877518345">
        <ele>418.96</ele>
        <time>2019-05-04T20:01:59Z</time>
      </trkpt>
      <trkpt lat="41.7590258271" lon="2.3878475558">
        <ele>416.41</ele>
        <time>2019-05-04T20:02:16Z</time>
      </trkpt>
      <trkpt lat="41.7592074629" lon="2.3878523335">
        <ele>413.45</ele>
        <time>2019-05-04T20:02:35Z</time>
      </trkpt>
      <trkpt lat="41.7592871748" lon="2.3878288642">
        <ele>412.33</ele>
        <time>2019-05-04T20:02:43Z</time>
      </trkpt>
      <trkpt lat="41.7594485264" lon="2.3877929058">
        <ele>409.89</ele>
        <time>2019-05-04T20:03:01Z</time>
      </trkpt>
      <trkpt lat="41.7596569844" lon="2.3877921514">
        <ele>406.87</ele>
        <time>2019-05-04T20:03:23Z</time>
      </trkpt>
      <trkpt lat="41.7597574834" lon="2.3878157046">
        <ele>405.94</ele>
        <time>2019-05-04T20:03:32Z</time>
      </trkpt>
      <trkpt lat="41.7599326652" lon="2.3878473882">
        <ele>403.41</ele>
        <time>2019-05-04T20:03:50Z</time>
      </trkpt>
      <trkpt lat="41.7600587290" lon="2.3879086599">
        <ele>401.49</ele>
        <time>2019-05-04T20:04:04Z</time>
      </trkpt>
      <trkpt lat="41.7601925042" lon="2.3879918084">
        <ele>399.47</ele>
        <time>2019-05-04T20:04:18Z</time>
      </trkpt>
      <trkpt lat="41.7603038996" lon="2.3879962508">
        <ele>397.85</ele>
        <time>2019-05-04T20:04:29Z</time>
      </trkpt>
      <trkpt lat="41.7603496648" lon="2.3881222308">
        <ele>395.59</ele>
        <time>2019-05-04T20:04:44Z</time>
      </trkpt>
      <trkpt lat="41.7602344975" lon="2.3882544972">
        <ele>394.27</ele>
        <time>2019-05-04T20:04:58Z</time>
      </trkpt>
      <trkpt lat="41.7601610720" lon="2.3883460276">
        <ele>393.57</ele>
        <time>2019-05-04T20:05:10Z</time>
      </trkpt>
      <trkpt lat="41.7600699607" lon="2.3884588480">
        <ele>393.31</ele>
        <time>2019-05-04T20:05:25Z</time>
      </trkpt>
      <trkpt lat="41.7600622494" lon="2.3885565810">
        <ele>393.06</ele>
        <time>2019-05-04T20:05:34Z</time>
      </trkpt>
      <trkpt lat="41.7601001356" lon="2.3885818105">
        <ele>393.00</ele>
        <time>2019-05-04T20:05:38Z</time>
      </trkpt>
      <trkpt lat="41.7602194101" lon="2.3885952216">
        <ele>393.31</ele>
        <time>2019-05-04T20:05:51Z</time>
      </trkpt>
      <trkpt lat="41.7603199929" lon="2.3886086326">
        <ele>393.27</ele>
        <time>2019-05-04T20:05:58Z</time>
      </trkpt>
      <trkpt lat="41.7603691109" lon="2.3885948863">
        <ele>393.42</ele>
        <time>2019-05-04T20:06:01Z</time>
      </trkpt>
      <trkpt lat="41.7604245991" lon="2.3885588441">
        <ele>393.60</ele>
        <time>2019-05-04T20:06:05Z</time>
      </trkpt>
      <trkpt lat="41.7604541034" lon="2.3885646276">
        <ele>393.70</ele>
        <time>2019-05-04T20:06:07Z</time>
      </trkpt>
      <trkpt lat="41.7604994494" lon="2.3885805532">
        <ele>393.78</ele>
        <time>2019-05-04T20:06:10Z</time>
      </trkpt>
      <trkpt lat="41.7606270220" lon="2.3885844927">
        <ele>394.27</ele>
        <time>2019-05-04T20:06:19Z</time>
      </trkpt>
      <trkpt lat="41.7607180495" lon="2.3885670584">
        <ele>395.47</ele>
        <time>2019-05-04T20:06:29Z</time>
      </trkpt>
      <trkpt lat="41.7608415149" lon="2.3885279149">
        <ele>397.58</ele>
        <time>2019-05-04T20:06:46Z</time>
      </trkpt>
      <trkpt lat="41.7610462010" lon="2.3884116579">
        <ele>399.36</ele>
        <time>2019-05-04T20:07:10Z</time>
      </trkpt>
      <trkpt lat="41.7611977458" lon="2.3883566726">
        <ele>402.53</ele>
        <time>2019-05-04T20:07:29Z</time>
      </trkpt>
      <trkpt lat="41.7613761127" lon="2.3883780465">
        <ele>404.86</ele>
        <time>2019-05-04T20:07:47Z</time>
      </trkpt>
      <trkpt lat="41.7616569903" lon="2.3884047009">
        <ele>407.43</ele>
        <time>2019-05-04T20:08:13Z</time>
      </trkpt>
      <trkpt lat="41.7619351856" lon="2.3882461153">
        <ele>408.10</ele>
        <time>2019-05-04T20:08:39Z</time>
      </trkpt>
      <trkpt lat="41.7621959466" lon="2.3882207181">
        <ele>408.03</ele>
        <time>2019-05-04T20:09:05Z</time>
      </trkpt>
      <trkpt lat="41.7622526921" lon="2.3882503062">
        <ele>408.08</ele>
        <time>2019-05-04T20:09:19Z</time>
      </trkpt>
      <trkpt lat="41.7621572223" lon="2.3881917167">
        <ele>411.10</ele>
        <time>2019-05-04T20:09:41Z</time>
      </trkpt>
      <trkpt lat="41.7620775942" lon="2.3882594425">
        <ele>412.98</ele>
        <time>2019-05-04T20:09:58Z</time>
      </trkpt>
      <trkpt lat="41.7619747482" lon="2.3884358816">
        <ele>415.49</ele>
        <time>2019-05-04T20:10:21Z</time>
      </trkpt>
      <trkpt lat="41.7618717346" lon="2.3885686509">
        <ele>415.68</ele>
        <time>2019-05-04T20:10:38Z</time>
      </trkpt>
      <trkpt lat="41.7616882548" lon="2.3886492010">
        <ele>417.86</ele>
        <time>2019-05-04T20:10:59Z</time>
      </trkpt>
      <trkpt lat="41.7615911085" lon="2.3886776157">
        <ele>420.48</ele>
        <time>2019-05-04T20:11:21Z</time>
      </trkpt>
      <trkpt lat="41.7615916114" lon="2.3886921164">
        <ele>420.52</ele>
        <time>2019-05-04T20:11:26Z</time>
      </trkpt>
      <trkpt lat="41.7615802959" lon="2.3887196928">
        <ele>420.69</ele>
        <time>2019-05-04T20:11:56Z</time>
      </trkpt>
      <trkpt lat="41.7617231235" lon="2.3887314275">
        <ele>417.61</ele>
        <time>2019-05-04T20:12:22Z</time>
      </trkpt>
      <trkpt lat="41.7618382908" lon="2.3887194414">
        <ele>416.12</ele>
        <time>2019-05-04T20:12:38Z</time>
      </trkpt>
      <trkpt lat="41.7619605828" lon="2.3886661325">
        <ele>415.54</ele>
        <time>2019-05-04T20:12:55Z</time>
      </trkpt>
      <trkpt lat="41.7619573977" lon="2.3887086287">
        <ele>417.48</ele>
        <time>2019-05-04T20:13:12Z</time>
      </trkpt>
      <trkpt lat="41.7619929370" lon="2.3888147436">
        <ele>419.84</ele>
        <time>2019-05-04T20:13:29Z</time>
      </trkpt>
      <trkpt lat="41.7619571462" lon="2.3889149074">
        <ele>420.86</ele>
        <time>2019-05-04T20:13:41Z</time>
      </trkpt>
      <trkpt lat="41.7619532906" lon="2.3889324255">
        <ele>421.29</ele>
        <time>2019-05-04T20:13:43Z</time>
      </trkpt>
      <trkpt lat="41.7619853094" lon="2.3889894225">
        <ele>422.08</ele>
        <time>2019-05-04T20:13:50Z</time>
      </trkpt>
      <trkpt lat="41.7620516103" lon="2.3892097827">
        <ele>424.35</ele>
        <time>2019-05-04T20:14:13Z</time>
      </trkpt>
      <trkpt lat="41.7620883230" lon="2.3892234452">
        <ele>424.82</ele>
        <time>2019-05-04T20:14:18Z</time>
      </trkpt>
      <trkpt lat="41.7621595692" lon="2.3893961962">
        <ele>427.84</ele>
        <time>2019-05-04T20:14:40Z</time>
      </trkpt>
      <trkpt lat="41.7622744013" lon="2.3894858826">
        <ele>430.79</ele>
        <time>2019-05-04T20:15:02Z</time>
      </trkpt>
      <trkpt lat="41.7624014709" lon="2.3895924166">
        <ele>433.26</ele>
        <time>2019-05-04T20:15:25Z</time>
      </trkpt>
      <trkpt lat="41.7625271156" lon="2.3896400258">
        <ele>436.20</ele>
        <time>2019-05-04T20:15:48Z</time>
      </trkpt>
      <trkpt lat="41.7625649180" lon="2.3896079231">
        <ele>437.09</ele>
        <time>2019-05-04T20:16:13Z</time>
      </trkpt>
      <trkpt lat="41.7627212405" lon="2.3893961124">
        <ele>438.28</ele>
        <time>2019-05-04T20:16:37Z</time>
      </trkpt>
      <trkpt lat="41.7627457995" lon="2.3892631754">
        <ele>438.98</ele>
        <time>2019-05-04T20:16:44Z</time>
      </trkpt>
      <trkpt lat="41.7626958434" lon="2.3890085332">
        <ele>441.40</ele>
        <time>2019-05-04T20:17:05Z</time>
      </trkpt>
      <trkpt lat="41.7626609746" lon="2.3889288213">
        <ele>442.47</ele>
        <time>2019-05-04T20:17:28Z</time>
      </trkpt>
      <trkpt lat="41.7627422791" lon="2.3889546376">
        <ele>445.62</ele>
        <time>2019-05-04T20:17:47Z</time>
      </trkpt>
      <trkpt lat="41.7628111783" lon="2.3889503628">
        <ele>448.81</ele>
        <time>2019-05-04T20:18:05Z</time>
      </trkpt>
      <trkpt lat="41.7628749646" lon="2.3889356107">
        <ele>451.92</ele>
        <time>2019-05-04T20:18:22Z</time>
      </trkpt>
      <trkpt lat="41.7629696801" lon="2.3889211938">
        <ele>454.95</ele>
        <time>2019-05-04T20:18:43Z</time>
      </trkpt>
      <trkpt lat="41.7630581930" lon="2.3889619298">
        <ele>457.08</ele>
        <time>2019-05-04T20:19:06Z</time>
      </trkpt>
      <trkpt lat="41.7630790640" lon="2.3890755884">
        <ele>458.46</ele>
        <time>2019-05-04T20:19:27Z</time>
      </trkpt>
      <trkpt lat="41.7631575186" lon="2.3889751732">
        <ele>461.49</ele>
        <time>2019-05-04T20:19:48Z</time>
      </trkpt>
      <trkpt lat="41.7632386554" lon="2.3889732454">
        <ele>464.21</ele>
        <time>2019-05-04T20:20:09Z</time>
      </trkpt>
      <trkpt lat="41.7632772122" lon="2.3891072720">
        <ele>467.29</ele>
        <time>2019-05-04T20:20:31Z</time>
      </trkpt>
      <trkpt lat="41.7633049563" lon="2.3891827092">
        <ele>470.35</ele>
        <time>2019-05-04T20:20:52Z</time>
      </trkpt>
      <trkpt lat="41.7632665671" lon="2.3892272171">
        <ele>469.06</ele>
        <time>2019-05-04T20:21:18Z</time>
      </trkpt>
      <trkpt lat="41.7633278389" lon="2.3893844616">
        <ele>470.98</ele>
        <time>2019-05-04T20:21:42Z</time>
      </trkpt>
      <trkpt lat="41.7633568402" lon="2.3894956894">
        <ele>474.02</ele>
        <time>2019-05-04T20:22:01Z</time>
      </trkpt>
      <trkpt lat="41.7633659765" lon="2.3896448873">
        <ele>475.29</ele>
        <time>2019-05-04T20:22:25Z</time>
      </trkpt>
      <trkpt lat="41.7634062935" lon="2.3897935823">
        <ele>475.02</ele>
        <time>2019-05-04T20:22:47Z</time>
      </trkpt>
      <trkpt lat="41.7634544894" lon="2.3899877071">
        <ele>476.15</ele>
        <time>2019-05-04T20:23:11Z</time>
      </trkpt>
      <trkpt lat="41.7635191139" lon="2.3900944926">
        <ele>479.23</ele>
        <time>2019-05-04T20:23:32Z</time>
      </trkpt>
      <trkpt lat="41.7635680642" lon="2.3901458737">
        <ele>482.26</ele>
        <time>2019-05-04T20:23:47Z</time>
      </trkpt>
      <trkpt lat="41.7636317667" lon="2.3902501445">
        <ele>485.42</ele>
        <time>2019-05-04T20:24:08Z</time>
      </trkpt>
      <trkpt lat="41.7636651266" lon="2.3903285991">
        <ele>488.20</ele>
        <time>2019-05-04T20:24:24Z</time>
      </trkpt>
      <trkpt lat="41.7637433298" lon="2.3905032780">
        <ele>491.10</ele>
        <time>2019-05-04T20:24:44Z</time>
      </trkpt>
      <trkpt lat="41.7638114747" lon="2.3905865103">
        <ele>492.92</ele>
        <time>2019-05-04T20:25:00Z</time>
      </trkpt>
      <trkpt lat="41.7638533004" lon="2.3906078842">
        <ele>495.62</ele>
        <time>2019-05-04T20:25:22Z</time>
      </trkpt>
      <trkpt lat="41.7638939526" lon="2.3905753624">
        <ele>495.86</ele>
        <time>2019-05-04T20:25:45Z</time>
      </trkpt>
      <trkpt lat="41.7639331799" lon="2.3905641306">
        <ele>496.63</ele>
        <time>2019-05-04T20:26:04Z</time>
      </trkpt>
      <trkpt lat="41.7639843933" lon="2.3905563354">
        <ele>499.04</ele>
        <time>2019-05-04T20:26:24Z</time>
      </trkpt>
      <trkpt lat="41.7640198488" lon="2.3906954750">
        <ele>502.10</ele>
        <time>2019-05-04T20:26:41Z</time>
      </trkpt>
      <trkpt lat="41.7640413065" lon="2.3909155000">
        <ele>505.10</ele>
        <time>2019-05-04T20:27:03Z</time>
      </trkpt>
      <trkpt lat="41.7640487663" lon="2.3911603354">
        <ele>507.09</ele>
        <time>2019-05-04T20:27:22Z</time>
      </trkpt>
      <trkpt lat="41.7640516162" lon="2.3911758419">
        <ele>507.21</ele>
        <time>2019-05-04T20:27:23Z</time>
      </trkpt>
      <trkpt lat="41.7640107125" lon="2.3914209288">
        <ele>507.58</ele>
        <time>2019-05-04T20:27:39Z</time>
      </trkpt>
      <trkpt lat="41.7640881613" lon="2.3916049115">
        <ele>506.41</ele>
        <time>2019-05-04T20:27:57Z</time>
      </trkpt>
      <trkpt lat="41.7640482634" lon="2.3918119445">
        <ele>504.44</ele>
        <time>2019-05-04T20:28:15Z</time>
      </trkpt>
      <trkpt lat="41.7639714014" lon="2.3919318058">
        <ele>504.03</ele>
        <time>2019-05-04T20:28:28Z</time>
      </trkpt>
      <trkpt lat="41.7639246304" lon="2.3919164669">
        <ele>503.89</ele>
        <time>2019-05-04T20:28:34Z</time>
      </trkpt>
      <trkpt lat="41.7638646998" lon="2.3918621521">
        <ele>503.44</ele>
        <time>2019-05-04T20:28:43Z</time>
      </trkpt>
      <trkpt lat="41.7637511250" lon="2.3917602282">
        <ele>503.71</ele>
        <time>2019-05-04T20:28:55Z</time>
      </trkpt>
      <trkpt lat="41.7637423240" lon="2.3917389382">
        <ele>503.74</ele>
        <time>2019-05-04T20:28:57Z</time>
      </trkpt>
      <trkpt lat="41.7637321819" lon="2.3916974477">
        <ele>503.76</ele>
        <time>2019-05-04T20:29:00Z</time>
      </trkpt>
      <trkpt lat="41.7635926232" lon="2.3915614933">
        <ele>503.90</ele>
        <time>2019-05-04T20:29:16Z</time>
      </trkpt>
      <trkpt lat="41.7634471972" lon="2.3914067633">
        <ele>501.83</ele>
        <time>2019-05-04T20:29:35Z</time>
      </trkpt>
      <trkpt lat="41.7633218877" lon="2.3913169932">
        <ele>500.18</ele>
        <time>2019-05-04T20:29:54Z</time>
      </trkpt>
      <trkpt lat="41.7632041220" lon="2.3913103715">
        <ele>499.33</ele>
        <time>2019-05-04T20:30:07Z</time>
      </trkpt>
      <trkpt lat="41.7629458755" lon="2.3913379479">
        <ele>500.38</ele>
        <time>2019-05-04T20:30:31Z</time>
      </trkpt>
      <trkpt lat="41.7627906427" lon="2.3913895804">
        <ele>501.59</ele>
        <time>2019-05-04T20:30:45Z</time>
      </trkpt>
      <trkpt lat="41.7627509125" lon="2.3913985491">
        <ele>501.81</ele>
        <time>2019-05-04T20:30:49Z</time>
      </trkpt>
      <trkpt lat="41.7625653371" lon="2.3914890736">
        <ele>502.40</ele>
        <time>2019-05-04T20:31:06Z</time>
      </trkpt>
      <trkpt lat="41.7624870501" lon="2.3915229365">
        <ele>502.63</ele>
        <time>2019-05-04T20:31:13Z</time>
      </trkpt>
      <trkpt lat="41.7624512594" lon="2.3915417120">
        <ele>502.72</ele>
        <time>2019-05-04T20:31:17Z</time>
      </trkpt>
      <trkpt lat="41.7623896524" lon="2.3915824480">
        <ele>503.04</ele>
        <time>2019-05-04T20:31:23Z</time>
      </trkpt>
      <trkpt lat="41.7622878123" lon="2.3916827794">
        <ele>503.70</ele>
        <time>2019-05-04T20:31:34Z</time>
      </trkpt>
      <trkpt lat="41.7622433044" lon="2.3918049876">
        <ele>504.62</ele>
        <time>2019-05-04T20:31:43Z</time>
      </trkpt>
      <trkpt lat="41.7622301448" lon="2.3918829393">
        <ele>505.11</ele>
        <time>2019-05-04T20:31:48Z</time>
      </trkpt>
      <trkpt lat="41.7621372733" lon="2.3920612223">
        <ele>504.80</ele>
        <time>2019-05-04T20:32:02Z</time>
      </trkpt>
      <trkpt lat="41.7620653566" lon="2.3921514954">
        <ele>504.08</ele>
        <time>2019-05-04T20:32:12Z</time>
      </trkpt>
      <trkpt lat="41.7620030791" lon="2.3922085762">
        <ele>503.60</ele>
        <time>2019-05-04T20:32:19Z</time>
      </trkpt>
      <trkpt lat="41.7618615925" lon="2.3922197241">
        <ele>502.45</ele>
        <time>2019-05-04T20:32:31Z</time>
      </trkpt>
      <trkpt lat="41.7617855687" lon="2.3922524974">
        <ele>502.07</ele>
        <time>2019-05-04T20:32:42Z</time>
      </trkpt>
      <trkpt lat="41.7618291546" lon="2.3923257552">
        <ele>502.35</ele>
        <time>2019-05-04T20:33:05Z</time>
      </trkpt>
      <trkpt lat="41.7618128099" lon="2.3923260905">
        <ele>502.18</ele>
        <time>2019-05-04T20:33:11Z</time>
      </trkpt>
      <trkpt lat="41.7616352811" lon="2.3923226539">
        <ele>503.28</ele>
        <time>2019-05-04T20:33:28Z</time>
      </trkpt>
      <trkpt lat="41.7614300922" lon="2.3922915570">
        <ele>505.28</ele>
        <time>2019-05-04T20:33:46Z</time>
      </trkpt>
      <trkpt lat="41.7612509709" lon="2.3922305368">
        <ele>506.34</ele>
        <time>2019-05-04T20:34:02Z</time>
      </trkpt>
      <trkpt lat="41.7611906212" lon="2.3922203109">
        <ele>506.81</ele>
        <time>2019-05-04T20:34:08Z</time>
      </trkpt>
      <trkpt lat="41.7609973345" lon="2.3923026212">
        <ele>508.00</ele>
        <time>2019-05-04T20:34:26Z</time>
      </trkpt>
      <trkpt lat="41.7608472146" lon="2.3924358096">
        <ele>509.22</ele>
        <time>2019-05-04T20:34:41Z</time>
      </trkpt>
      <trkpt lat="41.7607326340" lon="2.3925513960">
        <ele>509.76</ele>
        <time>2019-05-04T20:34:55Z</time>
      </trkpt>
      <trkpt lat="41.7606804986" lon="2.3926002625">
        <ele>510.02</ele>
        <time>2019-05-04T20:35:01Z</time>
      </trkpt>
      <trkpt lat="41.7605257686" lon="2.3928193655">
        <ele>511.16</ele>
        <time>2019-05-04T20:35:20Z</time>
      </trkpt>
      <trkpt lat="41.7603883054" lon="2.3929597624">
        <ele>510.26</ele>
        <time>2019-05-04T20:35:35Z</time>
      </trkpt>
      <trkpt lat="41.7603663448" lon="2.3929891828">
        <ele>510.13</ele>
        <time>2019-05-04T20:35:37Z</time>
      </trkpt>
      <trkpt lat="41.7602419574" lon="2.3930853233">
        <ele>509.29</ele>
        <time>2019-05-04T20:35:50Z</time>
      </trkpt>
      <trkpt lat="41.7601588927" lon="2.3931776918">
        <ele>508.95</ele>
        <time>2019-05-04T20:36:01Z</time>
      </trkpt>
      <trkpt lat="41.7600236926" lon="2.3933907598">
        <ele>508.24</ele>
        <time>2019-05-04T20:36:24Z</time>
      </trkpt>
      <trkpt lat="41.7599965353" lon="2.3935356829">
        <ele>507.81</ele>
        <time>2019-05-04T20:36:33Z</time>
      </trkpt>
      <trkpt lat="41.7600009777" lon="2.3936031573">
        <ele>507.67</ele>
        <time>2019-05-04T20:36:37Z</time>
      </trkpt>
      <trkpt lat="41.7600554600" lon="2.3937764950">
        <ele>506.90</ele>
        <time>2019-05-04T20:36:52Z</time>
      </trkpt>
      <trkpt lat="41.7601569649" lon="2.3941012938">
        <ele>506.19</ele>
        <time>2019-05-04T20:37:18Z</time>
      </trkpt>
      <trkpt lat="41.7601910792" lon="2.3944398388">
        <ele>507.50</ele>
        <time>2019-05-04T20:37:43Z</time>
      </trkpt>
      <trkpt lat="41.7599970382" lon="2.3944657389">
        <ele>509.26</ele>
        <time>2019-05-04T20:38:01Z</time>
      </trkpt>
      <trkpt lat="41.7597227823" lon="2.3943811655">
        <ele>511.00</ele>
        <time>2019-05-04T20:38:28Z</time>
      </trkpt>
      <trkpt lat="41.7595436610" lon="2.3944965005">
        <ele>511.12</ele>
        <time>2019-05-04T20:38:46Z</time>
      </trkpt>
      <trkpt lat="41.7595212813" lon="2.3945412599">
        <ele>511.30</ele>
        <time>2019-05-04T20:38:50Z</time>
      </trkpt>
      <trkpt lat="41.7593871709" lon="2.3945859354">
        <ele>512.26</ele>
        <time>2019-05-04T20:39:05Z</time>
      </trkpt>
      <trkpt lat="41.7592126597" lon="2.3947974946">
        <ele>510.64</ele>
        <time>2019-05-04T20:39:28Z</time>
      </trkpt>
      <trkpt lat="41.7591782100" lon="2.3948622029">
        <ele>510.51</ele>
        <time>2019-05-04T20:39:34Z</time>
      </trkpt>
    </trkseg>
  </trk>
</gpx>
